<?xml version='1.0' encoding='UTF-8'?><gpx version="1.1" creator="JPX - https://github.com/jenetics/jpx" xmlns="http://www.topografix.com/GPX/1/1"><trk><trkseg><trkpt lat="43.281776481340266" lon="10.751638412463459"><ele>442.00000000000006</ele><time>2026-03-22T10:26:19.999Z</time></trkpt><trkpt lat="43.281767641012735" lon="10.75150675651081"><ele>442.0</ele><time>2026-03-22T10:26:22.999Z</time></trkpt><trkpt lat="43.281789156026306" lon="10.751408228576087"><ele>442.0</ele><time>2026-03-22T10:26:23.999Z</time></trkpt><trkpt lat="43.28181022880825" lon="10.751314597725823"><ele>442.0</ele><time>2026-03-22T10:26:24.999Z</time></trkpt><trkpt lat="43.28181042522589" lon="10.751184295355355"><ele>442.00000000000006</ele><time>2026-03-22T10:26:25.999Z</time></trkpt><trkpt lat="43.281810643751705" lon="10.75107587837277"><ele>442.0</ele><time>2026-03-22T10:26:26.999Z</time></trkpt><trkpt lat="43.281818364866474" lon="10.750975147848033"><ele>441.1666666666667</ele><time>2026-03-22T10:26:27.999Z</time></trkpt><trkpt lat="43.28183312268678" lon="10.750874510661616"><ele>440.33333333333337</ele><time>2026-03-22T10:26:28.999Z</time></trkpt><trkpt lat="43.281846459105935" lon="10.750768197043204"><ele>439.5</ele><time>2026-03-22T10:26:29.999Z</time></trkpt><trkpt lat="43.28182496116335" lon="10.750667084576909"><ele>438.66666666666663</ele><time>2026-03-22T10:26:30.999Z</time></trkpt><trkpt lat="43.28177832179511" lon="10.750560527857456"><ele>437.8333333333333</ele><time>2026-03-22T10:26:31.999Z</time></trkpt><trkpt lat="43.281705334009885" lon="10.750459589137064"><ele>437.0</ele><time>2026-03-22T10:26:32.999Z</time></trkpt><trkpt lat="43.28166218772493" lon="10.750358305629957"><ele>437.0</ele><time>2026-03-22T10:26:33.999Z</time></trkpt><trkpt lat="43.28162354444049" lon="10.750270837415954"><ele>437.00000000000006</ele><time>2026-03-22T10:26:34.999Z</time></trkpt><trkpt lat="43.28158903417349" lon="10.750082351746908"><ele>437.00000000000006</ele><time>2026-03-22T10:26:36.999Z</time></trkpt><trkpt lat="43.28161700067315" lon="10.749996541758229"><ele>437.0</ele><time>2026-03-22T10:26:37.999Z</time></trkpt><trkpt lat="43.28165777122727" lon="10.749860211605121"><ele>437.0</ele><time>2026-03-22T10:26:38.999Z</time></trkpt><trkpt lat="43.281708008134906" lon="10.749706555748274"><ele>436.0</ele><time>2026-03-22T10:26:39.999Z</time></trkpt><trkpt lat="43.2817704790188" lon="10.74956200110916"><ele>435.00000000000006</ele><time>2026-03-22T10:26:40.999Z</time></trkpt><trkpt lat="43.281817273455005" lon="10.749440513164148"><ele>434.00000000000006</ele><time>2026-03-22T10:26:41.999Z</time></trkpt><trkpt lat="43.28187340097388" lon="10.749342820220184"><ele>433.0</ele><time>2026-03-22T10:26:42.999Z</time></trkpt><trkpt lat="43.28190955465841" lon="10.749229731269752"><ele>432.0</ele><time>2026-03-22T10:26:43.999Z</time></trkpt><trkpt lat="43.2819522494483" lon="10.749155371442367"><ele>431.8333333333333</ele><time>2026-03-22T10:26:44.999Z</time></trkpt><trkpt lat="43.28200829033915" lon="10.7490990130521"><ele>431.66666666666663</ele><time>2026-03-22T10:26:45.999Z</time></trkpt><trkpt lat="43.28207372273041" lon="10.749160579468901"><ele>431.5</ele><time>2026-03-22T10:26:46.999Z</time></trkpt><trkpt lat="43.28214837743419" lon="10.749147857934675"><ele>431.3333333333333</ele><time>2026-03-22T10:26:47.999Z</time></trkpt><trkpt lat="43.28223954704654" lon="10.749130898312803"><ele>431.16666666666663</ele><time>2026-03-22T10:26:48.999Z</time></trkpt><trkpt lat="43.282318286369275" lon="10.749088067212554"><ele>431.0</ele><time>2026-03-22T10:26:49.999Z</time></trkpt><trkpt lat="43.28238475493472" lon="10.749043786696287"><ele>430.99999999999994</ele><time>2026-03-22T10:26:50.999Z</time></trkpt><trkpt lat="43.28241647377082" lon="10.748949377234602"><ele>431.0</ele><time>2026-03-22T10:26:51.999Z</time></trkpt><trkpt lat="43.28242617973953" lon="10.748839882718457"><ele>431.0</ele><time>2026-03-22T10:26:52.999Z</time></trkpt><trkpt lat="43.28240475010481" lon="10.748724684899495"><ele>431.0</ele><time>2026-03-22T10:26:53.999Z</time></trkpt><trkpt lat="43.28236604733684" lon="10.748617711590663"><ele>430.99999999999994</ele><time>2026-03-22T10:26:54.999Z</time></trkpt><trkpt lat="43.28232886405762" lon="10.748531902529178"><ele>431.0</ele><time>2026-03-22T10:26:55.999Z</time></trkpt><trkpt lat="43.28232362477918" lon="10.74843957454125"><ele>428.66666666666663</ele><time>2026-03-22T10:26:56.999Z</time></trkpt><trkpt lat="43.282356467205325" lon="10.748363192871961"><ele>426.3333333333333</ele><time>2026-03-22T10:26:57.999Z</time></trkpt><trkpt lat="43.28240245609735" lon="10.748281911919664"><ele>424.0</ele><time>2026-03-22T10:26:58.999Z</time></trkpt><trkpt lat="43.28245999891438" lon="10.74817592509828"><ele>421.66666666666663</ele><time>2026-03-22T10:26:59.999Z</time></trkpt><trkpt lat="43.282507438654285" lon="10.748070380866393"><ele>419.3333333333333</ele><time>2026-03-22T10:27:00.999Z</time></trkpt><trkpt lat="43.28255855296241" lon="10.747990057586982"><ele>417.0</ele><time>2026-03-22T10:27:01.999Z</time></trkpt><trkpt lat="43.28264507415579" lon="10.747962152072187"><ele>417.0</ele><time>2026-03-22T10:27:02.999Z</time></trkpt><trkpt lat="43.28271439824745" lon="10.747877575728326"><ele>417.0</ele><time>2026-03-22T10:27:03.999Z</time></trkpt><trkpt lat="43.28278690621202" lon="10.747813400898004"><ele>417.0</ele><time>2026-03-22T10:27:04.999Z</time></trkpt><trkpt lat="43.282831503860265" lon="10.747734369768047"><ele>417.0</ele><time>2026-03-22T10:27:05.999Z</time></trkpt><trkpt lat="43.28292155719127" lon="10.747631200652066"><ele>417.0</ele><time>2026-03-22T10:27:07.999Z</time></trkpt><trkpt lat="43.283037868839514" lon="10.747650725705105"><ele>416.40000000000003</ele><time>2026-03-22T10:27:09.999Z</time></trkpt><trkpt lat="43.28312062920622" lon="10.747532752180016"><ele>415.8</ele><time>2026-03-22T10:27:11.999Z</time></trkpt><trkpt lat="43.2831242600157" lon="10.74742999305428"><ele>415.2</ele><time>2026-03-22T10:27:12.999Z</time></trkpt><trkpt lat="43.28314986313031" lon="10.74733028213033"><ele>414.6</ele><time>2026-03-22T10:27:13.999Z</time></trkpt><trkpt lat="43.28317713895492" lon="10.747236939692286"><ele>414.0</ele><time>2026-03-22T10:27:14.999Z</time></trkpt><trkpt lat="43.28325547423896" lon="10.747117753183"><ele>414.0</ele><time>2026-03-22T10:27:16.999Z</time></trkpt><trkpt lat="43.28332634696559" lon="10.747134203119927"><ele>414.0</ele><time>2026-03-22T10:27:17.999Z</time></trkpt><trkpt lat="43.28340750929999" lon="10.747117577514791"><ele>414.0</ele><time>2026-03-22T10:27:18.999Z</time></trkpt><trkpt lat="43.28350202023273" lon="10.747119124749275"><ele>414.0</ele><time>2026-03-22T10:27:19.999Z</time></trkpt><trkpt lat="43.28359307041172" lon="10.74712034720643"><ele>414.0</ele><time>2026-03-22T10:27:20.999Z</time></trkpt><trkpt lat="43.28366588162729" lon="10.74712132477892"><ele>414.0</ele><time>2026-03-22T10:27:21.999Z</time></trkpt><trkpt lat="43.283727999989644" lon="10.7471032238807"><ele>414.00000000000006</ele><time>2026-03-22T10:27:22.999Z</time></trkpt><trkpt lat="43.28377316862583" lon="10.747038433811817"><ele>414.0</ele><time>2026-03-22T10:27:23.999Z</time></trkpt><trkpt lat="43.28379394192517" lon="10.746926467783004"><ele>414.0</ele><time>2026-03-22T10:27:24.999Z</time></trkpt><trkpt lat="43.28379001220954" lon="10.746816991003282"><ele>414.0</ele><time>2026-03-22T10:27:25.999Z</time></trkpt><trkpt lat="43.28376007334402" lon="10.746736949432336"><ele>414.0</ele><time>2026-03-22T10:27:26.999Z</time></trkpt><trkpt lat="43.28368913377191" lon="10.746731597055426"><ele>414.00000000000006</ele><time>2026-03-22T10:27:27.999Z</time></trkpt><trkpt lat="43.28361458202887" lon="10.746688462538337"><ele>414.0</ele><time>2026-03-22T10:27:28.999Z</time></trkpt><trkpt lat="43.28353338147537" lon="10.746620336603893"><ele>412.0</ele><time>2026-03-22T10:27:29.999Z</time></trkpt><trkpt lat="43.28346704437735" lon="10.746550280602195"><ele>410.0</ele><time>2026-03-22T10:27:30.999Z</time></trkpt><trkpt lat="43.28340824934406" lon="10.746480293808869"><ele>408.0</ele><time>2026-03-22T10:27:31.999Z</time></trkpt><trkpt lat="43.28338204499989" lon="10.74639763253215"><ele>406.0</ele><time>2026-03-22T10:27:32.999Z</time></trkpt><trkpt lat="43.283382763188925" lon="10.746297855487148"><ele>404.0</ele><time>2026-03-22T10:27:33.999Z</time></trkpt><trkpt lat="43.28340298077264" lon="10.746150674781816"><ele>402.0</ele><time>2026-03-22T10:27:34.999Z</time></trkpt><trkpt lat="43.283447442866795" lon="10.745991269814647"><ele>399.75</ele><time>2026-03-22T10:27:35.999Z</time></trkpt><trkpt lat="43.28351266244022" lon="10.745829163974825"><ele>397.5</ele><time>2026-03-22T10:27:36.999Z</time></trkpt><trkpt lat="43.28358961285541" lon="10.745675219502855"><ele>395.25</ele><time>2026-03-22T10:27:37.999Z</time></trkpt><trkpt lat="43.28367264928264" lon="10.745548264438131"><ele>393.0</ele><time>2026-03-22T10:27:38.999Z</time></trkpt><trkpt lat="43.28373096572054" lon="10.74542796771576"><ele>393.0</ele><time>2026-03-22T10:27:39.999Z</time></trkpt><trkpt lat="43.2837596566148" lon="10.745302464919066"><ele>393.0</ele><time>2026-03-22T10:27:40.999Z</time></trkpt><trkpt lat="43.2837762864556" lon="10.745176466582462"><ele>393.0</ele><time>2026-03-22T10:27:41.999Z</time></trkpt><trkpt lat="43.2837449570363" lon="10.745066625146801"><ele>393.0</ele><time>2026-03-22T10:27:43Z</time></trkpt><trkpt lat="43.28372412096496" lon="10.744942673210893"><ele>393.0</ele><time>2026-03-22T10:27:44Z</time></trkpt><trkpt lat="43.28365676031982" lon="10.744788817847827"><ele>392.0</ele><time>2026-03-22T10:27:45Z</time></trkpt><trkpt lat="43.28358825663917" lon="10.7446265166144"><ele>391.0</ele><time>2026-03-22T10:27:46Z</time></trkpt><trkpt lat="43.28354190057642" lon="10.744488277506056"><ele>390.0</ele><time>2026-03-22T10:27:47Z</time></trkpt><trkpt lat="43.283489041229316" lon="10.74434713854306"><ele>389.0</ele><time>2026-03-22T10:27:48Z</time></trkpt><trkpt lat="43.283417806011684" lon="10.744203446238409"><ele>388.25</ele><time>2026-03-22T10:27:49Z</time></trkpt><trkpt lat="43.283322948693744" lon="10.744036854612453"><ele>387.5</ele><time>2026-03-22T10:27:50Z</time></trkpt><trkpt lat="43.283229685758585" lon="10.743883625014526"><ele>386.75</ele><time>2026-03-22T10:27:51Z</time></trkpt><trkpt lat="43.28314331845105" lon="10.743758349415748"><ele>386.0</ele><time>2026-03-22T10:27:52Z</time></trkpt><trkpt lat="43.28307480251602" lon="10.743629203449634"><ele>383.0</ele><time>2026-03-22T10:27:53Z</time></trkpt><trkpt lat="43.28302202587141" lon="10.743495794050197"><ele>380.0</ele><time>2026-03-22T10:27:54Z</time></trkpt><trkpt lat="43.28298096868638" lon="10.743360638009657"><ele>377.0</ele><time>2026-03-22T10:27:55Z</time></trkpt><trkpt lat="43.282970903906474" lon="10.743219191857156"><ele>374.0</ele><time>2026-03-22T10:27:56Z</time></trkpt><trkpt lat="43.28295999440494" lon="10.743085823952605"><ele>371.0</ele><time>2026-03-22T10:27:57Z</time></trkpt><trkpt lat="43.282952680625264" lon="10.742962527634152"><ele>371.0</ele><time>2026-03-22T10:27:58Z</time></trkpt><trkpt lat="43.28296307517524" lon="10.742866619576857"><ele>371.0</ele><time>2026-03-22T10:27:59Z</time></trkpt><trkpt lat="43.28303952696541" lon="10.74279743041643"><ele>371.0</ele><time>2026-03-22T10:28:01Z</time></trkpt><trkpt lat="43.2831115697217" lon="10.742864746390229"><ele>371.0</ele><time>2026-03-22T10:28:02Z</time></trkpt><trkpt lat="43.283186057152484" lon="10.74284153431168"><ele>371.0</ele><time>2026-03-22T10:28:03Z</time></trkpt><trkpt lat="43.283249323141554" lon="10.74278500895581"><ele>371.0</ele><time>2026-03-22T10:28:04Z</time></trkpt><trkpt lat="43.28331038281972" lon="10.742716431294134"><ele>370.8</ele><time>2026-03-22T10:28:05Z</time></trkpt><trkpt lat="43.28336938568955" lon="10.74261117411911"><ele>370.6</ele><time>2026-03-22T10:28:06Z</time></trkpt><trkpt lat="43.28343806278927" lon="10.742542238858972"><ele>370.4</ele><time>2026-03-22T10:28:07Z</time></trkpt><trkpt lat="43.283515872791554" lon="10.742575691292483"><ele>370.2</ele><time>2026-03-22T10:28:08Z</time></trkpt><trkpt lat="43.28364445483806" lon="10.74265820689513"><ele>370.0</ele><time>2026-03-22T10:28:10Z</time></trkpt><trkpt lat="43.28371428758576" lon="10.742767645874425"><ele>370.8</ele><time>2026-03-22T10:28:11Z</time></trkpt><trkpt lat="43.28379831227314" lon="10.742863243071584"><ele>371.6</ele><time>2026-03-22T10:28:12Z</time></trkpt><trkpt lat="43.28388193562274" lon="10.742926605729501"><ele>372.4</ele><time>2026-03-22T10:28:13Z</time></trkpt><trkpt lat="43.28395935569376" lon="10.742952650937474"><ele>373.2</ele><time>2026-03-22T10:28:14Z</time></trkpt><trkpt lat="43.28405283633393" lon="10.742921247543714"><ele>374.0</ele><time>2026-03-22T10:28:15Z</time></trkpt><trkpt lat="43.28415165033236" lon="10.742954423668085"><ele>374.0</ele><time>2026-03-22T10:28:16Z</time></trkpt><trkpt lat="43.284249434191075" lon="10.743000921047054"><ele>374.0</ele><time>2026-03-22T10:28:17Z</time></trkpt><trkpt lat="43.284334079991325" lon="10.743062599574849"><ele>374.0</ele><time>2026-03-22T10:28:18Z</time></trkpt><trkpt lat="43.28439936756132" lon="10.743096742505765"><ele>374.0</ele><time>2026-03-22T10:28:19Z</time></trkpt><trkpt lat="43.28446649137422" lon="10.743085810968902"><ele>374.0</ele><time>2026-03-22T10:28:20Z</time></trkpt><trkpt lat="43.284551390307776" lon="10.74306721774527"><ele>374.0</ele><time>2026-03-22T10:28:21Z</time></trkpt><trkpt lat="43.28465325713531" lon="10.743038853403132"><ele>374.0</ele><time>2026-03-22T10:28:22Z</time></trkpt><trkpt lat="43.28472765995114" lon="10.743036546213393"><ele>374.0</ele><time>2026-03-22T10:28:23Z</time></trkpt><trkpt lat="43.28481812190344" lon="10.743014083055744"><ele>374.0</ele><time>2026-03-22T10:28:24Z</time></trkpt><trkpt lat="43.284895944988605" lon="10.742996860172397"><ele>374.0</ele><time>2026-03-22T10:28:25Z</time></trkpt><trkpt lat="43.284967531683016" lon="10.743007164944983"><ele>374.0</ele><time>2026-03-22T10:28:26Z</time></trkpt><trkpt lat="43.28503106787919" lon="10.743120400625003"><ele>374.0</ele><time>2026-03-22T10:28:27Z</time></trkpt><trkpt lat="43.28512616748732" lon="10.743236093333728"><ele>372.4</ele><time>2026-03-22T10:28:28Z</time></trkpt><trkpt lat="43.28521663148954" lon="10.743326556845142"><ele>370.79999999999995</ele><time>2026-03-22T10:28:28.999Z</time></trkpt><trkpt lat="43.28530564388869" lon="10.743385264846287"><ele>369.20000000000005</ele><time>2026-03-22T10:28:29.999Z</time></trkpt><trkpt lat="43.285394617479994" lon="10.743411056115995"><ele>367.6</ele><time>2026-03-22T10:28:30.999Z</time></trkpt><trkpt lat="43.28547383569913" lon="10.743409678942776"><ele>366.0</ele><time>2026-03-22T10:28:31.999Z</time></trkpt><trkpt lat="43.285569292395024" lon="10.743435996509366"><ele>366.1666666666667</ele><time>2026-03-22T10:28:33.999Z</time></trkpt><trkpt lat="43.28562521668942" lon="10.743506791420902"><ele>366.3333333333333</ele><time>2026-03-22T10:28:35.999Z</time></trkpt><trkpt lat="43.28565256250462" lon="10.743604994653856"><ele>366.5</ele><time>2026-03-22T10:28:37.999Z</time></trkpt><trkpt lat="43.28568252889622" lon="10.743716398236252"><ele>366.66666666666663</ele><time>2026-03-22T10:28:39.999Z</time></trkpt><trkpt lat="43.28571435863212" lon="10.743829345229308"><ele>366.8333333333333</ele><time>2026-03-22T10:28:41.999Z</time></trkpt><trkpt lat="43.28575595731491" lon="10.743940662871534"><ele>367.0</ele><time>2026-03-22T10:28:43.999Z</time></trkpt><trkpt lat="43.28583507501269" lon="10.744028664471314"><ele>367.0</ele><time>2026-03-22T10:28:45.999Z</time></trkpt><trkpt lat="43.28590782200938" lon="10.743979744753597"><ele>367.0</ele><time>2026-03-22T10:28:47.999Z</time></trkpt><trkpt lat="43.28590788344728" lon="10.743853387597564"><ele>367.0</ele><time>2026-03-22T10:28:54.999Z</time></trkpt><trkpt lat="43.28592144530731" lon="10.74375873495286"><ele>367.0</ele><time>2026-03-22T10:28:55.999Z</time></trkpt><trkpt lat="43.28591997334699" lon="10.743666590558957"><ele>367.0</ele><time>2026-03-22T10:28:56.999Z</time></trkpt><trkpt lat="43.28591841029806" lon="10.743568743789332"><ele>367.0</ele><time>2026-03-22T10:28:57.999Z</time></trkpt><trkpt lat="43.28591805098273" lon="10.743478443423719"><ele>367.0</ele><time>2026-03-22T10:28:58.999Z</time></trkpt><trkpt lat="43.28590930267987" lon="10.743367883881318"><ele>366.5</ele><time>2026-03-22T10:29:00.999Z</time></trkpt><trkpt lat="43.28546192700583" lon="10.743357657248167"><ele>366.0</ele><time>2026-03-22T10:29:02.999Z</time></trkpt><trkpt lat="43.28539195319523" lon="10.743353684582479"><ele>366.0</ele><time>2026-03-22T10:29:03.999Z</time></trkpt><trkpt lat="43.285326551098116" lon="10.743337649131233"><ele>366.0</ele><time>2026-03-22T10:29:04.999Z</time></trkpt><trkpt lat="43.285268939050646" lon="10.74329819739239"><ele>366.0</ele><time>2026-03-22T10:29:05.999Z</time></trkpt><trkpt lat="43.28522108244929" lon="10.743231809557821"><ele>366.0</ele><time>2026-03-22T10:29:06.999Z</time></trkpt><trkpt lat="43.28515075345853" lon="10.743161269015559"><ele>366.0</ele><time>2026-03-22T10:29:08.999Z</time></trkpt><trkpt lat="43.285088138853745" lon="10.74307216025479"><ele>366.0</ele><time>2026-03-22T10:29:10.999Z</time></trkpt><trkpt lat="43.28494330804509" lon="10.742957318292131"><ele>366.0</ele><time>2026-03-22T10:29:13.999Z</time></trkpt><trkpt lat="43.28488418152705" lon="10.7429138432075"><ele>366.0</ele><time>2026-03-22T10:29:15.999Z</time></trkpt><trkpt lat="43.28481852008213" lon="10.742887090073598"><ele>366.0</ele><time>2026-03-22T10:29:19Z</time></trkpt><trkpt lat="43.28476664534406" lon="10.74282551730348"><ele>366.0</ele><time>2026-03-22T10:29:50Z</time></trkpt><trkpt lat="43.28468104639456" lon="10.742889290803058"><ele>366.0</ele><time>2026-03-22T10:29:55Z</time></trkpt><trkpt lat="43.284609618434544" lon="10.742878441048074"><ele>366.0</ele><time>2026-03-22T10:30:11Z</time></trkpt><trkpt lat="43.284563045762994" lon="10.742812793126365"><ele>366.0</ele><time>2026-03-22T10:30:13Z</time></trkpt><trkpt lat="43.28446789247642" lon="10.742755788364322"><ele>366.0</ele><time>2026-03-22T10:30:15Z</time></trkpt><trkpt lat="43.28439916093502" lon="10.742728602087226"><ele>366.0</ele><time>2026-03-22T10:30:17Z</time></trkpt><trkpt lat="43.28447619742537" lon="10.742773257804515"><ele>366.0</ele><time>2026-03-22T10:30:30Z</time></trkpt><trkpt lat="43.284535488632" lon="10.742841994007998"><ele>366.0</ele><time>2026-03-22T10:30:33Z</time></trkpt><trkpt lat="43.2846007727891" lon="10.74288920695133"><ele>366.0</ele><time>2026-03-22T10:30:37Z</time></trkpt><trkpt lat="43.28467528166496" lon="10.742879794178704"><ele>366.0</ele><time>2026-03-22T10:30:56Z</time></trkpt><trkpt lat="43.284737773017255" lon="10.742855442016173"><ele>366.0</ele><time>2026-03-22T10:31:48Z</time></trkpt><trkpt lat="43.284815842152845" lon="10.742902251434135"><ele>366.0</ele><time>2026-03-22T10:31:51Z</time></trkpt><trkpt lat="43.28493893823915" lon="10.74300807700077"><ele>366.0</ele><time>2026-03-22T10:31:53Z</time></trkpt><trkpt lat="43.284997762909676" lon="10.743061942778613"><ele>366.0</ele><time>2026-03-22T10:31:54Z</time></trkpt><trkpt lat="43.28504601397077" lon="10.743136075757658"><ele>366.0</ele><time>2026-03-22T10:31:55Z</time></trkpt><trkpt lat="43.28511154175917" lon="10.74322146776755"><ele>366.0</ele><time>2026-03-22T10:31:56Z</time></trkpt><trkpt lat="43.28518627897375" lon="10.743273792798187"><ele>366.0</ele><time>2026-03-22T10:31:57Z</time></trkpt><trkpt lat="43.28523945575477" lon="10.743322936765901"><ele>366.0</ele><time>2026-03-22T10:31:58Z</time></trkpt><trkpt lat="43.28529397407076" lon="10.743376775244672"><ele>366.0</ele><time>2026-03-22T10:31:59Z</time></trkpt><trkpt lat="43.28536302150174" lon="10.74340259602795"><ele>366.0</ele><time>2026-03-22T10:32:00Z</time></trkpt><trkpt lat="43.28542743202304" lon="10.743401781103097"><ele>366.0</ele><time>2026-03-22T10:32:01Z</time></trkpt><trkpt lat="43.285495186009925" lon="10.743392575541579"><ele>366.0</ele><time>2026-03-22T10:32:02Z</time></trkpt><trkpt lat="43.28555954180804" lon="10.743415075125236"><ele>366.0</ele><time>2026-03-22T10:32:03Z</time></trkpt><trkpt lat="43.2856116154992" lon="10.743467505400224"><ele>366.1666666666667</ele><time>2026-03-22T10:32:04Z</time></trkpt><trkpt lat="43.2856596158084" lon="10.743547316414912"><ele>366.3333333333333</ele><time>2026-03-22T10:32:05Z</time></trkpt><trkpt lat="43.28567329450515" lon="10.743683630147943"><ele>366.5</ele><time>2026-03-22T10:32:06Z</time></trkpt><trkpt lat="43.28570591038124" lon="10.743799366755587"><ele>366.66666666666663</ele><time>2026-03-22T10:32:07Z</time></trkpt><trkpt lat="43.28574272797643" lon="10.743881863805994"><ele>366.8333333333333</ele><time>2026-03-22T10:32:08Z</time></trkpt><trkpt lat="43.28578016213982" lon="10.74396763954542"><ele>367.0</ele><time>2026-03-22T10:32:09Z</time></trkpt><trkpt lat="43.28587547153139" lon="10.74397113118745"><ele>367.0</ele><time>2026-03-22T10:32:11Z</time></trkpt><trkpt lat="43.28595450489735" lon="10.743904747627335"><ele>367.0</ele><time>2026-03-22T10:32:13Z</time></trkpt><trkpt lat="43.28592059888379" lon="10.743705748385088"><ele>367.0</ele><time>2026-03-22T10:32:14Z</time></trkpt><trkpt lat="43.285918560240034" lon="10.743578129269386"><ele>367.0</ele><time>2026-03-22T10:32:15Z</time></trkpt><trkpt lat="43.285918051002085" lon="10.74345194444428"><ele>367.0</ele><time>2026-03-22T10:32:16Z</time></trkpt><trkpt lat="43.285918051003684" lon="10.743340103615163"><ele>365.40000000000003</ele><time>2026-03-22T10:32:17Z</time></trkpt><trkpt lat="43.285945624917986" lon="10.74317245066136"><ele>363.8</ele><time>2026-03-22T10:32:19Z</time></trkpt><trkpt lat="43.28600785181483" lon="10.743119187333086"><ele>362.2</ele><time>2026-03-22T10:32:20Z</time></trkpt><trkpt lat="43.28608621807463" lon="10.74302582701177"><ele>360.6</ele><time>2026-03-22T10:32:21Z</time></trkpt><trkpt lat="43.286153201411366" lon="10.742933848097946"><ele>359.0</ele><time>2026-03-22T10:32:22Z</time></trkpt><trkpt lat="43.28619635568413" lon="10.742827573748874"><ele>356.79999999999995</ele><time>2026-03-22T10:32:23Z</time></trkpt><trkpt lat="43.28623775930827" lon="10.742707790159436"><ele>354.59999999999997</ele><time>2026-03-22T10:32:24Z</time></trkpt><trkpt lat="43.28627027088899" lon="10.742580403586995"><ele>352.4</ele><time>2026-03-22T10:32:25Z</time></trkpt><trkpt lat="43.286297707438074" lon="10.74245312331661"><ele>350.2</ele><time>2026-03-22T10:32:26Z</time></trkpt><trkpt lat="43.286313362862025" lon="10.74233126539238"><ele>348.0</ele><time>2026-03-22T10:32:27Z</time></trkpt><trkpt lat="43.28633163640524" lon="10.742232149389721"><ele>348.0</ele><time>2026-03-22T10:32:28Z</time></trkpt><trkpt lat="43.28635018418291" lon="10.742143398068754"><ele>348.0</ele><time>2026-03-22T10:32:29Z</time></trkpt><trkpt lat="43.28641581704254" lon="10.741993041572352"><ele>348.0</ele><time>2026-03-22T10:32:31Z</time></trkpt><trkpt lat="43.286452490384015" lon="10.741871282735955"><ele>348.0</ele><time>2026-03-22T10:32:32Z</time></trkpt><trkpt lat="43.286493986467306" lon="10.741751500974626"><ele>348.0</ele><time>2026-03-22T10:32:33Z</time></trkpt><trkpt lat="43.286529159011636" lon="10.741622906608681"><ele>348.2</ele><time>2026-03-22T10:32:34Z</time></trkpt><trkpt lat="43.28657377021132" lon="10.74149293992501"><ele>348.4</ele><time>2026-03-22T10:32:35Z</time></trkpt><trkpt lat="43.286618159380495" lon="10.74136772634469"><ele>348.59999999999997</ele><time>2026-03-22T10:32:36Z</time></trkpt><trkpt lat="43.28670027446955" lon="10.741262389987105"><ele>348.79999999999995</ele><time>2026-03-22T10:32:37Z</time></trkpt><trkpt lat="43.286730285707876" lon="10.741109739464177"><ele>349.0</ele><time>2026-03-22T10:32:38Z</time></trkpt><trkpt lat="43.28677910670544" lon="10.740935048801012"><ele>344.25</ele><time>2026-03-22T10:32:39Z</time></trkpt><trkpt lat="43.28682765593612" lon="10.7407680017406"><ele>339.5</ele><time>2026-03-22T10:32:40Z</time></trkpt><trkpt lat="43.28687585254791" lon="10.740622299870227"><ele>334.75</ele><time>2026-03-22T10:32:41Z</time></trkpt><trkpt lat="43.286917423949106" lon="10.740493472011522"><ele>330.0</ele><time>2026-03-22T10:32:42Z</time></trkpt><trkpt lat="43.286977218124335" lon="10.740371118206243"><ele>330.0</ele><time>2026-03-22T10:32:43Z</time></trkpt><trkpt lat="43.28702852811473" lon="10.740248731946823"><ele>330.0</ele><time>2026-03-22T10:32:44Z</time></trkpt><trkpt lat="43.287087158472424" lon="10.740153319654967"><ele>330.0</ele><time>2026-03-22T10:32:45Z</time></trkpt><trkpt lat="43.287160905665175" lon="10.74007347264003"><ele>330.0</ele><time>2026-03-22T10:32:46Z</time></trkpt><trkpt lat="43.287248234312514" lon="10.7399768853902"><ele>330.0</ele><time>2026-03-22T10:32:47Z</time></trkpt><trkpt lat="43.28730228265375" lon="10.739853403549471"><ele>331.6</ele><time>2026-03-22T10:32:48Z</time></trkpt><trkpt lat="43.28736518392275" lon="10.739705242578857"><ele>333.2</ele><time>2026-03-22T10:32:49Z</time></trkpt><trkpt lat="43.28742001718556" lon="10.739573537969315"><ele>334.79999999999995</ele><time>2026-03-22T10:32:50Z</time></trkpt><trkpt lat="43.28747267003921" lon="10.739468358538325"><ele>336.4</ele><time>2026-03-22T10:32:51Z</time></trkpt><trkpt lat="43.287518841466444" lon="10.739393705961419"><ele>338.0</ele><time>2026-03-22T10:32:52Z</time></trkpt><trkpt lat="43.2875661692846" lon="10.739321951472588"><ele>338.0</ele><time>2026-03-22T10:32:53Z</time></trkpt><trkpt lat="43.287651624276094" lon="10.739321166393198"><ele>338.0</ele><time>2026-03-22T10:32:54Z</time></trkpt><trkpt lat="43.28771312204155" lon="10.739371300430117"><ele>338.0</ele><time>2026-03-22T10:32:55Z</time></trkpt><trkpt lat="43.28777603010559" lon="10.739408629853806"><ele>338.0</ele><time>2026-03-22T10:32:56Z</time></trkpt><trkpt lat="43.287847923294244" lon="10.739489363202582"><ele>338.0</ele><time>2026-03-22T10:32:57Z</time></trkpt><trkpt lat="43.287898346326905" lon="10.739613034296573"><ele>338.0</ele><time>2026-03-22T10:32:58Z</time></trkpt><trkpt lat="43.28795214681933" lon="10.739686846275628"><ele>338.0</ele><time>2026-03-22T10:32:59Z</time></trkpt><trkpt lat="43.288061333738185" lon="10.739734868991746"><ele>338.0</ele><time>2026-03-22T10:33:01Z</time></trkpt><trkpt lat="43.28815354749805" lon="10.739602491696914"><ele>338.0</ele><time>2026-03-22T10:33:03Z</time></trkpt><trkpt lat="43.288153636242505" lon="10.739461958496006"><ele>338.0</ele><time>2026-03-22T10:33:04Z</time></trkpt><trkpt lat="43.28817453235781" lon="10.739348688244524"><ele>338.0</ele><time>2026-03-22T10:33:05Z</time></trkpt><trkpt lat="43.288205262349045" lon="10.739240240710037"><ele>336.4</ele><time>2026-03-22T10:33:06Z</time></trkpt><trkpt lat="43.28824800888412" lon="10.739139358837136"><ele>334.79999999999995</ele><time>2026-03-22T10:33:07Z</time></trkpt><trkpt lat="43.288301195972444" lon="10.739025659120417"><ele>333.2</ele><time>2026-03-22T10:33:08Z</time></trkpt><trkpt lat="43.28836189922851" lon="10.738913073312048"><ele>331.6</ele><time>2026-03-22T10:33:09Z</time></trkpt><trkpt lat="43.28842279433603" lon="10.738809228696383"><ele>330.0</ele><time>2026-03-22T10:33:10Z</time></trkpt><trkpt lat="43.28848552818266" lon="10.738721888498848"><ele>330.0</ele><time>2026-03-22T10:33:11Z</time></trkpt><trkpt lat="43.288550520952306" lon="10.73864434940189"><ele>330.0</ele><time>2026-03-22T10:33:12Z</time></trkpt><trkpt lat="43.28862682883929" lon="10.738567811340888"><ele>330.0</ele><time>2026-03-22T10:33:13Z</time></trkpt><trkpt lat="43.28871070106623" lon="10.738514611960248"><ele>330.0</ele><time>2026-03-22T10:33:14Z</time></trkpt><trkpt lat="43.28881358123129" lon="10.738456782549914"><ele>330.0</ele><time>2026-03-22T10:33:15Z</time></trkpt><trkpt lat="43.2889271465792" lon="10.738399650359572"><ele>329.4</ele><time>2026-03-22T10:33:16Z</time></trkpt><trkpt lat="43.289038755050996" lon="10.738336280017913"><ele>328.8</ele><time>2026-03-22T10:33:17Z</time></trkpt><trkpt lat="43.28912371222928" lon="10.738253883042683"><ele>328.20000000000005</ele><time>2026-03-22T10:33:18Z</time></trkpt><trkpt lat="43.289190948084105" lon="10.73815944853829"><ele>327.6</ele><time>2026-03-22T10:33:19Z</time></trkpt><trkpt lat="43.28929172926407" lon="10.738118350016828"><ele>327.0</ele><time>2026-03-22T10:33:20Z</time></trkpt><trkpt lat="43.28937839524183" lon="10.738070690188483"><ele>327.0</ele><time>2026-03-22T10:33:21Z</time></trkpt><trkpt lat="43.28945813211718" lon="10.738027504269091"><ele>327.0</ele><time>2026-03-22T10:33:22Z</time></trkpt><trkpt lat="43.28953953603719" lon="10.73798341575507"><ele>327.0</ele><time>2026-03-22T10:33:23Z</time></trkpt><trkpt lat="43.289612827725854" lon="10.737906655975396"><ele>327.0</ele><time>2026-03-22T10:33:24Z</time></trkpt><trkpt lat="43.289673896713936" lon="10.737804104274176"><ele>327.0</ele><time>2026-03-22T10:33:25Z</time></trkpt><trkpt lat="43.28975281205529" lon="10.737699604753606"><ele>324.5</ele><time>2026-03-22T10:33:26Z</time></trkpt><trkpt lat="43.2898492122711" lon="10.737589815724931"><ele>322.0</ele><time>2026-03-22T10:33:27Z</time></trkpt><trkpt lat="43.28994787121656" lon="10.737479435592405"><ele>319.5</ele><time>2026-03-22T10:33:28Z</time></trkpt><trkpt lat="43.2900355287606" lon="10.737382368031787"><ele>317.0</ele><time>2026-03-22T10:33:29Z</time></trkpt><trkpt lat="43.290111327716616" lon="10.7372611781279"><ele>317.0</ele><time>2026-03-22T10:33:30Z</time></trkpt><trkpt lat="43.29018234092697" lon="10.737163593912207"><ele>317.0</ele><time>2026-03-22T10:33:31Z</time></trkpt><trkpt lat="43.290256808117405" lon="10.73705011408937"><ele>317.0</ele><time>2026-03-22T10:33:32Z</time></trkpt><trkpt lat="43.290316469973796" lon="10.736930353325077"><ele>317.0</ele><time>2026-03-22T10:33:33Z</time></trkpt><trkpt lat="43.29036526423258" lon="10.73680536957048"><ele>317.0</ele><time>2026-03-22T10:33:34Z</time></trkpt><trkpt lat="43.29038644430893" lon="10.736674653774527"><ele>314.2</ele><time>2026-03-22T10:33:35Z</time></trkpt><trkpt lat="43.2903985142719" lon="10.73654279531505"><ele>311.4</ele><time>2026-03-22T10:33:36Z</time></trkpt><trkpt lat="43.29038478795934" lon="10.73641927997512"><ele>308.6</ele><time>2026-03-22T10:33:37Z</time></trkpt><trkpt lat="43.29034997087518" lon="10.73630176723776"><ele>305.8</ele><time>2026-03-22T10:33:38Z</time></trkpt><trkpt lat="43.29031914608521" lon="10.736164670215075"><ele>303.0</ele><time>2026-03-22T10:33:39Z</time></trkpt><trkpt lat="43.29027114547662" lon="10.73605606396256"><ele>303.0</ele><time>2026-03-22T10:33:40Z</time></trkpt><trkpt lat="43.29021115928253" lon="10.735975232512118"><ele>303.0</ele><time>2026-03-22T10:33:41Z</time></trkpt><trkpt lat="43.29015028269764" lon="10.735913391472167"><ele>303.0</ele><time>2026-03-22T10:33:42Z</time></trkpt><trkpt lat="43.29006162089979" lon="10.735878860967585"><ele>303.0</ele><time>2026-03-22T10:33:43Z</time></trkpt><trkpt lat="43.28995769555623" lon="10.735845236656836"><ele>303.0</ele><time>2026-03-22T10:33:44Z</time></trkpt><trkpt lat="43.28982801415328" lon="10.735849815485627"><ele>299.8</ele><time>2026-03-22T10:33:45Z</time></trkpt><trkpt lat="43.28971754716429" lon="10.735800308988605"><ele>296.6</ele><time>2026-03-22T10:33:46Z</time></trkpt><trkpt lat="43.28960482632067" lon="10.735765459509715"><ele>293.4</ele><time>2026-03-22T10:33:47Z</time></trkpt><trkpt lat="43.28950013571545" lon="10.735742734649696"><ele>290.2</ele><time>2026-03-22T10:33:48Z</time></trkpt><trkpt lat="43.28941308003916" lon="10.735699969507783"><ele>287.0</ele><time>2026-03-22T10:33:49Z</time></trkpt><trkpt lat="43.289328532825245" lon="10.73563799385493"><ele>287.0</ele><time>2026-03-22T10:33:50Z</time></trkpt><trkpt lat="43.289264744756856" lon="10.73557134045682"><ele>287.0</ele><time>2026-03-22T10:33:51Z</time></trkpt><trkpt lat="43.2892237727333" lon="10.735492975042138"><ele>287.0</ele><time>2026-03-22T10:33:52Z</time></trkpt><trkpt lat="43.28920574005791" lon="10.735398928692408"><ele>287.0</ele><time>2026-03-22T10:33:53Z</time></trkpt><trkpt lat="43.28920610735764" lon="10.735281660888509"><ele>287.0</ele><time>2026-03-22T10:33:54Z</time></trkpt><trkpt lat="43.289214149119495" lon="10.735128166507327"><ele>287.0</ele><time>2026-03-22T10:33:55Z</time></trkpt><trkpt lat="43.28923193343567" lon="10.734975130999862"><ele>287.8</ele><time>2026-03-22T10:33:56Z</time></trkpt><trkpt lat="43.289237896299916" lon="10.73480802558744"><ele>288.6</ele><time>2026-03-22T10:33:57Z</time></trkpt><trkpt lat="43.289221115165304" lon="10.734666045009014"><ele>289.40000000000003</ele><time>2026-03-22T10:33:58Z</time></trkpt><trkpt lat="43.28917597557172" lon="10.73455025795191"><ele>290.2</ele><time>2026-03-22T10:33:59Z</time></trkpt><trkpt lat="43.28913065885122" lon="10.734459283240048"><ele>291.0</ele><time>2026-03-22T10:34:00Z</time></trkpt><trkpt lat="43.28910782085299" lon="10.734331597924527"><ele>288.5</ele><time>2026-03-22T10:34:02Z</time></trkpt><trkpt lat="43.28920424838853" lon="10.73418787035242"><ele>286.0</ele><time>2026-03-22T10:34:04Z</time></trkpt><trkpt lat="43.289288542467396" lon="10.734091586528601"><ele>283.5</ele><time>2026-03-22T10:34:05Z</time></trkpt><trkpt lat="43.28937990081871" lon="10.733996037349385"><ele>281.0</ele><time>2026-03-22T10:34:06Z</time></trkpt><trkpt lat="43.289470424869485" lon="10.733898349835563"><ele>281.0</ele><time>2026-03-22T10:34:07Z</time></trkpt><trkpt lat="43.289544509075355" lon="10.733811079850813"><ele>281.0</ele><time>2026-03-22T10:34:08Z</time></trkpt><trkpt lat="43.2896041386396" lon="10.733735838094093"><ele>281.0</ele><time>2026-03-22T10:34:09Z</time></trkpt><trkpt lat="43.28965058276748" lon="10.73365396974386"><ele>281.0</ele><time>2026-03-22T10:34:10Z</time></trkpt><trkpt lat="43.28969184205674" lon="10.733566783672051"><ele>281.0</ele><time>2026-03-22T10:34:11Z</time></trkpt><trkpt lat="43.28972967760034" lon="10.733482358743688"><ele>281.0</ele><time>2026-03-22T10:34:12Z</time></trkpt><trkpt lat="43.28977368143331" lon="10.733404419169043"><ele>281.1666666666667</ele><time>2026-03-22T10:34:13Z</time></trkpt><trkpt lat="43.28984272851431" lon="10.733368622712971"><ele>281.33333333333337</ele><time>2026-03-22T10:34:14Z</time></trkpt><trkpt lat="43.289904825695665" lon="10.733344859783106"><ele>281.5</ele><time>2026-03-22T10:34:15Z</time></trkpt><trkpt lat="43.289991962472584" lon="10.733342323090637"><ele>281.6666666666667</ele><time>2026-03-22T10:34:16Z</time></trkpt><trkpt lat="43.29007977994205" lon="10.733348286287022"><ele>281.8333333333333</ele><time>2026-03-22T10:34:17Z</time></trkpt><trkpt lat="43.29017120606032" lon="10.733358614922208"><ele>282.0</ele><time>2026-03-22T10:34:18Z</time></trkpt><trkpt lat="43.29025728834323" lon="10.733374915390263"><ele>282.0</ele><time>2026-03-22T10:34:19Z</time></trkpt><trkpt lat="43.29033811248699" lon="10.733396811629675"><ele>282.0</ele><time>2026-03-22T10:34:20Z</time></trkpt><trkpt lat="43.29043985857421" lon="10.733426565813149"><ele>282.0</ele><time>2026-03-22T10:34:21Z</time></trkpt><trkpt lat="43.29052505385176" lon="10.733496814674334"><ele>282.0</ele><time>2026-03-22T10:34:22Z</time></trkpt><trkpt lat="43.29059088517772" lon="10.733566814444263"><ele>282.0</ele><time>2026-03-22T10:34:23Z</time></trkpt><trkpt lat="43.29062424566007" lon="10.733661478839142"><ele>282.0</ele><time>2026-03-22T10:34:24Z</time></trkpt><trkpt lat="43.29062008953914" lon="10.733801161664699"><ele>283.2</ele><time>2026-03-22T10:34:25Z</time></trkpt><trkpt lat="43.29065687982104" lon="10.733905935830425"><ele>284.4</ele><time>2026-03-22T10:34:26Z</time></trkpt><trkpt lat="43.29069421942151" lon="10.73400137293214"><ele>285.6</ele><time>2026-03-22T10:34:27Z</time></trkpt><trkpt lat="43.29076293753962" lon="10.734094326958237"><ele>286.8</ele><time>2026-03-22T10:34:28Z</time></trkpt><trkpt lat="43.29090055623636" lon="10.734086012822038"><ele>288.0</ele><time>2026-03-22T10:34:29Z</time></trkpt><trkpt lat="43.291036812743364" lon="10.734097040516145"><ele>288.0</ele><time>2026-03-22T10:34:30Z</time></trkpt><trkpt lat="43.29115150700965" lon="10.73411582550199"><ele>288.0</ele><time>2026-03-22T10:34:31Z</time></trkpt><trkpt lat="43.29123235450814" lon="10.73414819285061"><ele>288.0</ele><time>2026-03-22T10:34:32Z</time></trkpt><trkpt lat="43.29131526195027" lon="10.734205459271575"><ele>288.0</ele><time>2026-03-22T10:34:33Z</time></trkpt><trkpt lat="43.291386966282474" lon="10.73429495236457"><ele>288.0</ele><time>2026-03-22T10:34:34Z</time></trkpt><trkpt lat="43.291451955675036" lon="10.734410849253974"><ele>287.6666666666667</ele><time>2026-03-22T10:34:35Z</time></trkpt><trkpt lat="43.2915103540394" lon="10.734529404956623"><ele>287.3333333333333</ele><time>2026-03-22T10:34:36Z</time></trkpt><trkpt lat="43.291553925616064" lon="10.734634601423334"><ele>287.0</ele><time>2026-03-22T10:34:37Z</time></trkpt><trkpt lat="43.2915705560579" lon="10.734731205704872"><ele>286.66666666666663</ele><time>2026-03-22T10:34:38Z</time></trkpt><trkpt lat="43.29157429767899" lon="10.734826555558127"><ele>286.3333333333333</ele><time>2026-03-22T10:34:39Z</time></trkpt><trkpt lat="43.291586518061735" lon="10.734911829860051"><ele>286.0</ele><time>2026-03-22T10:34:40Z</time></trkpt><trkpt lat="43.29166438731992" lon="10.735028420604094"><ele>286.0</ele><time>2026-03-22T10:34:42Z</time></trkpt><trkpt lat="43.29173862419435" lon="10.735048886412056"><ele>286.0</ele><time>2026-03-22T10:34:43Z</time></trkpt><trkpt lat="43.29184479930589" lon="10.734991006894916"><ele>286.0</ele><time>2026-03-22T10:34:44Z</time></trkpt><trkpt lat="43.29191196661159" lon="10.73482898122289"><ele>286.0</ele><time>2026-03-22T10:34:45Z</time></trkpt><trkpt lat="43.292015348686995" lon="10.734750563196293"><ele>286.0</ele><time>2026-03-22T10:34:46Z</time></trkpt><trkpt lat="43.292107458087145" lon="10.73462716322658"><ele>286.0</ele><time>2026-03-22T10:34:47Z</time></trkpt><trkpt lat="43.292139736621884" lon="10.73440860726571"><ele>286.0</ele><time>2026-03-22T10:34:48Z</time></trkpt><trkpt lat="43.29217697853833" lon="10.73422477159183"><ele>286.0</ele><time>2026-03-22T10:34:49Z</time></trkpt><trkpt lat="43.292223609453444" lon="10.734066978223442"><ele>286.0</ele><time>2026-03-22T10:34:50Z</time></trkpt><trkpt lat="43.292268977233164" lon="10.733910642968807"><ele>286.0</ele><time>2026-03-22T10:34:51Z</time></trkpt><trkpt lat="43.29228875657448" lon="10.73377577771441"><ele>286.0</ele><time>2026-03-22T10:34:52Z</time></trkpt><trkpt lat="43.2922989214698" lon="10.733618877801618"><ele>286.0</ele><time>2026-03-22T10:34:53Z</time></trkpt><trkpt lat="43.29230974318553" lon="10.733448574587536"><ele>286.0</ele><time>2026-03-22T10:34:54Z</time></trkpt><trkpt lat="43.29232307287017" lon="10.733293142790023"><ele>283.3333333333333</ele><time>2026-03-22T10:34:55Z</time></trkpt><trkpt lat="43.2923458699699" lon="10.733165247204141"><ele>280.66666666666663</ele><time>2026-03-22T10:34:56Z</time></trkpt><trkpt lat="43.29236448782616" lon="10.733041779188571"><ele>278.0</ele><time>2026-03-22T10:34:57Z</time></trkpt><trkpt lat="43.29241629668832" lon="10.732935264446072"><ele>275.3333333333333</ele><time>2026-03-22T10:34:59Z</time></trkpt><trkpt lat="43.292502600267674" lon="10.732975584000311"><ele>272.6666666666667</ele><time>2026-03-22T10:35:01Z</time></trkpt><trkpt lat="43.29256945955802" lon="10.733001278372921"><ele>270.0</ele><time>2026-03-22T10:35:02Z</time></trkpt><trkpt lat="43.29265616020854" lon="10.73300775235125"><ele>270.0</ele><time>2026-03-22T10:35:03Z</time></trkpt><trkpt lat="43.29275270527138" lon="10.73301189369362"><ele>270.0</ele><time>2026-03-22T10:35:05Z</time></trkpt><trkpt lat="43.292822181073525" lon="10.733013495150894"><ele>270.0</ele><time>2026-03-22T10:35:07Z</time></trkpt><trkpt lat="43.29290108019519" lon="10.733018408453637"><ele>270.0</ele><time>2026-03-22T10:35:09Z</time></trkpt><trkpt lat="43.29297019931422" lon="10.73302440767478"><ele>270.0</ele><time>2026-03-22T10:35:11Z</time></trkpt><trkpt lat="43.29318617668535" lon="10.732903798549053"><ele>269.4</ele><time>2026-03-22T10:35:16Z</time></trkpt><trkpt lat="43.29315376869549" lon="10.732730413606893"><ele>268.8</ele><time>2026-03-22T10:35:18Z</time></trkpt><trkpt lat="43.293130209900156" lon="10.732609760645818"><ele>268.2</ele><time>2026-03-22T10:35:20Z</time></trkpt><trkpt lat="43.293110545277464" lon="10.73251466227032"><ele>267.6</ele><time>2026-03-22T10:35:22Z</time></trkpt><trkpt lat="43.293112146501414" lon="10.732401749708416"><ele>267.0</ele><time>2026-03-22T10:35:24Z</time></trkpt><trkpt lat="43.29315783947782" lon="10.732238082957656"><ele>267.0</ele><time>2026-03-22T10:35:26Z</time></trkpt><trkpt lat="43.29316843172259" lon="10.73214585691462"><ele>267.0</ele><time>2026-03-22T10:35:27Z</time></trkpt><trkpt lat="43.29318089112114" lon="10.731991098605375"><ele>267.0</ele><time>2026-03-22T10:35:29Z</time></trkpt><trkpt lat="43.2931277392698" lon="10.731835487850242"><ele>267.0</ele><time>2026-03-22T10:35:32Z</time></trkpt><trkpt lat="43.2930813903804" lon="10.731743618120353"><ele>267.0</ele><time>2026-03-22T10:35:33Z</time></trkpt><trkpt lat="43.29302558215724" lon="10.731645210159588"><ele>264.8</ele><time>2026-03-22T10:35:34Z</time></trkpt><trkpt lat="43.29299366502887" lon="10.7315273113879"><ele>262.6</ele><time>2026-03-22T10:35:35Z</time></trkpt><trkpt lat="43.29297039980736" lon="10.731435964490611"><ele>260.40000000000003</ele><time>2026-03-22T10:35:36Z</time></trkpt><trkpt lat="43.292979036745436" lon="10.731284830968896"><ele>258.2</ele><time>2026-03-22T10:35:38Z</time></trkpt><trkpt lat="43.29303310646521" lon="10.731210557243534"><ele>256.0</ele><time>2026-03-22T10:35:39Z</time></trkpt><trkpt lat="43.2931073043041" lon="10.731106255088411"><ele>256.2</ele><time>2026-03-22T10:35:40Z</time></trkpt><trkpt lat="43.293160245985796" lon="10.730998274638063"><ele>256.40000000000003</ele><time>2026-03-22T10:35:41Z</time></trkpt><trkpt lat="43.29319235084925" lon="10.730866835845868"><ele>256.6</ele><time>2026-03-22T10:35:42Z</time></trkpt><trkpt lat="43.293242230484196" lon="10.730733372880612"><ele>256.8</ele><time>2026-03-22T10:35:43Z</time></trkpt><trkpt lat="43.2932663551635" lon="10.730577070903498"><ele>257.0</ele><time>2026-03-22T10:35:44Z</time></trkpt><trkpt lat="43.29330526915789" lon="10.730431424184502"><ele>257.0</ele><time>2026-03-22T10:35:45Z</time></trkpt><trkpt lat="43.29333601736713" lon="10.730319192429791"><ele>257.0</ele><time>2026-03-22T10:35:46Z</time></trkpt><trkpt lat="43.293386503430476" lon="10.730199480715694"><ele>257.0</ele><time>2026-03-22T10:35:48Z</time></trkpt><trkpt lat="43.29343553211647" lon="10.730133296916629"><ele>257.0</ele><time>2026-03-22T10:35:50Z</time></trkpt><trkpt lat="43.29349776281244" lon="10.730055515659075"><ele>257.0</ele><time>2026-03-22T10:35:52Z</time></trkpt><trkpt lat="43.29342833024986" lon="10.73013650369819"><ele>257.0</ele><time>2026-03-22T10:35:56Z</time></trkpt><trkpt lat="43.29337671024604" lon="10.730211306596443"><ele>257.0</ele><time>2026-03-22T10:35:58Z</time></trkpt><trkpt lat="43.29329596293209" lon="10.730220051283458"><ele>257.0</ele><time>2026-03-22T10:36:02Z</time></trkpt><trkpt lat="43.29324294088955" lon="10.73030466439264"><ele>257.0</ele><time>2026-03-22T10:36:04Z</time></trkpt><trkpt lat="43.293216356983905" lon="10.730404841901072"><ele>257.0</ele><time>2026-03-22T10:36:05Z</time></trkpt><trkpt lat="43.29317988483016" lon="10.73052007113804"><ele>257.0</ele><time>2026-03-22T10:36:06Z</time></trkpt><trkpt lat="43.29310708472418" lon="10.730632408783471"><ele>257.0</ele><time>2026-03-22T10:36:07Z</time></trkpt><trkpt lat="43.29302659866799" lon="10.730752623279795"><ele>253.50000000000003</ele><time>2026-03-22T10:36:08Z</time></trkpt><trkpt lat="43.29296270825835" lon="10.730824193291715"><ele>250.0</ele><time>2026-03-22T10:36:09Z</time></trkpt><trkpt lat="43.29289501510412" lon="10.73087539304942"><ele>246.5</ele><time>2026-03-22T10:36:10Z</time></trkpt><trkpt lat="43.292830848183115" lon="10.730921351350199"><ele>243.0</ele><time>2026-03-22T10:36:11Z</time></trkpt><trkpt lat="43.29275564737953" lon="10.730938908599054"><ele>239.50000000000003</ele><time>2026-03-22T10:36:12Z</time></trkpt><trkpt lat="43.29269121771827" lon="10.730942386549998"><ele>236.0</ele><time>2026-03-22T10:36:13Z</time></trkpt><trkpt lat="43.29259625829958" lon="10.730940911317367"><ele>236.0</ele><time>2026-03-22T10:36:14Z</time></trkpt><trkpt lat="43.29252245378518" lon="10.730927239159525"><ele>236.00000000000003</ele><time>2026-03-22T10:36:15Z</time></trkpt><trkpt lat="43.29242648667946" lon="10.730940359807425"><ele>236.00000000000003</ele><time>2026-03-22T10:36:17Z</time></trkpt><trkpt lat="43.29237428968442" lon="10.731063728622999"><ele>236.0</ele><time>2026-03-22T10:36:19Z</time></trkpt><trkpt lat="43.292373890718494" lon="10.731184840341156"><ele>236.0</ele><time>2026-03-22T10:36:21Z</time></trkpt><trkpt lat="43.2924246122107" lon="10.731301248811038"><ele>237.5</ele><time>2026-03-22T10:36:23Z</time></trkpt><trkpt lat="43.29247890427785" lon="10.731477472345825"><ele>239.0</ele><time>2026-03-22T10:36:25Z</time></trkpt><trkpt lat="43.292453279533525" lon="10.731623089651986"><ele>240.5</ele><time>2026-03-22T10:36:27Z</time></trkpt><trkpt lat="43.29238885131196" lon="10.731793418323086"><ele>242.0</ele><time>2026-03-22T10:36:29Z</time></trkpt><trkpt lat="43.29232548680452" lon="10.73186060954831"><ele>241.6</ele><time>2026-03-22T10:36:30Z</time></trkpt><trkpt lat="43.29223970384963" lon="10.73191513741498"><ele>241.2</ele><time>2026-03-22T10:36:31Z</time></trkpt><trkpt lat="43.2921762252161" lon="10.73194820999022"><ele>240.8</ele><time>2026-03-22T10:36:32Z</time></trkpt><trkpt lat="43.292042170542494" lon="10.732025329708028"><ele>240.4</ele><time>2026-03-22T10:36:34Z</time></trkpt><trkpt lat="43.29195158306806" lon="10.732072917813696"><ele>240.0</ele><time>2026-03-22T10:36:35Z</time></trkpt><trkpt lat="43.29187718901441" lon="10.732132247690423"><ele>240.0</ele><time>2026-03-22T10:36:36Z</time></trkpt><trkpt lat="43.2917373985391" lon="10.732170228356829"><ele>240.0</ele><time>2026-03-22T10:36:38Z</time></trkpt><trkpt lat="43.291664714606156" lon="10.732195808303354"><ele>240.0</ele><time>2026-03-22T10:36:39Z</time></trkpt><trkpt lat="43.29157435275709" lon="10.732294911818373"><ele>240.0</ele><time>2026-03-22T10:36:41Z</time></trkpt><trkpt lat="43.29150338540289" lon="10.732415406195743"><ele>240.0</ele><time>2026-03-22T10:36:43Z</time></trkpt><trkpt lat="43.291401060677664" lon="10.732451328057945"><ele>241.6</ele><time>2026-03-22T10:36:45Z</time></trkpt><trkpt lat="43.29135879537483" lon="10.732363988627915"><ele>243.2</ele><time>2026-03-22T10:36:47Z</time></trkpt><trkpt lat="43.29131855357344" lon="10.732191956657452"><ele>244.8</ele><time>2026-03-22T10:36:49Z</time></trkpt><trkpt lat="43.2912738965179" lon="10.732085040767185"><ele>246.4</ele><time>2026-03-22T10:36:50Z</time></trkpt><trkpt lat="43.29122205887185" lon="10.731964149014747"><ele>248.0</ele><time>2026-03-22T10:36:51Z</time></trkpt><trkpt lat="43.29118101784448" lon="10.731848252634306"><ele>244.66666666666669</ele><time>2026-03-22T10:36:52Z</time></trkpt><trkpt lat="43.29115498221671" lon="10.731761403902903"><ele>241.33333333333334</ele><time>2026-03-22T10:36:53Z</time></trkpt><trkpt lat="43.29113149623545" lon="10.731669922449532"><ele>238.0</ele><time>2026-03-22T10:36:54Z</time></trkpt><trkpt lat="43.291077186269554" lon="10.731567209307181"><ele>234.66666666666669</ele><time>2026-03-22T10:36:55Z</time></trkpt><trkpt lat="43.291016527676234" lon="10.731511282402083"><ele>231.33333333333334</ele><time>2026-03-22T10:36:56Z</time></trkpt><trkpt lat="43.29095640658905" lon="10.731463837575705"><ele>228.0</ele><time>2026-03-22T10:36:57Z</time></trkpt><trkpt lat="43.2908693372949" lon="10.731422866786643"><ele>228.0</ele><time>2026-03-22T10:36:58Z</time></trkpt><trkpt lat="43.29076481317129" lon="10.731380265455044"><ele>228.0</ele><time>2026-03-22T10:36:59Z</time></trkpt><trkpt lat="43.29067381071473" lon="10.731346896662155"><ele>228.0</ele><time>2026-03-22T10:37:00Z</time></trkpt><trkpt lat="43.29060355930925" lon="10.731325885059325"><ele>228.0</ele><time>2026-03-22T10:37:01Z</time></trkpt><trkpt lat="43.29052937588556" lon="10.7313192397558"><ele>228.0</ele><time>2026-03-22T10:37:02Z</time></trkpt><trkpt lat="43.29046622313713" lon="10.731294425551564"><ele>228.0</ele><time>2026-03-22T10:37:03Z</time></trkpt><trkpt lat="43.2903665903917" lon="10.731185097607169"><ele>223.4</ele><time>2026-03-22T10:37:05Z</time></trkpt><trkpt lat="43.290354475637564" lon="10.731015022793724"><ele>218.8</ele><time>2026-03-22T10:37:07Z</time></trkpt><trkpt lat="43.29030496932466" lon="10.730855937531368"><ele>214.2</ele><time>2026-03-22T10:37:09Z</time></trkpt><trkpt lat="43.29023507847439" lon="10.730813671573518"><ele>209.6</ele><time>2026-03-22T10:37:10Z</time></trkpt><trkpt lat="43.2901329489703" lon="10.730774134540383"><ele>205.0</ele><time>2026-03-22T10:37:12Z</time></trkpt><trkpt lat="43.290067502634365" lon="10.730759764220066"><ele>205.0</ele><time>2026-03-22T10:37:13Z</time></trkpt><trkpt lat="43.289969954939956" lon="10.73078030095875"><ele>205.0</ele><time>2026-03-22T10:37:15Z</time></trkpt><trkpt lat="43.289872826884945" lon="10.730849067943579"><ele>205.0</ele><time>2026-03-22T10:37:17Z</time></trkpt><trkpt lat="43.289797533682865" lon="10.730968147466072"><ele>205.0</ele><time>2026-03-22T10:37:19Z</time></trkpt><trkpt lat="43.28971747565106" lon="10.73104382019747"><ele>205.0</ele><time>2026-03-22T10:37:21Z</time></trkpt><trkpt lat="43.28961275995844" lon="10.73111256927014"><ele>204.66666666666666</ele><time>2026-03-22T10:37:23Z</time></trkpt><trkpt lat="43.28954936474707" lon="10.73113932298951"><ele>204.33333333333331</ele><time>2026-03-22T10:37:24Z</time></trkpt><trkpt lat="43.28948949321656" lon="10.731182247640604"><ele>204.0</ele><time>2026-03-22T10:37:25Z</time></trkpt><trkpt lat="43.289400767510706" lon="10.73126853763848"><ele>203.66666666666669</ele><time>2026-03-22T10:37:27Z</time></trkpt><trkpt lat="43.28933706307688" lon="10.731301594811043"><ele>203.33333333333334</ele><time>2026-03-22T10:37:28Z</time></trkpt><trkpt lat="43.289281246243135" lon="10.731356127344453"><ele>203.0</ele><time>2026-03-22T10:37:29Z</time></trkpt><trkpt lat="43.28921376418747" lon="10.73141580390879"><ele>203.0</ele><time>2026-03-22T10:37:30Z</time></trkpt><trkpt lat="43.28913121623958" lon="10.731491291215756"><ele>203.0</ele><time>2026-03-22T10:37:32Z</time></trkpt><trkpt lat="43.28903700174882" lon="10.731536191403043"><ele>203.0</ele><time>2026-03-22T10:37:34Z</time></trkpt><trkpt lat="43.288927305953" lon="10.731532533112953"><ele>203.0</ele><time>2026-03-22T10:37:36Z</time></trkpt><trkpt lat="43.28883698452585" lon="10.731479850988523"><ele>203.0</ele><time>2026-03-22T10:37:38Z</time></trkpt><trkpt lat="43.2887852213182" lon="10.731424465428606"><ele>204.8</ele><time>2026-03-22T10:37:39Z</time></trkpt><trkpt lat="43.28868859296965" lon="10.73133823127369"><ele>206.60000000000002</ele><time>2026-03-22T10:37:41Z</time></trkpt><trkpt lat="43.288694695928825" lon="10.731234128525099"><ele>208.39999999999998</ele><time>2026-03-22T10:37:43Z</time></trkpt><trkpt lat="43.28874752068837" lon="10.731069639670267"><ele>210.2</ele><time>2026-03-22T10:37:45Z</time></trkpt><trkpt lat="43.288776821031504" lon="10.730974479221233"><ele>212.0</ele><time>2026-03-22T10:37:46Z</time></trkpt><trkpt lat="43.28878219123382" lon="10.730826680289152"><ele>212.2</ele><time>2026-03-22T10:37:48Z</time></trkpt><trkpt lat="43.28874651690969" lon="10.730729979256708"><ele>212.39999999999998</ele><time>2026-03-22T10:37:49Z</time></trkpt><trkpt lat="43.288714782985345" lon="10.730584701570361"><ele>212.60000000000002</ele><time>2026-03-22T10:37:51Z</time></trkpt><trkpt lat="43.28872354083497" lon="10.730400825251527"><ele>212.8</ele><time>2026-03-22T10:37:53Z</time></trkpt><trkpt lat="43.288726626824364" lon="10.730274873851835"><ele>213.0</ele><time>2026-03-22T10:37:54Z</time></trkpt><trkpt lat="43.28872436677802" lon="10.7301698238256"><ele>213.0</ele><time>2026-03-22T10:37:55Z</time></trkpt><trkpt lat="43.28865909840393" lon="10.730046736350927"><ele>213.0</ele><time>2026-03-22T10:37:57Z</time></trkpt><trkpt lat="43.28859683095719" lon="10.729951582089614"><ele>213.0</ele><time>2026-03-22T10:37:58Z</time></trkpt><trkpt lat="43.28856120405936" lon="10.729854811218686"><ele>213.0</ele><time>2026-03-22T10:37:59Z</time></trkpt><trkpt lat="43.28850304453742" lon="10.72975983712633"><ele>213.0</ele><time>2026-03-22T10:38:00Z</time></trkpt><trkpt lat="43.28842533699309" lon="10.729677079217852"><ele>213.0</ele><time>2026-03-22T10:38:01Z</time></trkpt><trkpt lat="43.288356279014415" lon="10.729587357212676"><ele>213.0</ele><time>2026-03-22T10:38:02Z</time></trkpt><trkpt lat="43.28831232760332" lon="10.729516606199995"><ele>213.0</ele><time>2026-03-22T10:38:03Z</time></trkpt><trkpt lat="43.28825069634187" lon="10.729469971011216"><ele>213.0</ele><time>2026-03-22T10:38:04Z</time></trkpt><trkpt lat="43.28819442690309" lon="10.729406532475618"><ele>213.0</ele><time>2026-03-22T10:38:05Z</time></trkpt><trkpt lat="43.28813563498256" lon="10.72934213738245"><ele>213.0</ele><time>2026-03-22T10:38:06Z</time></trkpt><trkpt lat="43.288049806638796" lon="10.729289993548328"><ele>214.83333333333334</ele><time>2026-03-22T10:38:08Z</time></trkpt><trkpt lat="43.28797835650868" lon="10.729276434858367"><ele>216.66666666666669</ele><time>2026-03-22T10:38:09Z</time></trkpt><trkpt lat="43.2879098491777" lon="10.729239842817544"><ele>218.5</ele><time>2026-03-22T10:38:10Z</time></trkpt><trkpt lat="43.28784113128845" lon="10.729224844599807"><ele>220.33333333333334</ele><time>2026-03-22T10:38:11Z</time></trkpt><trkpt lat="43.2877578538063" lon="10.729225469407096"><ele>222.16666666666669</ele><time>2026-03-22T10:38:12Z</time></trkpt><trkpt lat="43.287665062040745" lon="10.729216029152619"><ele>224.0</ele><time>2026-03-22T10:38:13Z</time></trkpt><trkpt lat="43.287585063460355" lon="10.729201195634413"><ele>224.00000000000003</ele><time>2026-03-22T10:38:14Z</time></trkpt><trkpt lat="43.28750722097009" lon="10.729201292626268"><ele>224.0</ele><time>2026-03-22T10:38:15Z</time></trkpt><trkpt lat="43.287418337647196" lon="10.729209791312005"><ele>224.0</ele><time>2026-03-22T10:38:16Z</time></trkpt><trkpt lat="43.287344985525756" lon="10.729209225360512"><ele>224.0</ele><time>2026-03-22T10:38:17Z</time></trkpt><trkpt lat="43.287268688885405" lon="10.729184886358343"><ele>224.00000000000003</ele><time>2026-03-22T10:38:18Z</time></trkpt><trkpt lat="43.287199939212385" lon="10.72917047748273"><ele>224.0</ele><time>2026-03-22T10:38:19Z</time></trkpt><trkpt lat="43.28707936128098" lon="10.72919451748233"><ele>224.6</ele><time>2026-03-22T10:38:21Z</time></trkpt><trkpt lat="43.287004715781634" lon="10.729218538750617"><ele>225.2</ele><time>2026-03-22T10:38:22Z</time></trkpt><trkpt lat="43.286926357397554" lon="10.729255525958202"><ele>225.79999999999998</ele><time>2026-03-22T10:38:23Z</time></trkpt><trkpt lat="43.28685746360673" lon="10.72929022621505"><ele>226.39999999999998</ele><time>2026-03-22T10:38:24Z</time></trkpt><trkpt lat="43.2867720585087" lon="10.729301312349545"><ele>227.0</ele><time>2026-03-22T10:38:25Z</time></trkpt><trkpt lat="43.28662911725372" lon="10.729342596902589"><ele>227.0</ele><time>2026-03-22T10:38:27Z</time></trkpt><trkpt lat="43.28652825841924" lon="10.729345882183013"><ele>227.0</ele><time>2026-03-22T10:38:28Z</time></trkpt><trkpt lat="43.28645702679308" lon="10.729364566122522"><ele>227.0</ele><time>2026-03-22T10:38:29Z</time></trkpt><trkpt lat="43.286367962688686" lon="10.729383384717622"><ele>227.0</ele><time>2026-03-22T10:38:31Z</time></trkpt><trkpt lat="43.286277284792064" lon="10.729547206950603"><ele>227.0</ele><time>2026-03-22T10:38:33Z</time></trkpt><trkpt lat="43.28621391648849" lon="10.729617532228508"><ele>227.2857142857143</ele><time>2026-03-22T10:38:34Z</time></trkpt><trkpt lat="43.28615355710977" lon="10.72966328284847"><ele>227.5714285714286</ele><time>2026-03-22T10:38:35Z</time></trkpt><trkpt lat="43.28610293956309" lon="10.729717419338543"><ele>227.85714285714286</ele><time>2026-03-22T10:38:36Z</time></trkpt><trkpt lat="43.28605801483051" lon="10.729804945152297"><ele>228.14285714285717</ele><time>2026-03-22T10:38:37Z</time></trkpt><trkpt lat="43.28600329967316" lon="10.729874933086096"><ele>228.42857142857144</ele><time>2026-03-22T10:38:38Z</time></trkpt><trkpt lat="43.285941798007926" lon="10.729905000585584"><ele>228.71428571428572</ele><time>2026-03-22T10:38:39Z</time></trkpt><trkpt lat="43.28586210818491" lon="10.729922218390438"><ele>229.0</ele><time>2026-03-22T10:38:40Z</time></trkpt><trkpt lat="43.28578943974259" lon="10.729953660925585"><ele>229.0</ele><time>2026-03-22T10:38:41Z</time></trkpt><trkpt lat="43.28569879827081" lon="10.729973442612021"><ele>228.99999999999997</ele><time>2026-03-22T10:38:42Z</time></trkpt><trkpt lat="43.28558569444634" lon="10.730031534568047"><ele>228.99999999999997</ele><time>2026-03-22T10:38:43Z</time></trkpt><trkpt lat="43.28546761670033" lon="10.730081390842027"><ele>229.0</ele><time>2026-03-22T10:38:44Z</time></trkpt><trkpt lat="43.28537048630761" lon="10.730126707716714"><ele>229.0</ele><time>2026-03-22T10:38:45Z</time></trkpt><trkpt lat="43.28528264966944" lon="10.730165982191831"><ele>228.6</ele><time>2026-03-22T10:38:46Z</time></trkpt><trkpt lat="43.28518590842438" lon="10.730203695289322"><ele>228.2</ele><time>2026-03-22T10:38:47Z</time></trkpt><trkpt lat="43.28508118733706" lon="10.730252374841292"><ele>227.79999999999998</ele><time>2026-03-22T10:38:48Z</time></trkpt><trkpt lat="43.28497390769393" lon="10.730280306245648"><ele>227.39999999999998</ele><time>2026-03-22T10:38:49Z</time></trkpt><trkpt lat="43.28488150280494" lon="10.730323738493917"><ele>227.0</ele><time>2026-03-22T10:38:50Z</time></trkpt><trkpt lat="43.28478483634764" lon="10.730351605266115"><ele>230.8</ele><time>2026-03-22T10:38:51Z</time></trkpt><trkpt lat="43.284702062957855" lon="10.730383147985387"><ele>234.6</ele><time>2026-03-22T10:38:52Z</time></trkpt><trkpt lat="43.28457230514143" lon="10.7304406497148"><ele>238.40000000000003</ele><time>2026-03-22T10:38:54Z</time></trkpt><trkpt lat="43.28447167678996" lon="10.730453172515189"><ele>242.20000000000002</ele><time>2026-03-22T10:38:55Z</time></trkpt><trkpt lat="43.28438734015021" lon="10.730470982456437"><ele>246.0</ele><time>2026-03-22T10:38:56Z</time></trkpt><trkpt lat="43.28430523084284" lon="10.730475738471418"><ele>246.0</ele><time>2026-03-22T10:38:57Z</time></trkpt><trkpt lat="43.284227044748405" lon="10.730464505536585"><ele>246.0</ele><time>2026-03-22T10:38:58Z</time></trkpt><trkpt lat="43.28415289741981" lon="10.730436981038437"><ele>246.0</ele><time>2026-03-22T10:38:59Z</time></trkpt><trkpt lat="43.28409208647581" lon="10.730341265877865"><ele>246.0</ele><time>2026-03-22T10:39:01Z</time></trkpt><trkpt lat="43.28405890177089" lon="10.730183617108187"><ele>246.0</ele><time>2026-03-22T10:39:03Z</time></trkpt><trkpt lat="43.28404231813256" lon="10.730081806645481"><ele>246.0</ele><time>2026-03-22T10:39:04Z</time></trkpt><trkpt lat="43.28401761367902" lon="10.729906835959849"><ele>244.66666666666666</ele><time>2026-03-22T10:39:06Z</time></trkpt><trkpt lat="43.2839749802573" lon="10.729807252345871"><ele>243.33333333333331</ele><time>2026-03-22T10:39:07Z</time></trkpt><trkpt lat="43.283936458984535" lon="10.72971137910894"><ele>242.0</ele><time>2026-03-22T10:39:08Z</time></trkpt><trkpt lat="43.283906317608455" lon="10.729622533082669"><ele>240.66666666666666</ele><time>2026-03-22T10:39:09Z</time></trkpt><trkpt lat="43.28385400912648" lon="10.729538625276566"><ele>239.33333333333331</ele><time>2026-03-22T10:39:10Z</time></trkpt><trkpt lat="43.283812217172574" lon="10.729461670924941"><ele>238.0</ele><time>2026-03-22T10:39:11Z</time></trkpt><trkpt lat="43.28375001154565" lon="10.729412346718682"><ele>236.0</ele><time>2026-03-22T10:39:12Z</time></trkpt><trkpt lat="43.283679372397046" lon="10.729373711784831"><ele>234.0</ele><time>2026-03-22T10:39:13Z</time></trkpt><trkpt lat="43.28354366042042" lon="10.729295962910475"><ele>232.0</ele><time>2026-03-22T10:39:15Z</time></trkpt><trkpt lat="43.28348420850234" lon="10.729248881405592"><ele>230.0</ele><time>2026-03-22T10:39:16Z</time></trkpt><trkpt lat="43.28344876649932" lon="10.729086813302548"><ele>228.0</ele><time>2026-03-22T10:39:18Z</time></trkpt><trkpt lat="43.28340969709348" lon="10.728976826145853"><ele>228.0</ele><time>2026-03-22T10:39:19Z</time></trkpt><trkpt lat="43.28334512533082" lon="10.728893907356648"><ele>228.0</ele><time>2026-03-22T10:39:20Z</time></trkpt><trkpt lat="43.28324928195154" lon="10.728859689833184"><ele>228.0</ele><time>2026-03-22T10:39:21Z</time></trkpt><trkpt lat="43.283140595738146" lon="10.728848748643372"><ele>228.0</ele><time>2026-03-22T10:39:22Z</time></trkpt><trkpt lat="43.28305952082824" lon="10.728810347181048"><ele>228.0</ele><time>2026-03-22T10:39:23Z</time></trkpt><trkpt lat="43.28295994972452" lon="10.728758700131008"><ele>228.2</ele><time>2026-03-22T10:39:25Z</time></trkpt><trkpt lat="43.28287043815194" lon="10.728681964544391"><ele>228.4</ele><time>2026-03-22T10:39:27Z</time></trkpt><trkpt lat="43.28278607328258" lon="10.728629910457979"><ele>228.59999999999997</ele><time>2026-03-22T10:39:29Z</time></trkpt><trkpt lat="43.28270523221306" lon="10.72855769367752"><ele>228.79999999999998</ele><time>2026-03-22T10:39:31Z</time></trkpt><trkpt lat="43.28265429196578" lon="10.728431341442969"><ele>229.0</ele><time>2026-03-22T10:39:33Z</time></trkpt><trkpt lat="43.282606180362755" lon="10.728298855002485"><ele>228.99999999999997</ele><time>2026-03-22T10:39:35Z</time></trkpt><trkpt lat="43.28257508542705" lon="10.728209639236823"><ele>229.0</ele><time>2026-03-22T10:39:36Z</time></trkpt><trkpt lat="43.28254015773292" lon="10.728134749100182"><ele>229.0</ele><time>2026-03-22T10:39:37Z</time></trkpt><trkpt lat="43.28250612258097" lon="10.728030237816787"><ele>229.0</ele><time>2026-03-22T10:39:38Z</time></trkpt><trkpt lat="43.282459362004474" lon="10.727926327450755"><ele>228.99999999999997</ele><time>2026-03-22T10:39:39Z</time></trkpt><trkpt lat="43.28241916244041" lon="10.727851007636401"><ele>229.0</ele><time>2026-03-22T10:39:40Z</time></trkpt><trkpt lat="43.28245055574772" lon="10.727679489964082"><ele>228.16666666666666</ele><time>2026-03-22T10:39:42Z</time></trkpt><trkpt lat="43.282488274963676" lon="10.727547587641281"><ele>227.33333333333331</ele><time>2026-03-22T10:39:43Z</time></trkpt><trkpt lat="43.28251824931252" lon="10.727417332054685"><ele>226.5</ele><time>2026-03-22T10:39:45Z</time></trkpt><trkpt lat="43.28254792443795" lon="10.727318078375644"><ele>225.66666666666669</ele><time>2026-03-22T10:39:48Z</time></trkpt><trkpt lat="43.28262202426191" lon="10.727276757502814"><ele>224.83333333333334</ele><time>2026-03-22T10:39:50Z</time></trkpt><trkpt lat="43.28268211884416" lon="10.727231486621326"><ele>224.0</ele><time>2026-03-22T10:39:51Z</time></trkpt><trkpt lat="43.28276938689621" lon="10.727173009838218"><ele>224.0</ele><time>2026-03-22T10:39:52Z</time></trkpt><trkpt lat="43.28285001679505" lon="10.727082809055734"><ele>223.99999999999997</ele><time>2026-03-22T10:39:53Z</time></trkpt><trkpt lat="43.282918563209144" lon="10.727008372984784"><ele>223.99999999999997</ele><time>2026-03-22T10:39:54Z</time></trkpt><trkpt lat="43.282983874855105" lon="10.726953045287203"><ele>224.0</ele><time>2026-03-22T10:39:55Z</time></trkpt><trkpt lat="43.28304047823701" lon="10.726900935794106"><ele>224.0</ele><time>2026-03-22T10:39:56Z</time></trkpt><trkpt lat="43.28308746186085" lon="10.726749874952162"><ele>223.79999999999998</ele><time>2026-03-22T10:39:58Z</time></trkpt><trkpt lat="43.28308214671062" lon="10.726549424342727"><ele>223.59999999999997</ele><time>2026-03-22T10:40:00Z</time></trkpt><trkpt lat="43.28307304661328" lon="10.726422994346617"><ele>223.4</ele><time>2026-03-22T10:40:01Z</time></trkpt><trkpt lat="43.283066882023085" lon="10.72629881342183"><ele>223.2</ele><time>2026-03-22T10:40:02Z</time></trkpt><trkpt lat="43.28303142478433" lon="10.726188644610817"><ele>223.0</ele><time>2026-03-22T10:40:03Z</time></trkpt><trkpt lat="43.28301303915338" lon="10.726089039399136"><ele>222.16666666666666</ele><time>2026-03-22T10:40:04Z</time></trkpt><trkpt lat="43.282994874923766" lon="10.725939366303207"><ele>221.33333333333331</ele><time>2026-03-22T10:40:06Z</time></trkpt><trkpt lat="43.282990225576214" lon="10.725851770128678"><ele>220.5</ele><time>2026-03-22T10:40:07Z</time></trkpt><trkpt lat="43.283002032398024" lon="10.725757564939546"><ele>219.66666666666669</ele><time>2026-03-22T10:40:08Z</time></trkpt><trkpt lat="43.283016198164745" lon="10.725640995311943"><ele>218.83333333333334</ele><time>2026-03-22T10:40:09Z</time></trkpt><trkpt lat="43.283045121059686" lon="10.725504083933247"><ele>218.0</ele><time>2026-03-22T10:40:10Z</time></trkpt><trkpt lat="43.283075916645394" lon="10.725362728962471"><ele>216.8</ele><time>2026-03-22T10:40:11Z</time></trkpt><trkpt lat="43.28310819947537" lon="10.725215231925066"><ele>215.60000000000002</ele><time>2026-03-22T10:40:12Z</time></trkpt><trkpt lat="43.28314011469537" lon="10.725087440343158"><ele>214.39999999999998</ele><time>2026-03-22T10:40:13Z</time></trkpt><trkpt lat="43.28317768378628" lon="10.724957410815216"><ele>213.2</ele><time>2026-03-22T10:40:14Z</time></trkpt><trkpt lat="43.28321172853603" lon="10.724855854391597"><ele>212.0</ele><time>2026-03-22T10:40:15Z</time></trkpt><trkpt lat="43.28322297360394" lon="10.724765680196619"><ele>212.0</ele><time>2026-03-22T10:40:16Z</time></trkpt><trkpt lat="43.28322278663887" lon="10.724647589070527"><ele>212.0</ele><time>2026-03-22T10:40:17Z</time></trkpt><trkpt lat="43.28322985772643" lon="10.72449122112852"><ele>212.0</ele><time>2026-03-22T10:40:18Z</time></trkpt><trkpt lat="43.283246971826294" lon="10.72433156783518"><ele>212.0</ele><time>2026-03-22T10:40:19Z</time></trkpt><trkpt lat="43.28324980372365" lon="10.724181691687068"><ele>212.0</ele><time>2026-03-22T10:40:20Z</time></trkpt><trkpt lat="43.283237735142635" lon="10.724012468089036"><ele>213.2</ele><time>2026-03-22T10:40:21Z</time></trkpt><trkpt lat="43.28323901190247" lon="10.723827968273321"><ele>214.39999999999998</ele><time>2026-03-22T10:40:22Z</time></trkpt><trkpt lat="43.283243264597736" lon="10.723678850957464"><ele>215.60000000000002</ele><time>2026-03-22T10:40:23Z</time></trkpt><trkpt lat="43.283253069852954" lon="10.723530067465857"><ele>216.8</ele><time>2026-03-22T10:40:24Z</time></trkpt><trkpt lat="43.283268815445886" lon="10.723401102820912"><ele>218.0</ele><time>2026-03-22T10:40:25Z</time></trkpt><trkpt lat="43.28327850898267" lon="10.72328582638982"><ele>219.2</ele><time>2026-03-22T10:40:26Z</time></trkpt><trkpt lat="43.28333271825912" lon="10.723111637731686"><ele>220.4</ele><time>2026-03-22T10:40:28Z</time></trkpt><trkpt lat="43.28337210280499" lon="10.722993535773554"><ele>221.59999999999997</ele><time>2026-03-22T10:40:29Z</time></trkpt><trkpt lat="43.2834033493885" lon="10.722900383105237"><ele>222.79999999999998</ele><time>2026-03-22T10:40:30Z</time></trkpt><trkpt lat="43.28343298713612" lon="10.722806734198297"><ele>224.0</ele><time>2026-03-22T10:40:31Z</time></trkpt><trkpt lat="43.283452608024" lon="10.722702566437214"><ele>224.00000000000003</ele><time>2026-03-22T10:40:32Z</time></trkpt><trkpt lat="43.2834729850005" lon="10.722606115987581"><ele>224.0</ele><time>2026-03-22T10:40:33Z</time></trkpt><trkpt lat="43.283504100749354" lon="10.72252130952119"><ele>224.0</ele><time>2026-03-22T10:40:34Z</time></trkpt><trkpt lat="43.283545661256234" lon="10.722452388071593"><ele>224.0</ele><time>2026-03-22T10:40:35Z</time></trkpt><trkpt lat="43.2836030215798" lon="10.722374507673095"><ele>224.00000000000003</ele><time>2026-03-22T10:40:36Z</time></trkpt><trkpt lat="43.28366846629343" lon="10.722289088056632"><ele>224.0</ele><time>2026-03-22T10:40:37Z</time></trkpt><trkpt lat="43.28372574199141" lon="10.722225549836685"><ele>224.00000000000003</ele><time>2026-03-22T10:40:38Z</time></trkpt><trkpt lat="43.28380458504412" lon="10.722143019352016"><ele>224.0</ele><time>2026-03-22T10:40:39Z</time></trkpt><trkpt lat="43.283862424809186" lon="10.722058448054108"><ele>224.0</ele><time>2026-03-22T10:40:40Z</time></trkpt><trkpt lat="43.28390850933265" lon="10.721966190797845"><ele>224.0</ele><time>2026-03-22T10:40:41Z</time></trkpt><trkpt lat="43.283962646581045" lon="10.7218722622487"><ele>224.00000000000003</ele><time>2026-03-22T10:40:42Z</time></trkpt><trkpt lat="43.2840139739982" lon="10.721762774140904"><ele>224.0</ele><time>2026-03-22T10:40:43Z</time></trkpt><trkpt lat="43.28405637084791" lon="10.721666077479282"><ele>222.0</ele><time>2026-03-22T10:40:44Z</time></trkpt><trkpt lat="43.28411803513536" lon="10.721563978058668"><ele>219.99999999999997</ele><time>2026-03-22T10:40:45Z</time></trkpt><trkpt lat="43.28417624054499" lon="10.72147729712012"><ele>217.99999999999997</ele><time>2026-03-22T10:40:46Z</time></trkpt><trkpt lat="43.28424329024202" lon="10.721384023221896"><ele>216.0</ele><time>2026-03-22T10:40:47Z</time></trkpt><trkpt lat="43.284333650065754" lon="10.721282434870899"><ele>214.0</ele><time>2026-03-22T10:40:48Z</time></trkpt><trkpt lat="43.28441603409248" lon="10.72118875269766"><ele>213.99999999999997</ele><time>2026-03-22T10:40:49Z</time></trkpt><trkpt lat="43.2844667150454" lon="10.721108898299656"><ele>214.0</ele><time>2026-03-22T10:40:50Z</time></trkpt><trkpt lat="43.2845080394532" lon="10.721014097279346"><ele>214.0</ele><time>2026-03-22T10:40:51Z</time></trkpt><trkpt lat="43.28454199696651" lon="10.720903406869946"><ele>214.0</ele><time>2026-03-22T10:40:52Z</time></trkpt><trkpt lat="43.28457762098348" lon="10.720787403075583"><ele>213.99999999999997</ele><time>2026-03-22T10:40:53Z</time></trkpt><trkpt lat="43.28461252654759" lon="10.720695043038743"><ele>214.0</ele><time>2026-03-22T10:40:54Z</time></trkpt><trkpt lat="43.28466503650279" lon="10.720619778859717"><ele>214.0</ele><time>2026-03-22T10:40:55Z</time></trkpt><trkpt lat="43.284734938275825" lon="10.720484241456829"><ele>213.99999999999997</ele><time>2026-03-22T10:40:57Z</time></trkpt><trkpt lat="43.28474996538043" lon="10.72033126790903"><ele>213.99999999999997</ele><time>2026-03-22T10:40:59Z</time></trkpt><trkpt lat="43.28473733510556" lon="10.72021027685518"><ele>214.0</ele><time>2026-03-22T10:41:00Z</time></trkpt><trkpt lat="43.284720603656574" lon="10.720050563799456"><ele>214.0</ele><time>2026-03-22T10:41:02Z</time></trkpt><trkpt lat="43.28474585039303" lon="10.719880952688131"><ele>212.49999999999997</ele><time>2026-03-22T10:41:04Z</time></trkpt><trkpt lat="43.28470982581936" lon="10.71979803300669"><ele>211.0</ele><time>2026-03-22T10:41:06Z</time></trkpt><trkpt lat="43.28470637225418" lon="10.71969257970251"><ele>209.5</ele><time>2026-03-22T10:41:08Z</time></trkpt><trkpt lat="43.284747882463606" lon="10.719534957270001"><ele>208.0</ele><time>2026-03-22T10:41:10Z</time></trkpt><trkpt lat="43.284775930968046" lon="10.719440945576798"><ele>206.49999999999997</ele><time>2026-03-22T10:41:11Z</time></trkpt><trkpt lat="43.28478886955609" lon="10.719304402743017"><ele>205.0</ele><time>2026-03-22T10:41:13Z</time></trkpt><trkpt lat="43.28485468998225" lon="10.71929436791371"><ele>204.66666666666666</ele><time>2026-03-22T10:41:16Z</time></trkpt><trkpt lat="43.28497050855882" lon="10.719260402039541"><ele>204.33333333333331</ele><time>2026-03-22T10:41:18Z</time></trkpt><trkpt lat="43.28505447278642" lon="10.719297386355016"><ele>204.0</ele><time>2026-03-22T10:41:20Z</time></trkpt><trkpt lat="43.285126618345565" lon="10.719297835137997"><ele>203.66666666666669</ele><time>2026-03-22T10:41:22Z</time></trkpt><trkpt lat="43.28520571481682" lon="10.719327320887738"><ele>203.33333333333334</ele><time>2026-03-22T10:41:24Z</time></trkpt><trkpt lat="43.28527152484733" lon="10.719394050833456"><ele>203.0</ele><time>2026-03-22T10:41:26Z</time></trkpt><trkpt lat="43.28537228103473" lon="10.719454245033786"><ele>203.00000000000003</ele><time>2026-03-22T10:41:31Z</time></trkpt><trkpt lat="43.28549152096474" lon="10.7194437346747"><ele>203.0</ele><time>2026-03-22T10:41:33Z</time></trkpt><trkpt lat="43.28556773287673" lon="10.719412839494339"><ele>203.0</ele><time>2026-03-22T10:41:35Z</time></trkpt><trkpt lat="43.28563565796688" lon="10.719410986505098"><ele>203.0</ele><time>2026-03-22T10:41:36Z</time></trkpt><trkpt lat="43.285734897595994" lon="10.719448496700803"><ele>203.00000000000003</ele><time>2026-03-22T10:41:38Z</time></trkpt><trkpt lat="43.28578693378396" lon="10.71938906774335"><ele>203.0</ele><time>2026-03-22T10:41:39Z</time></trkpt><trkpt lat="43.285869996313075" lon="10.71933988501005"><ele>200.16666666666669</ele><time>2026-03-22T10:41:41Z</time></trkpt><trkpt lat="43.285937155408625" lon="10.719332115580135"><ele>197.33333333333334</ele><time>2026-03-22T10:41:42Z</time></trkpt><trkpt lat="43.28601378762167" lon="10.719328652402329"><ele>194.5</ele><time>2026-03-22T10:41:43Z</time></trkpt><trkpt lat="43.28607141778785" lon="10.719269966123502"><ele>191.66666666666669</ele><time>2026-03-22T10:41:44Z</time></trkpt><trkpt lat="43.28615443251024" lon="10.719174957595875"><ele>188.83333333333334</ele><time>2026-03-22T10:41:46Z</time></trkpt><trkpt lat="43.286262391962005" lon="10.719116765935283"><ele>186.0</ele><time>2026-03-22T10:41:48Z</time></trkpt><trkpt lat="43.28637265323768" lon="10.719088944744563"><ele>184.5</ele><time>2026-03-22T10:41:50Z</time></trkpt><trkpt lat="43.28645474477085" lon="10.719068989541377"><ele>183.0</ele><time>2026-03-22T10:41:52Z</time></trkpt><trkpt lat="43.28651977930906" lon="10.719048370010324"><ele>181.5</ele><time>2026-03-22T10:41:53Z</time></trkpt><trkpt lat="43.28658599085002" lon="10.718973771185892"><ele>180.0</ele><time>2026-03-22T10:41:55Z</time></trkpt><trkpt lat="43.28669657617189" lon="10.718927607521055"><ele>178.5</ele><time>2026-03-22T10:41:57Z</time></trkpt><trkpt lat="43.286764597844055" lon="10.718935023338585"><ele>177.0</ele><time>2026-03-22T10:41:58Z</time></trkpt><trkpt lat="43.28685347067633" lon="10.718933236989104"><ele>177.0</ele><time>2026-03-22T10:41:59Z</time></trkpt><trkpt lat="43.28692365154499" lon="10.718898562727212"><ele>177.0</ele><time>2026-03-22T10:42:00Z</time></trkpt><trkpt lat="43.28700395994602" lon="10.718837335688471"><ele>177.0</ele><time>2026-03-22T10:42:02Z</time></trkpt><trkpt lat="43.28709904514422" lon="10.718773265187515"><ele>177.0</ele><time>2026-03-22T10:42:04Z</time></trkpt><trkpt lat="43.28717420087805" lon="10.718706494219724"><ele>177.0</ele><time>2026-03-22T10:42:05Z</time></trkpt><trkpt lat="43.287253647192514" lon="10.718620176855962"><ele>175.39999999999998</ele><time>2026-03-22T10:42:07Z</time></trkpt><trkpt lat="43.28733999877669" lon="10.7186102445361"><ele>173.79999999999998</ele><time>2026-03-22T10:42:08Z</time></trkpt><trkpt lat="43.28741687845909" lon="10.718600205297417"><ele>172.2</ele><time>2026-03-22T10:42:09Z</time></trkpt><trkpt lat="43.2874874877896" lon="10.718707448926489"><ele>170.6</ele><time>2026-03-22T10:42:10Z</time></trkpt><trkpt lat="43.28755420611559" lon="10.718753998068978"><ele>169.0</ele><time>2026-03-22T10:42:11Z</time></trkpt><trkpt lat="43.287656667008896" lon="10.718794568175577"><ele>169.0</ele><time>2026-03-22T10:42:12Z</time></trkpt><trkpt lat="43.287747711369015" lon="10.718804595835227"><ele>169.0</ele><time>2026-03-22T10:42:13Z</time></trkpt><trkpt lat="43.287817610404566" lon="10.718792819068693"><ele>169.0</ele><time>2026-03-22T10:42:14Z</time></trkpt><trkpt lat="43.28794073721362" lon="10.718784689580017"><ele>169.0</ele><time>2026-03-22T10:42:16Z</time></trkpt><trkpt lat="43.28800967015047" lon="10.718849503618278"><ele>169.0</ele><time>2026-03-22T10:42:17Z</time></trkpt><trkpt lat="43.288111358744054" lon="10.71893800776555"><ele>167.16666666666669</ele><time>2026-03-22T10:42:18Z</time></trkpt><trkpt lat="43.28819359580994" lon="10.718996100242773"><ele>165.33333333333334</ele><time>2026-03-22T10:42:19Z</time></trkpt><trkpt lat="43.288302103602106" lon="10.718990470853473"><ele>163.5</ele><time>2026-03-22T10:42:21Z</time></trkpt><trkpt lat="43.288352732614456" lon="10.718934389072725"><ele>161.66666666666666</ele><time>2026-03-22T10:42:22Z</time></trkpt><trkpt lat="43.28839837856091" lon="10.718864781227044"><ele>159.83333333333331</ele><time>2026-03-22T10:42:23Z</time></trkpt><trkpt lat="43.28843913258685" lon="10.718796261472152"><ele>158.0</ele><time>2026-03-22T10:42:24Z</time></trkpt><trkpt lat="43.288497764566486" lon="10.718677197603027"><ele>156.4</ele><time>2026-03-22T10:42:26Z</time></trkpt><trkpt lat="43.28852540802956" lon="10.71855319622394"><ele>154.8</ele><time>2026-03-22T10:42:28Z</time></trkpt><trkpt lat="43.28861752966449" lon="10.718471229184786"><ele>153.2</ele><time>2026-03-22T10:42:30Z</time></trkpt><trkpt lat="43.288671635846725" lon="10.71842490764003"><ele>151.6</ele><time>2026-03-22T10:42:31Z</time></trkpt><trkpt lat="43.28868552829333" lon="10.718290396798944"><ele>150.0</ele><time>2026-03-22T10:42:33Z</time></trkpt><trkpt lat="43.288617537980876" lon="10.718187570388995"><ele>150.0</ele><time>2026-03-22T10:42:35Z</time></trkpt><trkpt lat="43.288566356756085" lon="10.718128337439541"><ele>150.0</ele><time>2026-03-22T10:42:36Z</time></trkpt><trkpt lat="43.28850367822154" lon="10.71807965749078"><ele>150.0</ele><time>2026-03-22T10:42:38Z</time></trkpt><trkpt lat="43.2885322000644" lon="10.717992169191112"><ele>150.0</ele><time>2026-03-22T10:42:41Z</time></trkpt><trkpt lat="43.28862623571411" lon="10.717896964177953"><ele>150.0</ele><time>2026-03-22T10:42:43Z</time></trkpt><trkpt lat="43.28870583060079" lon="10.717849427940454"><ele>150.0</ele><time>2026-03-22T10:42:44Z</time></trkpt><trkpt lat="43.28876177566585" lon="10.717794246283479"><ele>148.5</ele><time>2026-03-22T10:42:45Z</time></trkpt><trkpt lat="43.288813904076214" lon="10.717722954898713"><ele>147.0</ele><time>2026-03-22T10:42:46Z</time></trkpt><trkpt lat="43.28888874354988" lon="10.717665330792919"><ele>145.5</ele><time>2026-03-22T10:42:47Z</time></trkpt><trkpt lat="43.28897156816714" lon="10.71761602511543"><ele>144.0</ele><time>2026-03-22T10:42:48Z</time></trkpt><trkpt lat="43.28903087743994" lon="10.717552221620592"><ele>142.5</ele><time>2026-03-22T10:42:49Z</time></trkpt><trkpt lat="43.289084343316446" lon="10.717486145279388"><ele>141.0</ele><time>2026-03-22T10:42:50Z</time></trkpt><trkpt lat="43.28914456272768" lon="10.71739936205979"><ele>140.16666666666666</ele><time>2026-03-22T10:42:51Z</time></trkpt><trkpt lat="43.28919903790774" lon="10.717329384571618"><ele>139.33333333333334</ele><time>2026-03-22T10:42:52Z</time></trkpt><trkpt lat="43.28925353753013" lon="10.717191616080887"><ele>138.5</ele><time>2026-03-22T10:42:54Z</time></trkpt><trkpt lat="43.28931474372579" lon="10.717151077677988"><ele>137.66666666666669</ele><time>2026-03-22T10:42:55Z</time></trkpt><trkpt lat="43.289383823211416" lon="10.717130337375584"><ele>136.83333333333334</ele><time>2026-03-22T10:42:56Z</time></trkpt><trkpt lat="43.289452469094314" lon="10.71710014294084"><ele>136.0</ele><time>2026-03-22T10:42:57Z</time></trkpt><trkpt lat="43.289525247760764" lon="10.71696629655293"><ele>134.8</ele><time>2026-03-22T10:42:59Z</time></trkpt><trkpt lat="43.28963505106303" lon="10.716886116747984"><ele>133.6</ele><time>2026-03-22T10:43:01Z</time></trkpt><trkpt lat="43.289700817704066" lon="10.716854824103052"><ele>132.4</ele><time>2026-03-22T10:43:02Z</time></trkpt><trkpt lat="43.28974707138946" lon="10.716742124476353"><ele>131.2</ele><time>2026-03-22T10:43:04Z</time></trkpt><trkpt lat="43.289800633549625" lon="10.716588797665894"><ele>130.0</ele><time>2026-03-22T10:43:06Z</time></trkpt><trkpt lat="43.28988590253108" lon="10.716512213062277"><ele>129.33333333333334</ele><time>2026-03-22T10:43:08Z</time></trkpt><trkpt lat="43.289946866876406" lon="10.71648098218689"><ele>128.66666666666669</ele><time>2026-03-22T10:43:09Z</time></trkpt><trkpt lat="43.29003155548791" lon="10.716377151768151"><ele>128.0</ele><time>2026-03-22T10:43:11Z</time></trkpt><trkpt lat="43.290067206960515" lon="10.716295531869195"><ele>127.33333333333334</ele><time>2026-03-22T10:43:12Z</time></trkpt><trkpt lat="43.29012275385694" lon="10.716253235629896"><ele>126.66666666666667</ele><time>2026-03-22T10:43:13Z</time></trkpt><trkpt lat="43.29019750393757" lon="10.716186012751471"><ele>126.0</ele><time>2026-03-22T10:43:14Z</time></trkpt><trkpt lat="43.29028848940006" lon="10.716108490641265"><ele>124.19999999999999</ele><time>2026-03-22T10:43:15Z</time></trkpt><trkpt lat="43.29038214853089" lon="10.71603364360581"><ele>122.39999999999999</ele><time>2026-03-22T10:43:16Z</time></trkpt><trkpt lat="43.290462125753265" lon="10.715948374528944"><ele>120.6</ele><time>2026-03-22T10:43:17Z</time></trkpt><trkpt lat="43.290535433519" lon="10.715877398726542"><ele>118.8</ele><time>2026-03-22T10:43:18Z</time></trkpt><trkpt lat="43.290604678576905" lon="10.715819135893552"><ele>117.0</ele><time>2026-03-22T10:43:19Z</time></trkpt><trkpt lat="43.29070627514206" lon="10.71574379996091"><ele>116.33333333333333</ele><time>2026-03-22T10:43:21Z</time></trkpt><trkpt lat="43.29078166580607" lon="10.715646637917564"><ele>115.66666666666666</ele><time>2026-03-22T10:43:23Z</time></trkpt><trkpt lat="43.29081252379523" lon="10.715491561434325"><ele>115.0</ele><time>2026-03-22T10:43:25Z</time></trkpt><trkpt lat="43.290816753806666" lon="10.71540520971652"><ele>114.33333333333333</ele><time>2026-03-22T10:43:26Z</time></trkpt><trkpt lat="43.290827140879905" lon="10.715304018068716"><ele>113.66666666666666</ele><time>2026-03-22T10:43:27Z</time></trkpt><trkpt lat="43.29085687105571" lon="10.715217789008737"><ele>113.0</ele><time>2026-03-22T10:43:28Z</time></trkpt><trkpt lat="43.29089734314333" lon="10.715144810696895"><ele>111.49999999999999</ele><time>2026-03-22T10:43:29Z</time></trkpt><trkpt lat="43.290948978777635" lon="10.715067089598232"><ele>110.0</ele><time>2026-03-22T10:43:30Z</time></trkpt><trkpt lat="43.29099749634134" lon="10.71497495078766"><ele>108.5</ele><time>2026-03-22T10:43:31Z</time></trkpt><trkpt lat="43.291029821024146" lon="10.714883394361905"><ele>107.0</ele><time>2026-03-22T10:43:32Z</time></trkpt><trkpt lat="43.29105036664291" lon="10.71479094658695"><ele>105.49999999999999</ele><time>2026-03-22T10:43:33Z</time></trkpt><trkpt lat="43.291076610497576" lon="10.714690046860108"><ele>104.0</ele><time>2026-03-22T10:43:34Z</time></trkpt><trkpt lat="43.291116913086434" lon="10.714526008978513"><ele>103.99999999999999</ele><time>2026-03-22T10:43:36Z</time></trkpt><trkpt lat="43.29112712931594" lon="10.71443296808997"><ele>104.0</ele><time>2026-03-22T10:43:37Z</time></trkpt><trkpt lat="43.29113304587923" lon="10.714334356122322"><ele>104.0</ele><time>2026-03-22T10:43:38Z</time></trkpt><trkpt lat="43.291147395868656" lon="10.714176578612674"><ele>104.0</ele><time>2026-03-22T10:43:40Z</time></trkpt><trkpt lat="43.29115318858011" lon="10.714048760590924"><ele>103.99999999999999</ele><time>2026-03-22T10:43:42Z</time></trkpt><trkpt lat="43.29108535301674" lon="10.714024551087148"><ele>104.0</ele><time>2026-03-22T10:43:44Z</time></trkpt><trkpt lat="43.29093913304226" lon="10.71402701153618"><ele>102.99999999999999</ele><time>2026-03-22T10:43:46Z</time></trkpt><trkpt lat="43.29083687806152" lon="10.714012358843199"><ele>102.0</ele><time>2026-03-22T10:43:47Z</time></trkpt><trkpt lat="43.29075029809988" lon="10.714012267561104"><ele>101.0</ele><time>2026-03-22T10:43:48Z</time></trkpt><trkpt lat="43.29068586142349" lon="10.714029385023178"><ele>100.0</ele><time>2026-03-22T10:43:49Z</time></trkpt><trkpt lat="43.290612968862085" lon="10.714088827429274"><ele>98.99999999999999</ele><time>2026-03-22T10:43:51Z</time></trkpt><trkpt lat="43.290545362592106" lon="10.714153582076932"><ele>98.0</ele><time>2026-03-22T10:43:52Z</time></trkpt><trkpt lat="43.29047864223311" lon="10.714186418600452"><ele>97.99999999999999</ele><time>2026-03-22T10:43:53Z</time></trkpt><trkpt lat="43.29040524631862" lon="10.714153035283429"><ele>98.0</ele><time>2026-03-22T10:43:54Z</time></trkpt><trkpt lat="43.29033948329002" lon="10.714121854539565"><ele>98.0</ele><time>2026-03-22T10:43:55Z</time></trkpt><trkpt lat="43.290290018043294" lon="10.714060022156119"><ele>98.0</ele><time>2026-03-22T10:43:56Z</time></trkpt><trkpt lat="43.29022114865154" lon="10.713986392577613"><ele>97.99999999999999</ele><time>2026-03-22T10:43:57Z</time></trkpt><trkpt lat="43.290186391920855" lon="10.71391123619324"><ele>98.0</ele><time>2026-03-22T10:43:58Z</time></trkpt><trkpt lat="43.29022094218834" lon="10.71376681014826"><ele>97.99999999999999</ele><time>2026-03-22T10:44:00Z</time></trkpt><trkpt lat="43.290220586363205" lon="10.713665368346808"><ele>98.0</ele><time>2026-03-22T10:44:01Z</time></trkpt><trkpt lat="43.29017725421022" lon="10.713509672329122"><ele>98.0</ele><time>2026-03-22T10:44:03Z</time></trkpt><trkpt lat="43.29013361663857" lon="10.713406407013284"><ele>98.0</ele><time>2026-03-22T10:44:04Z</time></trkpt><trkpt lat="43.2901002631959" lon="10.713304130408066"><ele>97.99999999999999</ele><time>2026-03-22T10:44:05Z</time></trkpt><trkpt lat="43.2900843986076" lon="10.71319685974869"><ele>98.0</ele><time>2026-03-22T10:44:06Z</time></trkpt><trkpt lat="43.29005334386039" lon="10.713071410068034"><ele>98.49999999999999</ele><time>2026-03-22T10:44:08Z</time></trkpt><trkpt lat="43.29007706175644" lon="10.712931076116321"><ele>99.0</ele><time>2026-03-22T10:44:10Z</time></trkpt><trkpt lat="43.29008218975101" lon="10.712809873489375"><ele>99.5</ele><time>2026-03-22T10:44:11Z</time></trkpt><trkpt lat="43.29006295808735" lon="10.712695084218012"><ele>100.0</ele><time>2026-03-22T10:44:12Z</time></trkpt><trkpt lat="43.290015590420516" lon="10.712595499574824"><ele>100.49999999999999</ele><time>2026-03-22T10:44:13Z</time></trkpt><trkpt lat="43.289992484712144" lon="10.712507349319225"><ele>101.0</ele><time>2026-03-22T10:44:14Z</time></trkpt><trkpt lat="43.28994218424675" lon="10.712446077461808"><ele>101.6</ele><time>2026-03-22T10:44:16Z</time></trkpt><trkpt lat="43.289838799627326" lon="10.712370371416746"><ele>102.19999999999999</ele><time>2026-03-22T10:44:18Z</time></trkpt><trkpt lat="43.28972213736333" lon="10.712369634979948"><ele>102.80000000000001</ele><time>2026-03-22T10:44:19Z</time></trkpt><trkpt lat="43.28961493568327" lon="10.712356350011637"><ele>103.4</ele><time>2026-03-22T10:44:20Z</time></trkpt><trkpt lat="43.289541408402286" lon="10.712334538580478"><ele>104.0</ele><time>2026-03-22T10:44:21Z</time></trkpt><trkpt lat="43.28948745318023" lon="10.712268696082274"><ele>105.33333333333333</ele><time>2026-03-22T10:44:22Z</time></trkpt><trkpt lat="43.28944886056985" lon="10.712194183885641"><ele>106.66666666666666</ele><time>2026-03-22T10:44:23Z</time></trkpt><trkpt lat="43.28941481137564" lon="10.712087867160715"><ele>108.0</ele><time>2026-03-22T10:44:24Z</time></trkpt><trkpt lat="43.28938754164531" lon="10.711990143302877"><ele>109.33333333333334</ele><time>2026-03-22T10:44:25Z</time></trkpt><trkpt lat="43.289371054877094" lon="10.711859464447851"><ele>110.66666666666667</ele><time>2026-03-22T10:44:27Z</time></trkpt><trkpt lat="43.289391519690035" lon="10.711743824286437"><ele>112.0</ele><time>2026-03-22T10:44:28Z</time></trkpt><trkpt lat="43.2894239258979" lon="10.711640777332544"><ele>112.00000000000001</ele><time>2026-03-22T10:44:29Z</time></trkpt><trkpt lat="43.28950352219865" lon="10.711569261501689"><ele>112.0</ele><time>2026-03-22T10:44:31Z</time></trkpt><trkpt lat="43.28957255616998" lon="10.711537347223631"><ele>112.0</ele><time>2026-03-22T10:44:32Z</time></trkpt><trkpt lat="43.28963539386954" lon="10.711467943225651"><ele>112.0</ele><time>2026-03-22T10:44:33Z</time></trkpt><trkpt lat="43.28967395317069" lon="10.711391481664936"><ele>112.00000000000001</ele><time>2026-03-22T10:44:34Z</time></trkpt><trkpt lat="43.289696876219054" lon="10.711303025769643"><ele>112.0</ele><time>2026-03-22T10:44:35Z</time></trkpt><trkpt lat="43.289719023381075" lon="10.711203416968328"><ele>112.00000000000001</ele><time>2026-03-22T10:44:36Z</time></trkpt><trkpt lat="43.28974164817672" lon="10.71110688264986"><ele>112.0</ele><time>2026-03-22T10:44:37Z</time></trkpt><trkpt lat="43.28976083555535" lon="10.711022584219211"><ele>112.0</ele><time>2026-03-22T10:44:38Z</time></trkpt><trkpt lat="43.28978186208553" lon="10.710933556365314"><ele>112.0</ele><time>2026-03-22T10:44:39Z</time></trkpt><trkpt lat="43.28980639192446" lon="10.710806648764535"><ele>112.00000000000001</ele><time>2026-03-22T10:44:41Z</time></trkpt><trkpt lat="43.28983177363766" lon="10.710712506084848"><ele>112.0</ele><time>2026-03-22T10:44:43Z</time></trkpt><trkpt lat="43.28987821217972" lon="10.710606988887871"><ele>110.66666666666667</ele><time>2026-03-22T10:44:45Z</time></trkpt><trkpt lat="43.28991401361137" lon="10.710496114937335"><ele>109.33333333333334</ele><time>2026-03-22T10:44:48Z</time></trkpt><trkpt lat="43.289910859154816" lon="10.710399448084674"><ele>108.0</ele><time>2026-03-22T10:44:50Z</time></trkpt><trkpt lat="43.28989850555816" lon="10.710311213688433"><ele>106.66666666666666</ele><time>2026-03-22T10:44:52Z</time></trkpt><trkpt lat="43.2898879785151" lon="10.710200457730265"><ele>105.33333333333333</ele><time>2026-03-22T10:44:55Z</time></trkpt><trkpt lat="43.289871509211274" lon="10.710098115054604"><ele>104.0</ele><time>2026-03-22T10:44:57Z</time></trkpt><trkpt lat="43.289867857326584" lon="10.709978226687532"><ele>104.0</ele><time>2026-03-22T10:44:59Z</time></trkpt><trkpt lat="43.28987842981368" lon="10.709839644144731"><ele>104.0</ele><time>2026-03-22T10:45:01Z</time></trkpt><trkpt lat="43.2898933426492" lon="10.709720584222902"><ele>104.0</ele><time>2026-03-22T10:45:03Z</time></trkpt><trkpt lat="43.2899088715539" lon="10.70960528003468"><ele>104.0</ele><time>2026-03-22T10:45:05Z</time></trkpt><trkpt lat="43.289932430481436" lon="10.709483578317904"><ele>104.0</ele><time>2026-03-22T10:45:07Z</time></trkpt><trkpt lat="43.28996962216198" lon="10.709377148524979"><ele>103.80000000000001</ele><time>2026-03-22T10:45:09Z</time></trkpt><trkpt lat="43.29002675773043" lon="10.709284641997709"><ele>103.60000000000001</ele><time>2026-03-22T10:45:11Z</time></trkpt><trkpt lat="43.2901062128655" lon="10.709210811676554"><ele>103.4</ele><time>2026-03-22T10:45:13Z</time></trkpt><trkpt lat="43.290182382212045" lon="10.709120771549923"><ele>103.2</ele><time>2026-03-22T10:45:15Z</time></trkpt><trkpt lat="43.290247169077766" lon="10.709039525936413"><ele>103.0</ele><time>2026-03-22T10:45:17Z</time></trkpt><trkpt lat="43.290314927015125" lon="10.708950606140519"><ele>103.0</ele><time>2026-03-22T10:45:19Z</time></trkpt><trkpt lat="43.29037157397039" lon="10.708839765275467"><ele>103.0</ele><time>2026-03-22T10:45:21Z</time></trkpt><trkpt lat="43.29041878545713" lon="10.708724610985513"><ele>103.0</ele><time>2026-03-22T10:45:23Z</time></trkpt><trkpt lat="43.29039156659764" lon="10.708638683779268"><ele>103.0</ele><time>2026-03-22T10:45:24Z</time></trkpt><trkpt lat="43.29043537821575" lon="10.708533693684586"><ele>103.0</ele><time>2026-03-22T10:45:26Z</time></trkpt><trkpt lat="43.29046843378083" lon="10.708402955925077"><ele>103.0</ele><time>2026-03-22T10:45:28Z</time></trkpt><trkpt lat="43.29049526867677" lon="10.70823803055638"><ele>103.0</ele><time>2026-03-22T10:45:30Z</time></trkpt><trkpt lat="43.29048145163821" lon="10.70807930578642"><ele>103.0</ele><time>2026-03-22T10:45:32Z</time></trkpt><trkpt lat="43.2904450623055" lon="10.707955631450913"><ele>103.0</ele><time>2026-03-22T10:45:34Z</time></trkpt><trkpt lat="43.290519919070874" lon="10.707856690289121"><ele>103.0</ele><time>2026-03-22T10:45:35Z</time></trkpt><trkpt lat="43.290525760430924" lon="10.707766913749323"><ele>102.5</ele><time>2026-03-22T10:45:36Z</time></trkpt><trkpt lat="43.2905378491553" lon="10.707616667590989"><ele>102.0</ele><time>2026-03-22T10:45:38Z</time></trkpt><trkpt lat="43.29057729464198" lon="10.707476059194434"><ele>101.5</ele><time>2026-03-22T10:45:40Z</time></trkpt><trkpt lat="43.29058253878733" lon="10.7073562501638"><ele>101.0</ele><time>2026-03-22T10:45:42Z</time></trkpt><trkpt lat="43.29045006504078" lon="10.707437737739397"><ele>101.0</ele><time>2026-03-22T10:45:50Z</time></trkpt><trkpt lat="43.29037330105965" lon="10.707503080800997"><ele>101.0</ele><time>2026-03-22T10:45:53Z</time></trkpt><trkpt lat="43.290323865319394" lon="10.707564733888269"><ele>101.0</ele><time>2026-03-22T10:45:56Z</time></trkpt><trkpt lat="43.2902081816588" lon="10.707595101210396"><ele>101.0</ele><time>2026-03-22T10:46:00Z</time></trkpt><trkpt lat="43.29014412847026" lon="10.707622856141459"><ele>101.0</ele><time>2026-03-22T10:46:01Z</time></trkpt><trkpt lat="43.29002608552562" lon="10.707689198611492"><ele>100.99999999999999</ele><time>2026-03-22T10:46:03Z</time></trkpt><trkpt lat="43.289961126559604" lon="10.707729384236941"><ele>101.0</ele><time>2026-03-22T10:46:04Z</time></trkpt><trkpt lat="43.28989285898372" lon="10.7077671780814"><ele>101.0</ele><time>2026-03-22T10:46:05Z</time></trkpt><trkpt lat="43.289819687882044" lon="10.70780922036905"><ele>101.0</ele><time>2026-03-22T10:46:06Z</time></trkpt><trkpt lat="43.289749713059834" lon="10.707849412500225"><ele>100.99999999999999</ele><time>2026-03-22T10:46:07Z</time></trkpt><trkpt lat="43.28968048989388" lon="10.707883558846753"><ele>101.0</ele><time>2026-03-22T10:46:08Z</time></trkpt><trkpt lat="43.28960820677941" lon="10.70792172131807"><ele>101.99999999999999</ele><time>2026-03-22T10:46:09Z</time></trkpt><trkpt lat="43.28954405766031" lon="10.70795345020273"><ele>103.0</ele><time>2026-03-22T10:46:10Z</time></trkpt><trkpt lat="43.28945771479627" lon="10.708001366341295"><ele>104.0</ele><time>2026-03-22T10:46:12Z</time></trkpt><trkpt lat="43.28935550178513" lon="10.708057643342393"><ele>105.0</ele><time>2026-03-22T10:46:14Z</time></trkpt><trkpt lat="43.28924900772646" lon="10.708104091291029"><ele>105.99999999999999</ele><time>2026-03-22T10:46:16Z</time></trkpt><trkpt lat="43.289184980939964" lon="10.708110857469794"><ele>107.0</ele><time>2026-03-22T10:46:18Z</time></trkpt><trkpt lat="43.289121884445706" lon="10.70802799760657"><ele>107.0</ele><time>2026-03-22T10:46:22Z</time></trkpt><trkpt lat="43.289083329435215" lon="10.707911170052936"><ele>106.99999999999999</ele><time>2026-03-22T10:46:24Z</time></trkpt><trkpt lat="43.28902584687803" lon="10.70779244826289"><ele>106.99999999999999</ele><time>2026-03-22T10:46:26Z</time></trkpt><trkpt lat="43.28899111616255" lon="10.707683227521583"><ele>107.0</ele><time>2026-03-22T10:46:28Z</time></trkpt><trkpt lat="43.288967172305725" lon="10.707560734718607"><ele>107.0</ele><time>2026-03-22T10:46:31Z</time></trkpt><trkpt lat="43.28893527385502" lon="10.70744437150224"><ele>106.49999999999999</ele><time>2026-03-22T10:46:33Z</time></trkpt><trkpt lat="43.28891055469432" lon="10.707362585779668"><ele>106.0</ele><time>2026-03-22T10:46:34Z</time></trkpt><trkpt lat="43.288884378206994" lon="10.707269571265593"><ele>105.5</ele><time>2026-03-22T10:46:35Z</time></trkpt><trkpt lat="43.28885626384009" lon="10.7071755470772"><ele>105.0</ele><time>2026-03-22T10:46:36Z</time></trkpt><trkpt lat="43.288809558506465" lon="10.707019812458457"><ele>104.49999999999999</ele><time>2026-03-22T10:46:38Z</time></trkpt><trkpt lat="43.28876817812371" lon="10.706880972797991"><ele>104.0</ele><time>2026-03-22T10:46:40Z</time></trkpt><trkpt lat="43.288731114485685" lon="10.706769519587887"><ele>104.0</ele><time>2026-03-22T10:46:42Z</time></trkpt><trkpt lat="43.28868888069471" lon="10.706653557678322"><ele>104.0</ele><time>2026-03-22T10:46:44Z</time></trkpt><trkpt lat="43.28861773533788" lon="10.706533711230318"><ele>104.0</ele><time>2026-03-22T10:46:46Z</time></trkpt><trkpt lat="43.288532686971436" lon="10.706433701346374"><ele>104.0</ele><time>2026-03-22T10:46:48Z</time></trkpt><trkpt lat="43.28845251819056" lon="10.706331103560348"><ele>104.0</ele><time>2026-03-22T10:46:50Z</time></trkpt><trkpt lat="43.28837383201267" lon="10.706229305380152"><ele>103.99999999999999</ele><time>2026-03-22T10:46:52Z</time></trkpt><trkpt lat="43.28831819819046" lon="10.706122597483372"><ele>104.0</ele><time>2026-03-22T10:46:54Z</time></trkpt><trkpt lat="43.28827518332421" lon="10.706028051276494"><ele>104.0</ele><time>2026-03-22T10:46:56Z</time></trkpt><trkpt lat="43.2882358169373" lon="10.705931366847592"><ele>104.0</ele><time>2026-03-22T10:46:59Z</time></trkpt><trkpt lat="43.288206442513086" lon="10.70581620655363"><ele>103.99999999999999</ele><time>2026-03-22T10:47:02Z</time></trkpt><trkpt lat="43.28814400669312" lon="10.705718945996393"><ele>104.0</ele><time>2026-03-22T10:47:04Z</time></trkpt><trkpt lat="43.28808888817895" lon="10.705605869583168"><ele>103.0</ele><time>2026-03-22T10:47:06Z</time></trkpt><trkpt lat="43.288066529752726" lon="10.705517769033907"><ele>102.0</ele><time>2026-03-22T10:47:07Z</time></trkpt><trkpt lat="43.28802648276993" lon="10.705408578827514"><ele>101.0</ele><time>2026-03-22T10:47:08Z</time></trkpt><trkpt lat="43.28797718958852" lon="10.70528160602426"><ele>100.0</ele><time>2026-03-22T10:47:09Z</time></trkpt><trkpt lat="43.28792247421165" lon="10.705154416625788"><ele>99.0</ele><time>2026-03-22T10:47:10Z</time></trkpt><trkpt lat="43.28787540125797" lon="10.705049524159204"><ele>99.0</ele><time>2026-03-22T10:47:11Z</time></trkpt><trkpt lat="43.28782685000288" lon="10.704970831321832"><ele>99.0</ele><time>2026-03-22T10:47:12Z</time></trkpt><trkpt lat="43.28779697755488" lon="10.70488739626485"><ele>99.0</ele><time>2026-03-22T10:47:13Z</time></trkpt><trkpt lat="43.28775430097662" lon="10.704812974964561"><ele>99.0</ele><time>2026-03-22T10:47:14Z</time></trkpt><trkpt lat="43.28771322485738" lon="10.704677692175379"><ele>99.0</ele><time>2026-03-22T10:47:16Z</time></trkpt><trkpt lat="43.28770755056269" lon="10.70456075019247"><ele>99.0</ele><time>2026-03-22T10:47:18Z</time></trkpt><trkpt lat="43.28767471948312" lon="10.70444329202423"><ele>100.0</ele><time>2026-03-22T10:47:21Z</time></trkpt><trkpt lat="43.28761792068124" lon="10.7043296098954"><ele>101.0</ele><time>2026-03-22T10:47:23Z</time></trkpt><trkpt lat="43.28755409223678" lon="10.704274294731096"><ele>102.0</ele><time>2026-03-22T10:47:25Z</time></trkpt><trkpt lat="43.2874826824651" lon="10.704254941399418"><ele>103.0</ele><time>2026-03-22T10:47:27Z</time></trkpt><trkpt lat="43.28739751993844" lon="10.704226048406246"><ele>104.0</ele><time>2026-03-22T10:47:29Z</time></trkpt><trkpt lat="43.287317468804744" lon="10.704146581341055"><ele>105.0</ele><time>2026-03-22T10:47:31Z</time></trkpt><trkpt lat="43.28724587498606" lon="10.704060181782223"><ele>105.0</ele><time>2026-03-22T10:47:33Z</time></trkpt><trkpt lat="43.28723748051296" lon="10.703938092962835"><ele>105.0</ele><time>2026-03-22T10:47:35Z</time></trkpt><trkpt lat="43.2872913566997" lon="10.703834950508892"><ele>105.0</ele><time>2026-03-22T10:47:37Z</time></trkpt><trkpt lat="43.287382989853334" lon="10.703740882188237"><ele>105.0</ele><time>2026-03-22T10:47:39Z</time></trkpt><trkpt lat="43.28743184979231" lon="10.703677509492623"><ele>105.0</ele><time>2026-03-22T10:47:40Z</time></trkpt><trkpt lat="43.28748042774668" lon="10.703618585912261"><ele>105.0</ele><time>2026-03-22T10:47:41Z</time></trkpt><trkpt lat="43.28754087320875" lon="10.703540221692121"><ele>104.6</ele><time>2026-03-22T10:47:43Z</time></trkpt><trkpt lat="43.28759857812978" lon="10.703429775586853"><ele>104.2</ele><time>2026-03-22T10:47:49Z</time></trkpt><trkpt lat="43.28762015956109" lon="10.703342047029185"><ele>103.80000000000001</ele><time>2026-03-22T10:47:51Z</time></trkpt><trkpt lat="43.287665378745714" lon="10.70324741291275"><ele>103.4</ele><time>2026-03-22T10:47:53Z</time></trkpt><trkpt lat="43.28771829527697" lon="10.703120447690017"><ele>103.0</ele><time>2026-03-22T10:47:55Z</time></trkpt><trkpt lat="43.287774878956384" lon="10.702986557008344"><ele>103.00000000000001</ele><time>2026-03-22T10:47:57Z</time></trkpt><trkpt lat="43.28781347871566" lon="10.702859357730315"><ele>103.0</ele><time>2026-03-22T10:47:59Z</time></trkpt><trkpt lat="43.28786401626126" lon="10.702739045520138"><ele>103.0</ele><time>2026-03-22T10:48:01Z</time></trkpt><trkpt lat="43.28791299911666" lon="10.702614407633119"><ele>103.0</ele><time>2026-03-22T10:48:03Z</time></trkpt><trkpt lat="43.28793791094476" lon="10.70252596378185"><ele>103.00000000000001</ele><time>2026-03-22T10:48:05Z</time></trkpt><trkpt lat="43.287960408594174" lon="10.702435695682738"><ele>103.0</ele><time>2026-03-22T10:48:08Z</time></trkpt><trkpt lat="43.28793579348187" lon="10.702521643471401"><ele>103.00000000000001</ele><time>2026-03-22T10:48:20Z</time></trkpt><trkpt lat="43.28792466110633" lon="10.702612268301378"><ele>103.0</ele><time>2026-03-22T10:48:22Z</time></trkpt><trkpt lat="43.28787835710118" lon="10.702737445734396"><ele>103.0</ele><time>2026-03-22T10:48:24Z</time></trkpt><trkpt lat="43.28784173484985" lon="10.7028244249294"><ele>103.0</ele><time>2026-03-22T10:48:25Z</time></trkpt><trkpt lat="43.287797219143435" lon="10.702958791264164"><ele>103.00000000000001</ele><time>2026-03-22T10:48:27Z</time></trkpt><trkpt lat="43.28775705970314" lon="10.703079322156972"><ele>103.0</ele><time>2026-03-22T10:48:29Z</time></trkpt><trkpt lat="43.28771137396088" lon="10.703192243766805"><ele>103.00000000000001</ele><time>2026-03-22T10:48:31Z</time></trkpt><trkpt lat="43.287664950845" lon="10.703300357921941"><ele>103.0</ele><time>2026-03-22T10:48:33Z</time></trkpt><trkpt lat="43.287625231016" lon="10.703385196597052"><ele>103.0</ele><time>2026-03-22T10:48:35Z</time></trkpt><trkpt lat="43.28757530510319" lon="10.703499830964653"><ele>103.0</ele><time>2026-03-22T10:48:38Z</time></trkpt><trkpt lat="43.287512002600266" lon="10.703511173166579"><ele>103.00000000000001</ele><time>2026-03-22T10:48:44Z</time></trkpt><trkpt lat="43.28751678218059" lon="10.7034056213058"><ele>103.0</ele><time>2026-03-22T10:48:51Z</time></trkpt><trkpt lat="43.28754081120411" lon="10.703319154056917"><ele>102.99999999999999</ele><time>2026-03-22T10:48:57Z</time></trkpt><trkpt lat="43.2875036712179" lon="10.703412690306795"><ele>103.0</ele><time>2026-03-22T10:50:33Z</time></trkpt><trkpt lat="43.287502054144284" lon="10.703501205737432"><ele>103.0</ele><time>2026-03-22T10:50:35Z</time></trkpt><trkpt lat="43.287563536067886" lon="10.703520324260857"><ele>103.0</ele><time>2026-03-22T10:50:38Z</time></trkpt><trkpt lat="43.287590035208474" lon="10.703438121716736"><ele>103.0</ele><time>2026-03-22T10:50:40Z</time></trkpt><trkpt lat="43.28760927849482" lon="10.703348247143865"><ele>102.99999999999999</ele><time>2026-03-22T10:50:42Z</time></trkpt><trkpt lat="43.287641746066846" lon="10.703260708776797"><ele>103.0</ele><time>2026-03-22T10:50:44Z</time></trkpt><trkpt lat="43.28769689719503" lon="10.703140538082886"><ele>103.0</ele><time>2026-03-22T10:50:46Z</time></trkpt><trkpt lat="43.28775889238124" lon="10.702992725689946"><ele>103.0</ele><time>2026-03-22T10:50:48Z</time></trkpt><trkpt lat="43.28777968745086" lon="10.702910080541152"><ele>103.0</ele><time>2026-03-22T10:50:49Z</time></trkpt><trkpt lat="43.287835400855016" lon="10.702776979780715"><ele>103.0</ele><time>2026-03-22T10:50:51Z</time></trkpt><trkpt lat="43.287887879259905" lon="10.702642679083933"><ele>103.0</ele><time>2026-03-22T10:50:53Z</time></trkpt><trkpt lat="43.28792196463943" lon="10.702510903829753"><ele>101.80000000000001</ele><time>2026-03-22T10:50:55Z</time></trkpt><trkpt lat="43.28794193863786" lon="10.702390800505269"><ele>100.6</ele><time>2026-03-22T10:50:57Z</time></trkpt><trkpt lat="43.28795913889353" lon="10.702306559946912"><ele>99.4</ele><time>2026-03-22T10:50:58Z</time></trkpt><trkpt lat="43.28798767168369" lon="10.70215025741399"><ele>98.19999999999999</ele><time>2026-03-22T10:51:00Z</time></trkpt><trkpt lat="43.28799356555225" lon="10.70202495150959"><ele>97.0</ele><time>2026-03-22T10:51:02Z</time></trkpt><trkpt lat="43.28800460885894" lon="10.701905626502167"><ele>97.66666666666667</ele><time>2026-03-22T10:51:04Z</time></trkpt><trkpt lat="43.28803794611533" lon="10.701792346461362"><ele>98.33333333333334</ele><time>2026-03-22T10:51:13Z</time></trkpt><trkpt lat="43.28808129398289" lon="10.701722330305056"><ele>99.0</ele><time>2026-03-22T10:52:29Z</time></trkpt><trkpt lat="43.288178282106166" lon="10.70172128542259"><ele>99.66666666666666</ele><time>2026-03-22T10:52:32Z</time></trkpt><trkpt lat="43.28825528407844" lon="10.701713775193818"><ele>100.33333333333333</ele><time>2026-03-22T10:52:34Z</time></trkpt><trkpt lat="43.28834315972932" lon="10.701713351524411"><ele>101.0</ele><time>2026-03-22T10:52:37Z</time></trkpt><trkpt lat="43.288430933133206" lon="10.701716256834091"><ele>100.99999999999999</ele><time>2026-03-22T10:52:40Z</time></trkpt><trkpt lat="43.28851298114949" lon="10.701728218788466"><ele>101.0</ele><time>2026-03-22T10:52:43Z</time></trkpt><trkpt lat="43.28859068734432" lon="10.701754662812847"><ele>101.0</ele><time>2026-03-22T10:52:46Z</time></trkpt><trkpt lat="43.28866418237494" lon="10.70180581450614"><ele>101.0</ele><time>2026-03-22T10:52:49Z</time></trkpt><trkpt lat="43.28873560822368" lon="10.701784100647625"><ele>100.99999999999999</ele><time>2026-03-22T10:52:52Z</time></trkpt><trkpt lat="43.28880201407805" lon="10.701776846887084"><ele>101.0</ele><time>2026-03-22T10:52:56Z</time></trkpt><trkpt lat="43.28887131857066" lon="10.701841546744264"><ele>101.16666666666666</ele><time>2026-03-22T10:53:01Z</time></trkpt><trkpt lat="43.28891183899822" lon="10.701930295725937"><ele>101.33333333333333</ele><time>2026-03-22T10:53:04Z</time></trkpt><trkpt lat="43.28895210366305" lon="10.702017256253594"><ele>101.5</ele><time>2026-03-22T10:53:09Z</time></trkpt><trkpt lat="43.28898205468689" lon="10.702121305520402"><ele>101.66666666666666</ele><time>2026-03-22T10:53:23Z</time></trkpt><trkpt lat="43.28901031241014" lon="10.702210634629898"><ele>101.83333333333333</ele><time>2026-03-22T10:53:26Z</time></trkpt><trkpt lat="43.289056564111455" lon="10.702330157662095"><ele>102.0</ele><time>2026-03-22T10:53:29Z</time></trkpt><trkpt lat="43.28911011530951" lon="10.702442902538271"><ele>102.0</ele><time>2026-03-22T10:53:32Z</time></trkpt><trkpt lat="43.28916328020039" lon="10.702502239890883"><ele>102.0</ele><time>2026-03-22T10:53:34Z</time></trkpt><trkpt lat="43.28921189957189" lon="10.702562245899268"><ele>102.0</ele><time>2026-03-22T10:53:37Z</time></trkpt><trkpt lat="43.28927543393839" lon="10.702537878252457"><ele>102.0</ele><time>2026-03-22T10:53:44Z</time></trkpt><trkpt lat="43.289343930763195" lon="10.70249801033086"><ele>102.0</ele><time>2026-03-22T10:53:47Z</time></trkpt><trkpt lat="43.28941666447398" lon="10.702468325360314"><ele>102.0</ele><time>2026-03-22T10:53:50Z</time></trkpt><trkpt lat="43.28950341731701" lon="10.70245512287899"><ele>102.0</ele><time>2026-03-22T10:53:53Z</time></trkpt><trkpt lat="43.289594194996866" lon="10.702416157384508"><ele>102.0</ele><time>2026-03-22T10:53:56Z</time></trkpt><trkpt lat="43.289685475939535" lon="10.70237380957843"><ele>102.0</ele><time>2026-03-22T10:53:59Z</time></trkpt><trkpt lat="43.28975743705143" lon="10.702322198644078"><ele>102.0</ele><time>2026-03-22T10:54:02Z</time></trkpt><trkpt lat="43.28982109622756" lon="10.70230244282405"><ele>102.0</ele><time>2026-03-22T10:54:06Z</time></trkpt><trkpt lat="43.28988536867164" lon="10.70223217846749"><ele>102.0</ele><time>2026-03-22T10:54:48Z</time></trkpt><trkpt lat="43.2899426299188" lon="10.702160797898369"><ele>102.0</ele><time>2026-03-22T10:56:01Z</time></trkpt><trkpt lat="43.289896005539134" lon="10.70224425491578"><ele>102.0</ele><time>2026-03-22T10:56:51Z</time></trkpt><trkpt lat="43.28984731472178" lon="10.702306197690023"><ele>102.0</ele><time>2026-03-22T10:56:57Z</time></trkpt><trkpt lat="43.28976608252645" lon="10.702338514701717"><ele>102.0</ele><time>2026-03-22T10:57:15Z</time></trkpt><trkpt lat="43.28969320990499" lon="10.70238458557632"><ele>102.0</ele><time>2026-03-22T10:57:18Z</time></trkpt><trkpt lat="43.28962665202566" lon="10.70241660343046"><ele>102.0</ele><time>2026-03-22T10:57:20Z</time></trkpt><trkpt lat="43.28956454552991" lon="10.702455310300325"><ele>102.0</ele><time>2026-03-22T10:57:21Z</time></trkpt><trkpt lat="43.28947292471248" lon="10.702478415559195"><ele>102.0</ele><time>2026-03-22T10:57:23Z</time></trkpt><trkpt lat="43.2893759350115" lon="10.702505928925008"><ele>102.0</ele><time>2026-03-22T10:57:26Z</time></trkpt><trkpt lat="43.28930444945612" lon="10.702549261150068"><ele>102.0</ele><time>2026-03-22T10:57:28Z</time></trkpt><trkpt lat="43.289236832529966" lon="10.70256846697358"><ele>102.0</ele><time>2026-03-22T10:57:31Z</time></trkpt><trkpt lat="43.28915965991579" lon="10.702517948493744"><ele>102.0</ele><time>2026-03-22T10:57:35Z</time></trkpt><trkpt lat="43.28911603918157" lon="10.702443207792468"><ele>102.0</ele><time>2026-03-22T10:57:37Z</time></trkpt><trkpt lat="43.28906479902447" lon="10.702338235876693"><ele>102.0</ele><time>2026-03-22T10:57:40Z</time></trkpt><trkpt lat="43.28901329140611" lon="10.702229791927858"><ele>102.0</ele><time>2026-03-22T10:57:43Z</time></trkpt><trkpt lat="43.288988195707915" lon="10.702143986871137"><ele>102.0</ele><time>2026-03-22T10:57:45Z</time></trkpt><trkpt lat="43.28895780095017" lon="10.702045284028562"><ele>102.0</ele><time>2026-03-22T10:57:47Z</time></trkpt><trkpt lat="43.28890928761824" lon="10.701937715381339"><ele>102.0</ele><time>2026-03-22T10:57:49Z</time></trkpt><trkpt lat="43.288861595023526" lon="10.701865438873401"><ele>102.0</ele><time>2026-03-22T10:57:51Z</time></trkpt><trkpt lat="43.28879627632277" lon="10.70179707861696"><ele>101.83333333333333</ele><time>2026-03-22T10:57:53Z</time></trkpt><trkpt lat="43.28870328926021" lon="10.701793658093218"><ele>101.66666666666666</ele><time>2026-03-22T10:57:55Z</time></trkpt><trkpt lat="43.28862344878538" lon="10.701817945564072"><ele>101.5</ele><time>2026-03-22T10:57:58Z</time></trkpt><trkpt lat="43.288549227183275" lon="10.70176784650837"><ele>101.33333333333333</ele><time>2026-03-22T10:58:01Z</time></trkpt><trkpt lat="43.28846929036935" lon="10.701747904124858"><ele>101.16666666666666</ele><time>2026-03-22T10:58:03Z</time></trkpt><trkpt lat="43.288378487871775" lon="10.701728844559769"><ele>101.0</ele><time>2026-03-22T10:58:05Z</time></trkpt><trkpt lat="43.28830513466096" lon="10.70172931269022"><ele>100.99999999999999</ele><time>2026-03-22T10:58:07Z</time></trkpt><trkpt lat="43.28821878303101" lon="10.701725640478015"><ele>101.0</ele><time>2026-03-22T10:58:10Z</time></trkpt><trkpt lat="43.288132257450535" lon="10.70174414030108"><ele>101.0</ele><time>2026-03-22T10:58:13Z</time></trkpt><trkpt lat="43.28805389538808" lon="10.701807311905853"><ele>101.0</ele><time>2026-03-22T10:58:16Z</time></trkpt><trkpt lat="43.28811609555284" lon="10.701764766083876"><ele>100.99999999999999</ele><time>2026-03-22T11:00:54Z</time></trkpt><trkpt lat="43.28803606635379" lon="10.701847795025346"><ele>101.0</ele><time>2026-03-22T11:00:58Z</time></trkpt><trkpt lat="43.28802165617173" lon="10.701932280303781"><ele>100.33333333333333</ele><time>2026-03-22T11:01:01Z</time></trkpt><trkpt lat="43.287994336329824" lon="10.702047452342317"><ele>99.66666666666666</ele><time>2026-03-22T11:01:20Z</time></trkpt><trkpt lat="43.28799958830038" lon="10.702155915153346"><ele>99.0</ele><time>2026-03-22T11:01:23Z</time></trkpt><trkpt lat="43.28796203048279" lon="10.70224271883392"><ele>98.33333333333334</ele><time>2026-03-22T11:01:27Z</time></trkpt><trkpt lat="43.28795405683553" lon="10.702343760986459"><ele>97.66666666666667</ele><time>2026-03-22T11:01:35Z</time></trkpt><trkpt lat="43.28793314831433" lon="10.702449540998854"><ele>97.0</ele><time>2026-03-22T11:01:49Z</time></trkpt><trkpt lat="43.287936608216725" lon="10.702547412760513"><ele>97.00000000000001</ele><time>2026-03-22T11:01:52Z</time></trkpt><trkpt lat="43.28790349571826" lon="10.70265554195899"><ele>97.0</ele><time>2026-03-22T11:01:56Z</time></trkpt><trkpt lat="43.28786600335288" lon="10.702750817160661"><ele>97.0</ele><time>2026-03-22T11:01:59Z</time></trkpt><trkpt lat="43.28782929709448" lon="10.702850797407862"><ele>97.0</ele><time>2026-03-22T11:02:02Z</time></trkpt><trkpt lat="43.287794399230904" lon="10.702937702674859"><ele>97.00000000000001</ele><time>2026-03-22T11:02:05Z</time></trkpt><trkpt lat="43.28777363699336" lon="10.703028683990496"><ele>97.0</ele><time>2026-03-22T11:02:08Z</time></trkpt><trkpt lat="43.28773925098074" lon="10.703107734331965"><ele>98.00000000000001</ele><time>2026-03-22T11:02:14Z</time></trkpt><trkpt lat="43.28769154564061" lon="10.703208508197827"><ele>99.0</ele><time>2026-03-22T11:02:17Z</time></trkpt><trkpt lat="43.28765341171182" lon="10.703284481773276"><ele>100.0</ele><time>2026-03-22T11:02:19Z</time></trkpt><trkpt lat="43.28760625087096" lon="10.703393774569257"><ele>101.0</ele><time>2026-03-22T11:02:22Z</time></trkpt><trkpt lat="43.287576838198206" lon="10.703493995975647"><ele>102.00000000000001</ele><time>2026-03-22T11:02:25Z</time></trkpt><trkpt lat="43.28753103403754" lon="10.703414871087757"><ele>103.0</ele><time>2026-03-22T11:02:44Z</time></trkpt><trkpt lat="43.28754999536252" lon="10.70332729898137"><ele>103.00000000000001</ele><time>2026-03-22T11:02:51Z</time></trkpt><trkpt lat="43.28751795685152" lon="10.703429125756573"><ele>103.0</ele><time>2026-03-22T11:07:38Z</time></trkpt><trkpt lat="43.28752805491916" lon="10.703563638037028"><ele>103.0</ele><time>2026-03-22T11:07:41Z</time></trkpt><trkpt lat="43.28748104197873" lon="10.703651753663321"><ele>103.0</ele><time>2026-03-22T11:07:44Z</time></trkpt><trkpt lat="43.2874244679061" lon="10.703698563371654"><ele>103.00000000000001</ele><time>2026-03-22T11:07:45Z</time></trkpt><trkpt lat="43.28735799595759" lon="10.703766550191503"><ele>103.0</ele><time>2026-03-22T11:07:47Z</time></trkpt><trkpt lat="43.28730399013089" lon="10.703845384578766"><ele>103.28571428571428</ele><time>2026-03-22T11:07:50Z</time></trkpt><trkpt lat="43.28725887679987" lon="10.703946055247197"><ele>103.57142857142857</ele><time>2026-03-22T11:07:54Z</time></trkpt><trkpt lat="43.287263596737446" lon="10.70403243696644"><ele>103.85714285714286</ele><time>2026-03-22T11:07:56Z</time></trkpt><trkpt lat="43.28731072372184" lon="10.704093777014526"><ele>104.14285714285714</ele><time>2026-03-22T11:07:58Z</time></trkpt><trkpt lat="43.28736173501345" lon="10.70415689374477"><ele>104.42857142857143</ele><time>2026-03-22T11:08:00Z</time></trkpt><trkpt lat="43.287417838629146" lon="10.704216433397368"><ele>104.71428571428571</ele><time>2026-03-22T11:08:02Z</time></trkpt><trkpt lat="43.28748985905643" lon="10.704255863050653"><ele>105.0</ele><time>2026-03-22T11:08:04Z</time></trkpt><trkpt lat="43.287564433404306" lon="10.704282815225891"><ele>105.0</ele><time>2026-03-22T11:08:06Z</time></trkpt><trkpt lat="43.28763782177789" lon="10.704350731744139"><ele>105.0</ele><time>2026-03-22T11:08:09Z</time></trkpt><trkpt lat="43.28766694382254" lon="10.704430817694261"><ele>105.0</ele><time>2026-03-22T11:08:11Z</time></trkpt><trkpt lat="43.28769655295111" lon="10.70452495560946"><ele>105.0</ele><time>2026-03-22T11:08:13Z</time></trkpt><trkpt lat="43.28771394521671" lon="10.704619766790618"><ele>105.0</ele><time>2026-03-22T11:08:15Z</time></trkpt><trkpt lat="43.287733535052034" lon="10.704735800303972"><ele>105.0</ele><time>2026-03-22T11:08:17Z</time></trkpt><trkpt lat="43.28777850844652" lon="10.704854336004987"><ele>104.0</ele><time>2026-03-22T11:08:20Z</time></trkpt><trkpt lat="43.287815100706425" lon="10.704937372349399"><ele>103.0</ele><time>2026-03-22T11:08:22Z</time></trkpt><trkpt lat="43.28787172257454" lon="10.705031189971857"><ele>102.0</ele><time>2026-03-22T11:08:24Z</time></trkpt><trkpt lat="43.28791798556229" lon="10.705146082394927"><ele>101.0</ele><time>2026-03-22T11:08:26Z</time></trkpt><trkpt lat="43.28795317144552" lon="10.705239797216903"><ele>100.0</ele><time>2026-03-22T11:08:28Z</time></trkpt><trkpt lat="43.28800616352049" lon="10.705360412170908"><ele>99.0</ele><time>2026-03-22T11:08:30Z</time></trkpt><trkpt lat="43.28805443847358" lon="10.705495868390976"><ele>99.83333333333333</ele><time>2026-03-22T11:08:32Z</time></trkpt><trkpt lat="43.2880969138988" lon="10.705624057096077"><ele>100.66666666666666</ele><time>2026-03-22T11:08:34Z</time></trkpt><trkpt lat="43.28813946809845" lon="10.705723243822792"><ele>101.5</ele><time>2026-03-22T11:08:37Z</time></trkpt><trkpt lat="43.28818216222733" lon="10.705827209584863"><ele>102.33333333333333</ele><time>2026-03-22T11:08:40Z</time></trkpt><trkpt lat="43.288224584666644" lon="10.705902606164765"><ele>103.16666666666666</ele><time>2026-03-22T11:08:42Z</time></trkpt><trkpt lat="43.28825423539251" lon="10.70598568717692"><ele>104.0</ele><time>2026-03-22T11:08:44Z</time></trkpt><trkpt lat="43.28830399015836" lon="10.706088654334055"><ele>104.0</ele><time>2026-03-22T11:08:46Z</time></trkpt><trkpt lat="43.28836244393047" lon="10.70621446967723"><ele>104.0</ele><time>2026-03-22T11:08:48Z</time></trkpt><trkpt lat="43.2884257894042" lon="10.706312845570757"><ele>104.0</ele><time>2026-03-22T11:08:50Z</time></trkpt><trkpt lat="43.28849832334926" lon="10.706397067684495"><ele>104.0</ele><time>2026-03-22T11:08:52Z</time></trkpt><trkpt lat="43.28856901584196" lon="10.706485558439216"><ele>104.0</ele><time>2026-03-22T11:08:54Z</time></trkpt><trkpt lat="43.28863842078362" lon="10.706569044081968"><ele>104.0</ele><time>2026-03-22T11:08:56Z</time></trkpt><trkpt lat="43.28869582189264" lon="10.70667668777373"><ele>104.0</ele><time>2026-03-22T11:08:58Z</time></trkpt><trkpt lat="43.28874027276724" lon="10.70679093471672"><ele>104.0</ele><time>2026-03-22T11:09:00Z</time></trkpt><trkpt lat="43.2887685744035" lon="10.70688471625785"><ele>104.0</ele><time>2026-03-22T11:09:02Z</time></trkpt><trkpt lat="43.288802678985675" lon="10.707001500916274"><ele>104.0</ele><time>2026-03-22T11:09:04Z</time></trkpt><trkpt lat="43.288837629139806" lon="10.70712622903899"><ele>103.80000000000001</ele><time>2026-03-22T11:09:06Z</time></trkpt><trkpt lat="43.288879096806085" lon="10.707265899954265"><ele>103.60000000000001</ele><time>2026-03-22T11:09:08Z</time></trkpt><trkpt lat="43.28891795731266" lon="10.707400213149413"><ele>103.4</ele><time>2026-03-22T11:09:10Z</time></trkpt><trkpt lat="43.28894828887789" lon="10.70749997632442"><ele>103.2</ele><time>2026-03-22T11:09:12Z</time></trkpt><trkpt lat="43.28897737515207" lon="10.707616571611108"><ele>103.0</ele><time>2026-03-22T11:09:14Z</time></trkpt><trkpt lat="43.28900476520471" lon="10.707724353415163"><ele>103.66666666666667</ele><time>2026-03-22T11:09:16Z</time></trkpt><trkpt lat="43.289045517801455" lon="10.707849592664553"><ele>104.33333333333334</ele><time>2026-03-22T11:09:19Z</time></trkpt><trkpt lat="43.289091581367884" lon="10.707937694527608"><ele>105.0</ele><time>2026-03-22T11:09:21Z</time></trkpt><trkpt lat="43.289134659670836" lon="10.70802127148015"><ele>105.66666666666666</ele><time>2026-03-22T11:09:23Z</time></trkpt><trkpt lat="43.28917507632147" lon="10.708104972572725"><ele>106.33333333333333</ele><time>2026-03-22T11:09:25Z</time></trkpt><trkpt lat="43.28924199778895" lon="10.70812626691446"><ele>107.0</ele><time>2026-03-22T11:09:29Z</time></trkpt><trkpt lat="43.28931836684162" lon="10.708083819588929"><ele>106.99999999999999</ele><time>2026-03-22T11:09:39Z</time></trkpt><trkpt lat="43.28939214720923" lon="10.70805349770905"><ele>107.0</ele><time>2026-03-22T11:09:41Z</time></trkpt><trkpt lat="43.28947793780494" lon="10.708004049199504"><ele>107.0</ele><time>2026-03-22T11:09:44Z</time></trkpt><trkpt lat="43.28956712433977" lon="10.707962505763863"><ele>107.0</ele><time>2026-03-22T11:09:47Z</time></trkpt><trkpt lat="43.28963117280535" lon="10.707935780324458"><ele>106.99999999999999</ele><time>2026-03-22T11:09:49Z</time></trkpt><trkpt lat="43.289717514770764" lon="10.707886124649395"><ele>107.0</ele><time>2026-03-22T11:09:51Z</time></trkpt><trkpt lat="43.289780893349096" lon="10.707853569991563"><ele>106.19999999999999</ele><time>2026-03-22T11:09:52Z</time></trkpt><trkpt lat="43.28984305819188" lon="10.707822452627033"><ele>105.39999999999999</ele><time>2026-03-22T11:09:53Z</time></trkpt><trkpt lat="43.28995535664277" lon="10.707760298723292"><ele>104.6</ele><time>2026-03-22T11:09:55Z</time></trkpt><trkpt lat="43.29005560543993" lon="10.707701960775218"><ele>103.80000000000001</ele><time>2026-03-22T11:09:57Z</time></trkpt><trkpt lat="43.290136900937455" lon="10.707658189855932"><ele>103.0</ele><time>2026-03-22T11:09:59Z</time></trkpt><trkpt lat="43.290218775575674" lon="10.707618846690893"><ele>102.71428571428571</ele><time>2026-03-22T11:10:01Z</time></trkpt><trkpt lat="43.29028423420977" lon="10.707591958088763"><ele>102.42857142857143</ele><time>2026-03-22T11:10:03Z</time></trkpt><trkpt lat="43.29034530702498" lon="10.707569298501209"><ele>102.14285714285714</ele><time>2026-03-22T11:10:05Z</time></trkpt><trkpt lat="43.2904148246471" lon="10.70753023420831"><ele>101.85714285714286</ele><time>2026-03-22T11:10:07Z</time></trkpt><trkpt lat="43.29047019659038" lon="10.7074571331231"><ele>101.57142857142857</ele><time>2026-03-22T11:10:09Z</time></trkpt><trkpt lat="43.29052709065541" lon="10.707382684378722"><ele>101.28571428571428</ele><time>2026-03-22T11:10:11Z</time></trkpt><trkpt lat="43.290576882650235" lon="10.70731633979594"><ele>101.0</ele><time>2026-03-22T11:10:13Z</time></trkpt><trkpt lat="43.29062051988162" lon="10.707252728917739"><ele>99.83333333333333</ele><time>2026-03-22T11:10:15Z</time></trkpt><trkpt lat="43.29067164026511" lon="10.707180116214262"><ele>98.66666666666666</ele><time>2026-03-22T11:10:18Z</time></trkpt><trkpt lat="43.290716826508586" lon="10.70725049343241"><ele>97.5</ele><time>2026-03-22T11:11:36Z</time></trkpt><trkpt lat="43.290794670695064" lon="10.70728760336711"><ele>96.33333333333333</ele><time>2026-03-22T11:11:43Z</time></trkpt><trkpt lat="43.29090977269236" lon="10.707262439178482"><ele>95.16666666666666</ele><time>2026-03-22T11:11:45Z</time></trkpt><trkpt lat="43.29099173413101" lon="10.7071727207816"><ele>94.0</ele><time>2026-03-22T11:11:47Z</time></trkpt><trkpt lat="43.291089070975964" lon="10.707070329392161"><ele>94.0</ele><time>2026-03-22T11:11:49Z</time></trkpt><trkpt lat="43.29114497966431" lon="10.707001546676372"><ele>94.0</ele><time>2026-03-22T11:11:50Z</time></trkpt><trkpt lat="43.29120599273479" lon="10.706929129044239"><ele>94.0</ele><time>2026-03-22T11:11:51Z</time></trkpt><trkpt lat="43.29126258208905" lon="10.70686196099932"><ele>94.0</ele><time>2026-03-22T11:11:52Z</time></trkpt><trkpt lat="43.291319693456806" lon="10.706794173197583"><ele>94.0</ele><time>2026-03-22T11:11:53Z</time></trkpt><trkpt lat="43.291379129367776" lon="10.706723979762565"><ele>94.0</ele><time>2026-03-22T11:11:54Z</time></trkpt><trkpt lat="43.29143862520341" lon="10.706657479152227"><ele>91.0</ele><time>2026-03-22T11:11:55Z</time></trkpt><trkpt lat="43.291501579392595" lon="10.706593846416325"><ele>88.0</ele><time>2026-03-22T11:11:56Z</time></trkpt><trkpt lat="43.29157032503268" lon="10.706533208984188"><ele>85.0</ele><time>2026-03-22T11:11:57Z</time></trkpt><trkpt lat="43.291634615865604" lon="10.706473326232809"><ele>82.0</ele><time>2026-03-22T11:11:58Z</time></trkpt><trkpt lat="43.291696341530816" lon="10.706409681335552"><ele>79.0</ele><time>2026-03-22T11:11:59Z</time></trkpt><trkpt lat="43.29174739199189" lon="10.706338118262401"><ele>76.0</ele><time>2026-03-22T11:12:00Z</time></trkpt><trkpt lat="43.29179888247875" lon="10.706264854497114"><ele>76.0</ele><time>2026-03-22T11:12:01Z</time></trkpt><trkpt lat="43.29185348835686" lon="10.706193765578357"><ele>76.0</ele><time>2026-03-22T11:12:02Z</time></trkpt><trkpt lat="43.29191631188495" lon="10.706122584587431"><ele>76.0</ele><time>2026-03-22T11:12:03Z</time></trkpt><trkpt lat="43.291980068065364" lon="10.706058096754413"><ele>76.0</ele><time>2026-03-22T11:12:04Z</time></trkpt><trkpt lat="43.29204442624231" lon="10.705997709664317"><ele>76.0</ele><time>2026-03-22T11:12:05Z</time></trkpt><trkpt lat="43.29210856692716" lon="10.705940799788054"><ele>76.0</ele><time>2026-03-22T11:12:06Z</time></trkpt><trkpt lat="43.29216944117091" lon="10.705891562894157"><ele>77.0</ele><time>2026-03-22T11:12:07Z</time></trkpt><trkpt lat="43.292236204653584" lon="10.70583838256366"><ele>78.0</ele><time>2026-03-22T11:12:08Z</time></trkpt><trkpt lat="43.29230834839742" lon="10.70578091597496"><ele>79.0</ele><time>2026-03-22T11:12:09Z</time></trkpt><trkpt lat="43.29237103662223" lon="10.705729132560823"><ele>80.0</ele><time>2026-03-22T11:12:10Z</time></trkpt><trkpt lat="43.29243107876833" lon="10.70567787646875"><ele>81.0</ele><time>2026-03-22T11:12:11Z</time></trkpt><trkpt lat="43.2924914828752" lon="10.705624566177919"><ele>82.0</ele><time>2026-03-22T11:12:12Z</time></trkpt><trkpt lat="43.29254482379982" lon="10.705577489501787"><ele>83.0</ele><time>2026-03-22T11:12:13Z</time></trkpt><trkpt lat="43.29263999593824" lon="10.705493512948108"><ele>81.16666666666667</ele><time>2026-03-22T11:12:15Z</time></trkpt><trkpt lat="43.29271075039312" lon="10.705431794618542"><ele>79.33333333333334</ele><time>2026-03-22T11:12:17Z</time></trkpt><trkpt lat="43.29277442086301" lon="10.705380392033316"><ele>77.5</ele><time>2026-03-22T11:12:47Z</time></trkpt><trkpt lat="43.29286643154254" lon="10.705313024264191"><ele>75.66666666666667</ele><time>2026-03-22T11:13:25Z</time></trkpt><trkpt lat="43.29296064223138" lon="10.70526692000731"><ele>73.83333333333333</ele><time>2026-03-22T11:13:27Z</time></trkpt><trkpt lat="43.293004055269016" lon="10.705181211987007"><ele>72.0</ele><time>2026-03-22T11:13:28Z</time></trkpt><trkpt lat="43.29305002555699" lon="10.705086795490468"><ele>70.4</ele><time>2026-03-22T11:13:29Z</time></trkpt><trkpt lat="43.293092550304955" lon="10.704983970299034"><ele>68.80000000000001</ele><time>2026-03-22T11:13:30Z</time></trkpt><trkpt lat="43.293135242903844" lon="10.704858777472019"><ele>67.2</ele><time>2026-03-22T11:13:31Z</time></trkpt><trkpt lat="43.293190403834956" lon="10.704703345961558"><ele>65.60000000000001</ele><time>2026-03-22T11:13:32Z</time></trkpt><trkpt lat="43.29322957090815" lon="10.704532557356611"><ele>64.0</ele><time>2026-03-22T11:13:33Z</time></trkpt><trkpt lat="43.293275068517616" lon="10.704346896079509"><ele>64.0</ele><time>2026-03-22T11:13:34Z</time></trkpt><trkpt lat="43.29332353268672" lon="10.704159637979858"><ele>64.0</ele><time>2026-03-22T11:13:35Z</time></trkpt><trkpt lat="43.29341431158455" lon="10.703775258927502"><ele>64.0</ele><time>2026-03-22T11:13:37Z</time></trkpt><trkpt lat="43.29346060152821" lon="10.70357378159387"><ele>63.33333333333333</ele><time>2026-03-22T11:13:38Z</time></trkpt><trkpt lat="43.29350492262855" lon="10.703371799894446"><ele>62.66666666666667</ele><time>2026-03-22T11:13:39Z</time></trkpt><trkpt lat="43.29355324618231" lon="10.703173996165795"><ele>62.0</ele><time>2026-03-22T11:13:40Z</time></trkpt><trkpt lat="43.29360609150174" lon="10.702972946025135"><ele>62.0</ele><time>2026-03-22T11:13:41Z</time></trkpt><trkpt lat="43.29365347447419" lon="10.70277506832403"><ele>62.0</ele><time>2026-03-22T11:13:42Z</time></trkpt><trkpt lat="43.29369976502132" lon="10.70259010954423"><ele>62.0</ele><time>2026-03-22T11:13:43Z</time></trkpt><trkpt lat="43.293742092811996" lon="10.702409541160275"><ele>62.0</ele><time>2026-03-22T11:13:44Z</time></trkpt><trkpt lat="43.29378483671379" lon="10.702239035063965"><ele>61.75</ele><time>2026-03-22T11:13:45Z</time></trkpt><trkpt lat="43.29383308258122" lon="10.70206169822625"><ele>61.5</ele><time>2026-03-22T11:13:46Z</time></trkpt><trkpt lat="43.293857597125516" lon="10.701880615563162"><ele>61.25</ele><time>2026-03-22T11:13:47Z</time></trkpt><trkpt lat="43.29387131584414" lon="10.701711366505938"><ele>61.0</ele><time>2026-03-22T11:13:48Z</time></trkpt><trkpt lat="43.29386050644387" lon="10.701520997546874"><ele>61.666666666666664</ele><time>2026-03-22T11:13:49Z</time></trkpt><trkpt lat="43.29382893285462" lon="10.701313030241986"><ele>62.33333333333333</ele><time>2026-03-22T11:13:50Z</time></trkpt><trkpt lat="43.293810179812766" lon="10.701076931218088"><ele>63.0</ele><time>2026-03-22T11:13:51Z</time></trkpt><trkpt lat="43.29377036573504" lon="10.700850739312338"><ele>62.66666666666667</ele><time>2026-03-22T11:13:52Z</time></trkpt><trkpt lat="43.29374524911378" lon="10.700633542065493"><ele>62.333333333333336</ele><time>2026-03-22T11:13:53Z</time></trkpt><trkpt lat="43.293715980350356" lon="10.700433000925456"><ele>62.0</ele><time>2026-03-22T11:13:54Z</time></trkpt><trkpt lat="43.29368574755888" lon="10.700236019746123"><ele>62.0</ele><time>2026-03-22T11:13:55Z</time></trkpt><trkpt lat="43.29366002735046" lon="10.70004873979895"><ele>62.0</ele><time>2026-03-22T11:13:56Z</time></trkpt><trkpt lat="43.29364060664951" lon="10.699879869759243"><ele>62.0</ele><time>2026-03-22T11:13:57Z</time></trkpt><trkpt lat="43.29361253410027" lon="10.699730233642976"><ele>62.0</ele><time>2026-03-22T11:13:58Z</time></trkpt><trkpt lat="43.29359247837625" lon="10.699586315489737"><ele>62.0</ele><time>2026-03-22T11:13:59Z</time></trkpt><trkpt lat="43.2935640811585" lon="10.699428045405426"><ele>62.0</ele><time>2026-03-22T11:14:00Z</time></trkpt><trkpt lat="43.29355285519187" lon="10.699266285255701"><ele>62.0</ele><time>2026-03-22T11:14:01Z</time></trkpt><trkpt lat="43.29356487115021" lon="10.699132281256185"><ele>62.0</ele><time>2026-03-22T11:14:02Z</time></trkpt><trkpt lat="43.29356574091846" lon="10.698962068686722"><ele>60.75</ele><time>2026-03-22T11:14:03Z</time></trkpt><trkpt lat="43.29355417816026" lon="10.698830968670316"><ele>59.5</ele><time>2026-03-22T11:14:04Z</time></trkpt><trkpt lat="43.29355972200091" lon="10.698724297907441"><ele>58.25</ele><time>2026-03-22T11:14:05Z</time></trkpt><trkpt lat="43.29354791770832" lon="10.69858318540024"><ele>57.0</ele><time>2026-03-22T11:14:07Z</time></trkpt><trkpt lat="43.29336985625158" lon="10.698534341067582"><ele>57.0</ele><time>2026-03-22T11:14:12Z</time></trkpt><trkpt lat="43.293278055522194" lon="10.69858426285331"><ele>57.0</ele><time>2026-03-22T11:14:13Z</time></trkpt><trkpt lat="43.29317761932248" lon="10.698638775262143"><ele>57.0</ele><time>2026-03-22T11:14:14Z</time></trkpt><trkpt lat="43.29304180282883" lon="10.698695906436782"><ele>57.0</ele><time>2026-03-22T11:14:15Z</time></trkpt><trkpt lat="43.292888714345736" lon="10.698763459510342"><ele>57.33333333333333</ele><time>2026-03-22T11:14:16Z</time></trkpt><trkpt lat="43.292734802518424" lon="10.698829232185563"><ele>57.666666666666664</ele><time>2026-03-22T11:14:17Z</time></trkpt><trkpt lat="43.29256648779396" lon="10.698914917714824"><ele>58.0</ele><time>2026-03-22T11:14:18Z</time></trkpt><trkpt lat="43.2924152393967" lon="10.698982010943746"><ele>58.0</ele><time>2026-03-22T11:14:19Z</time></trkpt><trkpt lat="43.292265418257045" lon="10.69903868020095"><ele>58.0</ele><time>2026-03-22T11:14:20Z</time></trkpt><trkpt lat="43.29211315432054" lon="10.699107493877573"><ele>58.0</ele><time>2026-03-22T11:14:21Z</time></trkpt><trkpt lat="43.29194768912332" lon="10.699173434616077"><ele>56.0</ele><time>2026-03-22T11:14:22Z</time></trkpt><trkpt lat="43.29178429664802" lon="10.699228199882448"><ele>54.0</ele><time>2026-03-22T11:14:23Z</time></trkpt><trkpt lat="43.29163345296863" lon="10.699260731654448"><ele>52.0</ele><time>2026-03-22T11:14:24Z</time></trkpt><trkpt lat="43.29149207739086" lon="10.69926956167807"><ele>51.5</ele><time>2026-03-22T11:14:25Z</time></trkpt><trkpt lat="43.29136173205796" lon="10.699266557980346"><ele>51.0</ele><time>2026-03-22T11:14:26Z</time></trkpt><trkpt lat="43.29123746353202" lon="10.699256688957252"><ele>50.5</ele><time>2026-03-22T11:14:27Z</time></trkpt><trkpt lat="43.29112255727851" lon="10.699245715878988"><ele>50.0</ele><time>2026-03-22T11:14:28Z</time></trkpt><trkpt lat="43.291009124140544" lon="10.699234899958919"><ele>50.0</ele><time>2026-03-22T11:14:29Z</time></trkpt><trkpt lat="43.290885411598104" lon="10.69923094815733"><ele>50.0</ele><time>2026-03-22T11:14:30Z</time></trkpt><trkpt lat="43.290745393326624" lon="10.699229420640629"><ele>50.0</ele><time>2026-03-22T11:14:31Z</time></trkpt><trkpt lat="43.290591797017115" lon="10.699221554151926"><ele>50.0</ele><time>2026-03-22T11:14:32Z</time></trkpt><trkpt lat="43.29042323431948" lon="10.699211644156732"><ele>51.0</ele><time>2026-03-22T11:14:33Z</time></trkpt><trkpt lat="43.290234320053" lon="10.699197685100861"><ele>52.0</ele><time>2026-03-22T11:14:34Z</time></trkpt><trkpt lat="43.2900408342992" lon="10.699184515275887"><ele>53.0</ele><time>2026-03-22T11:14:35Z</time></trkpt><trkpt lat="43.28983391433431" lon="10.699170673163149"><ele>53.66666666666667</ele><time>2026-03-22T11:14:36Z</time></trkpt><trkpt lat="43.28962878895781" lon="10.69916610793905"><ele>54.33333333333333</ele><time>2026-03-22T11:14:37Z</time></trkpt><trkpt lat="43.28941439754549" lon="10.69915112169951"><ele>55.0</ele><time>2026-03-22T11:14:38Z</time></trkpt><trkpt lat="43.28919623229268" lon="10.699137942265182"><ele>55.0</ele><time>2026-03-22T11:14:39Z</time></trkpt><trkpt lat="43.28900460550825" lon="10.699127414688494"><ele>55.0</ele><time>2026-03-22T11:14:40Z</time></trkpt><trkpt lat="43.28882225663158" lon="10.699114131820997"><ele>55.0</ele><time>2026-03-22T11:14:41Z</time></trkpt><trkpt lat="43.288654928298456" lon="10.699104472246578"><ele>55.666666666666664</ele><time>2026-03-22T11:14:42Z</time></trkpt><trkpt lat="43.28848642487757" lon="10.69909387688015"><ele>56.33333333333333</ele><time>2026-03-22T11:14:43Z</time></trkpt><trkpt lat="43.28833375636608" lon="10.699080006123152"><ele>57.0</ele><time>2026-03-22T11:14:44Z</time></trkpt><trkpt lat="43.28816906775015" lon="10.699065972747944"><ele>57.0</ele><time>2026-03-22T11:14:45Z</time></trkpt><trkpt lat="43.28800166791698" lon="10.699056090371169"><ele>57.0</ele><time>2026-03-22T11:14:46Z</time></trkpt><trkpt lat="43.28783282817404" lon="10.699053343003982"><ele>57.0</ele><time>2026-03-22T11:14:47Z</time></trkpt><trkpt lat="43.28766541931049" lon="10.699067596682823"><ele>57.0</ele><time>2026-03-22T11:14:48Z</time></trkpt><trkpt lat="43.28748944411841" lon="10.699095106796982"><ele>57.0</ele><time>2026-03-22T11:14:49Z</time></trkpt><trkpt lat="43.28731698677318" lon="10.699141555621091"><ele>57.0</ele><time>2026-03-22T11:14:50Z</time></trkpt><trkpt lat="43.287145908527556" lon="10.699207574435047"><ele>56.66666666666667</ele><time>2026-03-22T11:14:51Z</time></trkpt><trkpt lat="43.28696972506132" lon="10.699271126478832"><ele>56.333333333333336</ele><time>2026-03-22T11:14:52Z</time></trkpt><trkpt lat="43.286795983230256" lon="10.699352445797864"><ele>56.0</ele><time>2026-03-22T11:14:53Z</time></trkpt><trkpt lat="43.2866382228051" lon="10.699448938971235"><ele>56.66666666666667</ele><time>2026-03-22T11:14:54Z</time></trkpt><trkpt lat="43.2864687670871" lon="10.699536011580127"><ele>57.33333333333333</ele><time>2026-03-22T11:14:55Z</time></trkpt><trkpt lat="43.28629490155698" lon="10.699653185799546"><ele>58.0</ele><time>2026-03-22T11:14:56Z</time></trkpt><trkpt lat="43.28611666025351" lon="10.69977430621422"><ele>58.0</ele><time>2026-03-22T11:14:57Z</time></trkpt><trkpt lat="43.285938244562885" lon="10.69989638734717"><ele>58.0</ele><time>2026-03-22T11:14:58Z</time></trkpt><trkpt lat="43.28574851810793" lon="10.700026207951092"><ele>58.0</ele><time>2026-03-22T11:14:59Z</time></trkpt><trkpt lat="43.28555104639198" lon="10.700160153426308"><ele>58.0</ele><time>2026-03-22T11:15:00Z</time></trkpt><trkpt lat="43.285346588517434" lon="10.700298394577345"><ele>58.0</ele><time>2026-03-22T11:15:01Z</time></trkpt><trkpt lat="43.285137661023704" lon="10.700438755871211"><ele>58.0</ele><time>2026-03-22T11:15:02Z</time></trkpt><trkpt lat="43.284923291760855" lon="10.700583089488454"><ele>58.0</ele><time>2026-03-22T11:15:03Z</time></trkpt><trkpt lat="43.28471111750129" lon="10.70072686323517"><ele>57.33333333333333</ele><time>2026-03-22T11:15:04Z</time></trkpt><trkpt lat="43.284506687708955" lon="10.700864945711103"><ele>56.66666666666667</ele><time>2026-03-22T11:15:05Z</time></trkpt><trkpt lat="43.28431981509596" lon="10.70098814253117"><ele>56.0</ele><time>2026-03-22T11:15:06Z</time></trkpt><trkpt lat="43.284154558221296" lon="10.701097075761998"><ele>57.0</ele><time>2026-03-22T11:15:07Z</time></trkpt><trkpt lat="43.28399775327348" lon="10.70120313778125"><ele>58.0</ele><time>2026-03-22T11:15:08Z</time></trkpt><trkpt lat="43.28385062333091" lon="10.701301058878858"><ele>59.0</ele><time>2026-03-22T11:15:09Z</time></trkpt><trkpt lat="43.283711319581485" lon="10.7013985912662"><ele>59.0</ele><time>2026-03-22T11:15:10Z</time></trkpt><trkpt lat="43.28358310238289" lon="10.701484406275204"><ele>59.0</ele><time>2026-03-22T11:15:11Z</time></trkpt><trkpt lat="43.283462675855496" lon="10.701565006793258"><ele>59.0</ele><time>2026-03-22T11:15:12Z</time></trkpt><trkpt lat="43.28335554610231" lon="10.701636708017075"><ele>59.0</ele><time>2026-03-22T11:15:13Z</time></trkpt><trkpt lat="43.28325221702753" lon="10.701705865422053"><ele>59.0</ele><time>2026-03-22T11:15:14Z</time></trkpt><trkpt lat="43.2831638898829" lon="10.701767470295815"><ele>59.00000000000001</ele><time>2026-03-22T11:15:15Z</time></trkpt><trkpt lat="43.28308804445271" lon="10.701832889179554"><ele>59.00000000000001</ele><time>2026-03-22T11:15:16Z</time></trkpt><trkpt lat="43.28302990541157" lon="10.701883207118694"><ele>59.0</ele><time>2026-03-22T11:15:17Z</time></trkpt><trkpt lat="43.28294940308007" lon="10.701886036318477"><ele>59.0</ele><time>2026-03-22T11:15:19Z</time></trkpt><trkpt lat="43.2828595964328" lon="10.701726459536387"><ele>58.800000000000004</ele><time>2026-03-22T11:15:21Z</time></trkpt><trkpt lat="43.282836968400254" lon="10.701612930309173"><ele>58.60000000000001</ele><time>2026-03-22T11:15:22Z</time></trkpt><trkpt lat="43.28281485255982" lon="10.701460170758734"><ele>58.4</ele><time>2026-03-22T11:15:23Z</time></trkpt><trkpt lat="43.28279297402715" lon="10.701351118602815"><ele>58.2</ele><time>2026-03-22T11:15:24Z</time></trkpt><trkpt lat="43.2827673108753" lon="10.701264697086225"><ele>58.0</ele><time>2026-03-22T11:15:25Z</time></trkpt><trkpt lat="43.282673804465155" lon="10.70116272364961"><ele>58.0</ele><time>2026-03-22T11:15:27Z</time></trkpt><trkpt lat="43.28256756774481" lon="10.701169602372927"><ele>58.0</ele><time>2026-03-22T11:15:28Z</time></trkpt><trkpt lat="43.28244933793126" lon="10.701208583189004"><ele>58.0</ele><time>2026-03-22T11:15:29Z</time></trkpt><trkpt lat="43.28231090880454" lon="10.701281679948647"><ele>58.0</ele><time>2026-03-22T11:15:30Z</time></trkpt><trkpt lat="43.28217021714844" lon="10.701358231561446"><ele>57.33333333333333</ele><time>2026-03-22T11:15:31Z</time></trkpt><trkpt lat="43.282016927769256" lon="10.701436807409392"><ele>56.66666666666667</ele><time>2026-03-22T11:15:32Z</time></trkpt><trkpt lat="43.281860270226325" lon="10.701517196013024"><ele>56.0</ele><time>2026-03-22T11:15:33Z</time></trkpt><trkpt lat="43.28173301635732" lon="10.701604501513703"><ele>56.00000000000001</ele><time>2026-03-22T11:15:34Z</time></trkpt><trkpt lat="43.281622977720566" lon="10.701641200536317"><ele>56.0</ele><time>2026-03-22T11:15:35Z</time></trkpt><trkpt lat="43.28153757626784" lon="10.701685829830483"><ele>56.0</ele><time>2026-03-22T11:15:36Z</time></trkpt><trkpt lat="43.28145955683598" lon="10.701726453833396"><ele>56.0</ele><time>2026-03-22T11:15:37Z</time></trkpt><trkpt lat="43.28139133854821" lon="10.70176183420943"><ele>56.00000000000001</ele><time>2026-03-22T11:15:38Z</time></trkpt><trkpt lat="43.281328761761436" lon="10.701794288659466"><ele>56.0</ele><time>2026-03-22T11:15:39Z</time></trkpt><trkpt lat="43.281270537403685" lon="10.701848855553152"><ele>56.00000000000001</ele><time>2026-03-22T11:15:40Z</time></trkpt><trkpt lat="43.28118233962183" lon="10.701869097070231"><ele>56.0</ele><time>2026-03-22T11:15:41Z</time></trkpt><trkpt lat="43.281105947731916" lon="10.701922886131838"><ele>56.0</ele><time>2026-03-22T11:15:42Z</time></trkpt><trkpt lat="43.2810347771976" lon="10.701929878487043"><ele>56.0</ele><time>2026-03-22T11:15:43Z</time></trkpt><trkpt lat="43.280967302796256" lon="10.701907188196802"><ele>56.00000000000001</ele><time>2026-03-22T11:15:44Z</time></trkpt><trkpt lat="43.28090219876756" lon="10.701865683957728"><ele>56.0</ele><time>2026-03-22T11:15:45Z</time></trkpt><trkpt lat="43.28080674939722" lon="10.701712080662318"><ele>56.199999999999996</ele><time>2026-03-22T11:15:47Z</time></trkpt><trkpt lat="43.28083611010393" lon="10.701552335562118"><ele>56.39999999999999</ele><time>2026-03-22T11:15:48Z</time></trkpt><trkpt lat="43.28084920051018" lon="10.701438761201276"><ele>56.6</ele><time>2026-03-22T11:15:49Z</time></trkpt><trkpt lat="43.28085707708413" lon="10.701339086360395"><ele>56.8</ele><time>2026-03-22T11:15:50Z</time></trkpt><trkpt lat="43.28082586701523" lon="10.701188168714529"><ele>57.0</ele><time>2026-03-22T11:15:52Z</time></trkpt><trkpt lat="43.2807785140119" lon="10.701121385983248"><ele>56.333333333333336</ele><time>2026-03-22T11:15:53Z</time></trkpt><trkpt lat="43.28072951831254" lon="10.701033631773969"><ele>55.66666666666667</ele><time>2026-03-22T11:15:54Z</time></trkpt><trkpt lat="43.280672943422694" lon="10.700929439373466"><ele>55.0</ele><time>2026-03-22T11:15:55Z</time></trkpt><trkpt lat="43.280622305743194" lon="10.70083550106971"><ele>54.333333333333336</ele><time>2026-03-22T11:15:56Z</time></trkpt><trkpt lat="43.28057868023225" lon="10.700745282690363"><ele>53.66666666666667</ele><time>2026-03-22T11:15:57Z</time></trkpt><trkpt lat="43.280536533927574" lon="10.700638572688588"><ele>53.0</ele><time>2026-03-22T11:15:58Z</time></trkpt><trkpt lat="43.280519576895074" lon="10.70054474075081"><ele>53.0</ele><time>2026-03-22T11:15:59Z</time></trkpt><trkpt lat="43.280529857223506" lon="10.700427334080425"><ele>53.0</ele><time>2026-03-22T11:16:00Z</time></trkpt><trkpt lat="43.28058119548167" lon="10.700292755873562"><ele>53.0</ele><time>2026-03-22T11:16:01Z</time></trkpt><trkpt lat="43.28065576351309" lon="10.700123829720534"><ele>53.0</ele><time>2026-03-22T11:16:02Z</time></trkpt><trkpt lat="43.28074615410842" lon="10.699932855756563"><ele>53.0</ele><time>2026-03-22T11:16:03Z</time></trkpt><trkpt lat="43.28083897380727" lon="10.699717964816234"><ele>53.0</ele><time>2026-03-22T11:16:04Z</time></trkpt><trkpt lat="43.28091794541281" lon="10.699518231770991"><ele>53.0</ele><time>2026-03-22T11:16:05Z</time></trkpt><trkpt lat="43.28099021313375" lon="10.699349073218748"><ele>53.0</ele><time>2026-03-22T11:16:06Z</time></trkpt><trkpt lat="43.28102437667813" lon="10.699197868568286"><ele>53.0</ele><time>2026-03-22T11:16:07Z</time></trkpt><trkpt lat="43.28105889532999" lon="10.699077018214293"><ele>53.0</ele><time>2026-03-22T11:16:08Z</time></trkpt><trkpt lat="43.2810675387147" lon="10.698965708289169"><ele>53.0</ele><time>2026-03-22T11:16:09Z</time></trkpt><trkpt lat="43.281047518274" lon="10.698834041658138"><ele>53.0</ele><time>2026-03-22T11:16:10Z</time></trkpt><trkpt lat="43.28098784675269" lon="10.698708597077282"><ele>53.333333333333336</ele><time>2026-03-22T11:16:11Z</time></trkpt><trkpt lat="43.28090209279269" lon="10.698526177285563"><ele>53.66666666666667</ele><time>2026-03-22T11:16:12Z</time></trkpt><trkpt lat="43.28081007956739" lon="10.69831621314729"><ele>54.0</ele><time>2026-03-22T11:16:13Z</time></trkpt><trkpt lat="43.280721626379844" lon="10.698141809547067"><ele>54.0</ele><time>2026-03-22T11:16:14Z</time></trkpt><trkpt lat="43.28062982942317" lon="10.697967528552374"><ele>54.0</ele><time>2026-03-22T11:16:15Z</time></trkpt><trkpt lat="43.28055053161899" lon="10.697786431588362"><ele>54.0</ele><time>2026-03-22T11:16:16Z</time></trkpt><trkpt lat="43.28048260934857" lon="10.697631313461335"><ele>54.0</ele><time>2026-03-22T11:16:17Z</time></trkpt><trkpt lat="43.28042836671967" lon="10.697503612999116"><ele>56.2</ele><time>2026-03-22T11:16:18Z</time></trkpt><trkpt lat="43.28037900013794" lon="10.697429060169231"><ele>58.400000000000006</ele><time>2026-03-22T11:16:19Z</time></trkpt><trkpt lat="43.280302269637744" lon="10.697345506914031"><ele>60.6</ele><time>2026-03-22T11:16:21Z</time></trkpt><trkpt lat="43.28021650297471" lon="10.697364777814322"><ele>62.8</ele><time>2026-03-22T11:16:22Z</time></trkpt><trkpt lat="43.280142787779674" lon="10.697486843180881"><ele>65.0</ele><time>2026-03-22T11:16:23Z</time></trkpt><trkpt lat="43.28007334587196" lon="10.697605393928523"><ele>65.0</ele><time>2026-03-22T11:16:24Z</time></trkpt><trkpt lat="43.2799966499269" lon="10.697734364992291"><ele>65.0</ele><time>2026-03-22T11:16:25Z</time></trkpt><trkpt lat="43.27991049043556" lon="10.697882056921527"><ele>65.0</ele><time>2026-03-22T11:16:26Z</time></trkpt><trkpt lat="43.279845490199286" lon="10.69805185596691"><ele>65.0</ele><time>2026-03-22T11:16:27Z</time></trkpt><trkpt lat="43.279792603029804" lon="10.698167420211773"><ele>67.6</ele><time>2026-03-22T11:16:28Z</time></trkpt><trkpt lat="43.27971555154715" lon="10.69826246756319"><ele>70.2</ele><time>2026-03-22T11:16:30Z</time></trkpt><trkpt lat="43.279629797307734" lon="10.698259307575777"><ele>72.8</ele><time>2026-03-22T11:16:31Z</time></trkpt><trkpt lat="43.279517915460104" lon="10.698277882895592"><ele>75.4</ele><time>2026-03-22T11:16:32Z</time></trkpt><trkpt lat="43.27940335927518" lon="10.698275343647794"><ele>78.0</ele><time>2026-03-22T11:16:33Z</time></trkpt><trkpt lat="43.27931762723701" lon="10.698181497204693"><ele>78.0</ele><time>2026-03-22T11:16:34Z</time></trkpt><trkpt lat="43.27921928406518" lon="10.698156911194452"><ele>78.0</ele><time>2026-03-22T11:16:35Z</time></trkpt><trkpt lat="43.279124245032946" lon="10.698159307839527"><ele>78.0</ele><time>2026-03-22T11:16:36Z</time></trkpt><trkpt lat="43.2790541923745" lon="10.698166302973146"><ele>78.0</ele><time>2026-03-22T11:16:37Z</time></trkpt><trkpt lat="43.27895260865784" lon="10.698187850339018"><ele>78.0</ele><time>2026-03-22T11:16:39Z</time></trkpt><trkpt lat="43.27888348160049" lon="10.69823521834186"><ele>78.0</ele><time>2026-03-22T11:16:41Z</time></trkpt><trkpt lat="43.27878747257758" lon="10.698312896191673"><ele>79.33333333333333</ele><time>2026-03-22T11:16:43Z</time></trkpt><trkpt lat="43.278667953346506" lon="10.698351629213278"><ele>80.66666666666666</ele><time>2026-03-22T11:16:45Z</time></trkpt><trkpt lat="43.27858208783703" lon="10.6980301662645"><ele>82.0</ele><time>2026-03-22T11:16:47Z</time></trkpt><trkpt lat="43.27851512057103" lon="10.697868438601512"><ele>82.25</ele><time>2026-03-22T11:16:49Z</time></trkpt><trkpt lat="43.27847346641117" lon="10.697750918602996"><ele>82.5</ele><time>2026-03-22T11:16:50Z</time></trkpt><trkpt lat="43.27843432315309" lon="10.697642548220267"><ele>82.75</ele><time>2026-03-22T11:16:51Z</time></trkpt><trkpt lat="43.27840386659749" lon="10.69751110606465"><ele>83.0</ele><time>2026-03-22T11:16:52Z</time></trkpt><trkpt lat="43.278299631555676" lon="10.697319095010874"><ele>83.0</ele><time>2026-03-22T11:16:54Z</time></trkpt><trkpt lat="43.27824525193701" lon="10.697259000373021"><ele>83.0</ele><time>2026-03-22T11:16:55Z</time></trkpt><trkpt lat="43.278176036013974" lon="10.697201153901782"><ele>83.0</ele><time>2026-03-22T11:16:56Z</time></trkpt><trkpt lat="43.278107332146504" lon="10.697119318118983"><ele>83.0</ele><time>2026-03-22T11:16:57Z</time></trkpt><trkpt lat="43.27805902238958" lon="10.697008818255473"><ele>83.0</ele><time>2026-03-22T11:16:58Z</time></trkpt><trkpt lat="43.278035765190594" lon="10.69688094715764"><ele>83.0</ele><time>2026-03-22T11:16:59Z</time></trkpt><trkpt lat="43.27802824481424" lon="10.696739694320163"><ele>86.0</ele><time>2026-03-22T11:17:00Z</time></trkpt><trkpt lat="43.277988590528416" lon="10.696628754947543"><ele>89.0</ele><time>2026-03-22T11:17:01Z</time></trkpt><trkpt lat="43.277933633191225" lon="10.696528451542687"><ele>92.0</ele><time>2026-03-22T11:17:02Z</time></trkpt><trkpt lat="43.27785052329858" lon="10.696440115903002"><ele>95.0</ele><time>2026-03-22T11:17:03Z</time></trkpt><trkpt lat="43.277737029596885" lon="10.696355031463906"><ele>98.0</ele><time>2026-03-22T11:17:04Z</time></trkpt><trkpt lat="43.27760462513876" lon="10.696259058177276"><ele>98.0</ele><time>2026-03-22T11:17:05Z</time></trkpt><trkpt lat="43.27746340610439" lon="10.696178119299551"><ele>98.0</ele><time>2026-03-22T11:17:06Z</time></trkpt><trkpt lat="43.27731456440568" lon="10.696113400714623"><ele>98.0</ele><time>2026-03-22T11:17:07Z</time></trkpt><trkpt lat="43.27720244599194" lon="10.696065488384033"><ele>98.0</ele><time>2026-03-22T11:17:08Z</time></trkpt><trkpt lat="43.277108798508856" lon="10.696028922086574"><ele>99.25</ele><time>2026-03-22T11:17:09Z</time></trkpt><trkpt lat="43.277020201643445" lon="10.695972893974004"><ele>100.5</ele><time>2026-03-22T11:17:10Z</time></trkpt><trkpt lat="43.27691147715253" lon="10.695879517286631"><ele>101.75</ele><time>2026-03-22T11:17:11Z</time></trkpt><trkpt lat="43.27679909201806" lon="10.69578440579441"><ele>103.0</ele><time>2026-03-22T11:17:12Z</time></trkpt><trkpt lat="43.276679819385414" lon="10.695685148779106"><ele>103.0</ele><time>2026-03-22T11:17:13Z</time></trkpt><trkpt lat="43.276558637225605" lon="10.69559143102731"><ele>103.0</ele><time>2026-03-22T11:17:14Z</time></trkpt><trkpt lat="43.27646220879389" lon="10.695505829845551"><ele>103.0</ele><time>2026-03-22T11:17:15Z</time></trkpt><trkpt lat="43.27638200843747" lon="10.69542403426939"><ele>103.0</ele><time>2026-03-22T11:17:16Z</time></trkpt><trkpt lat="43.276280870623815" lon="10.695339264173379"><ele>105.25</ele><time>2026-03-22T11:17:17Z</time></trkpt><trkpt lat="43.27617890016316" lon="10.695228647137565"><ele>107.5</ele><time>2026-03-22T11:17:18Z</time></trkpt><trkpt lat="43.276079871110504" lon="10.695092359331529"><ele>109.75</ele><time>2026-03-22T11:17:19Z</time></trkpt><trkpt lat="43.275983568245955" lon="10.694979755687754"><ele>112.0</ele><time>2026-03-22T11:17:20Z</time></trkpt><trkpt lat="43.27589706894747" lon="10.694900722118765"><ele>112.0</ele><time>2026-03-22T11:17:21Z</time></trkpt><trkpt lat="43.27583286944998" lon="10.694798305748169"><ele>111.99999999999999</ele><time>2026-03-22T11:17:22Z</time></trkpt><trkpt lat="43.27577333008571" lon="10.694700807697851"><ele>111.99999999999999</ele><time>2026-03-22T11:17:23Z</time></trkpt><trkpt lat="43.27572029516409" lon="10.694583784964056"><ele>112.0</ele><time>2026-03-22T11:17:24Z</time></trkpt><trkpt lat="43.275695636835096" lon="10.694409620310168"><ele>112.0</ele><time>2026-03-22T11:17:25Z</time></trkpt><trkpt lat="43.275646314420534" lon="10.694247568180277"><ele>113.0</ele><time>2026-03-22T11:17:26Z</time></trkpt><trkpt lat="43.27551464764815" lon="10.694163259241316"><ele>114.0</ele><time>2026-03-22T11:17:27Z</time></trkpt><trkpt lat="43.275452501443986" lon="10.694032422892393"><ele>115.0</ele><time>2026-03-22T11:17:28Z</time></trkpt><trkpt lat="43.27538857161725" lon="10.693893501354655"><ele>116.0</ele><time>2026-03-22T11:17:29Z</time></trkpt><trkpt lat="43.27531613891457" lon="10.693763602032687"><ele>116.0</ele><time>2026-03-22T11:17:30Z</time></trkpt><trkpt lat="43.27524726427236" lon="10.693640470024036"><ele>116.0</ele><time>2026-03-22T11:17:31Z</time></trkpt><trkpt lat="43.275166478064946" lon="10.693481913374015"><ele>116.0</ele><time>2026-03-22T11:17:32Z</time></trkpt><trkpt lat="43.275077529972734" lon="10.693302449286294"><ele>116.0</ele><time>2026-03-22T11:17:33Z</time></trkpt><trkpt lat="43.27498961971847" lon="10.693145175361044"><ele>116.66666666666666</ele><time>2026-03-22T11:17:34Z</time></trkpt><trkpt lat="43.274915950961415" lon="10.693022232813798"><ele>117.33333333333333</ele><time>2026-03-22T11:17:35Z</time></trkpt><trkpt lat="43.27485198677859" lon="10.692912569099896"><ele>118.0</ele><time>2026-03-22T11:17:36Z</time></trkpt><trkpt lat="43.27479278314725" lon="10.692824031431833"><ele>118.66666666666666</ele><time>2026-03-22T11:17:37Z</time></trkpt><trkpt lat="43.274753442681586" lon="10.692749817210524"><ele>119.33333333333333</ele><time>2026-03-22T11:17:38Z</time></trkpt><trkpt lat="43.2747248622786" lon="10.692657092788869"><ele>120.0</ele><time>2026-03-22T11:17:39Z</time></trkpt><trkpt lat="43.274713058783284" lon="10.692571184145756"><ele>122.4</ele><time>2026-03-22T11:17:40Z</time></trkpt><trkpt lat="43.2747043892826" lon="10.692390551218864"><ele>124.8</ele><time>2026-03-22T11:17:42Z</time></trkpt><trkpt lat="43.27470714012703" lon="10.692273009149536"><ele>127.19999999999999</ele><time>2026-03-22T11:17:43Z</time></trkpt><trkpt lat="43.27471075949307" lon="10.69207620233959"><ele>129.6</ele><time>2026-03-22T11:17:45Z</time></trkpt><trkpt lat="43.27470921645524" lon="10.691982753232985"><ele>132.0</ele><time>2026-03-22T11:17:46Z</time></trkpt><trkpt lat="43.27470022292268" lon="10.691894424494823"><ele>132.5</ele><time>2026-03-22T11:17:47Z</time></trkpt><trkpt lat="43.27467308970734" lon="10.691776501729123"><ele>133.0</ele><time>2026-03-22T11:17:48Z</time></trkpt><trkpt lat="43.2746380547675" lon="10.691665533801128"><ele>133.5</ele><time>2026-03-22T11:17:49Z</time></trkpt><trkpt lat="43.27458724627268" lon="10.691601272524853"><ele>134.0</ele><time>2026-03-22T11:17:50Z</time></trkpt><trkpt lat="43.27452381116316" lon="10.691553179821838"><ele>134.5</ele><time>2026-03-22T11:17:51Z</time></trkpt><trkpt lat="43.27445718561195" lon="10.691484416443096"><ele>135.0</ele><time>2026-03-22T11:17:52Z</time></trkpt><trkpt lat="43.27440457715224" lon="10.691424360840221"><ele>135.0</ele><time>2026-03-22T11:17:53Z</time></trkpt><trkpt lat="43.2743519030552" lon="10.69135429162118"><ele>135.0</ele><time>2026-03-22T11:17:54Z</time></trkpt><trkpt lat="43.27429760638177" lon="10.69126789403548"><ele>135.0</ele><time>2026-03-22T11:17:55Z</time></trkpt><trkpt lat="43.27423894919511" lon="10.69117189684123"><ele>135.0</ele><time>2026-03-22T11:17:56Z</time></trkpt><trkpt lat="43.27418810992273" lon="10.691082149821515"><ele>135.0</ele><time>2026-03-22T11:17:57Z</time></trkpt><trkpt lat="43.27414402391343" lon="10.690988206736243"><ele>135.0</ele><time>2026-03-22T11:17:58Z</time></trkpt><trkpt lat="43.27410879722469" lon="10.69079967776326"><ele>136.2</ele><time>2026-03-22T11:18:00Z</time></trkpt><trkpt lat="43.27407875618196" lon="10.690701089832254"><ele>137.4</ele><time>2026-03-22T11:18:01Z</time></trkpt><trkpt lat="43.27401777794164" lon="10.690577361934936"><ele>138.6</ele><time>2026-03-22T11:18:03Z</time></trkpt><trkpt lat="43.27390405139584" lon="10.690582626173144"><ele>139.8</ele><time>2026-03-22T11:18:05Z</time></trkpt><trkpt lat="43.27379682291385" lon="10.690604227910702"><ele>141.0</ele><time>2026-03-22T11:18:07Z</time></trkpt><trkpt lat="43.27368245571268" lon="10.690590642066319"><ele>142.5</ele><time>2026-03-22T11:18:09Z</time></trkpt><trkpt lat="43.27360865190535" lon="10.690593880297769"><ele>144.0</ele><time>2026-03-22T11:18:10Z</time></trkpt><trkpt lat="43.273523310518215" lon="10.690610088270152"><ele>145.5</ele><time>2026-03-22T11:18:11Z</time></trkpt><trkpt lat="43.27343263594434" lon="10.690625643090254"><ele>147.0</ele><time>2026-03-22T11:18:12Z</time></trkpt><trkpt lat="43.27335118848827" lon="10.690630741463005"><ele>148.5</ele><time>2026-03-22T11:18:13Z</time></trkpt><trkpt lat="43.273275168754246" lon="10.69062948460326"><ele>150.0</ele><time>2026-03-22T11:18:14Z</time></trkpt><trkpt lat="43.27317407318276" lon="10.690580140805132"><ele>150.0</ele><time>2026-03-22T11:18:16Z</time></trkpt><trkpt lat="43.27311073328272" lon="10.690536063623068"><ele>150.0</ele><time>2026-03-22T11:18:17Z</time></trkpt><trkpt lat="43.27304442723375" lon="10.690491963935207"><ele>150.0</ele><time>2026-03-22T11:18:18Z</time></trkpt><trkpt lat="43.27297408280843" lon="10.690445490057197"><ele>150.0</ele><time>2026-03-22T11:18:19Z</time></trkpt><trkpt lat="43.272843511186366" lon="10.690445811880743"><ele>150.0</ele><time>2026-03-22T11:18:21Z</time></trkpt><trkpt lat="43.27276353376346" lon="10.690380302657438"><ele>150.0</ele><time>2026-03-22T11:18:23Z</time></trkpt><trkpt lat="43.272728121696375" lon="10.69030835566405"><ele>152.33333333333334</ele><time>2026-03-22T11:18:24Z</time></trkpt><trkpt lat="43.27267602278654" lon="10.690222890478967"><ele>154.66666666666666</ele><time>2026-03-22T11:18:25Z</time></trkpt><trkpt lat="43.27262249679901" lon="10.690139571597898"><ele>157.0</ele><time>2026-03-22T11:18:26Z</time></trkpt><trkpt lat="43.27257270349017" lon="10.69006675412591"><ele>159.33333333333331</ele><time>2026-03-22T11:18:27Z</time></trkpt><trkpt lat="43.27251866093431" lon="10.689992249491413"><ele>161.66666666666666</ele><time>2026-03-22T11:18:28Z</time></trkpt><trkpt lat="43.27244805485298" lon="10.689930619342427"><ele>164.0</ele><time>2026-03-22T11:18:29Z</time></trkpt><trkpt lat="43.27238406319696" lon="10.689850246652297"><ele>164.0</ele><time>2026-03-22T11:18:30Z</time></trkpt><trkpt lat="43.27233870387904" lon="10.689762762806577"><ele>164.0</ele><time>2026-03-22T11:18:31Z</time></trkpt><trkpt lat="43.27229916792435" lon="10.689644666240737"><ele>164.0</ele><time>2026-03-22T11:18:32Z</time></trkpt><trkpt lat="43.272265884870535" lon="10.689529952430432"><ele>164.0</ele><time>2026-03-22T11:18:33Z</time></trkpt><trkpt lat="43.272225677057044" lon="10.689458862339535"><ele>164.0</ele><time>2026-03-22T11:18:34Z</time></trkpt><trkpt lat="43.27212780343257" lon="10.689374573304715"><ele>164.0</ele><time>2026-03-22T11:18:36Z</time></trkpt><trkpt lat="43.27205054380181" lon="10.689286697040224"><ele>169.0</ele><time>2026-03-22T11:18:38Z</time></trkpt><trkpt lat="43.27199222769579" lon="10.689173154608284"><ele>174.0</ele><time>2026-03-22T11:18:40Z</time></trkpt><trkpt lat="43.27186264798573" lon="10.689043544462045"><ele>179.0</ele><time>2026-03-22T11:18:42Z</time></trkpt><trkpt lat="43.27177910741146" lon="10.688979904778249"><ele>184.0</ele><time>2026-03-22T11:18:43Z</time></trkpt><trkpt lat="43.27169628565248" lon="10.688914314025645"><ele>184.0</ele><time>2026-03-22T11:18:44Z</time></trkpt><trkpt lat="43.2716171946822" lon="10.688871570709601"><ele>184.0</ele><time>2026-03-22T11:18:45Z</time></trkpt><trkpt lat="43.27151885417558" lon="10.68886173737372"><ele>184.0</ele><time>2026-03-22T11:18:46Z</time></trkpt><trkpt lat="43.27142975545534" lon="10.688819461049523"><ele>184.0</ele><time>2026-03-22T11:18:47Z</time></trkpt><trkpt lat="43.271366381341494" lon="10.688770791872606"><ele>184.0</ele><time>2026-03-22T11:18:48Z</time></trkpt><trkpt lat="43.271303433104094" lon="10.688732821476393"><ele>184.0</ele><time>2026-03-22T11:18:49Z</time></trkpt><trkpt lat="43.271235192195704" lon="10.688730755070099"><ele>189.39999999999998</ele><time>2026-03-22T11:18:50Z</time></trkpt><trkpt lat="43.27116852516759" lon="10.688747099667411"><ele>194.8</ele><time>2026-03-22T11:18:51Z</time></trkpt><trkpt lat="43.27106771440428" lon="10.688767744335973"><ele>200.2</ele><time>2026-03-22T11:18:52Z</time></trkpt><trkpt lat="43.2709724830303" lon="10.68878249823962"><ele>205.60000000000002</ele><time>2026-03-22T11:18:53Z</time></trkpt><trkpt lat="43.270888876986376" lon="10.688786150123525"><ele>211.0</ele><time>2026-03-22T11:18:54Z</time></trkpt><trkpt lat="43.27075246803004" lon="10.688778494697752"><ele>210.99999999999997</ele><time>2026-03-22T11:18:56Z</time></trkpt><trkpt lat="43.27067307577653" lon="10.688798510304673"><ele>211.0</ele><time>2026-03-22T11:18:57Z</time></trkpt><trkpt lat="43.270604001030364" lon="10.688755550143444"><ele>211.0</ele><time>2026-03-22T11:18:58Z</time></trkpt><trkpt lat="43.27051949691959" lon="10.688784449190171"><ele>211.0</ele><time>2026-03-22T11:19:00Z</time></trkpt><trkpt lat="43.2704721054075" lon="10.688842385451107"><ele>210.99999999999997</ele><time>2026-03-22T11:19:01Z</time></trkpt><trkpt lat="43.27039357730583" lon="10.688848166106249"><ele>211.0</ele><time>2026-03-22T11:19:03Z</time></trkpt><trkpt lat="43.27034604393342" lon="10.688747044016"><ele>209.83333333333331</ele><time>2026-03-22T11:19:05Z</time></trkpt><trkpt lat="43.27036192616618" lon="10.688647794701083"><ele>208.66666666666666</ele><time>2026-03-22T11:19:08Z</time></trkpt><trkpt lat="43.27037472432159" lon="10.688495508808014"><ele>207.5</ele><time>2026-03-22T11:19:10Z</time></trkpt><trkpt lat="43.27036595536001" lon="10.688390026647047"><ele>206.33333333333331</ele><time>2026-03-22T11:19:11Z</time></trkpt><trkpt lat="43.27033608636318" lon="10.688285124450713"><ele>205.16666666666666</ele><time>2026-03-22T11:19:12Z</time></trkpt><trkpt lat="43.270295937396014" lon="10.68820949246936"><ele>204.0</ele><time>2026-03-22T11:19:13Z</time></trkpt><trkpt lat="43.27020804743686" lon="10.688126055406482"><ele>204.0</ele><time>2026-03-22T11:19:15Z</time></trkpt><trkpt lat="43.27013321511725" lon="10.688048285558551"><ele>204.0</ele><time>2026-03-22T11:19:16Z</time></trkpt><trkpt lat="43.27006631866484" lon="10.687988862867742"><ele>204.0</ele><time>2026-03-22T11:19:17Z</time></trkpt><trkpt lat="43.27001970339468" lon="10.68787109074794"><ele>204.0</ele><time>2026-03-22T11:19:19Z</time></trkpt><trkpt lat="43.27002617436529" lon="10.687683505425863"><ele>204.0</ele><time>2026-03-22T11:19:21Z</time></trkpt><trkpt lat="43.270009956922074" lon="10.687576879453005"><ele>204.79999999999998</ele><time>2026-03-22T11:19:22Z</time></trkpt><trkpt lat="43.26991587222644" lon="10.687477562882016"><ele>205.6</ele><time>2026-03-22T11:19:24Z</time></trkpt><trkpt lat="43.26984255369643" lon="10.687381258009223"><ele>206.4</ele><time>2026-03-22T11:19:26Z</time></trkpt><trkpt lat="43.269802915427206" lon="10.687275316946915"><ele>207.2</ele><time>2026-03-22T11:19:27Z</time></trkpt><trkpt lat="43.26975262414329" lon="10.687190917590133"><ele>208.0</ele><time>2026-03-22T11:19:28Z</time></trkpt><trkpt lat="43.26968639923951" lon="10.68716095241298"><ele>210.8</ele><time>2026-03-22T11:19:29Z</time></trkpt><trkpt lat="43.26960444909495" lon="10.687164127548726"><ele>213.60000000000002</ele><time>2026-03-22T11:19:30Z</time></trkpt><trkpt lat="43.269519326233514" lon="10.687181113411631"><ele>216.39999999999998</ele><time>2026-03-22T11:19:31Z</time></trkpt><trkpt lat="43.26942312641546" lon="10.687177950531478"><ele>219.2</ele><time>2026-03-22T11:19:32Z</time></trkpt><trkpt lat="43.269305023475184" lon="10.687178164558443"><ele>222.0</ele><time>2026-03-22T11:19:33Z</time></trkpt><trkpt lat="43.26918689300397" lon="10.687213022575316"><ele>222.0</ele><time>2026-03-22T11:19:34Z</time></trkpt><trkpt lat="43.269085473322384" lon="10.687226753579642"><ele>222.0</ele><time>2026-03-22T11:19:35Z</time></trkpt><trkpt lat="43.26901365205686" lon="10.687225838391276"><ele>222.0</ele><time>2026-03-22T11:19:36Z</time></trkpt><trkpt lat="43.2689218798085" lon="10.687213585471723"><ele>222.0</ele><time>2026-03-22T11:19:37Z</time></trkpt><trkpt lat="43.26882335529821" lon="10.687218821241906"><ele>222.0</ele><time>2026-03-22T11:19:38Z</time></trkpt><trkpt lat="43.268713863363296" lon="10.687201441134148"><ele>223.33333333333334</ele><time>2026-03-22T11:19:39Z</time></trkpt><trkpt lat="43.26862693287788" lon="10.687198130208317"><ele>224.66666666666669</ele><time>2026-03-22T11:19:40Z</time></trkpt><trkpt lat="43.26855778349002" lon="10.687198618980943"><ele>226.0</ele><time>2026-03-22T11:19:41Z</time></trkpt><trkpt lat="43.268478388203675" lon="10.687208582205184"><ele>227.33333333333334</ele><time>2026-03-22T11:19:42Z</time></trkpt><trkpt lat="43.2684050796123" lon="10.68720979391958"><ele>228.66666666666669</ele><time>2026-03-22T11:19:43Z</time></trkpt><trkpt lat="43.268335829846215" lon="10.687178142389229"><ele>230.0</ele><time>2026-03-22T11:19:45Z</time></trkpt><trkpt lat="43.26826988597664" lon="10.687056332227844"><ele>229.75</ele><time>2026-03-22T11:19:47Z</time></trkpt><trkpt lat="43.2682079612619" lon="10.686895502710868"><ele>229.5</ele><time>2026-03-22T11:19:48Z</time></trkpt><trkpt lat="43.26815430625642" lon="10.686706614769674"><ele>229.25</ele><time>2026-03-22T11:19:49Z</time></trkpt><trkpt lat="43.268111345546984" lon="10.68651313109708"><ele>229.0</ele><time>2026-03-22T11:19:50Z</time></trkpt><trkpt lat="43.26802620881823" lon="10.686301958319106"><ele>236.66666666666666</ele><time>2026-03-22T11:19:51Z</time></trkpt><trkpt lat="43.267939351979834" lon="10.686098764158617"><ele>244.33333333333331</ele><time>2026-03-22T11:19:52Z</time></trkpt><trkpt lat="43.26781936700296" lon="10.68592073956115"><ele>252.0</ele><time>2026-03-22T11:19:53Z</time></trkpt><trkpt lat="43.26775651013851" lon="10.685677878551873"><ele>252.0</ele><time>2026-03-22T11:19:54Z</time></trkpt><trkpt lat="43.26769043167688" lon="10.685422206397629"><ele>252.0</ele><time>2026-03-22T11:19:55Z</time></trkpt><trkpt lat="43.267673609343916" lon="10.68515766595942"><ele>252.0</ele><time>2026-03-22T11:19:56Z</time></trkpt><trkpt lat="43.267665209068085" lon="10.684939140097246"><ele>251.6</ele><time>2026-03-22T11:19:57Z</time></trkpt><trkpt lat="43.26765673287683" lon="10.684749162979912"><ele>251.2</ele><time>2026-03-22T11:19:58Z</time></trkpt><trkpt lat="43.267628696608384" lon="10.684616684897493"><ele>250.8</ele><time>2026-03-22T11:19:59Z</time></trkpt><trkpt lat="43.26760416224712" lon="10.684521904823185"><ele>250.4</ele><time>2026-03-22T11:20:00Z</time></trkpt><trkpt lat="43.267534243579554" lon="10.68442689262113"><ele>250.0</ele><time>2026-03-22T11:20:02Z</time></trkpt><trkpt lat="43.26739202012322" lon="10.684472258017509"><ele>250.0</ele><time>2026-03-22T11:20:04Z</time></trkpt><trkpt lat="43.267369632631194" lon="10.684684529678657"><ele>250.0</ele><time>2026-03-22T11:20:05Z</time></trkpt><trkpt lat="43.26735242680003" lon="10.684892629389578"><ele>250.0</ele><time>2026-03-22T11:20:06Z</time></trkpt><trkpt lat="43.26733222638863" lon="10.685080315135071"><ele>250.0</ele><time>2026-03-22T11:20:07Z</time></trkpt><trkpt lat="43.267299010249424" lon="10.685266565899582"><ele>250.66666666666666</ele><time>2026-03-22T11:20:08Z</time></trkpt><trkpt lat="43.26728304225357" lon="10.685488467476498"><ele>251.33333333333331</ele><time>2026-03-22T11:20:09Z</time></trkpt><trkpt lat="43.26728901458508" lon="10.68569535348722"><ele>252.0</ele><time>2026-03-22T11:20:10Z</time></trkpt><trkpt lat="43.26731452567484" lon="10.685900393614576"><ele>252.0</ele><time>2026-03-22T11:20:11Z</time></trkpt><trkpt lat="43.26736063745681" lon="10.686082365445673"><ele>252.0</ele><time>2026-03-22T11:20:12Z</time></trkpt><trkpt lat="43.26741241506034" lon="10.686201106675819"><ele>252.0</ele><time>2026-03-22T11:20:13Z</time></trkpt><trkpt lat="43.26742795377685" lon="10.686286710216661"><ele>252.0</ele><time>2026-03-22T11:20:15Z</time></trkpt><trkpt lat="43.267399044249366" lon="10.686201103347473"><ele>252.0</ele><time>2026-03-22T11:20:25Z</time></trkpt><trkpt lat="43.26734606201019" lon="10.686030603507355"><ele>252.0</ele><time>2026-03-22T11:20:27Z</time></trkpt><trkpt lat="43.26732021734174" lon="10.685938821267928"><ele>252.0</ele><time>2026-03-22T11:20:28Z</time></trkpt><trkpt lat="43.2672998697249" lon="10.685835368180287"><ele>252.0</ele><time>2026-03-22T11:20:29Z</time></trkpt><trkpt lat="43.267287591536274" lon="10.685727276609825"><ele>252.0</ele><time>2026-03-22T11:20:30Z</time></trkpt><trkpt lat="43.26728240373689" lon="10.685624605793574"><ele>252.0</ele><time>2026-03-22T11:20:31Z</time></trkpt><trkpt lat="43.2672750806436" lon="10.685531080000743"><ele>252.0</ele><time>2026-03-22T11:20:32Z</time></trkpt><trkpt lat="43.26727841200284" lon="10.685432733509572"><ele>252.0</ele><time>2026-03-22T11:20:33Z</time></trkpt><trkpt lat="43.26728165431441" lon="10.68534363645077"><ele>251.5</ele><time>2026-03-22T11:20:34Z</time></trkpt><trkpt lat="43.26729203671723" lon="10.685254652388451"><ele>251.0</ele><time>2026-03-22T11:20:35Z</time></trkpt><trkpt lat="43.26723871803189" lon="10.684912607292642"><ele>250.5</ele><time>2026-03-22T11:20:38Z</time></trkpt><trkpt lat="43.26725153698667" lon="10.684804204737771"><ele>250.0</ele><time>2026-03-22T11:20:39Z</time></trkpt><trkpt lat="43.267263296850935" lon="10.684686515380358"><ele>250.0</ele><time>2026-03-22T11:20:40Z</time></trkpt><trkpt lat="43.26727773554231" lon="10.684533488017058"><ele>250.0</ele><time>2026-03-22T11:20:42Z</time></trkpt><trkpt lat="43.26728598194408" lon="10.684446089231894"><ele>250.0</ele><time>2026-03-22T11:20:44Z</time></trkpt><trkpt lat="43.26729611459391" lon="10.68433594557879"><ele>250.0</ele><time>2026-03-22T11:20:49Z</time></trkpt><trkpt lat="43.26730444253496" lon="10.684240882972045"><ele>250.0</ele><time>2026-03-22T11:20:52Z</time></trkpt><trkpt lat="43.26731787614367" lon="10.684061795098494"><ele>250.0</ele><time>2026-03-22T11:20:54Z</time></trkpt><trkpt lat="43.267324637240534" lon="10.683971660143737"><ele>250.0</ele><time>2026-03-22T11:20:55Z</time></trkpt><trkpt lat="43.2673314785823" lon="10.683880454871831"><ele>250.0</ele><time>2026-03-22T11:20:56Z</time></trkpt><trkpt lat="43.26734399088186" lon="10.68371364725962"><ele>250.0</ele><time>2026-03-22T11:20:58Z</time></trkpt><trkpt lat="43.2673507205868" lon="10.683623930269633"><ele>250.0</ele><time>2026-03-22T11:20:59Z</time></trkpt><trkpt lat="43.26752917627563" lon="10.683564240150744"><ele>249.6</ele><time>2026-03-22T11:21:00Z</time></trkpt><trkpt lat="43.26754826603893" lon="10.683426537077187"><ele>249.2</ele><time>2026-03-22T11:21:02Z</time></trkpt><trkpt lat="43.26750980716387" lon="10.683286539409215"><ele>248.8</ele><time>2026-03-22T11:21:04Z</time></trkpt><trkpt lat="43.267473670249586" lon="10.683189269631752"><ele>248.4</ele><time>2026-03-22T11:21:06Z</time></trkpt><trkpt lat="43.26738927746753" lon="10.683108730511723"><ele>248.0</ele><time>2026-03-22T11:21:08Z</time></trkpt><trkpt lat="43.26733818206244" lon="10.683052593719488"><ele>248.0</ele><time>2026-03-22T11:21:09Z</time></trkpt><trkpt lat="43.267287998532055" lon="10.68299086858676"><ele>248.00000000000003</ele><time>2026-03-22T11:21:10Z</time></trkpt><trkpt lat="43.26724379381281" lon="10.682912549134455"><ele>248.0</ele><time>2026-03-22T11:21:11Z</time></trkpt><trkpt lat="43.267190388212526" lon="10.682854979527185"><ele>248.0</ele><time>2026-03-22T11:21:12Z</time></trkpt><trkpt lat="43.26713157068736" lon="10.682790373580277"><ele>248.00000000000003</ele><time>2026-03-22T11:21:13Z</time></trkpt><trkpt lat="43.26708111365395" lon="10.68271353973721"><ele>248.0</ele><time>2026-03-22T11:21:14Z</time></trkpt><trkpt lat="43.26702659943348" lon="10.682663138716146"><ele>248.0</ele><time>2026-03-22T11:21:15Z</time></trkpt><trkpt lat="43.26695688824352" lon="10.682604538193157"><ele>248.00000000000003</ele><time>2026-03-22T11:21:16Z</time></trkpt><trkpt lat="43.266900592976015" lon="10.682564101052046"><ele>248.0</ele><time>2026-03-22T11:21:17Z</time></trkpt><trkpt lat="43.266839401074044" lon="10.682533352139759"><ele>248.0</ele><time>2026-03-22T11:21:18Z</time></trkpt><trkpt lat="43.266760686364925" lon="10.682511838127402"><ele>248.0</ele><time>2026-03-22T11:21:19Z</time></trkpt><trkpt lat="43.266676874307436" lon="10.682506370558377"><ele>248.00000000000003</ele><time>2026-03-22T11:21:20Z</time></trkpt><trkpt lat="43.26658995864474" lon="10.68249365449466"><ele>248.0</ele><time>2026-03-22T11:21:21Z</time></trkpt><trkpt lat="43.266500114845" lon="10.682500144149147"><ele>251.0</ele><time>2026-03-22T11:21:22Z</time></trkpt><trkpt lat="43.26642598493771" lon="10.682513413350451"><ele>254.0</ele><time>2026-03-22T11:21:23Z</time></trkpt><trkpt lat="43.26636469718749" lon="10.682475792894879"><ele>257.0</ele><time>2026-03-22T11:21:24Z</time></trkpt><trkpt lat="43.26628059576378" lon="10.68234632008749"><ele>260.0</ele><time>2026-03-22T11:21:26Z</time></trkpt><trkpt lat="43.26620895994613" lon="10.68224066239339"><ele>263.0</ele><time>2026-03-22T11:21:28Z</time></trkpt><trkpt lat="43.26616205790741" lon="10.682135577326031"><ele>263.0</ele><time>2026-03-22T11:21:30Z</time></trkpt><trkpt lat="43.266090032396264" lon="10.681994452139264"><ele>263.0</ele><time>2026-03-22T11:21:32Z</time></trkpt><trkpt lat="43.266041615716006" lon="10.681901253282325"><ele>263.0</ele><time>2026-03-22T11:21:33Z</time></trkpt><trkpt lat="43.26598467436459" lon="10.681813951859693"><ele>263.0</ele><time>2026-03-22T11:21:34Z</time></trkpt><trkpt lat="43.26592577926844" lon="10.68171851931086"><ele>263.0</ele><time>2026-03-22T11:21:35Z</time></trkpt><trkpt lat="43.26586450822859" lon="10.681607968579959"><ele>261.0</ele><time>2026-03-22T11:21:36Z</time></trkpt><trkpt lat="43.26581538946878" lon="10.681498559337856"><ele>259.0</ele><time>2026-03-22T11:21:37Z</time></trkpt><trkpt lat="43.26576732915824" lon="10.681425601935318"><ele>257.0</ele><time>2026-03-22T11:21:38Z</time></trkpt><trkpt lat="43.2657133684175" lon="10.681357482446716"><ele>255.0</ele><time>2026-03-22T11:21:39Z</time></trkpt><trkpt lat="43.26565001492792" lon="10.681284096245497"><ele>253.00000000000003</ele><time>2026-03-22T11:21:40Z</time></trkpt><trkpt lat="43.26554706306973" lon="10.681191304250962"><ele>251.0</ele><time>2026-03-22T11:21:42Z</time></trkpt><trkpt lat="43.265484270117824" lon="10.68115726134267"><ele>249.66666666666669</ele><time>2026-03-22T11:21:43Z</time></trkpt><trkpt lat="43.26542287194081" lon="10.681092633829028"><ele>248.33333333333334</ele><time>2026-03-22T11:21:44Z</time></trkpt><trkpt lat="43.26539904384447" lon="10.680981431523904"><ele>247.0</ele><time>2026-03-22T11:21:45Z</time></trkpt><trkpt lat="43.265482156079834" lon="10.68085914792055"><ele>245.66666666666669</ele><time>2026-03-22T11:21:46Z</time></trkpt><trkpt lat="43.26554340066501" lon="10.680797227187966"><ele>244.33333333333334</ele><time>2026-03-22T11:21:47Z</time></trkpt><trkpt lat="43.26559137250972" lon="10.680740333896882"><ele>243.0</ele><time>2026-03-22T11:21:48Z</time></trkpt><trkpt lat="43.265652777562714" lon="10.680625596299274"><ele>243.0</ele><time>2026-03-22T11:21:50Z</time></trkpt><trkpt lat="43.26572042679275" lon="10.680549798667736"><ele>243.0</ele><time>2026-03-22T11:21:52Z</time></trkpt><trkpt lat="43.265794705635315" lon="10.680467868382827"><ele>243.0</ele><time>2026-03-22T11:21:54Z</time></trkpt><trkpt lat="43.26585896665531" lon="10.680387860125625"><ele>243.0</ele><time>2026-03-22T11:21:57Z</time></trkpt><trkpt lat="43.26591369819022" lon="10.680320055612514"><ele>243.0</ele><time>2026-03-22T11:21:59Z</time></trkpt><trkpt lat="43.26596787571521" lon="10.680241152639402"><ele>243.0</ele><time>2026-03-22T11:22:02Z</time></trkpt><trkpt lat="43.26601530761186" lon="10.68017458819641"><ele>243.0</ele><time>2026-03-22T11:22:06Z</time></trkpt><trkpt lat="43.265934327669136" lon="10.680260122265228"><ele>243.0</ele><time>2026-03-22T11:22:13Z</time></trkpt><trkpt lat="43.26588145600865" lon="10.680343610471192"><ele>243.0</ele><time>2026-03-22T11:22:14Z</time></trkpt><trkpt lat="43.26582300269545" lon="10.680411632162967"><ele>243.0</ele><time>2026-03-22T11:22:15Z</time></trkpt><trkpt lat="43.26576560941141" lon="10.680481192569985"><ele>243.0</ele><time>2026-03-22T11:22:16Z</time></trkpt><trkpt lat="43.26570377298293" lon="10.68055499221534"><ele>243.0</ele><time>2026-03-22T11:22:17Z</time></trkpt><trkpt lat="43.26564310258952" lon="10.680622097014675"><ele>243.0</ele><time>2026-03-22T11:22:18Z</time></trkpt><trkpt lat="43.265593103489124" lon="10.68072119758414"><ele>243.0</ele><time>2026-03-22T11:22:20Z</time></trkpt><trkpt lat="43.26563865146976" lon="10.68061271281683"><ele>243.0</ele><time>2026-03-22T11:22:33Z</time></trkpt><trkpt lat="43.26570666948673" lon="10.680519319975408"><ele>243.0</ele><time>2026-03-22T11:22:35Z</time></trkpt><trkpt lat="43.26575708987601" lon="10.680457669562676"><ele>243.0</ele><time>2026-03-22T11:22:37Z</time></trkpt><trkpt lat="43.26582657942037" lon="10.68037047816175"><ele>243.0</ele><time>2026-03-22T11:22:39Z</time></trkpt><trkpt lat="43.26587461469082" lon="10.680310205953482"><ele>244.33333333333331</ele><time>2026-03-22T11:22:40Z</time></trkpt><trkpt lat="43.26595383591735" lon="10.680217520262465"><ele>245.66666666666666</ele><time>2026-03-22T11:22:42Z</time></trkpt><trkpt lat="43.26598648897631" lon="10.680139949992965"><ele>247.0</ele><time>2026-03-22T11:22:44Z</time></trkpt><trkpt lat="43.26571359404171" lon="10.679710070379606"><ele>247.0</ele><time>2026-03-22T11:22:45Z</time></trkpt><trkpt lat="43.26569550257102" lon="10.67959839063078"><ele>247.0</ele><time>2026-03-22T11:22:53Z</time></trkpt><trkpt lat="43.26569052932645" lon="10.679474003939552"><ele>247.0</ele><time>2026-03-22T11:22:56Z</time></trkpt><trkpt lat="43.26571153168457" lon="10.679372462089994"><ele>247.0</ele><time>2026-03-22T11:22:59Z</time></trkpt><trkpt lat="43.26571309098965" lon="10.67926828367764"><ele>247.0</ele><time>2026-03-22T11:23:01Z</time></trkpt><trkpt lat="43.26573186373673" lon="10.679095975819127"><ele>248.33333333333331</ele><time>2026-03-22T11:23:03Z</time></trkpt><trkpt lat="43.26577228562747" lon="10.67897989417704"><ele>249.66666666666666</ele><time>2026-03-22T11:23:06Z</time></trkpt><trkpt lat="43.265802933048285" lon="10.678900403310639"><ele>251.0</ele><time>2026-03-22T11:23:07Z</time></trkpt><trkpt lat="43.26583743493104" lon="10.678815883151572"><ele>252.33333333333331</ele><time>2026-03-22T11:23:08Z</time></trkpt><trkpt lat="43.26586000312163" lon="10.678734598987333"><ele>253.66666666666666</ele><time>2026-03-22T11:23:09Z</time></trkpt><trkpt lat="43.26591339734752" lon="10.67861069100516"><ele>255.0</ele><time>2026-03-22T11:23:11Z</time></trkpt><trkpt lat="43.26595330831013" lon="10.678538522013605"><ele>256.1666666666667</ele><time>2026-03-22T11:23:12Z</time></trkpt><trkpt lat="43.26600288397596" lon="10.678468204499099"><ele>257.3333333333333</ele><time>2026-03-22T11:23:13Z</time></trkpt><trkpt lat="43.26604532471497" lon="10.678355232410414"><ele>258.5</ele><time>2026-03-22T11:23:15Z</time></trkpt><trkpt lat="43.26606472588115" lon="10.67824392323535"><ele>259.66666666666663</ele><time>2026-03-22T11:23:17Z</time></trkpt><trkpt lat="43.26607438046452" lon="10.678121910119843"><ele>260.8333333333333</ele><time>2026-03-22T11:23:19Z</time></trkpt><trkpt lat="43.26611535863536" lon="10.678033901950295"><ele>262.0</ele><time>2026-03-22T11:23:21Z</time></trkpt><trkpt lat="43.26617112619439" lon="10.67794287096408"><ele>262.0</ele><time>2026-03-22T11:23:23Z</time></trkpt><trkpt lat="43.26623889356661" lon="10.677821808110794"><ele>262.0</ele><time>2026-03-22T11:23:25Z</time></trkpt><trkpt lat="43.26627613284293" lon="10.677664191459268"><ele>262.0</ele><time>2026-03-22T11:23:27Z</time></trkpt><trkpt lat="43.266309566008694" lon="10.67757938648455"><ele>262.0</ele><time>2026-03-22T11:23:28Z</time></trkpt><trkpt lat="43.266338426729135" lon="10.677498083342291"><ele>262.0</ele><time>2026-03-22T11:23:29Z</time></trkpt><trkpt lat="43.26636248449906" lon="10.677405694684463"><ele>262.0</ele><time>2026-03-22T11:23:30Z</time></trkpt><trkpt lat="43.266405858130014" lon="10.677281677598398"><ele>260.2</ele><time>2026-03-22T11:23:32Z</time></trkpt><trkpt lat="43.26648772381985" lon="10.677178395134858"><ele>258.4</ele><time>2026-03-22T11:23:34Z</time></trkpt><trkpt lat="43.26658626094773" lon="10.67705163485353"><ele>256.6</ele><time>2026-03-22T11:23:36Z</time></trkpt><trkpt lat="43.266590609725" lon="10.676952570247659"><ele>254.8</ele><time>2026-03-22T11:23:38Z</time></trkpt><trkpt lat="43.26661217968383" lon="10.676845121229277"><ele>253.0</ele><time>2026-03-22T11:23:41Z</time></trkpt><trkpt lat="43.26664300335297" lon="10.676762561384027"><ele>252.99999999999997</ele><time>2026-03-22T11:23:47Z</time></trkpt><trkpt lat="43.26667955577277" lon="10.676682463801516"><ele>253.0</ele><time>2026-03-22T11:23:48Z</time></trkpt><trkpt lat="43.26671569559295" lon="10.67655664391515"><ele>253.0</ele><time>2026-03-22T11:23:50Z</time></trkpt><trkpt lat="43.26675070955194" lon="10.67648118309009"><ele>253.0</ele><time>2026-03-22T11:23:51Z</time></trkpt><trkpt lat="43.26679353914485" lon="10.676335987676717"><ele>252.99999999999997</ele><time>2026-03-22T11:23:53Z</time></trkpt><trkpt lat="43.26684009470727" lon="10.67621808661003"><ele>253.0</ele><time>2026-03-22T11:23:55Z</time></trkpt><trkpt lat="43.266861694288416" lon="10.676090793548864"><ele>251.49999999999997</ele><time>2026-03-22T11:23:57Z</time></trkpt><trkpt lat="43.266893219218225" lon="10.676013105275494"><ele>250.0</ele><time>2026-03-22T11:23:59Z</time></trkpt><trkpt lat="43.2668992061861" lon="10.675919971518747"><ele>248.5</ele><time>2026-03-22T11:24:03Z</time></trkpt><trkpt lat="43.26688988435539" lon="10.675831267450805"><ele>247.0</ele><time>2026-03-22T11:24:07Z</time></trkpt><trkpt lat="43.266841232819104" lon="10.675731343150035"><ele>245.49999999999997</ele><time>2026-03-22T11:24:11Z</time></trkpt><trkpt lat="43.26676969590464" lon="10.675638001953038"><ele>244.0</ele><time>2026-03-22T11:24:16Z</time></trkpt><trkpt lat="43.26669084582695" lon="10.675577963841508"><ele>243.99999999999997</ele><time>2026-03-22T11:24:19Z</time></trkpt><trkpt lat="43.26663246330688" lon="10.675544180402401"><ele>244.0</ele><time>2026-03-22T11:24:21Z</time></trkpt><trkpt lat="43.26657838717903" lon="10.675481178336684"><ele>244.0</ele><time>2026-03-22T11:24:24Z</time></trkpt><trkpt lat="43.26651448776161" lon="10.675440079664003"><ele>244.0</ele><time>2026-03-22T11:24:26Z</time></trkpt><trkpt lat="43.26641238265498" lon="10.675336058048368"><ele>243.99999999999997</ele><time>2026-03-22T11:24:29Z</time></trkpt><trkpt lat="43.26631056058538" lon="10.675296550614325"><ele>244.0</ele><time>2026-03-22T11:24:31Z</time></trkpt><trkpt lat="43.2662331635932" lon="10.675221952126158"><ele>241.66666666666666</ele><time>2026-03-22T11:24:32Z</time></trkpt><trkpt lat="43.26616901244513" lon="10.675197442455064"><ele>239.33333333333331</ele><time>2026-03-22T11:24:33Z</time></trkpt><trkpt lat="43.26608619526015" lon="10.675139034663166"><ele>237.0</ele><time>2026-03-22T11:24:35Z</time></trkpt><trkpt lat="43.26600729404769" lon="10.675101246212494"><ele>234.66666666666669</ele><time>2026-03-22T11:24:37Z</time></trkpt><trkpt lat="43.265906494019895" lon="10.675057431169346"><ele>232.33333333333334</ele><time>2026-03-22T11:24:39Z</time></trkpt><trkpt lat="43.26584381391852" lon="10.675033613590072"><ele>230.0</ele><time>2026-03-22T11:24:40Z</time></trkpt><trkpt lat="43.26574037324511" lon="10.674971933963793"><ele>230.00000000000003</ele><time>2026-03-22T11:24:42Z</time></trkpt><trkpt lat="43.26566592192006" lon="10.674950143865189"><ele>230.0</ele><time>2026-03-22T11:24:43Z</time></trkpt><trkpt lat="43.26558212134319" lon="10.674897572628943"><ele>230.0</ele><time>2026-03-22T11:24:45Z</time></trkpt><trkpt lat="43.26551127660319" lon="10.674868808546739"><ele>230.0</ele><time>2026-03-22T11:24:47Z</time></trkpt><trkpt lat="43.26542126858018" lon="10.674843304681863"><ele>230.00000000000003</ele><time>2026-03-22T11:24:49Z</time></trkpt><trkpt lat="43.26536658437497" lon="10.674768965109676"><ele>230.0</ele><time>2026-03-22T11:24:52Z</time></trkpt><trkpt lat="43.26540949202761" lon="10.674686749679319"><ele>230.0</ele><time>2026-03-22T11:24:56Z</time></trkpt><trkpt lat="43.26550509096615" lon="10.674652252449244"><ele>230.0</ele><time>2026-03-22T11:24:58Z</time></trkpt><trkpt lat="43.265593488857355" lon="10.674686261547269"><ele>230.0</ele><time>2026-03-22T11:25:00Z</time></trkpt><trkpt lat="43.2657007811793" lon="10.674697055195793"><ele>230.0</ele><time>2026-03-22T11:25:02Z</time></trkpt><trkpt lat="43.26577818559681" lon="10.674641838204115"><ele>230.0</ele><time>2026-03-22T11:25:04Z</time></trkpt><trkpt lat="43.26588486447378" lon="10.674612376210485"><ele>230.0</ele><time>2026-03-22T11:25:06Z</time></trkpt><trkpt lat="43.265968778317074" lon="10.67457592557247"><ele>230.0</ele><time>2026-03-22T11:25:08Z</time></trkpt><trkpt lat="43.26607612210147" lon="10.674551050119158"><ele>230.0</ele><time>2026-03-22T11:25:10Z</time></trkpt><trkpt lat="43.266161789563995" lon="10.6745531676535"><ele>230.0</ele><time>2026-03-22T11:25:12Z</time></trkpt><trkpt lat="43.266260759548736" lon="10.674549073012011"><ele>230.0</ele><time>2026-03-22T11:25:14Z</time></trkpt><trkpt lat="43.26636099412539" lon="10.674564635011844"><ele>227.8</ele><time>2026-03-22T11:25:16Z</time></trkpt><trkpt lat="43.26648040714935" lon="10.674595702110246"><ele>225.6</ele><time>2026-03-22T11:25:18Z</time></trkpt><trkpt lat="43.266589010224294" lon="10.674630059137467"><ele>223.39999999999998</ele><time>2026-03-22T11:25:20Z</time></trkpt><trkpt lat="43.266656930510656" lon="10.674628260559498"><ele>221.2</ele><time>2026-03-22T11:25:22Z</time></trkpt><trkpt lat="43.26671800103564" lon="10.674597397797735"><ele>219.0</ele><time>2026-03-22T11:25:23Z</time></trkpt><trkpt lat="43.26680369102784" lon="10.674600968698861"><ele>219.0</ele><time>2026-03-22T11:25:25Z</time></trkpt><trkpt lat="43.266925887561825" lon="10.674597924254169"><ele>218.99999999999997</ele><time>2026-03-22T11:25:27Z</time></trkpt><trkpt lat="43.266990207492746" lon="10.674596494242472"><ele>218.99999999999997</ele><time>2026-03-22T11:25:29Z</time></trkpt><trkpt lat="43.267097149615125" lon="10.67461180718112"><ele>219.0</ele><time>2026-03-22T11:25:31Z</time></trkpt><trkpt lat="43.26717199575776" lon="10.674628758466636"><ele>219.0</ele><time>2026-03-22T11:25:33Z</time></trkpt><trkpt lat="43.267270893243044" lon="10.674630947793023"><ele>217.16666666666666</ele><time>2026-03-22T11:25:35Z</time></trkpt><trkpt lat="43.26733766934809" lon="10.674639730205152"><ele>215.33333333333331</ele><time>2026-03-22T11:25:36Z</time></trkpt><trkpt lat="43.267414133618566" lon="10.674617310391458"><ele>213.5</ele><time>2026-03-22T11:25:38Z</time></trkpt><trkpt lat="43.26751244234861" lon="10.674608026289489"><ele>211.66666666666666</ele><time>2026-03-22T11:25:40Z</time></trkpt><trkpt lat="43.26758242937145" lon="10.674587558172371"><ele>209.83333333333331</ele><time>2026-03-22T11:25:42Z</time></trkpt><trkpt lat="43.26765596106225" lon="10.674572059197862"><ele>208.0</ele><time>2026-03-22T11:25:46Z</time></trkpt><trkpt lat="43.267727769437556" lon="10.674543058976807"><ele>207.99999999999997</ele><time>2026-03-22T11:25:49Z</time></trkpt><trkpt lat="43.267819129428176" lon="10.674530383594469"><ele>208.0</ele><time>2026-03-22T11:25:52Z</time></trkpt><trkpt lat="43.26789647333321" lon="10.674488522837738"><ele>208.0</ele><time>2026-03-22T11:25:54Z</time></trkpt><trkpt lat="43.26797132182625" lon="10.674461890221135"><ele>208.0</ele><time>2026-03-22T11:25:57Z</time></trkpt><trkpt lat="43.268046344463706" lon="10.674411054477318"><ele>207.99999999999997</ele><time>2026-03-22T11:26:00Z</time></trkpt><trkpt lat="43.26812949851587" lon="10.674354880456256"><ele>208.0</ele><time>2026-03-22T11:26:03Z</time></trkpt><trkpt lat="43.26820623521107" lon="10.674339206886387"><ele>205.4</ele><time>2026-03-22T11:26:06Z</time></trkpt><trkpt lat="43.26830130892661" lon="10.674305292024656"><ele>202.8</ele><time>2026-03-22T11:26:08Z</time></trkpt><trkpt lat="43.268387233816306" lon="10.674247216860703"><ele>200.2</ele><time>2026-03-22T11:26:10Z</time></trkpt><trkpt lat="43.268454434507326" lon="10.674165419922375"><ele>197.6</ele><time>2026-03-22T11:26:13Z</time></trkpt><trkpt lat="43.26854407626597" lon="10.674134755328932"><ele>195.0</ele><time>2026-03-22T11:26:15Z</time></trkpt><trkpt lat="43.2686242334256" lon="10.674074277685058"><ele>195.0</ele><time>2026-03-22T11:26:17Z</time></trkpt><trkpt lat="43.26869727776407" lon="10.67398765150641"><ele>195.0</ele><time>2026-03-22T11:26:20Z</time></trkpt><trkpt lat="43.26875981809967" lon="10.673880019272996"><ele>195.0</ele><time>2026-03-22T11:26:22Z</time></trkpt><trkpt lat="43.26881418212989" lon="10.673813678924729"><ele>195.0</ele><time>2026-03-22T11:26:24Z</time></trkpt><trkpt lat="43.26890725372038" lon="10.673742943560004"><ele>195.0</ele><time>2026-03-22T11:26:26Z</time></trkpt><trkpt lat="43.26896188415809" lon="10.673689101912865"><ele>195.0</ele><time>2026-03-22T11:26:27Z</time></trkpt><trkpt lat="43.26904137820655" lon="10.673616860983097"><ele>191.33333333333334</ele><time>2026-03-22T11:26:29Z</time></trkpt><trkpt lat="43.26911870290676" lon="10.673574275912951"><ele>187.66666666666666</ele><time>2026-03-22T11:26:31Z</time></trkpt><trkpt lat="43.269204037876335" lon="10.673499435443931"><ele>184.0</ele><time>2026-03-22T11:26:33Z</time></trkpt><trkpt lat="43.269298539946206" lon="10.673413945855517"><ele>180.33333333333331</ele><time>2026-03-22T11:26:35Z</time></trkpt><trkpt lat="43.269369150542964" lon="10.673396907082095"><ele>176.66666666666666</ele><time>2026-03-22T11:26:37Z</time></trkpt><trkpt lat="43.26941412766868" lon="10.673333250611655"><ele>173.0</ele><time>2026-03-22T11:26:39Z</time></trkpt><trkpt lat="43.26946959465422" lon="10.673244029990114"><ele>173.0</ele><time>2026-03-22T11:26:42Z</time></trkpt><trkpt lat="43.26947892976333" lon="10.673143445019248"><ele>173.0</ele><time>2026-03-22T11:26:44Z</time></trkpt><trkpt lat="43.2694638564652" lon="10.673046523941508"><ele>173.0</ele><time>2026-03-22T11:26:49Z</time></trkpt><trkpt lat="43.26953336400901" lon="10.673053202963033"><ele>173.0</ele><time>2026-03-22T11:26:52Z</time></trkpt><trkpt lat="43.269625493635765" lon="10.673080281526007"><ele>173.0</ele><time>2026-03-22T11:26:54Z</time></trkpt><trkpt lat="43.269740441774225" lon="10.673120567874966"><ele>173.0</ele><time>2026-03-22T11:26:56Z</time></trkpt><trkpt lat="43.269837539065186" lon="10.673150477543581"><ele>172.60000000000002</ele><time>2026-03-22T11:26:58Z</time></trkpt><trkpt lat="43.26996275344829" lon="10.67319344114242"><ele>172.20000000000002</ele><time>2026-03-22T11:27:00Z</time></trkpt><trkpt lat="43.27006674442277" lon="10.673247024677195"><ele>171.8</ele><time>2026-03-22T11:27:02Z</time></trkpt><trkpt lat="43.2701515957315" lon="10.673322210820716"><ele>171.4</ele><time>2026-03-22T11:27:04Z</time></trkpt><trkpt lat="43.27021423754801" lon="10.673364188841242"><ele>171.0</ele><time>2026-03-22T11:27:06Z</time></trkpt><trkpt lat="43.27025416897638" lon="10.673452088056772"><ele>171.0</ele><time>2026-03-22T11:27:08Z</time></trkpt><trkpt lat="43.270332478463544" lon="10.673475250215441"><ele>171.0</ele><time>2026-03-22T11:27:10Z</time></trkpt><trkpt lat="43.27041038403026" lon="10.673528123779128"><ele>171.0</ele><time>2026-03-22T11:27:12Z</time></trkpt><trkpt lat="43.27047047271662" lon="10.673492636564372"><ele>171.0</ele><time>2026-03-22T11:27:14Z</time></trkpt><trkpt lat="43.270534568098505" lon="10.67341642106324"><ele>171.0</ele><time>2026-03-22T11:27:16Z</time></trkpt><trkpt lat="43.27059701961812" lon="10.673350828884278"><ele>171.0</ele><time>2026-03-22T11:27:18Z</time></trkpt><trkpt lat="43.27063774456085" lon="10.673241436000259"><ele>171.8</ele><time>2026-03-22T11:27:20Z</time></trkpt><trkpt lat="43.27068015363718" lon="10.673151362506703"><ele>172.60000000000002</ele><time>2026-03-22T11:27:22Z</time></trkpt><trkpt lat="43.270710157624926" lon="10.673059585646508"><ele>173.4</ele><time>2026-03-22T11:27:24Z</time></trkpt><trkpt lat="43.27075769138639" lon="10.672925008092287"><ele>174.2</ele><time>2026-03-22T11:27:26Z</time></trkpt><trkpt lat="43.27082597913588" lon="10.672823411129416"><ele>175.0</ele><time>2026-03-22T11:27:29Z</time></trkpt><trkpt lat="43.2708946618003" lon="10.672745110353327"><ele>178.5</ele><time>2026-03-22T11:27:31Z</time></trkpt><trkpt lat="43.270966696093716" lon="10.672731202152319"><ele>182.0</ele><time>2026-03-22T11:27:34Z</time></trkpt><trkpt lat="43.271035952306434" lon="10.672654714500325"><ele>185.5</ele><time>2026-03-22T11:27:37Z</time></trkpt><trkpt lat="43.27106077700308" lon="10.672547700454935"><ele>189.0</ele><time>2026-03-22T11:27:40Z</time></trkpt><trkpt lat="43.27105131992027" lon="10.672443863446603"><ele>192.49999999999997</ele><time>2026-03-22T11:27:42Z</time></trkpt><trkpt lat="43.271074492864386" lon="10.672357706943604"><ele>196.0</ele><time>2026-03-22T11:27:46Z</time></trkpt><trkpt lat="43.27107893258381" lon="10.67223846270626"><ele>196.0</ele><time>2026-03-22T11:27:52Z</time></trkpt><trkpt lat="43.27107173436124" lon="10.67210551254388"><ele>196.0</ele><time>2026-03-22T11:27:56Z</time></trkpt><trkpt lat="43.27103840859503" lon="10.672025004683855"><ele>196.0</ele><time>2026-03-22T11:27:58Z</time></trkpt><trkpt lat="43.27116676699751" lon="10.671811858516946"><ele>196.0</ele><time>2026-03-22T11:27:59Z</time></trkpt><trkpt lat="43.27113553456385" lon="10.671898778234862"><ele>196.0</ele><time>2026-03-22T11:28:01Z</time></trkpt><trkpt lat="43.271150751453995" lon="10.671803654143266"><ele>196.8</ele><time>2026-03-22T11:28:04Z</time></trkpt><trkpt lat="43.27115697445577" lon="10.671646970055896"><ele>197.60000000000002</ele><time>2026-03-22T11:28:06Z</time></trkpt><trkpt lat="43.271168401565475" lon="10.671526666955724"><ele>198.4</ele><time>2026-03-22T11:28:07Z</time></trkpt><trkpt lat="43.27118241026385" lon="10.671384966129379"><ele>199.2</ele><time>2026-03-22T11:28:08Z</time></trkpt><trkpt lat="43.271192058647145" lon="10.671222885873853"><ele>200.0</ele><time>2026-03-22T11:28:09Z</time></trkpt><trkpt lat="43.27119758883906" lon="10.671030934493865"><ele>202.5</ele><time>2026-03-22T11:28:10Z</time></trkpt><trkpt lat="43.27121076842692" lon="10.670816213633495"><ele>205.0</ele><time>2026-03-22T11:28:11Z</time></trkpt><trkpt lat="43.271201761910675" lon="10.670630688210426"><ele>207.5</ele><time>2026-03-22T11:28:12Z</time></trkpt><trkpt lat="43.27118837778435" lon="10.67046002413983"><ele>210.0</ele><time>2026-03-22T11:28:13Z</time></trkpt><trkpt lat="43.27116911277053" lon="10.670299584340624"><ele>212.2</ele><time>2026-03-22T11:28:14Z</time></trkpt><trkpt lat="43.27115221393829" lon="10.670147410986015"><ele>214.4</ele><time>2026-03-22T11:28:15Z</time></trkpt><trkpt lat="43.27113590814753" lon="10.669992924844374"><ele>216.60000000000002</ele><time>2026-03-22T11:28:16Z</time></trkpt><trkpt lat="43.27112442501763" lon="10.669842195235102"><ele>218.8</ele><time>2026-03-22T11:28:17Z</time></trkpt><trkpt lat="43.27112186808927" lon="10.669727065165475"><ele>221.0</ele><time>2026-03-22T11:28:18Z</time></trkpt><trkpt lat="43.271111830018704" lon="10.669629579325793"><ele>221.0</ele><time>2026-03-22T11:28:19Z</time></trkpt><trkpt lat="43.27108939080918" lon="10.669496768730658"><ele>221.00000000000003</ele><time>2026-03-22T11:28:21Z</time></trkpt><trkpt lat="43.27107732539419" lon="10.669398000354066"><ele>221.00000000000003</ele><time>2026-03-22T11:28:24Z</time></trkpt><trkpt lat="43.27102778615506" lon="10.669260923558685"><ele>221.0</ele><time>2026-03-22T11:28:27Z</time></trkpt><trkpt lat="43.270959780743745" lon="10.669082129211617"><ele>221.0</ele><time>2026-03-22T11:28:29Z</time></trkpt><trkpt lat="43.270905083017574" lon="10.668975354121208"><ele>221.8</ele><time>2026-03-22T11:28:30Z</time></trkpt><trkpt lat="43.270854441540706" lon="10.668852033764688"><ele>222.60000000000002</ele><time>2026-03-22T11:28:31Z</time></trkpt><trkpt lat="43.270817884718625" lon="10.668729391839348"><ele>223.4</ele><time>2026-03-22T11:28:32Z</time></trkpt><trkpt lat="43.27079636123179" lon="10.668629270195355"><ele>224.2</ele><time>2026-03-22T11:28:33Z</time></trkpt><trkpt lat="43.27076574788058" lon="10.668504424805956"><ele>225.0</ele><time>2026-03-22T11:28:34Z</time></trkpt><trkpt lat="43.27073379778774" lon="10.668385648015644"><ele>225.0</ele><time>2026-03-22T11:28:35Z</time></trkpt><trkpt lat="43.27069224928851" lon="10.668251690877963"><ele>225.0</ele><time>2026-03-22T11:28:36Z</time></trkpt><trkpt lat="43.27063923494251" lon="10.668107536167172"><ele>225.0</ele><time>2026-03-22T11:28:37Z</time></trkpt><trkpt lat="43.27058957373826" lon="10.66796758226822"><ele>225.0</ele><time>2026-03-22T11:28:38Z</time></trkpt><trkpt lat="43.2705876087665" lon="10.667825363017544"><ele>225.0</ele><time>2026-03-22T11:28:39Z</time></trkpt><trkpt lat="43.2705848933071" lon="10.667688518988557"><ele>224.75</ele><time>2026-03-22T11:28:40Z</time></trkpt><trkpt lat="43.27058733969284" lon="10.667537309315989"><ele>224.5</ele><time>2026-03-22T11:28:41Z</time></trkpt><trkpt lat="43.27059758689705" lon="10.667373626614802"><ele>224.25</ele><time>2026-03-22T11:28:42Z</time></trkpt><trkpt lat="43.27062851246843" lon="10.667197438367406"><ele>224.0</ele><time>2026-03-22T11:28:43Z</time></trkpt><trkpt lat="43.27066783872059" lon="10.667032027941087"><ele>224.83333333333334</ele><time>2026-03-22T11:28:44Z</time></trkpt><trkpt lat="43.27070660063357" lon="10.666920537730089"><ele>225.66666666666669</ele><time>2026-03-22T11:28:45Z</time></trkpt><trkpt lat="43.27071676536772" lon="10.66681210780774"><ele>226.5</ele><time>2026-03-22T11:28:46Z</time></trkpt><trkpt lat="43.27075039444344" lon="10.666720928070589"><ele>227.33333333333331</ele><time>2026-03-22T11:28:47Z</time></trkpt><trkpt lat="43.27074120279569" lon="10.66660789850106"><ele>228.16666666666666</ele><time>2026-03-22T11:28:48Z</time></trkpt><trkpt lat="43.27073124400584" lon="10.666485365917351"><ele>229.0</ele><time>2026-03-22T11:28:49Z</time></trkpt><trkpt lat="43.27068407256612" lon="10.66637477224859"><ele>229.0</ele><time>2026-03-22T11:28:50Z</time></trkpt><trkpt lat="43.27062648404164" lon="10.666269122779324"><ele>228.99999999999997</ele><time>2026-03-22T11:28:51Z</time></trkpt><trkpt lat="43.27057666523498" lon="10.66617438709702"><ele>228.99999999999997</ele><time>2026-03-22T11:28:52Z</time></trkpt><trkpt lat="43.27054707370315" lon="10.666070146129533"><ele>229.0</ele><time>2026-03-22T11:28:53Z</time></trkpt><trkpt lat="43.27057667700984" lon="10.665923454989034"><ele>229.0</ele><time>2026-03-22T11:28:54Z</time></trkpt><trkpt lat="43.27058653313656" lon="10.665752349600606"><ele>230.0</ele><time>2026-03-22T11:28:55Z</time></trkpt><trkpt lat="43.270596311558485" lon="10.665553151113754"><ele>231.0</ele><time>2026-03-22T11:28:56Z</time></trkpt><trkpt lat="43.270608234218294" lon="10.665352255666019"><ele>232.0</ele><time>2026-03-22T11:28:57Z</time></trkpt><trkpt lat="43.270607162894024" lon="10.665156133490582"><ele>233.0</ele><time>2026-03-22T11:28:58Z</time></trkpt><trkpt lat="43.27064835043191" lon="10.664950780403805"><ele>233.8</ele><time>2026-03-22T11:28:59Z</time></trkpt><trkpt lat="43.27069050742519" lon="10.664795121891178"><ele>234.60000000000002</ele><time>2026-03-22T11:29:00Z</time></trkpt><trkpt lat="43.270708953124384" lon="10.664657458598766"><ele>235.39999999999998</ele><time>2026-03-22T11:29:01Z</time></trkpt><trkpt lat="43.270713969625895" lon="10.664512085024663"><ele>236.2</ele><time>2026-03-22T11:29:02Z</time></trkpt><trkpt lat="43.27070513476906" lon="10.664347940055677"><ele>237.0</ele><time>2026-03-22T11:29:03Z</time></trkpt><trkpt lat="43.270708157235866" lon="10.664170740233843"><ele>237.75</ele><time>2026-03-22T11:29:04Z</time></trkpt><trkpt lat="43.270729466177265" lon="10.663992481583511"><ele>238.5</ele><time>2026-03-22T11:29:05Z</time></trkpt><trkpt lat="43.27075904270957" lon="10.663808367581446"><ele>239.25</ele><time>2026-03-22T11:29:06Z</time></trkpt><trkpt lat="43.27078555439278" lon="10.663612153080098"><ele>240.0</ele><time>2026-03-22T11:29:07Z</time></trkpt><trkpt lat="43.27078730429837" lon="10.66340950996161"><ele>242.25</ele><time>2026-03-22T11:29:08Z</time></trkpt><trkpt lat="43.27079157413567" lon="10.663211530249004"><ele>244.5</ele><time>2026-03-22T11:29:09Z</time></trkpt><trkpt lat="43.27080845279878" lon="10.663042544058177"><ele>246.75</ele><time>2026-03-22T11:29:10Z</time></trkpt><trkpt lat="43.27081052189369" lon="10.66290268370885"><ele>249.0</ele><time>2026-03-22T11:29:11Z</time></trkpt><trkpt lat="43.270815353387576" lon="10.66276530833929"><ele>250.25</ele><time>2026-03-22T11:29:12Z</time></trkpt><trkpt lat="43.27082226894123" lon="10.66261436182447"><ele>251.5</ele><time>2026-03-22T11:29:13Z</time></trkpt><trkpt lat="43.2708233835041" lon="10.662456819140399"><ele>252.75</ele><time>2026-03-22T11:29:14Z</time></trkpt><trkpt lat="43.2708134154459" lon="10.662289529524736"><ele>254.0</ele><time>2026-03-22T11:29:15Z</time></trkpt><trkpt lat="43.270801590246926" lon="10.66212578821324"><ele>254.0</ele><time>2026-03-22T11:29:16Z</time></trkpt><trkpt lat="43.270795102789755" lon="10.661964248401091"><ele>253.99999999999997</ele><time>2026-03-22T11:29:17Z</time></trkpt><trkpt lat="43.27078523305398" lon="10.661796097540412"><ele>253.99999999999997</ele><time>2026-03-22T11:29:18Z</time></trkpt><trkpt lat="43.2707639157215" lon="10.661638217414739"><ele>254.0</ele><time>2026-03-22T11:29:19Z</time></trkpt><trkpt lat="43.27076591401545" lon="10.66152801625555"><ele>254.0</ele><time>2026-03-22T11:29:20Z</time></trkpt><trkpt lat="43.27079473612969" lon="10.661444431564473"><ele>254.2</ele><time>2026-03-22T11:29:21Z</time></trkpt><trkpt lat="43.270845790052334" lon="10.661366199826933"><ele>254.39999999999998</ele><time>2026-03-22T11:29:22Z</time></trkpt><trkpt lat="43.27093338688498" lon="10.66128508615053"><ele>254.6</ele><time>2026-03-22T11:29:23Z</time></trkpt><trkpt lat="43.27102682020788" lon="10.661206991142905"><ele>254.8</ele><time>2026-03-22T11:29:24Z</time></trkpt><trkpt lat="43.27112586062188" lon="10.661094692009133"><ele>255.0</ele><time>2026-03-22T11:29:25Z</time></trkpt><trkpt lat="43.27123807317948" lon="10.660984004084625"><ele>257.0</ele><time>2026-03-22T11:29:26Z</time></trkpt><trkpt lat="43.27135034027872" lon="10.660856431418045"><ele>259.0</ele><time>2026-03-22T11:29:27Z</time></trkpt><trkpt lat="43.27148798197881" lon="10.660720534939394"><ele>261.0</ele><time>2026-03-22T11:29:28Z</time></trkpt><trkpt lat="43.271606051960454" lon="10.660609213586712"><ele>261.0</ele><time>2026-03-22T11:29:29Z</time></trkpt><trkpt lat="43.271724623230774" lon="10.66049939367067"><ele>261.0</ele><time>2026-03-22T11:29:30Z</time></trkpt><trkpt lat="43.2718257213959" lon="10.66040307293015"><ele>261.0</ele><time>2026-03-22T11:29:31Z</time></trkpt><trkpt lat="43.271916435918484" lon="10.660320554087619"><ele>261.0</ele><time>2026-03-22T11:29:32Z</time></trkpt><trkpt lat="43.27200458330544" lon="10.660284925097256"><ele>261.0</ele><time>2026-03-22T11:29:33Z</time></trkpt><trkpt lat="43.27208268071181" lon="10.660335525848806"><ele>261.0</ele><time>2026-03-22T11:29:34Z</time></trkpt><trkpt lat="43.27216488178412" lon="10.660391081828587"><ele>261.0</ele><time>2026-03-22T11:29:35Z</time></trkpt><trkpt lat="43.272250162082926" lon="10.660429039521729"><ele>261.0</ele><time>2026-03-22T11:29:36Z</time></trkpt><trkpt lat="43.272310820585176" lon="10.660396030728972"><ele>261.0</ele><time>2026-03-22T11:29:37Z</time></trkpt><trkpt lat="43.27237082077767" lon="10.660342016717806"><ele>261.0</ele><time>2026-03-22T11:29:38Z</time></trkpt><trkpt lat="43.2724267060198" lon="10.66025351672221"><ele>263.25</ele><time>2026-03-22T11:29:39Z</time></trkpt><trkpt lat="43.27246725790913" lon="10.660138246102886"><ele>265.5</ele><time>2026-03-22T11:29:40Z</time></trkpt><trkpt lat="43.27249540902447" lon="10.659988319146578"><ele>267.75</ele><time>2026-03-22T11:29:41Z</time></trkpt><trkpt lat="43.27253512963466" lon="10.659844297459758"><ele>270.0</ele><time>2026-03-22T11:29:42Z</time></trkpt><trkpt lat="43.27255292245838" lon="10.65966430263218"><ele>270.0</ele><time>2026-03-22T11:29:43Z</time></trkpt><trkpt lat="43.27257206561127" lon="10.65945867402936"><ele>270.0</ele><time>2026-03-22T11:29:44Z</time></trkpt><trkpt lat="43.27257797059542" lon="10.659280251068546"><ele>270.0</ele><time>2026-03-22T11:29:45Z</time></trkpt><trkpt lat="43.27258272673221" lon="10.659133257904907"><ele>270.0</ele><time>2026-03-22T11:29:46Z</time></trkpt><trkpt lat="43.272589151205565" lon="10.65902567484533"><ele>271.8333333333333</ele><time>2026-03-22T11:29:47Z</time></trkpt><trkpt lat="43.27259329329681" lon="10.658929254726134"><ele>273.6666666666667</ele><time>2026-03-22T11:29:48Z</time></trkpt><trkpt lat="43.27257685018847" lon="10.658841711835198"><ele>275.5</ele><time>2026-03-22T11:29:49Z</time></trkpt><trkpt lat="43.27255210644784" lon="10.658755832910552"><ele>277.33333333333337</ele><time>2026-03-22T11:29:50Z</time></trkpt><trkpt lat="43.272518621230624" lon="10.658618279432837"><ele>279.1666666666667</ele><time>2026-03-22T11:29:52Z</time></trkpt><trkpt lat="43.27251892188978" lon="10.658517269449092"><ele>281.0</ele><time>2026-03-22T11:29:54Z</time></trkpt><trkpt lat="43.27251971407943" lon="10.658385438528942"><ele>281.8</ele><time>2026-03-22T11:29:57Z</time></trkpt><trkpt lat="43.27260633758037" lon="10.658440561385438"><ele>282.6</ele><time>2026-03-22T11:30:01Z</time></trkpt><trkpt lat="43.27269488060717" lon="10.658506714380138"><ele>283.4</ele><time>2026-03-22T11:30:03Z</time></trkpt><trkpt lat="43.272773381345125" lon="10.658525382650948"><ele>284.2</ele><time>2026-03-22T11:30:04Z</time></trkpt><trkpt lat="43.27285894157657" lon="10.658518972413088"><ele>285.0</ele><time>2026-03-22T11:30:05Z</time></trkpt><trkpt lat="43.272947880900134" lon="10.658504044416077"><ele>285.0</ele><time>2026-03-22T11:30:06Z</time></trkpt><trkpt lat="43.273040014170626" lon="10.65848443777795"><ele>285.0</ele><time>2026-03-22T11:30:07Z</time></trkpt><trkpt lat="43.27313031923417" lon="10.658449774408135"><ele>285.0</ele><time>2026-03-22T11:30:08Z</time></trkpt><trkpt lat="43.27320581416184" lon="10.658406970960383"><ele>285.0</ele><time>2026-03-22T11:30:09Z</time></trkpt><trkpt lat="43.2732859128403" lon="10.65837738863886"><ele>285.0</ele><time>2026-03-22T11:30:10Z</time></trkpt><trkpt lat="43.273401076536345" lon="10.65832219327735"><ele>283.3333333333333</ele><time>2026-03-22T11:30:12Z</time></trkpt><trkpt lat="43.27348193449178" lon="10.65829378361977"><ele>281.6666666666667</ele><time>2026-03-22T11:30:13Z</time></trkpt><trkpt lat="43.27354248546482" lon="10.658251500982066"><ele>280.0</ele><time>2026-03-22T11:30:14Z</time></trkpt><trkpt lat="43.27360474874721" lon="10.658229875658668"><ele>278.33333333333337</ele><time>2026-03-22T11:30:15Z</time></trkpt><trkpt lat="43.27371091286076" lon="10.658174980140116"><ele>276.6666666666667</ele><time>2026-03-22T11:30:17Z</time></trkpt><trkpt lat="43.27380183546071" lon="10.658145940178304"><ele>275.0</ele><time>2026-03-22T11:30:19Z</time></trkpt><trkpt lat="43.27394070614458" lon="10.658094348489447"><ele>273.5</ele><time>2026-03-22T11:30:21Z</time></trkpt><trkpt lat="43.274027017625066" lon="10.658058718926881"><ele>272.0</ele><time>2026-03-22T11:30:22Z</time></trkpt><trkpt lat="43.274106750581716" lon="10.658037494926392"><ele>270.5</ele><time>2026-03-22T11:30:23Z</time></trkpt><trkpt lat="43.274194613622896" lon="10.658017419109713"><ele>269.0</ele><time>2026-03-22T11:30:24Z</time></trkpt><trkpt lat="43.27427966956997" lon="10.658016687187942"><ele>267.5</ele><time>2026-03-22T11:30:25Z</time></trkpt><trkpt lat="43.2743545653523" lon="10.658019072635831"><ele>266.0</ele><time>2026-03-22T11:30:26Z</time></trkpt><trkpt lat="43.2744211588071" lon="10.658042693164143"><ele>266.0</ele><time>2026-03-22T11:30:27Z</time></trkpt><trkpt lat="43.27448903560651" lon="10.658087156192718"><ele>266.0</ele><time>2026-03-22T11:30:28Z</time></trkpt><trkpt lat="43.274566107239906" lon="10.658139727633305"><ele>266.0</ele><time>2026-03-22T11:30:29Z</time></trkpt><trkpt lat="43.27463816738783" lon="10.658235780688258"><ele>266.0</ele><time>2026-03-22T11:30:30Z</time></trkpt><trkpt lat="43.27472387572692" lon="10.658321299431776"><ele>266.0</ele><time>2026-03-22T11:30:31Z</time></trkpt><trkpt lat="43.2748221289313" lon="10.658418886900431"><ele>266.25</ele><time>2026-03-22T11:30:32Z</time></trkpt><trkpt lat="43.274935801617865" lon="10.658519025556714"><ele>266.5</ele><time>2026-03-22T11:30:33Z</time></trkpt><trkpt lat="43.2750653698735" lon="10.658620520501556"><ele>266.75</ele><time>2026-03-22T11:30:34Z</time></trkpt><trkpt lat="43.27518122833582" lon="10.658724883357952"><ele>267.0</ele><time>2026-03-22T11:30:35Z</time></trkpt><trkpt lat="43.275272432672736" lon="10.658821774113884"><ele>265.6</ele><time>2026-03-22T11:30:36Z</time></trkpt><trkpt lat="43.27535647542733" lon="10.658891343263752"><ele>264.2</ele><time>2026-03-22T11:30:37Z</time></trkpt><trkpt lat="43.27542596143046" lon="10.658954828075823"><ele>262.8</ele><time>2026-03-22T11:30:38Z</time></trkpt><trkpt lat="43.27552146834346" lon="10.65904444292867"><ele>261.4</ele><time>2026-03-22T11:30:40Z</time></trkpt><trkpt lat="43.275577037881206" lon="10.659108168262323"><ele>260.0</ele><time>2026-03-22T11:30:42Z</time></trkpt><trkpt lat="43.27565192616403" lon="10.658997460567369"><ele>260.0</ele><time>2026-03-22T11:30:43Z</time></trkpt><trkpt lat="43.27572864153284" lon="10.658942631708006"><ele>260.0</ele><time>2026-03-22T11:30:44Z</time></trkpt><trkpt lat="43.27581862216622" lon="10.65889957654948"><ele>260.0</ele><time>2026-03-22T11:30:45Z</time></trkpt><trkpt lat="43.27592887911357" lon="10.658856218032255"><ele>260.0</ele><time>2026-03-22T11:30:46Z</time></trkpt><trkpt lat="43.276045282250394" lon="10.658769230866817"><ele>260.0</ele><time>2026-03-22T11:30:47Z</time></trkpt><trkpt lat="43.27614616675298" lon="10.658709209752635"><ele>260.0</ele><time>2026-03-22T11:30:48Z</time></trkpt><trkpt lat="43.27628707676444" lon="10.658632533483443"><ele>260.0</ele><time>2026-03-22T11:30:49Z</time></trkpt><trkpt lat="43.276418519797375" lon="10.658575807663562"><ele>260.0</ele><time>2026-03-22T11:30:50Z</time></trkpt><trkpt lat="43.27654203001763" lon="10.658504475741788"><ele>260.0</ele><time>2026-03-22T11:30:51Z</time></trkpt><trkpt lat="43.27666092281814" lon="10.658415541961448"><ele>264.75</ele><time>2026-03-22T11:30:52Z</time></trkpt><trkpt lat="43.27678256315771" lon="10.658342630786619"><ele>269.5</ele><time>2026-03-22T11:30:53Z</time></trkpt><trkpt lat="43.27689294461352" lon="10.658275814025327"><ele>274.25</ele><time>2026-03-22T11:30:54Z</time></trkpt><trkpt lat="43.27701370723767" lon="10.658192857212294"><ele>279.0</ele><time>2026-03-22T11:30:55Z</time></trkpt><trkpt lat="43.2771323359617" lon="10.658099675685644"><ele>279.0</ele><time>2026-03-22T11:30:56Z</time></trkpt><trkpt lat="43.27723631750946" lon="10.65803996008957"><ele>279.0</ele><time>2026-03-22T11:30:57Z</time></trkpt><trkpt lat="43.27732162358719" lon="10.657985039111512"><ele>279.0</ele><time>2026-03-22T11:30:58Z</time></trkpt><trkpt lat="43.27740037467458" lon="10.657945625479"><ele>279.0</ele><time>2026-03-22T11:30:59Z</time></trkpt><trkpt lat="43.277483367267465" lon="10.657927186432172"><ele>279.0</ele><time>2026-03-22T11:31:00Z</time></trkpt><trkpt lat="43.27759812594309" lon="10.657902531403698"><ele>281.2</ele><time>2026-03-22T11:31:02Z</time></trkpt><trkpt lat="43.27768989347481" lon="10.657929742889396"><ele>283.4</ele><time>2026-03-22T11:31:04Z</time></trkpt><trkpt lat="43.2776869641973" lon="10.657839563006464"><ele>285.6</ele><time>2026-03-22T11:31:16Z</time></trkpt><trkpt lat="43.277646930203915" lon="10.65758372397391"><ele>287.8</ele><time>2026-03-22T11:31:17Z</time></trkpt><trkpt lat="43.27762609934393" lon="10.6574845646309"><ele>290.0</ele><time>2026-03-22T11:31:18Z</time></trkpt><trkpt lat="43.27760287122442" lon="10.657354610912193"><ele>290.2</ele><time>2026-03-22T11:31:19Z</time></trkpt><trkpt lat="43.277573875080925" lon="10.657216781105111"><ele>290.4</ele><time>2026-03-22T11:31:20Z</time></trkpt><trkpt lat="43.27754731049871" lon="10.657113468872296"><ele>290.6</ele><time>2026-03-22T11:31:21Z</time></trkpt><trkpt lat="43.2775102675482" lon="10.656983425829944"><ele>290.8</ele><time>2026-03-22T11:31:22Z</time></trkpt><trkpt lat="43.27746985805474" lon="10.656822232669892"><ele>291.0</ele><time>2026-03-22T11:31:23Z</time></trkpt><trkpt lat="43.27743481143203" lon="10.656681728642438"><ele>291.5</ele><time>2026-03-22T11:31:24Z</time></trkpt><trkpt lat="43.27740881090454" lon="10.656578085278083"><ele>292.0</ele><time>2026-03-22T11:31:25Z</time></trkpt><trkpt lat="43.277363811560626" lon="10.656376275111972"><ele>292.5</ele><time>2026-03-22T11:31:28Z</time></trkpt><trkpt lat="43.277364453754856" lon="10.656279594145186"><ele>293.0</ele><time>2026-03-22T11:31:31Z</time></trkpt><trkpt lat="43.277428204679836" lon="10.656210841389573"><ele>293.5</ele><time>2026-03-22T11:31:46Z</time></trkpt><trkpt lat="43.27748894482856" lon="10.656182739662519"><ele>294.0</ele><time>2026-03-22T11:31:48Z</time></trkpt><trkpt lat="43.27755370373737" lon="10.656147655135229"><ele>294.1666666666667</ele><time>2026-03-22T11:31:51Z</time></trkpt><trkpt lat="43.277638312739285" lon="10.65609547529867"><ele>294.3333333333333</ele><time>2026-03-22T11:31:54Z</time></trkpt><trkpt lat="43.27769872773129" lon="10.656064321201912"><ele>294.5</ele><time>2026-03-22T11:31:55Z</time></trkpt><trkpt lat="43.27777124083926" lon="10.656020140613641"><ele>294.66666666666663</ele><time>2026-03-22T11:31:57Z</time></trkpt><trkpt lat="43.27784879559217" lon="10.655969808970783"><ele>294.8333333333333</ele><time>2026-03-22T11:31:59Z</time></trkpt><trkpt lat="43.277947640977146" lon="10.655919896099428"><ele>295.0</ele><time>2026-03-22T11:32:01Z</time></trkpt><trkpt lat="43.27805410019361" lon="10.655859124537418"><ele>293.16666666666663</ele><time>2026-03-22T11:32:03Z</time></trkpt><trkpt lat="43.27812828382193" lon="10.655804712832827"><ele>291.3333333333333</ele><time>2026-03-22T11:32:05Z</time></trkpt><trkpt lat="43.2782060796073" lon="10.655744829927217"><ele>289.5</ele><time>2026-03-22T11:32:08Z</time></trkpt><trkpt lat="43.27826960324079" lon="10.655677754659452"><ele>287.6666666666667</ele><time>2026-03-22T11:32:14Z</time></trkpt><trkpt lat="43.27834337209851" lon="10.655620639632968"><ele>285.83333333333337</ele><time>2026-03-22T11:32:17Z</time></trkpt><trkpt lat="43.278412220426716" lon="10.65558870092607"><ele>284.0</ele><time>2026-03-22T11:32:19Z</time></trkpt><trkpt lat="43.27848777883339" lon="10.655541712121329"><ele>284.0</ele><time>2026-03-22T11:32:22Z</time></trkpt><trkpt lat="43.2785355248393" lon="10.655474464363955"><ele>284.0</ele><time>2026-03-22T11:32:28Z</time></trkpt><trkpt lat="43.27860464418047" lon="10.655433034775745"><ele>284.0</ele><time>2026-03-22T11:32:32Z</time></trkpt><trkpt lat="43.27865841922268" lon="10.655386925601498"><ele>284.0</ele><time>2026-03-22T11:32:39Z</time></trkpt><trkpt lat="43.27872646465585" lon="10.655380711376795"><ele>284.0</ele><time>2026-03-22T11:32:42Z</time></trkpt><trkpt lat="43.278800612685195" lon="10.655355908539974"><ele>284.0</ele><time>2026-03-22T11:32:47Z</time></trkpt><trkpt lat="43.278900912113905" lon="10.65531691527905"><ele>283.83333333333337</ele><time>2026-03-22T11:32:50Z</time></trkpt><trkpt lat="43.278974955354514" lon="10.655261452618392"><ele>283.6666666666667</ele><time>2026-03-22T11:32:52Z</time></trkpt><trkpt lat="43.279051663888815" lon="10.655216507440842"><ele>283.5</ele><time>2026-03-22T11:32:54Z</time></trkpt><trkpt lat="43.279129926919055" lon="10.655161920884554"><ele>283.3333333333333</ele><time>2026-03-22T11:32:56Z</time></trkpt><trkpt lat="43.279198131870636" lon="10.65517495100323"><ele>283.16666666666663</ele><time>2026-03-22T11:32:59Z</time></trkpt><trkpt lat="43.27929386036275" lon="10.655182352048888"><ele>283.0</ele><time>2026-03-22T11:33:03Z</time></trkpt><trkpt lat="43.279345324185044" lon="10.655130517079355"><ele>283.0</ele><time>2026-03-22T11:33:06Z</time></trkpt><trkpt lat="43.27949029013346" lon="10.655111200561157"><ele>283.0</ele><time>2026-03-22T11:33:09Z</time></trkpt><trkpt lat="43.27958918227256" lon="10.655065164656865"><ele>283.0</ele><time>2026-03-22T11:33:10Z</time></trkpt><trkpt lat="43.27969027017852" lon="10.655031934513275"><ele>283.0</ele><time>2026-03-22T11:33:13Z</time></trkpt><trkpt lat="43.27976130066509" lon="10.65495977360355"><ele>283.0</ele><time>2026-03-22T11:33:17Z</time></trkpt><trkpt lat="43.27980795884853" lon="10.654883762679818"><ele>282.5</ele><time>2026-03-22T11:33:19Z</time></trkpt><trkpt lat="43.279866302345475" lon="10.65482726662747"><ele>282.0</ele><time>2026-03-22T11:33:21Z</time></trkpt><trkpt lat="43.279924839305366" lon="10.65478568535156"><ele>281.5</ele><time>2026-03-22T11:33:23Z</time></trkpt><trkpt lat="43.27999949096544" lon="10.654766124439382"><ele>281.0</ele><time>2026-03-22T11:33:25Z</time></trkpt><trkpt lat="43.28010739230364" lon="10.654764013016408"><ele>280.5</ele><time>2026-03-22T11:33:27Z</time></trkpt><trkpt lat="43.280178910812005" lon="10.654752006036318"><ele>280.0</ele><time>2026-03-22T11:33:28Z</time></trkpt><trkpt lat="43.28029581272952" lon="10.65475689754553"><ele>280.0</ele><time>2026-03-22T11:33:30Z</time></trkpt><trkpt lat="43.280393067585436" lon="10.654669286518835"><ele>280.0</ele><time>2026-03-22T11:33:32Z</time></trkpt><trkpt lat="43.28044678341283" lon="10.654593290250038"><ele>280.0</ele><time>2026-03-22T11:33:34Z</time></trkpt><trkpt lat="43.28050062963672" lon="10.654548204875447"><ele>280.0</ele><time>2026-03-22T11:33:35Z</time></trkpt><trkpt lat="43.280611947526246" lon="10.654508359456615"><ele>280.0</ele><time>2026-03-22T11:33:37Z</time></trkpt><trkpt lat="43.28069221254727" lon="10.654441445875287"><ele>279.16666666666663</ele><time>2026-03-22T11:33:39Z</time></trkpt><trkpt lat="43.28080338609282" lon="10.654436767466473"><ele>278.3333333333333</ele><time>2026-03-22T11:33:41Z</time></trkpt><trkpt lat="43.28087864747916" lon="10.654421789996903"><ele>277.5</ele><time>2026-03-22T11:33:42Z</time></trkpt><trkpt lat="43.28097855071878" lon="10.65446134142468"><ele>276.6666666666667</ele><time>2026-03-22T11:33:44Z</time></trkpt><trkpt lat="43.28104855067962" lon="10.654479573087071"><ele>275.83333333333337</ele><time>2026-03-22T11:33:45Z</time></trkpt><trkpt lat="43.281115478427786" lon="10.654472982811427"><ele>275.0</ele><time>2026-03-22T11:33:46Z</time></trkpt><trkpt lat="43.28119884808354" lon="10.654474378501481"><ele>275.0</ele><time>2026-03-22T11:33:48Z</time></trkpt><trkpt lat="43.281281379113494" lon="10.654508074038839"><ele>275.0</ele><time>2026-03-22T11:33:50Z</time></trkpt><trkpt lat="43.28133556165877" lon="10.65456937618743"><ele>275.0</ele><time>2026-03-22T11:33:51Z</time></trkpt><trkpt lat="43.281398816636504" lon="10.654597734507867"><ele>275.0</ele><time>2026-03-22T11:33:52Z</time></trkpt><trkpt lat="43.28148795176338" lon="10.654610665079709"><ele>275.0</ele><time>2026-03-22T11:33:54Z</time></trkpt><trkpt lat="43.2815993375156" lon="10.654657672526348"><ele>275.0</ele><time>2026-03-22T11:33:56Z</time></trkpt><trkpt lat="43.28168370566298" lon="10.654623879626232"><ele>276.0</ele><time>2026-03-22T11:33:58Z</time></trkpt><trkpt lat="43.281750210895524" lon="10.654585205203079"><ele>277.0</ele><time>2026-03-22T11:34:00Z</time></trkpt><trkpt lat="43.28174712635431" lon="10.65449530792692"><ele>278.0</ele><time>2026-03-22T11:34:02Z</time></trkpt><trkpt lat="43.281773472968005" lon="10.654395747101587"><ele>279.0</ele><time>2026-03-22T11:34:05Z</time></trkpt><trkpt lat="43.28179092528163" lon="10.654284254928731"><ele>280.0</ele><time>2026-03-22T11:34:07Z</time></trkpt><trkpt lat="43.28182306908463" lon="10.654150257061584"><ele>281.0</ele><time>2026-03-22T11:34:09Z</time></trkpt><trkpt lat="43.28185842384548" lon="10.653988217128624"><ele>281.0</ele><time>2026-03-22T11:34:11Z</time></trkpt><trkpt lat="43.281883243314546" lon="10.6538903091919"><ele>281.0</ele><time>2026-03-22T11:34:12Z</time></trkpt><trkpt lat="43.28193052929992" lon="10.653808654525937"><ele>281.0</ele><time>2026-03-22T11:34:13Z</time></trkpt><trkpt lat="43.282021849240046" lon="10.653739684860664"><ele>281.0</ele><time>2026-03-22T11:34:15Z</time></trkpt><trkpt lat="43.282085971341964" lon="10.653675389509624"><ele>281.0</ele><time>2026-03-22T11:34:16Z</time></trkpt><trkpt lat="43.282139939397936" lon="10.6536003520095"><ele>281.0</ele><time>2026-03-22T11:34:17Z</time></trkpt><trkpt lat="43.282218734953545" lon="10.65360532982206"><ele>280.6666666666667</ele><time>2026-03-22T11:34:20Z</time></trkpt><trkpt lat="43.282289533128996" lon="10.65361579742807"><ele>280.33333333333337</ele><time>2026-03-22T11:34:21Z</time></trkpt><trkpt lat="43.28235985753968" lon="10.653589051966609"><ele>280.0</ele><time>2026-03-22T11:34:23Z</time></trkpt><trkpt lat="43.282438060668525" lon="10.653561991984207"><ele>279.6666666666667</ele><time>2026-03-22T11:34:26Z</time></trkpt><trkpt lat="43.28250761829172" lon="10.653596166877422"><ele>279.3333333333333</ele><time>2026-03-22T11:34:28Z</time></trkpt><trkpt lat="43.28257200270094" lon="10.653615830084119"><ele>279.0</ele><time>2026-03-22T11:34:29Z</time></trkpt><trkpt lat="43.28269803627101" lon="10.653588400799377"><ele>279.0</ele><time>2026-03-22T11:34:31Z</time></trkpt><trkpt lat="43.28277019663013" lon="10.65355617944173"><ele>279.0</ele><time>2026-03-22T11:34:32Z</time></trkpt><trkpt lat="43.28282906249105" lon="10.653523476275863"><ele>279.0</ele><time>2026-03-22T11:34:33Z</time></trkpt><trkpt lat="43.282912281137044" lon="10.65342925271718"><ele>279.0</ele><time>2026-03-22T11:34:35Z</time></trkpt><trkpt lat="43.282961624747834" lon="10.653368498544797"><ele>279.0</ele><time>2026-03-22T11:34:36Z</time></trkpt><trkpt lat="43.283040926553305" lon="10.653326827802259"><ele>279.0</ele><time>2026-03-22T11:34:38Z</time></trkpt><trkpt lat="43.28313373745818" lon="10.653222013349236"><ele>277.8</ele><time>2026-03-22T11:34:40Z</time></trkpt><trkpt lat="43.28319151934103" lon="10.653055764226476"><ele>276.59999999999997</ele><time>2026-03-22T11:34:42Z</time></trkpt><trkpt lat="43.28322261435142" lon="10.652962702027954"><ele>275.4</ele><time>2026-03-22T11:34:43Z</time></trkpt><trkpt lat="43.28327787946155" lon="10.652863100099562"><ele>274.2</ele><time>2026-03-22T11:34:45Z</time></trkpt><trkpt lat="43.2833857346629" lon="10.65278478715583"><ele>273.0</ele><time>2026-03-22T11:34:47Z</time></trkpt><trkpt lat="43.28345349043459" lon="10.65274108346795"><ele>275.8</ele><time>2026-03-22T11:34:49Z</time></trkpt><trkpt lat="43.28356778372131" lon="10.652730172951053"><ele>278.6</ele><time>2026-03-22T11:34:51Z</time></trkpt><trkpt lat="43.28366794263751" lon="10.652740627083361"><ele>281.4</ele><time>2026-03-22T11:34:53Z</time></trkpt><trkpt lat="43.283749218999475" lon="10.652729236660962"><ele>284.2</ele><time>2026-03-22T11:34:55Z</time></trkpt><trkpt lat="43.283832670341226" lon="10.652721207831588"><ele>287.0</ele><time>2026-03-22T11:34:57Z</time></trkpt><trkpt lat="43.28390244892833" lon="10.652745723884381"><ele>283.6</ele><time>2026-03-22T11:34:59Z</time></trkpt><trkpt lat="43.28402278598442" lon="10.652758174288941"><ele>280.2</ele><time>2026-03-22T11:35:01Z</time></trkpt><trkpt lat="43.284127664520675" lon="10.652755509550046"><ele>276.8</ele><time>2026-03-22T11:35:03Z</time></trkpt><trkpt lat="43.284217558010305" lon="10.652790517867558"><ele>273.4</ele><time>2026-03-22T11:35:05Z</time></trkpt><trkpt lat="43.28427591378526" lon="10.652823705115887"><ele>270.0</ele><time>2026-03-22T11:35:06Z</time></trkpt><trkpt lat="43.28436032482639" lon="10.65281208804487"><ele>270.0</ele><time>2026-03-22T11:35:08Z</time></trkpt><trkpt lat="43.28438038592347" lon="10.652699951160633"><ele>270.0</ele><time>2026-03-22T11:35:10Z</time></trkpt><trkpt lat="43.284371755778885" lon="10.652604188117722"><ele>270.0</ele><time>2026-03-22T11:35:11Z</time></trkpt><trkpt lat="43.28433600322894" lon="10.652498249656189"><ele>270.0</ele><time>2026-03-22T11:35:12Z</time></trkpt><trkpt lat="43.28431227150119" lon="10.652369612655932"><ele>270.0</ele><time>2026-03-22T11:35:13Z</time></trkpt><trkpt lat="43.284273272676586" lon="10.652284662610441"><ele>270.0</ele><time>2026-03-22T11:35:14Z</time></trkpt><trkpt lat="43.28425416332958" lon="10.652191380124442"><ele>270.0</ele><time>2026-03-22T11:35:15Z</time></trkpt><trkpt lat="43.28425634609961" lon="10.652061047122054"><ele>270.0</ele><time>2026-03-22T11:35:16Z</time></trkpt><trkpt lat="43.28427124299054" lon="10.6519257807795"><ele>270.0</ele><time>2026-03-22T11:35:17Z</time></trkpt><trkpt lat="43.284289298365906" lon="10.651824812828027"><ele>270.0</ele><time>2026-03-22T11:35:18Z</time></trkpt><trkpt lat="43.28430688800367" lon="10.651725099205525"><ele>270.0</ele><time>2026-03-22T11:35:19Z</time></trkpt><trkpt lat="43.28428204797513" lon="10.651610020910702"><ele>270.0</ele><time>2026-03-22T11:35:21Z</time></trkpt><trkpt lat="43.28419543963151" lon="10.651498629309964"><ele>269.5</ele><time>2026-03-22T11:35:23Z</time></trkpt><trkpt lat="43.284128911164196" lon="10.65144334538021"><ele>269.0</ele><time>2026-03-22T11:35:24Z</time></trkpt><trkpt lat="43.284067503304406" lon="10.651382743986446"><ele>268.5</ele><time>2026-03-22T11:35:25Z</time></trkpt><trkpt lat="43.28401826294198" lon="10.65132656017968"><ele>268.0</ele><time>2026-03-22T11:35:26Z</time></trkpt><trkpt lat="43.284004348408565" lon="10.65123821025598"><ele>267.5</ele><time>2026-03-22T11:35:28Z</time></trkpt><trkpt lat="43.2840136032526" lon="10.651135725147771"><ele>267.0</ele><time>2026-03-22T11:35:30Z</time></trkpt><trkpt lat="43.284048415056155" lon="10.651005719165331"><ele>267.0</ele><time>2026-03-22T11:35:32Z</time></trkpt><trkpt lat="43.28410216723942" lon="10.65082222011105"><ele>267.0</ele><time>2026-03-22T11:35:34Z</time></trkpt><trkpt lat="43.28417556553513" lon="10.650682688089537"><ele>267.0</ele><time>2026-03-22T11:35:36Z</time></trkpt><trkpt lat="43.28423564133901" lon="10.650645003303046"><ele>267.0</ele><time>2026-03-22T11:35:37Z</time></trkpt><trkpt lat="43.28430961994357" lon="10.650620118821454"><ele>267.0</ele><time>2026-03-22T11:35:38Z</time></trkpt><trkpt lat="43.284394040574206" lon="10.650598208787274"><ele>267.0</ele><time>2026-03-22T11:35:39Z</time></trkpt><trkpt lat="43.284467078204216" lon="10.650581311553976"><ele>267.0</ele><time>2026-03-22T11:35:40Z</time></trkpt><trkpt lat="43.28454118187359" lon="10.650577294834003"><ele>267.0</ele><time>2026-03-22T11:35:41Z</time></trkpt><trkpt lat="43.284619978663386" lon="10.65058121807565"><ele>267.0</ele><time>2026-03-22T11:35:42Z</time></trkpt><trkpt lat="43.28471685554905" lon="10.65056792122935"><ele>267.0</ele><time>2026-03-22T11:35:43Z</time></trkpt><trkpt lat="43.28479817087101" lon="10.65053818811594"><ele>267.0</ele><time>2026-03-22T11:35:44Z</time></trkpt><trkpt lat="43.28486734897633" lon="10.650499265244708"><ele>265.6</ele><time>2026-03-22T11:35:45Z</time></trkpt><trkpt lat="43.284942035870245" lon="10.65044942897326"><ele>264.2</ele><time>2026-03-22T11:35:46Z</time></trkpt><trkpt lat="43.285031769392305" lon="10.650395105416159"><ele>262.8</ele><time>2026-03-22T11:35:48Z</time></trkpt><trkpt lat="43.285120205283995" lon="10.650266418423675"><ele>261.4</ele><time>2026-03-22T11:35:50Z</time></trkpt><trkpt lat="43.28516667306341" lon="10.650188713815053"><ele>260.0</ele><time>2026-03-22T11:35:51Z</time></trkpt><trkpt lat="43.285232519998694" lon="10.650068160038584"><ele>260.0</ele><time>2026-03-22T11:35:53Z</time></trkpt><trkpt lat="43.28524765629151" lon="10.64995614703404"><ele>260.0</ele><time>2026-03-22T11:35:55Z</time></trkpt><trkpt lat="43.28519997453163" lon="10.649873731149006"><ele>260.0</ele><time>2026-03-22T11:35:57Z</time></trkpt><trkpt lat="43.28514498423948" lon="10.649766094594554"><ele>260.0</ele><time>2026-03-22T11:35:59Z</time></trkpt><trkpt lat="43.285097233623894" lon="10.649666108341773"><ele>260.0</ele><time>2026-03-22T11:36:01Z</time></trkpt><trkpt lat="43.28504405913085" lon="10.649615448420223"><ele>260.0</ele><time>2026-03-22T11:36:03Z</time></trkpt><trkpt lat="43.2849909380067" lon="10.649551656967322"><ele>260.2</ele><time>2026-03-22T11:36:05Z</time></trkpt><trkpt lat="43.284927599885876" lon="10.649453497023401"><ele>260.4</ele><time>2026-03-22T11:36:07Z</time></trkpt><trkpt lat="43.28495577218516" lon="10.649300940071345"><ele>260.6</ele><time>2026-03-22T11:36:09Z</time></trkpt><trkpt lat="43.284975947639936" lon="10.649198773490964"><ele>260.8</ele><time>2026-03-22T11:36:10Z</time></trkpt><trkpt lat="43.2849852690217" lon="10.649096505741422"><ele>261.0</ele><time>2026-03-22T11:36:11Z</time></trkpt><trkpt lat="43.28503879406246" lon="10.648941987937107"><ele>261.0</ele><time>2026-03-22T11:36:12Z</time></trkpt><trkpt lat="43.28508590844796" lon="10.648821819326972"><ele>261.0</ele><time>2026-03-22T11:36:13Z</time></trkpt><trkpt lat="43.2851356564023" lon="10.648713465345503"><ele>261.0</ele><time>2026-03-22T11:36:14Z</time></trkpt><trkpt lat="43.28517475864206" lon="10.648614724549025"><ele>261.0</ele><time>2026-03-22T11:36:15Z</time></trkpt><trkpt lat="43.28523363586307" lon="10.648516406428048"><ele>261.0</ele><time>2026-03-22T11:36:16Z</time></trkpt><trkpt lat="43.285312499218804" lon="10.648406922161536"><ele>262.0</ele><time>2026-03-22T11:36:17Z</time></trkpt><trkpt lat="43.28538448178361" lon="10.648321821155074"><ele>263.0</ele><time>2026-03-22T11:36:18Z</time></trkpt><trkpt lat="43.28546170356029" lon="10.648268701502662"><ele>264.0</ele><time>2026-03-22T11:36:19Z</time></trkpt><trkpt lat="43.285524714870846" lon="10.64816131692511"><ele>265.0</ele><time>2026-03-22T11:36:21Z</time></trkpt><trkpt lat="43.2856049528527" lon="10.648071827132071"><ele>266.0</ele><time>2026-03-22T11:36:22Z</time></trkpt><trkpt lat="43.28568566899525" lon="10.647948800663965"><ele>260.6</ele><time>2026-03-22T11:36:23Z</time></trkpt><trkpt lat="43.28575052411816" lon="10.647858599496859"><ele>255.20000000000002</ele><time>2026-03-22T11:36:24Z</time></trkpt><trkpt lat="43.28578992468504" lon="10.647785012970552"><ele>249.79999999999998</ele><time>2026-03-22T11:36:25Z</time></trkpt><trkpt lat="43.285887908348876" lon="10.647603356608624"><ele>244.39999999999998</ele><time>2026-03-22T11:36:27Z</time></trkpt><trkpt lat="43.28594234228767" lon="10.647463899353847"><ele>239.0</ele><time>2026-03-22T11:36:28Z</time></trkpt><trkpt lat="43.28597146093984" lon="10.6473628896131"><ele>239.00000000000003</ele><time>2026-03-22T11:36:28.999Z</time></trkpt><trkpt lat="43.28600534276011" lon="10.647274446972272"><ele>239.0</ele><time>2026-03-22T11:36:29.999Z</time></trkpt><trkpt lat="43.28596616163585" lon="10.647145328443413"><ele>239.0</ele><time>2026-03-22T11:36:32Z</time></trkpt><trkpt lat="43.28593186044448" lon="10.647066076135644"><ele>239.0</ele><time>2026-03-22T11:36:34Z</time></trkpt><trkpt lat="43.28588498462685" lon="10.646957593426869"><ele>239.00000000000003</ele><time>2026-03-22T11:36:36Z</time></trkpt><trkpt lat="43.285841193340644" lon="10.646866047550978"><ele>239.0</ele><time>2026-03-22T11:36:37Z</time></trkpt><trkpt lat="43.28581283885" lon="10.646772219186742"><ele>238.39999999999998</ele><time>2026-03-22T11:36:38Z</time></trkpt><trkpt lat="43.28575057561031" lon="10.646687119576582"><ele>237.79999999999998</ele><time>2026-03-22T11:36:39Z</time></trkpt><trkpt lat="43.28570576534401" lon="10.646599823868588"><ele>237.20000000000002</ele><time>2026-03-22T11:36:46Z</time></trkpt><trkpt lat="43.28563522727379" lon="10.646467534698163"><ele>236.60000000000002</ele><time>2026-03-22T11:36:48Z</time></trkpt><trkpt lat="43.285600956131084" lon="10.646382831002455"><ele>236.0</ele><time>2026-03-22T11:36:50Z</time></trkpt><trkpt lat="43.28553588334097" lon="10.64626185723086"><ele>238.20000000000002</ele><time>2026-03-22T11:36:52Z</time></trkpt><trkpt lat="43.28549265594498" lon="10.646191151968313"><ele>240.40000000000003</ele><time>2026-03-22T11:36:53Z</time></trkpt><trkpt lat="43.285422930347934" lon="10.6460725844356"><ele>242.6</ele><time>2026-03-22T11:36:54Z</time></trkpt><trkpt lat="43.28538205870289" lon="10.645959865017076"><ele>244.8</ele><time>2026-03-22T11:36:55Z</time></trkpt><trkpt lat="43.28534255981285" lon="10.645831059961763"><ele>247.0</ele><time>2026-03-22T11:36:56Z</time></trkpt><trkpt lat="43.28531202676085" lon="10.645724205304608"><ele>246.99999999999997</ele><time>2026-03-22T11:36:57Z</time></trkpt><trkpt lat="43.28527877845837" lon="10.645605960016633"><ele>247.0</ele><time>2026-03-22T11:36:58Z</time></trkpt><trkpt lat="43.28524787338796" lon="10.645486131537616"><ele>247.0</ele><time>2026-03-22T11:36:59Z</time></trkpt><trkpt lat="43.28522441512379" lon="10.645357926054704"><ele>247.0</ele><time>2026-03-22T11:37:00Z</time></trkpt><trkpt lat="43.28520698529794" lon="10.645270483569371"><ele>246.99999999999997</ele><time>2026-03-22T11:37:01Z</time></trkpt><trkpt lat="43.2851732854753" lon="10.645176403947854"><ele>247.0</ele><time>2026-03-22T11:37:02Z</time></trkpt><trkpt lat="43.2851276466542" lon="10.645068476997874"><ele>244.16666666666666</ele><time>2026-03-22T11:37:04Z</time></trkpt><trkpt lat="43.28506331593613" lon="10.644985328751545"><ele>241.33333333333331</ele><time>2026-03-22T11:37:06Z</time></trkpt><trkpt lat="43.28497184476273" lon="10.644928322537275"><ele>238.5</ele><time>2026-03-22T11:37:07Z</time></trkpt><trkpt lat="43.284880331439695" lon="10.644848739327148"><ele>235.66666666666669</ele><time>2026-03-22T11:37:08Z</time></trkpt><trkpt lat="43.284829489863455" lon="10.644796817471075"><ele>232.83333333333334</ele><time>2026-03-22T11:37:09Z</time></trkpt><trkpt lat="43.28480813651947" lon="10.6447099297668"><ele>230.0</ele><time>2026-03-22T11:37:10Z</time></trkpt><trkpt lat="43.28482749650491" lon="10.644621895055096"><ele>230.00000000000003</ele><time>2026-03-22T11:37:11Z</time></trkpt><trkpt lat="43.284871850511855" lon="10.64454534377214"><ele>230.0</ele><time>2026-03-22T11:37:12Z</time></trkpt><trkpt lat="43.28500600109132" lon="10.64446349622053"><ele>230.0</ele><time>2026-03-22T11:37:14Z</time></trkpt><trkpt lat="43.28507692064767" lon="10.64441309998241"><ele>230.0</ele><time>2026-03-22T11:37:15Z</time></trkpt><trkpt lat="43.285128246307416" lon="10.644339388988573"><ele>230.00000000000003</ele><time>2026-03-22T11:37:16Z</time></trkpt><trkpt lat="43.28514891621858" lon="10.644247890230474"><ele>230.0</ele><time>2026-03-22T11:37:17Z</time></trkpt><trkpt lat="43.285130257840926" lon="10.644150668019298"><ele>230.2</ele><time>2026-03-22T11:37:18Z</time></trkpt><trkpt lat="43.285091910162734" lon="10.644017225930739"><ele>230.4</ele><time>2026-03-22T11:37:19Z</time></trkpt><trkpt lat="43.285053077017224" lon="10.643906673187129"><ele>230.60000000000002</ele><time>2026-03-22T11:37:20Z</time></trkpt><trkpt lat="43.28509419050686" lon="10.643774944518455"><ele>230.8</ele><time>2026-03-22T11:37:22Z</time></trkpt><trkpt lat="43.28513868623528" lon="10.64368462700227"><ele>231.0</ele><time>2026-03-22T11:37:23Z</time></trkpt><trkpt lat="43.285188865580864" lon="10.643540805811169"><ele>231.0</ele><time>2026-03-22T11:37:24Z</time></trkpt><trkpt lat="43.28525719150637" lon="10.64338223528233"><ele>231.0</ele><time>2026-03-22T11:37:25Z</time></trkpt><trkpt lat="43.285311994443234" lon="10.643266334284954"><ele>231.0</ele><time>2026-03-22T11:37:26Z</time></trkpt><trkpt lat="43.2853377708644" lon="10.643178791737176"><ele>231.0</ele><time>2026-03-22T11:37:27Z</time></trkpt><trkpt lat="43.28533371983005" lon="10.64309038986742"><ele>231.0</ele><time>2026-03-22T11:37:28Z</time></trkpt><trkpt lat="43.28530128827597" lon="10.643011964642687"><ele>231.0</ele><time>2026-03-22T11:37:29Z</time></trkpt><trkpt lat="43.28523075743341" lon="10.642940400729545"><ele>231.0</ele><time>2026-03-22T11:37:30Z</time></trkpt><trkpt lat="43.28514635619434" lon="10.6428788448395"><ele>231.00000000000003</ele><time>2026-03-22T11:37:31Z</time></trkpt><trkpt lat="43.285072679927644" lon="10.64278722287131"><ele>231.00000000000003</ele><time>2026-03-22T11:37:32Z</time></trkpt><trkpt lat="43.285024402633546" lon="10.642683503036613"><ele>231.0</ele><time>2026-03-22T11:37:33Z</time></trkpt><trkpt lat="43.28498906395392" lon="10.642573507106741"><ele>231.0</ele><time>2026-03-22T11:37:34Z</time></trkpt><trkpt lat="43.28496927119007" lon="10.642444030254335"><ele>231.75</ele><time>2026-03-22T11:37:35Z</time></trkpt><trkpt lat="43.28496380087878" lon="10.642280053011325"><ele>232.5</ele><time>2026-03-22T11:37:36Z</time></trkpt><trkpt lat="43.28496106909364" lon="10.642094113952451"><ele>233.25</ele><time>2026-03-22T11:37:37Z</time></trkpt><trkpt lat="43.2849603457786" lon="10.641934305166842"><ele>234.0</ele><time>2026-03-22T11:37:38Z</time></trkpt><trkpt lat="43.284957924630554" lon="10.641807497388452"><ele>235.2</ele><time>2026-03-22T11:37:39Z</time></trkpt><trkpt lat="43.28498745502533" lon="10.641697397223139"><ele>236.39999999999998</ele><time>2026-03-22T11:37:40Z</time></trkpt><trkpt lat="43.28503775003942" lon="10.641614602077592"><ele>237.6</ele><time>2026-03-22T11:37:41Z</time></trkpt><trkpt lat="43.28513031774725" lon="10.641497949848555"><ele>238.8</ele><time>2026-03-22T11:37:42Z</time></trkpt><trkpt lat="43.285234631828615" lon="10.641358550136859"><ele>240.0</ele><time>2026-03-22T11:37:43Z</time></trkpt><trkpt lat="43.28533107650147" lon="10.641212253142742"><ele>241.4</ele><time>2026-03-22T11:37:44Z</time></trkpt><trkpt lat="43.285389998888284" lon="10.641069133396828"><ele>242.8</ele><time>2026-03-22T11:37:45Z</time></trkpt><trkpt lat="43.285449436059594" lon="10.640944751279479"><ele>244.2</ele><time>2026-03-22T11:37:46Z</time></trkpt><trkpt lat="43.285507855521715" lon="10.640835399217906"><ele>245.6</ele><time>2026-03-22T11:37:47Z</time></trkpt><trkpt lat="43.285575224554215" lon="10.64071694307472"><ele>247.0</ele><time>2026-03-22T11:37:48Z</time></trkpt><trkpt lat="43.28565128006005" lon="10.640611670191735"><ele>245.8</ele><time>2026-03-22T11:37:49Z</time></trkpt><trkpt lat="43.285736759802035" lon="10.640507480530488"><ele>244.6</ele><time>2026-03-22T11:37:50Z</time></trkpt><trkpt lat="43.28582699392855" lon="10.640400426565664"><ele>243.40000000000003</ele><time>2026-03-22T11:37:51Z</time></trkpt><trkpt lat="43.28591549939257" lon="10.64030563632217"><ele>242.20000000000002</ele><time>2026-03-22T11:37:52Z</time></trkpt><trkpt lat="43.285994530392344" lon="10.640222022745743"><ele>241.0</ele><time>2026-03-22T11:37:53Z</time></trkpt><trkpt lat="43.28606980596921" lon="10.640144418626571"><ele>241.0</ele><time>2026-03-22T11:37:54Z</time></trkpt><trkpt lat="43.286172062553675" lon="10.640081827654242"><ele>241.00000000000003</ele><time>2026-03-22T11:37:55Z</time></trkpt><trkpt lat="43.28627424947772" lon="10.640035417761363"><ele>241.00000000000003</ele><time>2026-03-22T11:37:56Z</time></trkpt><trkpt lat="43.286370901151734" lon="10.63998196883566"><ele>241.0</ele><time>2026-03-22T11:37:57Z</time></trkpt><trkpt lat="43.28647293667704" lon="10.639924837852401"><ele>241.0</ele><time>2026-03-22T11:37:58Z</time></trkpt><trkpt lat="43.286558666768464" lon="10.639884030169048"><ele>237.25</ele><time>2026-03-22T11:37:59Z</time></trkpt><trkpt lat="43.28666106773587" lon="10.639875673264935"><ele>233.5</ele><time>2026-03-22T11:38:00Z</time></trkpt><trkpt lat="43.28677263549924" lon="10.639856199999798"><ele>229.75</ele><time>2026-03-22T11:38:01Z</time></trkpt><trkpt lat="43.286917806701254" lon="10.639835171800275"><ele>226.0</ele><time>2026-03-22T11:38:02Z</time></trkpt><trkpt lat="43.28706914887255" lon="10.63981310313007"><ele>226.0</ele><time>2026-03-22T11:38:03Z</time></trkpt><trkpt lat="43.287196791390535" lon="10.639782865680619"><ele>226.0</ele><time>2026-03-22T11:38:04Z</time></trkpt><trkpt lat="43.28733088606458" lon="10.639773801202557"><ele>226.0</ele><time>2026-03-22T11:38:05Z</time></trkpt><trkpt lat="43.28745553894352" lon="10.639773527112943"><ele>226.0</ele><time>2026-03-22T11:38:06Z</time></trkpt><trkpt lat="43.28756578754796" lon="10.639792006840885"><ele>223.49999999999997</ele><time>2026-03-22T11:38:07Z</time></trkpt><trkpt lat="43.28766961641822" lon="10.639822357996644"><ele>221.0</ele><time>2026-03-22T11:38:08Z</time></trkpt><trkpt lat="43.28776183655794" lon="10.639824906847046"><ele>218.5</ele><time>2026-03-22T11:38:09Z</time></trkpt><trkpt lat="43.287832446005204" lon="10.639826031622961"><ele>216.0</ele><time>2026-03-22T11:38:10Z</time></trkpt><trkpt lat="43.28790388526545" lon="10.639808239073718"><ele>213.49999999999997</ele><time>2026-03-22T11:38:11Z</time></trkpt><trkpt lat="43.287977022022254" lon="10.639740119340523"><ele>211.0</ele><time>2026-03-22T11:38:12Z</time></trkpt><trkpt lat="43.28804420069192" lon="10.63963858504394"><ele>209.20000000000002</ele><time>2026-03-22T11:38:13Z</time></trkpt><trkpt lat="43.2881016002404" lon="10.63954509984034"><ele>207.4</ele><time>2026-03-22T11:38:14Z</time></trkpt><trkpt lat="43.28816178736638" lon="10.639446300625877"><ele>205.6</ele><time>2026-03-22T11:38:15Z</time></trkpt><trkpt lat="43.2882033391784" lon="10.639332866653351"><ele>203.8</ele><time>2026-03-22T11:38:16Z</time></trkpt><trkpt lat="43.2882386164063" lon="10.63917433814791"><ele>202.0</ele><time>2026-03-22T11:38:17Z</time></trkpt><trkpt lat="43.288259624093115" lon="10.639008138575226"><ele>201.99999999999997</ele><time>2026-03-22T11:38:18Z</time></trkpt><trkpt lat="43.288284218390714" lon="10.638881043293441"><ele>202.0</ele><time>2026-03-22T11:38:19Z</time></trkpt><trkpt lat="43.288305332598355" lon="10.63877836373329"><ele>202.0</ele><time>2026-03-22T11:38:20Z</time></trkpt><trkpt lat="43.288368173696" lon="10.638724760017297"><ele>202.0</ele><time>2026-03-22T11:38:21Z</time></trkpt><trkpt lat="43.288450412724025" lon="10.638688857490576"><ele>201.99999999999997</ele><time>2026-03-22T11:38:22Z</time></trkpt><trkpt lat="43.288560378868475" lon="10.638675753687746"><ele>202.0</ele><time>2026-03-22T11:38:23Z</time></trkpt><trkpt lat="43.28871045780993" lon="10.638653403389704"><ele>203.8</ele><time>2026-03-22T11:38:24Z</time></trkpt><trkpt lat="43.2888568515576" lon="10.638613335132519"><ele>205.6</ele><time>2026-03-22T11:38:25Z</time></trkpt><trkpt lat="43.28895166962611" lon="10.638572974459972"><ele>207.4</ele><time>2026-03-22T11:38:26Z</time></trkpt><trkpt lat="43.28903059018203" lon="10.638532132078993"><ele>209.20000000000002</ele><time>2026-03-22T11:38:27Z</time></trkpt><trkpt lat="43.289102942629114" lon="10.638478977692959"><ele>211.0</ele><time>2026-03-22T11:38:28Z</time></trkpt><trkpt lat="43.28917852786807" lon="10.638404133581743"><ele>206.25</ele><time>2026-03-22T11:38:29Z</time></trkpt><trkpt lat="43.28927749855425" lon="10.638279103840073"><ele>201.5</ele><time>2026-03-22T11:38:30Z</time></trkpt><trkpt lat="43.28939782353328" lon="10.638139767707658"><ele>196.75</ele><time>2026-03-22T11:38:31Z</time></trkpt><trkpt lat="43.28951941933035" lon="10.638023680619801"><ele>192.0</ele><time>2026-03-22T11:38:32Z</time></trkpt><trkpt lat="43.289617972907976" lon="10.63789593076884"><ele>192.25</ele><time>2026-03-22T11:38:33Z</time></trkpt><trkpt lat="43.28970187624515" lon="10.637781039104047"><ele>192.5</ele><time>2026-03-22T11:38:34Z</time></trkpt><trkpt lat="43.289781032118405" lon="10.637662276117391"><ele>192.75</ele><time>2026-03-22T11:38:35Z</time></trkpt><trkpt lat="43.2898364646582" lon="10.637531739361851"><ele>193.0</ele><time>2026-03-22T11:38:35.999Z</time></trkpt><trkpt lat="43.289911237339254" lon="10.637392075749236"><ele>191.2</ele><time>2026-03-22T11:38:37Z</time></trkpt><trkpt lat="43.28999518028682" lon="10.637253439764656"><ele>189.4</ele><time>2026-03-22T11:38:38Z</time></trkpt><trkpt lat="43.29009207107632" lon="10.637163405665646"><ele>187.6</ele><time>2026-03-22T11:38:39Z</time></trkpt><trkpt lat="43.290159367198775" lon="10.637063330277405"><ele>185.79999999999998</ele><time>2026-03-22T11:38:40Z</time></trkpt><trkpt lat="43.29019740516521" lon="10.636961275618212"><ele>184.0</ele><time>2026-03-22T11:38:41Z</time></trkpt><trkpt lat="43.2902523704432" lon="10.636896871184197"><ele>182.5</ele><time>2026-03-22T11:38:42Z</time></trkpt><trkpt lat="43.29031539627385" lon="10.63686358161508"><ele>181.0</ele><time>2026-03-22T11:38:43Z</time></trkpt><trkpt lat="43.29039243557806" lon="10.636851246164369"><ele>179.5</ele><time>2026-03-22T11:38:44Z</time></trkpt><trkpt lat="43.29046837094344" lon="10.636869292325695"><ele>178.0</ele><time>2026-03-22T11:38:45Z</time></trkpt><trkpt lat="43.29054400431192" lon="10.636908352402052"><ele>176.5</ele><time>2026-03-22T11:38:46Z</time></trkpt><trkpt lat="43.290618722245256" lon="10.636933410496885"><ele>175.0</ele><time>2026-03-22T11:38:47Z</time></trkpt><trkpt lat="43.29069552134444" lon="10.63696135307298"><ele>174.16666666666669</ele><time>2026-03-22T11:38:48Z</time></trkpt><trkpt lat="43.2908179135366" lon="10.637015101249915"><ele>173.33333333333334</ele><time>2026-03-22T11:38:50Z</time></trkpt><trkpt lat="43.29086676054217" lon="10.637070440176533"><ele>172.5</ele><time>2026-03-22T11:38:51Z</time></trkpt><trkpt lat="43.29091788977073" lon="10.637166236254412"><ele>171.66666666666666</ele><time>2026-03-22T11:38:52Z</time></trkpt><trkpt lat="43.290961119294906" lon="10.637257109882553"><ele>170.83333333333331</ele><time>2026-03-22T11:38:53Z</time></trkpt><trkpt lat="43.29102871320273" lon="10.637340608956396"><ele>170.0</ele><time>2026-03-22T11:38:54Z</time></trkpt><trkpt lat="43.291107242597064" lon="10.63739706876983"><ele>170.0</ele><time>2026-03-22T11:38:55Z</time></trkpt><trkpt lat="43.29119347033984" lon="10.637448713272683"><ele>170.0</ele><time>2026-03-22T11:38:56Z</time></trkpt><trkpt lat="43.291275232038174" lon="10.63749533965789"><ele>170.0</ele><time>2026-03-22T11:38:57Z</time></trkpt><trkpt lat="43.291365346599875" lon="10.637550124028207"><ele>170.0</ele><time>2026-03-22T11:38:58Z</time></trkpt><trkpt lat="43.29146587236375" lon="10.637617871601439"><ele>170.0</ele><time>2026-03-22T11:38:59Z</time></trkpt><trkpt lat="43.29158330193497" lon="10.637689057980335"><ele>166.25</ele><time>2026-03-22T11:39:00Z</time></trkpt><trkpt lat="43.2917119651578" lon="10.637764557394362"><ele>162.5</ele><time>2026-03-22T11:39:01Z</time></trkpt><trkpt lat="43.29184254603444" lon="10.637828386975917"><ele>158.75</ele><time>2026-03-22T11:39:02Z</time></trkpt><trkpt lat="43.29197286677501" lon="10.637883952426264"><ele>155.0</ele><time>2026-03-22T11:39:03Z</time></trkpt><trkpt lat="43.29210403537972" lon="10.63792741158208"><ele>155.25</ele><time>2026-03-22T11:39:04Z</time></trkpt><trkpt lat="43.29222911971119" lon="10.637942779444773"><ele>155.5</ele><time>2026-03-22T11:39:05Z</time></trkpt><trkpt lat="43.29236251282401" lon="10.637921568454049"><ele>155.75</ele><time>2026-03-22T11:39:06Z</time></trkpt><trkpt lat="43.29250542093154" lon="10.637872623802014"><ele>156.0</ele><time>2026-03-22T11:39:07Z</time></trkpt><trkpt lat="43.29266494080391" lon="10.637814355569267"><ele>155.75</ele><time>2026-03-22T11:39:08Z</time></trkpt><trkpt lat="43.29282512942551" lon="10.637740862049162"><ele>155.5</ele><time>2026-03-22T11:39:09Z</time></trkpt><trkpt lat="43.292962055444306" lon="10.63766694260392"><ele>155.25</ele><time>2026-03-22T11:39:10Z</time></trkpt><trkpt lat="43.29307834846759" lon="10.637613397283666"><ele>155.0</ele><time>2026-03-22T11:39:11Z</time></trkpt><trkpt lat="43.293160169142176" lon="10.637559845582164"><ele>157.0</ele><time>2026-03-22T11:39:12Z</time></trkpt><trkpt lat="43.29319875002856" lon="10.637463031183543"><ele>159.0</ele><time>2026-03-22T11:39:13Z</time></trkpt><trkpt lat="43.293200211874236" lon="10.63736974982057"><ele>161.0</ele><time>2026-03-22T11:39:14Z</time></trkpt><trkpt lat="43.29319382671161" lon="10.637225125847184"><ele>163.0</ele><time>2026-03-22T11:39:16Z</time></trkpt><trkpt lat="43.29322678343748" lon="10.637133364449719"><ele>165.0</ele><time>2026-03-22T11:39:19Z</time></trkpt><trkpt lat="43.293258079752704" lon="10.636987602556212"><ele>167.0</ele><time>2026-03-22T11:39:21Z</time></trkpt><trkpt lat="43.29327160990393" lon="10.636842127474992"><ele>167.0</ele><time>2026-03-22T11:39:22Z</time></trkpt><trkpt lat="43.293287692538094" lon="10.636694707481846"><ele>167.0</ele><time>2026-03-22T11:39:23Z</time></trkpt><trkpt lat="43.29332601125293" lon="10.636532315388667"><ele>167.0</ele><time>2026-03-22T11:39:24Z</time></trkpt><trkpt lat="43.293373860653794" lon="10.636388648674943"><ele>167.0</ele><time>2026-03-22T11:39:25Z</time></trkpt><trkpt lat="43.293409222233855" lon="10.636253713680054"><ele>166.39999999999998</ele><time>2026-03-22T11:39:26Z</time></trkpt><trkpt lat="43.29342841495747" lon="10.63612217380166"><ele>165.79999999999998</ele><time>2026-03-22T11:39:27Z</time></trkpt><trkpt lat="43.29343482510841" lon="10.635993331681622"><ele>165.2</ele><time>2026-03-22T11:39:28Z</time></trkpt><trkpt lat="43.29342756123124" lon="10.635867042012825"><ele>164.6</ele><time>2026-03-22T11:39:29Z</time></trkpt><trkpt lat="43.2934183951657" lon="10.635750092470644"><ele>164.0</ele><time>2026-03-22T11:39:30Z</time></trkpt><trkpt lat="43.293414557691555" lon="10.635634892974494"><ele>164.0</ele><time>2026-03-22T11:39:31Z</time></trkpt><trkpt lat="43.29340355104593" lon="10.635545095438117"><ele>164.0</ele><time>2026-03-22T11:39:32Z</time></trkpt><trkpt lat="43.29339725155166" lon="10.635433863705975"><ele>164.0</ele><time>2026-03-22T11:39:33Z</time></trkpt><trkpt lat="43.293382534637544" lon="10.635331378910736"><ele>164.0</ele><time>2026-03-22T11:39:34Z</time></trkpt><trkpt lat="43.293361439050344" lon="10.635232391216595"><ele>164.0</ele><time>2026-03-22T11:39:35Z</time></trkpt><trkpt lat="43.29332094741636" lon="10.635123064347013"><ele>164.0</ele><time>2026-03-22T11:39:36Z</time></trkpt><trkpt lat="43.29328496918226" lon="10.634990998144813"><ele>163.25</ele><time>2026-03-22T11:39:37Z</time></trkpt><trkpt lat="43.293263449842925" lon="10.634840348516885"><ele>162.5</ele><time>2026-03-22T11:39:38Z</time></trkpt><trkpt lat="43.29324105253378" lon="10.634672175283086"><ele>161.75</ele><time>2026-03-22T11:39:39Z</time></trkpt><trkpt lat="43.29322727927612" lon="10.634481626828304"><ele>161.0</ele><time>2026-03-22T11:39:40Z</time></trkpt><trkpt lat="43.293233386223896" lon="10.634265662835604"><ele>160.33333333333331</ele><time>2026-03-22T11:39:41Z</time></trkpt><trkpt lat="43.29325347907711" lon="10.63403154176242"><ele>159.66666666666666</ele><time>2026-03-22T11:39:42Z</time></trkpt><trkpt lat="43.29327137079178" lon="10.633808548663984"><ele>159.0</ele><time>2026-03-22T11:39:43Z</time></trkpt><trkpt lat="43.29328278474903" lon="10.633570656148208"><ele>157.66666666666666</ele><time>2026-03-22T11:39:44Z</time></trkpt><trkpt lat="43.293294003184755" lon="10.63331274423281"><ele>156.33333333333331</ele><time>2026-03-22T11:39:45Z</time></trkpt><trkpt lat="43.293308271644065" lon="10.633065599531243"><ele>155.0</ele><time>2026-03-22T11:39:46Z</time></trkpt><trkpt lat="43.293326691722996" lon="10.632834182490823"><ele>153.66666666666666</ele><time>2026-03-22T11:39:47Z</time></trkpt><trkpt lat="43.293342676510484" lon="10.632622675702397"><ele>152.33333333333334</ele><time>2026-03-22T11:39:48Z</time></trkpt><trkpt lat="43.29335482647773" lon="10.632413596898562"><ele>151.0</ele><time>2026-03-22T11:39:49Z</time></trkpt><trkpt lat="43.293370676975464" lon="10.632215767611005"><ele>151.0</ele><time>2026-03-22T11:39:50Z</time></trkpt><trkpt lat="43.293381077825764" lon="10.632027311917028"><ele>151.0</ele><time>2026-03-22T11:39:51Z</time></trkpt><trkpt lat="43.29339834392979" lon="10.631836725868927"><ele>151.0</ele><time>2026-03-22T11:39:52Z</time></trkpt><trkpt lat="43.293424881791765" lon="10.631645830749816"><ele>151.0</ele><time>2026-03-22T11:39:53Z</time></trkpt><trkpt lat="43.29347112228727" lon="10.631440584996893"><ele>150.25</ele><time>2026-03-22T11:39:54Z</time></trkpt><trkpt lat="43.293534826145475" lon="10.631256500174961"><ele>149.5</ele><time>2026-03-22T11:39:55Z</time></trkpt><trkpt lat="43.29359229130668" lon="10.631091624869267"><ele>148.75</ele><time>2026-03-22T11:39:56Z</time></trkpt><trkpt lat="43.2936432216693" lon="10.630951405541804"><ele>148.0</ele><time>2026-03-22T11:39:57Z</time></trkpt><trkpt lat="43.29368577618991" lon="10.630832969467699"><ele>147.33333333333334</ele><time>2026-03-22T11:39:58Z</time></trkpt><trkpt lat="43.293713238461066" lon="10.63071726009554"><ele>146.66666666666669</ele><time>2026-03-22T11:39:59Z</time></trkpt><trkpt lat="43.29378168977727" lon="10.630640184531458"><ele>146.0</ele><time>2026-03-22T11:40:00Z</time></trkpt><trkpt lat="43.29379460578731" lon="10.63055525129171"><ele>145.33333333333334</ele><time>2026-03-22T11:40:01Z</time></trkpt><trkpt lat="43.2937713677729" lon="10.630453618361445"><ele>144.66666666666666</ele><time>2026-03-22T11:40:02Z</time></trkpt><trkpt lat="43.29372193682053" lon="10.630357662984531"><ele>144.0</ele><time>2026-03-22T11:40:03Z</time></trkpt><trkpt lat="43.29367552849561" lon="10.630252453599363"><ele>143.6</ele><time>2026-03-22T11:40:04Z</time></trkpt><trkpt lat="43.29363481815657" lon="10.630145515281988"><ele>143.2</ele><time>2026-03-22T11:40:05Z</time></trkpt><trkpt lat="43.29360963673518" lon="10.63002792514589"><ele>142.79999999999998</ele><time>2026-03-22T11:40:06Z</time></trkpt><trkpt lat="43.29358087356247" lon="10.629901994123799"><ele>142.4</ele><time>2026-03-22T11:40:07Z</time></trkpt><trkpt lat="43.293572122333394" lon="10.629770637657197"><ele>142.0</ele><time>2026-03-22T11:40:08Z</time></trkpt><trkpt lat="43.293563721373786" lon="10.629624689332138"><ele>142.0</ele><time>2026-03-22T11:40:09Z</time></trkpt><trkpt lat="43.29353770688883" lon="10.629490940789555"><ele>142.0</ele><time>2026-03-22T11:40:10Z</time></trkpt><trkpt lat="43.29351573602835" lon="10.62937621893792"><ele>142.0</ele><time>2026-03-22T11:40:11Z</time></trkpt><trkpt lat="43.29351742101687" lon="10.62927883789681"><ele>142.0</ele><time>2026-03-22T11:40:12Z</time></trkpt><trkpt lat="43.29356099678356" lon="10.629213628224546"><ele>142.0</ele><time>2026-03-22T11:40:13Z</time></trkpt><trkpt lat="43.29363426995397" lon="10.629166499098954"><ele>142.0</ele><time>2026-03-22T11:40:14Z</time></trkpt><trkpt lat="43.29372197996316" lon="10.629138869199501"><ele>143.79999999999998</ele><time>2026-03-22T11:40:15Z</time></trkpt><trkpt lat="43.29381885877497" lon="10.6291136902416"><ele>145.6</ele><time>2026-03-22T11:40:16Z</time></trkpt><trkpt lat="43.29390157955411" lon="10.629073478194377"><ele>147.39999999999998</ele><time>2026-03-22T11:40:17Z</time></trkpt><trkpt lat="43.29397784208319" lon="10.629043198681279"><ele>149.2</ele><time>2026-03-22T11:40:18Z</time></trkpt><trkpt lat="43.29405087001881" lon="10.62902019426418"><ele>151.0</ele><time>2026-03-22T11:40:19Z</time></trkpt><trkpt lat="43.29416105251239" lon="10.629008897158732"><ele>153.0</ele><time>2026-03-22T11:40:21Z</time></trkpt><trkpt lat="43.294268837060606" lon="10.62902141294266"><ele>155.0</ele><time>2026-03-22T11:40:23Z</time></trkpt><trkpt lat="43.2943450521652" lon="10.629042479136373"><ele>157.0</ele><time>2026-03-22T11:40:24Z</time></trkpt><trkpt lat="43.294446523845885" lon="10.629064604055095"><ele>159.0</ele><time>2026-03-22T11:40:25Z</time></trkpt><trkpt lat="43.29455729640924" lon="10.629102720197936"><ele>161.0</ele><time>2026-03-22T11:40:26Z</time></trkpt><trkpt lat="43.29467004184893" lon="10.629135282950307"><ele>160.5</ele><time>2026-03-22T11:40:27Z</time></trkpt><trkpt lat="43.29478988561472" lon="10.629129434603298"><ele>160.0</ele><time>2026-03-22T11:40:28Z</time></trkpt><trkpt lat="43.29491923379249" lon="10.629102331998228"><ele>159.5</ele><time>2026-03-22T11:40:29Z</time></trkpt><trkpt lat="43.295038052081594" lon="10.62908158352854"><ele>159.0</ele><time>2026-03-22T11:40:30Z</time></trkpt><trkpt lat="43.29514147266594" lon="10.629075420629313"><ele>159.0</ele><time>2026-03-22T11:40:31Z</time></trkpt><trkpt lat="43.295245227770216" lon="10.629081435451996"><ele>159.0</ele><time>2026-03-22T11:40:32Z</time></trkpt><trkpt lat="43.29534157050776" lon="10.629096587654924"><ele>159.0</ele><time>2026-03-22T11:40:33Z</time></trkpt><trkpt lat="43.29542704712944" lon="10.629125183931542"><ele>159.0</ele><time>2026-03-22T11:40:34Z</time></trkpt><trkpt lat="43.29547244373954" lon="10.629186391045799"><ele>159.0</ele><time>2026-03-22T11:40:35Z</time></trkpt><trkpt lat="43.295527943092694" lon="10.6292492983855"><ele>159.0</ele><time>2026-03-22T11:40:39.999Z</time></trkpt><trkpt lat="43.29561316329735" lon="10.629211662077871"><ele>158.66666666666666</ele><time>2026-03-22T11:40:40.999Z</time></trkpt><trkpt lat="43.29568738827651" lon="10.629219307866277"><ele>158.33333333333334</ele><time>2026-03-22T11:40:41.999Z</time></trkpt><trkpt lat="43.29575361739063" lon="10.629259074810902"><ele>158.0</ele><time>2026-03-22T11:40:43Z</time></trkpt><trkpt lat="43.29585309512809" lon="10.629288275649037"><ele>157.66666666666669</ele><time>2026-03-22T11:40:44Z</time></trkpt><trkpt lat="43.29593282303431" lon="10.629323302093583"><ele>157.33333333333334</ele><time>2026-03-22T11:40:45Z</time></trkpt><trkpt lat="43.29601004948067" lon="10.62936490597711"><ele>157.0</ele><time>2026-03-22T11:40:46Z</time></trkpt><trkpt lat="43.29607693441572" lon="10.629389587211485"><ele>157.0</ele><time>2026-03-22T11:40:48Z</time></trkpt><trkpt lat="43.29614317969482" lon="10.629420111849528"><ele>157.0</ele><time>2026-03-22T11:40:50Z</time></trkpt><trkpt lat="43.29627131669928" lon="10.62951105190825"><ele>157.0</ele><time>2026-03-22T11:40:52Z</time></trkpt><trkpt lat="43.29635111251582" lon="10.629556136460563"><ele>157.0</ele><time>2026-03-22T11:40:53Z</time></trkpt><trkpt lat="43.296430971070194" lon="10.629602560405568"><ele>157.0</ele><time>2026-03-22T11:40:54Z</time></trkpt><trkpt lat="43.29651074312654" lon="10.629638718990895"><ele>157.6</ele><time>2026-03-22T11:40:55Z</time></trkpt><trkpt lat="43.29661713594017" lon="10.629713311752859"><ele>158.2</ele><time>2026-03-22T11:40:57Z</time></trkpt><trkpt lat="43.29667293721235" lon="10.629768630145017"><ele>158.8</ele><time>2026-03-22T11:40:58Z</time></trkpt><trkpt lat="43.2967560966029" lon="10.629813782115159"><ele>159.4</ele><time>2026-03-22T11:40:59Z</time></trkpt><trkpt lat="43.296862628895006" lon="10.629910118974141"><ele>160.0</ele><time>2026-03-22T11:41:01Z</time></trkpt><trkpt lat="43.29692612064932" lon="10.62994162432593"><ele>160.0</ele><time>2026-03-22T11:41:02Z</time></trkpt><trkpt lat="43.29698397796569" lon="10.630002875410462"><ele>160.0</ele><time>2026-03-22T11:41:03Z</time></trkpt><trkpt lat="43.297069171261285" lon="10.630126232057867"><ele>160.0</ele><time>2026-03-22T11:41:05Z</time></trkpt><trkpt lat="43.29712463952504" lon="10.63018998135309"><ele>160.0</ele><time>2026-03-22T11:41:06Z</time></trkpt><trkpt lat="43.29723523958642" lon="10.63024394608569"><ele>160.0</ele><time>2026-03-22T11:41:08Z</time></trkpt><trkpt lat="43.29730723244903" lon="10.630184409158971"><ele>159.66666666666669</ele><time>2026-03-22T11:41:10Z</time></trkpt><trkpt lat="43.29736264054866" lon="10.630140740738732"><ele>159.33333333333334</ele><time>2026-03-22T11:41:11Z</time></trkpt><trkpt lat="43.29742696834017" lon="10.630096276158685"><ele>159.0</ele><time>2026-03-22T11:41:12Z</time></trkpt><trkpt lat="43.29748834644289" lon="10.63003225590291"><ele>158.66666666666666</ele><time>2026-03-22T11:41:13Z</time></trkpt><trkpt lat="43.29755376268545" lon="10.629956711368163"><ele>158.33333333333331</ele><time>2026-03-22T11:41:14Z</time></trkpt><trkpt lat="43.29760675972611" lon="10.629883985979689"><ele>158.0</ele><time>2026-03-22T11:41:15Z</time></trkpt><trkpt lat="43.29766050810326" lon="10.629790467539541"><ele>158.0</ele><time>2026-03-22T11:41:16Z</time></trkpt><trkpt lat="43.297698335783124" lon="10.629706228067347"><ele>158.0</ele><time>2026-03-22T11:41:17Z</time></trkpt><trkpt lat="43.29778816947126" lon="10.629579718116494"><ele>158.0</ele><time>2026-03-22T11:41:19Z</time></trkpt><trkpt lat="43.297838302347664" lon="10.629494706303511"><ele>158.0</ele><time>2026-03-22T11:41:20Z</time></trkpt><trkpt lat="43.29787823884219" lon="10.629420317883563"><ele>158.0</ele><time>2026-03-22T11:41:21Z</time></trkpt><trkpt lat="43.29796178637651" lon="10.629276256454645"><ele>158.4</ele><time>2026-03-22T11:41:23Z</time></trkpt><trkpt lat="43.29801704545249" lon="10.629183227224601"><ele>158.8</ele><time>2026-03-22T11:41:24Z</time></trkpt><trkpt lat="43.298068687765614" lon="10.629094553670651"><ele>159.2</ele><time>2026-03-22T11:41:25Z</time></trkpt><trkpt lat="43.29813544572377" lon="10.628995892596446"><ele>159.6</ele><time>2026-03-22T11:41:27Z</time></trkpt><trkpt lat="43.29821392167919" lon="10.628870444625187"><ele>160.0</ele><time>2026-03-22T11:41:29Z</time></trkpt><trkpt lat="43.29825429680293" lon="10.628792090991618"><ele>162.16666666666669</ele><time>2026-03-22T11:41:30Z</time></trkpt><trkpt lat="43.29831706296366" lon="10.628719979459602"><ele>164.33333333333334</ele><time>2026-03-22T11:41:31Z</time></trkpt><trkpt lat="43.29838457107615" lon="10.628673269683846"><ele>166.5</ele><time>2026-03-22T11:41:32Z</time></trkpt><trkpt lat="43.29844281251286" lon="10.628628209328586"><ele>168.66666666666666</ele><time>2026-03-22T11:41:33Z</time></trkpt><trkpt lat="43.29850969549784" lon="10.628543494738848"><ele>170.83333333333331</ele><time>2026-03-22T11:41:35Z</time></trkpt><trkpt lat="43.29852349752029" lon="10.62840431476457"><ele>173.0</ele><time>2026-03-22T11:41:37Z</time></trkpt><trkpt lat="43.29849806430049" lon="10.628290300851194"><ele>173.5</ele><time>2026-03-22T11:41:38Z</time></trkpt><trkpt lat="43.29846988679657" lon="10.628161062009271"><ele>174.0</ele><time>2026-03-22T11:41:39Z</time></trkpt><trkpt lat="43.298448995408485" lon="10.628055830380744"><ele>174.5</ele><time>2026-03-22T11:41:40Z</time></trkpt><trkpt lat="43.29842662214547" lon="10.627956746011177"><ele>175.0</ele><time>2026-03-22T11:41:41Z</time></trkpt><trkpt lat="43.29840029214958" lon="10.627812469406178"><ele>175.5</ele><time>2026-03-22T11:41:43Z</time></trkpt><trkpt lat="43.29839348148036" lon="10.627701725807514"><ele>176.0</ele><time>2026-03-22T11:41:45Z</time></trkpt><trkpt lat="43.298363350361896" lon="10.627560224950217"><ele>176.60000000000002</ele><time>2026-03-22T11:41:48Z</time></trkpt><trkpt lat="43.298340781038064" lon="10.627458555779858"><ele>177.2</ele><time>2026-03-22T11:41:49Z</time></trkpt><trkpt lat="43.29831807643673" lon="10.627323681505267"><ele>177.8</ele><time>2026-03-22T11:41:50Z</time></trkpt><trkpt lat="43.29828118202574" lon="10.627195101226345"><ele>178.39999999999998</ele><time>2026-03-22T11:41:51Z</time></trkpt><trkpt lat="43.29822503013688" lon="10.627072345922103"><ele>179.0</ele><time>2026-03-22T11:41:52Z</time></trkpt><trkpt lat="43.298194617947004" lon="10.626923665480794"><ele>179.75</ele><time>2026-03-22T11:41:53Z</time></trkpt><trkpt lat="43.29814684862689" lon="10.626769688147618"><ele>180.5</ele><time>2026-03-22T11:41:54Z</time></trkpt><trkpt lat="43.29807958046984" lon="10.626615207673021"><ele>181.25</ele><time>2026-03-22T11:41:55Z</time></trkpt><trkpt lat="43.298035127737855" lon="10.626450719662712"><ele>182.0</ele><time>2026-03-22T11:41:56Z</time></trkpt><trkpt lat="43.298001773614835" lon="10.62630734553467"><ele>180.0</ele><time>2026-03-22T11:41:57Z</time></trkpt><trkpt lat="43.29797467223068" lon="10.626176786217556"><ele>178.0</ele><time>2026-03-22T11:41:58Z</time></trkpt><trkpt lat="43.29794917606698" lon="10.626056806148233"><ele>176.0</ele><time>2026-03-22T11:41:59Z</time></trkpt><trkpt lat="43.297935220274404" lon="10.62592807429258"><ele>174.0</ele><time>2026-03-22T11:42:00Z</time></trkpt><trkpt lat="43.29790595662787" lon="10.625791646201051"><ele>172.0</ele><time>2026-03-22T11:42:01Z</time></trkpt><trkpt lat="43.29789634558144" lon="10.625639514924588"><ele>172.0</ele><time>2026-03-22T11:42:02Z</time></trkpt><trkpt lat="43.297894416845494" lon="10.625489219311515"><ele>172.0</ele><time>2026-03-22T11:42:03Z</time></trkpt><trkpt lat="43.297898981438856" lon="10.625349535064153"><ele>172.0</ele><time>2026-03-22T11:42:04Z</time></trkpt><trkpt lat="43.29791540857771" lon="10.625230828598635"><ele>172.0</ele><time>2026-03-22T11:42:05Z</time></trkpt><trkpt lat="43.297932705746675" lon="10.625120563771292"><ele>172.0</ele><time>2026-03-22T11:42:06Z</time></trkpt><trkpt lat="43.297971258543384" lon="10.62501826368096"><ele>172.6</ele><time>2026-03-22T11:42:07Z</time></trkpt><trkpt lat="43.2980255430952" lon="10.624903237180174"><ele>173.2</ele><time>2026-03-22T11:42:08Z</time></trkpt><trkpt lat="43.29807568392913" lon="10.624780656790168"><ele>173.8</ele><time>2026-03-22T11:42:09Z</time></trkpt><trkpt lat="43.29812832784264" lon="10.624655524287459"><ele>174.4</ele><time>2026-03-22T11:42:10Z</time></trkpt><trkpt lat="43.298179809242" lon="10.624532395592203"><ele>175.0</ele><time>2026-03-22T11:42:11Z</time></trkpt><trkpt lat="43.29822121201836" lon="10.62440914586915"><ele>177.5</ele><time>2026-03-22T11:42:12Z</time></trkpt><trkpt lat="43.298242095557065" lon="10.624285238130367"><ele>180.0</ele><time>2026-03-22T11:42:13Z</time></trkpt><trkpt lat="43.29825876158948" lon="10.62418529385731"><ele>182.5</ele><time>2026-03-22T11:42:14Z</time></trkpt><trkpt lat="43.29828762665479" lon="10.624092176755036"><ele>185.0</ele><time>2026-03-22T11:42:15Z</time></trkpt><trkpt lat="43.29831463485021" lon="10.62400771666648"><ele>187.5</ele><time>2026-03-22T11:42:16Z</time></trkpt><trkpt lat="43.29835882199465" lon="10.623904935521793"><ele>190.0</ele><time>2026-03-22T11:42:17Z</time></trkpt><trkpt lat="43.298421504395364" lon="10.623786050449489"><ele>190.0</ele><time>2026-03-22T11:42:18Z</time></trkpt><trkpt lat="43.298496504844834" lon="10.62365006842669"><ele>190.0</ele><time>2026-03-22T11:42:19Z</time></trkpt><trkpt lat="43.29856760312799" lon="10.623506034563809"><ele>190.0</ele><time>2026-03-22T11:42:20Z</time></trkpt><trkpt lat="43.29864999851616" lon="10.62339895313885"><ele>190.0</ele><time>2026-03-22T11:42:21Z</time></trkpt><trkpt lat="43.29871933440321" lon="10.623294209417022"><ele>189.6</ele><time>2026-03-22T11:42:22Z</time></trkpt><trkpt lat="43.29876357765724" lon="10.623197247803445"><ele>189.2</ele><time>2026-03-22T11:42:23Z</time></trkpt><trkpt lat="43.29874960949335" lon="10.623079311944002"><ele>188.8</ele><time>2026-03-22T11:42:24Z</time></trkpt><trkpt lat="43.298706970909045" lon="10.622951380615309"><ele>188.4</ele><time>2026-03-22T11:42:25Z</time></trkpt><trkpt lat="43.29865178836397" lon="10.622777186322791"><ele>188.0</ele><time>2026-03-22T11:42:26Z</time></trkpt><trkpt lat="43.298582667510445" lon="10.622624670552874"><ele>188.0</ele><time>2026-03-22T11:42:26.999Z</time></trkpt><trkpt lat="43.29852017555363" lon="10.622498563299203"><ele>188.0</ele><time>2026-03-22T11:42:27.999Z</time></trkpt><trkpt lat="43.29847719110871" lon="10.622381040112964"><ele>188.0</ele><time>2026-03-22T11:42:28.999Z</time></trkpt><trkpt lat="43.29844801369029" lon="10.622268696508339"><ele>188.0</ele><time>2026-03-22T11:42:29.999Z</time></trkpt><trkpt lat="43.298417306873006" lon="10.622149809088627"><ele>188.0</ele><time>2026-03-22T11:42:30.999Z</time></trkpt><trkpt lat="43.29838108412602" lon="10.622016575517371"><ele>188.8</ele><time>2026-03-22T11:42:31.999Z</time></trkpt><trkpt lat="43.29834947374085" lon="10.621876335769564"><ele>189.60000000000002</ele><time>2026-03-22T11:42:32.999Z</time></trkpt><trkpt lat="43.29830363120103" lon="10.621745314248969"><ele>190.39999999999998</ele><time>2026-03-22T11:42:33.999Z</time></trkpt><trkpt lat="43.29825242751481" lon="10.621620809291278"><ele>191.2</ele><time>2026-03-22T11:42:34.999Z</time></trkpt><trkpt lat="43.298189217878516" lon="10.621477241489316"><ele>192.0</ele><time>2026-03-22T11:42:35.999Z</time></trkpt><trkpt lat="43.298129996963134" lon="10.621339463697968"><ele>190.8</ele><time>2026-03-22T11:42:36.999Z</time></trkpt><trkpt lat="43.29807271434972" lon="10.621214131878011"><ele>189.6</ele><time>2026-03-22T11:42:37.999Z</time></trkpt><trkpt lat="43.29801037239704" lon="10.621080309885617"><ele>188.4</ele><time>2026-03-22T11:42:38.999Z</time></trkpt><trkpt lat="43.297942793021186" lon="10.620962490703805"><ele>187.20000000000002</ele><time>2026-03-22T11:42:39.999Z</time></trkpt><trkpt lat="43.29787327497458" lon="10.620851319472196"><ele>186.0</ele><time>2026-03-22T11:42:40.999Z</time></trkpt><trkpt lat="43.29780406301912" lon="10.620744214619348"><ele>186.0</ele><time>2026-03-22T11:42:41.999Z</time></trkpt><trkpt lat="43.29773363555322" lon="10.620640880508175"><ele>186.0</ele><time>2026-03-22T11:42:42.999Z</time></trkpt><trkpt lat="43.29765142801373" lon="10.620557197732825"><ele>186.0</ele><time>2026-03-22T11:42:43.999Z</time></trkpt><trkpt lat="43.297588075875005" lon="10.620469905387273"><ele>186.0</ele><time>2026-03-22T11:42:44.999Z</time></trkpt><trkpt lat="43.29753684058178" lon="10.62038535903806"><ele>186.0</ele><time>2026-03-22T11:42:45.999Z</time></trkpt><trkpt lat="43.297483666943755" lon="10.62029149021834"><ele>186.0</ele><time>2026-03-22T11:42:46.999Z</time></trkpt><trkpt lat="43.297415666482166" lon="10.62017735575642"><ele>186.0</ele><time>2026-03-22T11:42:47.999Z</time></trkpt><trkpt lat="43.29737027119685" lon="10.620021666032686"><ele>186.0</ele><time>2026-03-22T11:42:49Z</time></trkpt><trkpt lat="43.29734208807949" lon="10.61988595873897"><ele>186.0</ele><time>2026-03-22T11:42:50Z</time></trkpt><trkpt lat="43.29731025925917" lon="10.619763416378868"><ele>186.0</ele><time>2026-03-22T11:42:51Z</time></trkpt><trkpt lat="43.29727884964547" lon="10.619643054953162"><ele>183.5</ele><time>2026-03-22T11:42:52Z</time></trkpt><trkpt lat="43.297250791818335" lon="10.619538655549485"><ele>181.0</ele><time>2026-03-22T11:42:53Z</time></trkpt><trkpt lat="43.297223050806274" lon="10.619421727511298"><ele>178.5</ele><time>2026-03-22T11:42:54Z</time></trkpt><trkpt lat="43.29718188373005" lon="10.619327512039472"><ele>176.0</ele><time>2026-03-22T11:42:55Z</time></trkpt><trkpt lat="43.297160930243066" lon="10.619209740833345"><ele>173.5</ele><time>2026-03-22T11:42:56Z</time></trkpt><trkpt lat="43.29714559518978" lon="10.619073317366004"><ele>171.0</ele><time>2026-03-22T11:42:57Z</time></trkpt><trkpt lat="43.29712812397271" lon="10.61890790683784"><ele>171.0</ele><time>2026-03-22T11:42:58Z</time></trkpt><trkpt lat="43.29711659352329" lon="10.618776642006198"><ele>171.0</ele><time>2026-03-22T11:42:59Z</time></trkpt><trkpt lat="43.29709319686109" lon="10.618669386076894"><ele>171.0</ele><time>2026-03-22T11:43:00Z</time></trkpt><trkpt lat="43.29705275464936" lon="10.618577499381109"><ele>171.0</ele><time>2026-03-22T11:43:01Z</time></trkpt><trkpt lat="43.29699429014824" lon="10.61851440357451"><ele>171.0</ele><time>2026-03-22T11:43:02Z</time></trkpt><trkpt lat="43.296887242282594" lon="10.618426516860563"><ele>171.5</ele><time>2026-03-22T11:43:04Z</time></trkpt><trkpt lat="43.29683776500523" lon="10.618360208101707"><ele>172.0</ele><time>2026-03-22T11:43:06Z</time></trkpt><trkpt lat="43.29675232295128" lon="10.618376883149509"><ele>172.5</ele><time>2026-03-22T11:43:09Z</time></trkpt><trkpt lat="43.29668595363071" lon="10.6183827927151"><ele>173.0</ele><time>2026-03-22T11:43:10Z</time></trkpt><trkpt lat="43.29661906894712" lon="10.61835878120868"><ele>173.5</ele><time>2026-03-22T11:43:11Z</time></trkpt><trkpt lat="43.296564400771764" lon="10.618276497575836"><ele>174.0</ele><time>2026-03-22T11:43:12Z</time></trkpt><trkpt lat="43.296521333879426" lon="10.61818007616289"><ele>174.0</ele><time>2026-03-22T11:43:13Z</time></trkpt><trkpt lat="43.296459866474976" lon="10.618031417830062"><ele>174.0</ele><time>2026-03-22T11:43:14Z</time></trkpt><trkpt lat="43.296393991335506" lon="10.617897170681163"><ele>174.0</ele><time>2026-03-22T11:43:15Z</time></trkpt><trkpt lat="43.29631490891823" lon="10.617748277952236"><ele>174.0</ele><time>2026-03-22T11:43:16Z</time></trkpt><trkpt lat="43.29624024531847" lon="10.617611335337774"><ele>172.79999999999998</ele><time>2026-03-22T11:43:17Z</time></trkpt><trkpt lat="43.29617551777113" lon="10.617482308523154"><ele>171.6</ele><time>2026-03-22T11:43:18Z</time></trkpt><trkpt lat="43.296121982726554" lon="10.617348883320997"><ele>170.4</ele><time>2026-03-22T11:43:19Z</time></trkpt><trkpt lat="43.29605760340981" lon="10.617239138506276"><ele>169.2</ele><time>2026-03-22T11:43:20Z</time></trkpt><trkpt lat="43.29600747058994" lon="10.617100645651545"><ele>168.0</ele><time>2026-03-22T11:43:21Z</time></trkpt><trkpt lat="43.295962742361546" lon="10.616963155342768"><ele>168.0</ele><time>2026-03-22T11:43:22Z</time></trkpt><trkpt lat="43.29592029816136" lon="10.616839241751038"><ele>168.0</ele><time>2026-03-22T11:43:23Z</time></trkpt><trkpt lat="43.29588035591993" lon="10.616721679678836"><ele>168.0</ele><time>2026-03-22T11:43:24Z</time></trkpt><trkpt lat="43.29585066873133" lon="10.61660173576455"><ele>168.0</ele><time>2026-03-22T11:43:25Z</time></trkpt><trkpt lat="43.29581134237816" lon="10.616481871072057"><ele>168.0</ele><time>2026-03-22T11:43:26Z</time></trkpt><trkpt lat="43.2957921627923" lon="10.616325152915527"><ele>167.66666666666666</ele><time>2026-03-22T11:43:27Z</time></trkpt><trkpt lat="43.29576865339498" lon="10.616112203608793"><ele>167.33333333333331</ele><time>2026-03-22T11:43:28Z</time></trkpt><trkpt lat="43.295753710887205" lon="10.615894233919345"><ele>167.0</ele><time>2026-03-22T11:43:29Z</time></trkpt><trkpt lat="43.29577657701256" lon="10.615671534815586"><ele>167.0</ele><time>2026-03-22T11:43:30Z</time></trkpt><trkpt lat="43.29582287983495" lon="10.615484140693287"><ele>167.0</ele><time>2026-03-22T11:43:31Z</time></trkpt><trkpt lat="43.295878001056195" lon="10.615307601633038"><ele>167.0</ele><time>2026-03-22T11:43:32Z</time></trkpt><trkpt lat="43.29593335572598" lon="10.615132403062384"><ele>167.0</ele><time>2026-03-22T11:43:33Z</time></trkpt><trkpt lat="43.29599356610805" lon="10.61494784479097"><ele>166.0</ele><time>2026-03-22T11:43:34Z</time></trkpt><trkpt lat="43.29606882936614" lon="10.614765720246705"><ele>165.0</ele><time>2026-03-22T11:43:35Z</time></trkpt><trkpt lat="43.29614902118515" lon="10.6145805281092"><ele>164.0</ele><time>2026-03-22T11:43:36Z</time></trkpt><trkpt lat="43.29622743548487" lon="10.614391657341487"><ele>160.0</ele><time>2026-03-22T11:43:37Z</time></trkpt><trkpt lat="43.29632817342439" lon="10.614233284600267"><ele>156.0</ele><time>2026-03-22T11:43:38Z</time></trkpt><trkpt lat="43.296563958308624" lon="10.613937882894625"><ele>160.0</ele><time>2026-03-22T11:43:40Z</time></trkpt><trkpt lat="43.29670375410306" lon="10.613852079141857"><ele>164.0</ele><time>2026-03-22T11:43:41Z</time></trkpt><trkpt lat="43.296830236248724" lon="10.613748113530736"><ele>168.0</ele><time>2026-03-22T11:43:42Z</time></trkpt><trkpt lat="43.296958813865345" lon="10.613692107044557"><ele>172.0</ele><time>2026-03-22T11:43:43Z</time></trkpt><trkpt lat="43.29707687726247" lon="10.613671783543685"><ele>172.0</ele><time>2026-03-22T11:43:44Z</time></trkpt><trkpt lat="43.29717895047863" lon="10.613659911392686"><ele>172.0</ele><time>2026-03-22T11:43:45Z</time></trkpt><trkpt lat="43.29727583503703" lon="10.613677310162878"><ele>172.0</ele><time>2026-03-22T11:43:46Z</time></trkpt><trkpt lat="43.29736512787906" lon="10.61367986065138"><ele>172.0</ele><time>2026-03-22T11:43:47Z</time></trkpt><trkpt lat="43.29745069094201" lon="10.61372309921268"><ele>172.0</ele><time>2026-03-22T11:43:48Z</time></trkpt><trkpt lat="43.29753985092282" lon="10.61374894375144"><ele>173.16666666666669</ele><time>2026-03-22T11:43:49Z</time></trkpt><trkpt lat="43.297638100720455" lon="10.613761341267157"><ele>174.33333333333334</ele><time>2026-03-22T11:43:50Z</time></trkpt><trkpt lat="43.29771716409009" lon="10.613825956689782"><ele>175.5</ele><time>2026-03-22T11:43:51Z</time></trkpt><trkpt lat="43.297785787780924" lon="10.613876310338506"><ele>176.66666666666666</ele><time>2026-03-22T11:43:52Z</time></trkpt><trkpt lat="43.29783851813303" lon="10.613943332124553"><ele>177.83333333333331</ele><time>2026-03-22T11:43:53Z</time></trkpt><trkpt lat="43.297880437447276" lon="10.614011859711482"><ele>179.0</ele><time>2026-03-22T11:43:54Z</time></trkpt><trkpt lat="43.297924380726066" lon="10.614090382812924"><ele>179.0</ele><time>2026-03-22T11:43:55Z</time></trkpt><trkpt lat="43.297975142873014" lon="10.61416825168703"><ele>179.0</ele><time>2026-03-22T11:43:56Z</time></trkpt><trkpt lat="43.2980143196168" lon="10.614272676909573"><ele>179.0</ele><time>2026-03-22T11:43:57Z</time></trkpt><trkpt lat="43.29806359818762" lon="10.614352096417702"><ele>179.0</ele><time>2026-03-22T11:43:58Z</time></trkpt><trkpt lat="43.29808038731645" lon="10.614442546913736"><ele>179.0</ele><time>2026-03-22T11:43:59Z</time></trkpt><trkpt lat="43.29812201912878" lon="10.61454958826534"><ele>179.0</ele><time>2026-03-22T11:44:01Z</time></trkpt><trkpt lat="43.29826379700637" lon="10.614474331261684"><ele>179.75</ele><time>2026-03-22T11:44:02Z</time></trkpt><trkpt lat="43.2983311967804" lon="10.614439610916762"><ele>180.5</ele><time>2026-03-22T11:44:18Z</time></trkpt><trkpt lat="43.298361288305514" lon="10.614719986973057"><ele>181.25</ele><time>2026-03-22T11:44:20Z</time></trkpt><trkpt lat="43.29839266874804" lon="10.614826446096506"><ele>182.0</ele><time>2026-03-22T11:44:21Z</time></trkpt><trkpt lat="43.29837809503589" lon="10.61496114874708"><ele>182.0</ele><time>2026-03-22T11:44:22Z</time></trkpt><trkpt lat="43.29838674020432" lon="10.615141015317171"><ele>182.0</ele><time>2026-03-22T11:44:23Z</time></trkpt><trkpt lat="43.298432382508885" lon="10.615342689583308"><ele>182.0</ele><time>2026-03-22T11:44:24Z</time></trkpt><trkpt lat="43.298488382264296" lon="10.615557614559602"><ele>184.33333333333331</ele><time>2026-03-22T11:44:25Z</time></trkpt><trkpt lat="43.29856940743979" lon="10.615772959408323"><ele>186.66666666666666</ele><time>2026-03-22T11:44:26Z</time></trkpt><trkpt lat="43.2986492972697" lon="10.615980617792685"><ele>189.0</ele><time>2026-03-22T11:44:26.999Z</time></trkpt><trkpt lat="43.29873666384424" lon="10.616210096997214"><ele>192.33333333333331</ele><time>2026-03-22T11:44:27.999Z</time></trkpt><trkpt lat="43.298804992100905" lon="10.616441234603752"><ele>195.66666666666666</ele><time>2026-03-22T11:44:28.999Z</time></trkpt><trkpt lat="43.298853503391854" lon="10.616670146658793"><ele>199.0</ele><time>2026-03-22T11:44:29.999Z</time></trkpt><trkpt lat="43.29888322528984" lon="10.61691569916555"><ele>199.33333333333331</ele><time>2026-03-22T11:44:30.999Z</time></trkpt><trkpt lat="43.29890296046844" lon="10.617181054355422"><ele>199.66666666666669</ele><time>2026-03-22T11:44:31.999Z</time></trkpt><trkpt lat="43.29892399680135" lon="10.617458482606597"><ele>200.0</ele><time>2026-03-22T11:44:32.999Z</time></trkpt><trkpt lat="43.298944691667025" lon="10.617746209592397"><ele>196.66666666666669</ele><time>2026-03-22T11:44:33.999Z</time></trkpt><trkpt lat="43.298962425533595" lon="10.618027475712807"><ele>193.33333333333334</ele><time>2026-03-22T11:44:34.999Z</time></trkpt><trkpt lat="43.29897881774371" lon="10.618287462700765"><ele>190.0</ele><time>2026-03-22T11:44:35.999Z</time></trkpt><trkpt lat="43.29901052241777" lon="10.618535167392961"><ele>191.66666666666669</ele><time>2026-03-22T11:44:36.999Z</time></trkpt><trkpt lat="43.29906500281306" lon="10.618778578577494"><ele>193.33333333333334</ele><time>2026-03-22T11:44:37.999Z</time></trkpt><trkpt lat="43.29915793859676" lon="10.619000037393345"><ele>195.0</ele><time>2026-03-22T11:44:38.999Z</time></trkpt><trkpt lat="43.29925737535728" lon="10.61921588068816"><ele>195.0</ele><time>2026-03-22T11:44:39.999Z</time></trkpt><trkpt lat="43.29938114014013" lon="10.619423591685974"><ele>195.0</ele><time>2026-03-22T11:44:40.999Z</time></trkpt><trkpt lat="43.29953166605134" lon="10.619589662862932"><ele>195.0</ele><time>2026-03-22T11:44:41.999Z</time></trkpt><trkpt lat="43.29968467780288" lon="10.619727069513115"><ele>195.5</ele><time>2026-03-22T11:44:42.999Z</time></trkpt><trkpt lat="43.29982840683222" lon="10.619838895415777"><ele>196.0</ele><time>2026-03-22T11:44:43.999Z</time></trkpt><trkpt lat="43.29995051236762" lon="10.619949507923952"><ele>196.5</ele><time>2026-03-22T11:44:44.999Z</time></trkpt><trkpt lat="43.30004458394614" lon="10.620057474540172"><ele>197.0</ele><time>2026-03-22T11:44:45.999Z</time></trkpt><trkpt lat="43.30013244565148" lon="10.620146884451575"><ele>197.0</ele><time>2026-03-22T11:44:46.999Z</time></trkpt><trkpt lat="43.300188217130525" lon="10.620203725465378"><ele>197.0</ele><time>2026-03-22T11:44:47.999Z</time></trkpt><trkpt lat="43.30019820606281" lon="10.620295348032556"><ele>197.0</ele><time>2026-03-22T11:44:49.999Z</time></trkpt><trkpt lat="43.300258758119" lon="10.620330462351687"><ele>197.0</ele><time>2026-03-22T11:44:53.999Z</time></trkpt><trkpt lat="43.3003184237779" lon="10.620385781120307"><ele>197.0</ele><time>2026-03-22T11:44:57Z</time></trkpt><trkpt lat="43.30038176270699" lon="10.62044449736268"><ele>197.0</ele><time>2026-03-22T11:45:12Z</time></trkpt><trkpt lat="43.30044856255762" lon="10.62050691928381"><ele>197.0</ele><time>2026-03-22T11:45:14Z</time></trkpt><trkpt lat="43.30054215034932" lon="10.620595972943473"><ele>198.6</ele><time>2026-03-22T11:45:16Z</time></trkpt><trkpt lat="43.30061779503218" lon="10.620670306195759"><ele>200.2</ele><time>2026-03-22T11:45:18Z</time></trkpt><trkpt lat="43.30069649650098" lon="10.620750120164308"><ele>201.8</ele><time>2026-03-22T11:45:20Z</time></trkpt><trkpt lat="43.3007529528941" lon="10.6208083817483"><ele>203.4</ele><time>2026-03-22T11:45:22Z</time></trkpt><trkpt lat="43.300826736996605" lon="10.620884524981175"><ele>205.0</ele><time>2026-03-22T11:45:24Z</time></trkpt><trkpt lat="43.300914655034134" lon="10.620980711673571"><ele>205.0</ele><time>2026-03-22T11:45:26Z</time></trkpt><trkpt lat="43.30096623489089" lon="10.62104197769819"><ele>205.0</ele><time>2026-03-22T11:45:27Z</time></trkpt><trkpt lat="43.30105128291564" lon="10.621148262270179"><ele>205.0</ele><time>2026-03-22T11:45:29Z</time></trkpt><trkpt lat="43.301135446887216" lon="10.62125266458445"><ele>205.0</ele><time>2026-03-22T11:45:31Z</time></trkpt><trkpt lat="43.30118125553237" lon="10.621314919595616"><ele>205.0</ele><time>2026-03-22T11:45:34Z</time></trkpt><trkpt lat="43.30127602598198" lon="10.621447608682217"><ele>206.4</ele><time>2026-03-22T11:46:04Z</time></trkpt><trkpt lat="43.301325878467665" lon="10.621521621186437"><ele>207.8</ele><time>2026-03-22T11:46:05Z</time></trkpt><trkpt lat="43.30142386876283" lon="10.621675090556675"><ele>209.2</ele><time>2026-03-22T11:46:07Z</time></trkpt><trkpt lat="43.30147747795844" lon="10.621765343362796"><ele>210.6</ele><time>2026-03-22T11:46:08Z</time></trkpt><trkpt lat="43.301527926028086" lon="10.62185310594072"><ele>212.0</ele><time>2026-03-22T11:46:09Z</time></trkpt><trkpt lat="43.30158575056421" lon="10.621957601022517"><ele>211.66666666666669</ele><time>2026-03-22T11:46:10Z</time></trkpt><trkpt lat="43.30163291832734" lon="10.622048266442155"><ele>211.33333333333334</ele><time>2026-03-22T11:46:11Z</time></trkpt><trkpt lat="43.30167883336516" lon="10.622141683772215"><ele>211.0</ele><time>2026-03-22T11:46:12Z</time></trkpt><trkpt lat="43.30171596386705" lon="10.622220402559027"><ele>210.66666666666669</ele><time>2026-03-22T11:46:13Z</time></trkpt><trkpt lat="43.30175597261765" lon="10.622307101330481"><ele>210.33333333333334</ele><time>2026-03-22T11:46:14Z</time></trkpt><trkpt lat="43.30179377573447" lon="10.62238968179731"><ele>210.0</ele><time>2026-03-22T11:46:15Z</time></trkpt><trkpt lat="43.30183404567147" lon="10.6224776511317"><ele>210.0</ele><time>2026-03-22T11:46:16Z</time></trkpt><trkpt lat="43.301870790433945" lon="10.62255791960941"><ele>210.0</ele><time>2026-03-22T11:46:17Z</time></trkpt><trkpt lat="43.30190667331167" lon="10.622636305395499"><ele>210.0</ele><time>2026-03-22T11:46:18Z</time></trkpt><trkpt lat="43.301985060954564" lon="10.622808139932012"><ele>210.0</ele><time>2026-03-22T11:46:20Z</time></trkpt><trkpt lat="43.302026727014265" lon="10.622900992164595"><ele>210.0</ele><time>2026-03-22T11:46:21Z</time></trkpt><trkpt lat="43.30204336234773" lon="10.62301672492185"><ele>210.0</ele><time>2026-03-22T11:46:22Z</time></trkpt><trkpt lat="43.30205607319452" lon="10.623131010266496"><ele>211.2</ele><time>2026-03-22T11:46:23Z</time></trkpt><trkpt lat="43.302066050863964" lon="10.623246979940351"><ele>212.4</ele><time>2026-03-22T11:46:24Z</time></trkpt><trkpt lat="43.3020753027981" lon="10.623368181469113"><ele>213.60000000000002</ele><time>2026-03-22T11:46:25Z</time></trkpt><trkpt lat="43.30207896316443" lon="10.62348555185765"><ele>214.8</ele><time>2026-03-22T11:46:26Z</time></trkpt><trkpt lat="43.30209591156553" lon="10.623633949904722"><ele>216.0</ele><time>2026-03-22T11:46:27Z</time></trkpt><trkpt lat="43.30210230600427" lon="10.623790284421602"><ele>217.33333333333331</ele><time>2026-03-22T11:46:28Z</time></trkpt><trkpt lat="43.302110359970584" lon="10.623963804520388"><ele>218.66666666666666</ele><time>2026-03-22T11:46:29Z</time></trkpt><trkpt lat="43.30210704471721" lon="10.624128097365222"><ele>220.0</ele><time>2026-03-22T11:46:30Z</time></trkpt><trkpt lat="43.30171415818031" lon="10.624386811483213"><ele>219.99999999999997</ele><time>2026-03-22T11:46:31Z</time></trkpt><trkpt lat="43.30173172606937" lon="10.624478779377041"><ele>220.0</ele><time>2026-03-22T11:46:32Z</time></trkpt><trkpt lat="43.30174982422147" lon="10.624649210664654"><ele>220.0</ele><time>2026-03-22T11:46:34Z</time></trkpt><trkpt lat="43.3017501342341" lon="10.62473756284972"><ele>220.0</ele><time>2026-03-22T11:46:35Z</time></trkpt><trkpt lat="43.30173316785797" lon="10.62482724650507"><ele>219.99999999999997</ele><time>2026-03-22T11:46:36Z</time></trkpt><trkpt lat="43.30172846386941" lon="10.62491437992324"><ele>220.0</ele><time>2026-03-22T11:46:37Z</time></trkpt><trkpt lat="43.301702817086756" lon="10.625098525947944"><ele>221.0</ele><time>2026-03-22T11:46:38.999Z</time></trkpt><trkpt lat="43.30171956007128" lon="10.625192358101208"><ele>222.0</ele><time>2026-03-22T11:46:39.999Z</time></trkpt><trkpt lat="43.30178578912356" lon="10.625313133282393"><ele>223.0</ele><time>2026-03-22T11:46:41.999Z</time></trkpt><trkpt lat="43.30182941566495" lon="10.62537761740511"><ele>224.0</ele><time>2026-03-22T11:46:42.999Z</time></trkpt><trkpt lat="43.30186496252614" lon="10.625459557120443"><ele>225.00000000000003</ele><time>2026-03-22T11:46:43.999Z</time></trkpt><trkpt lat="43.3018739255243" lon="10.625549206672892"><ele>226.0</ele><time>2026-03-22T11:46:44.999Z</time></trkpt><trkpt lat="43.30188305616099" lon="10.625635968574182"><ele>227.0</ele><time>2026-03-22T11:46:45.999Z</time></trkpt><trkpt lat="43.30189569397813" lon="10.625732173393963"><ele>228.00000000000003</ele><time>2026-03-22T11:46:46.999Z</time></trkpt><trkpt lat="43.30190120964484" lon="10.625819035681166"><ele>229.0</ele><time>2026-03-22T11:46:47.999Z</time></trkpt><trkpt lat="43.30192472486081" lon="10.625912406374256"><ele>230.0</ele><time>2026-03-22T11:46:48.999Z</time></trkpt><trkpt lat="43.3019431125407" lon="10.626058710253872"><ele>231.0</ele><time>2026-03-22T11:46:50.999Z</time></trkpt><trkpt lat="43.3019607831337" lon="10.62615596248253"><ele>232.00000000000003</ele><time>2026-03-22T11:46:52.999Z</time></trkpt><trkpt lat="43.30202512044295" lon="10.62618865382996"><ele>233.0</ele><time>2026-03-22T11:46:56.999Z</time></trkpt><trkpt lat="43.30201524021991" lon="10.626092039820442"><ele>233.00000000000003</ele><time>2026-03-22T11:46:59.999Z</time></trkpt><trkpt lat="43.30194875072784" lon="10.625971003180004"><ele>233.0</ele><time>2026-03-22T11:47:02Z</time></trkpt><trkpt lat="43.3019421469563" lon="10.625882918010769"><ele>233.0</ele><time>2026-03-22T11:47:03Z</time></trkpt><trkpt lat="43.30192100085696" lon="10.625800743221236"><ele>233.0</ele><time>2026-03-22T11:47:04Z</time></trkpt><trkpt lat="43.30190600140381" lon="10.625704643695356"><ele>233.00000000000003</ele><time>2026-03-22T11:47:05Z</time></trkpt><trkpt lat="43.30187321431247" lon="10.625625492883678"><ele>233.0</ele><time>2026-03-22T11:47:06Z</time></trkpt><trkpt lat="43.30183130543009" lon="10.625499170404623"><ele>233.00000000000003</ele><time>2026-03-22T11:47:08Z</time></trkpt><trkpt lat="43.301788193212516" lon="10.62537444046812"><ele>233.0</ele><time>2026-03-22T11:47:10Z</time></trkpt><trkpt lat="43.30176992268319" lon="10.625276554482928"><ele>233.0</ele><time>2026-03-22T11:47:11Z</time></trkpt><trkpt lat="43.30172457004581" lon="10.62519447393526"><ele>233.0</ele><time>2026-03-22T11:47:12Z</time></trkpt><trkpt lat="43.30169474843633" lon="10.625028672429771"><ele>233.00000000000003</ele><time>2026-03-22T11:47:14Z</time></trkpt><trkpt lat="43.3017008776484" lon="10.624925767198455"><ele>233.0</ele><time>2026-03-22T11:47:15Z</time></trkpt><trkpt lat="43.30172173010912" lon="10.624819208828885"><ele>232.00000000000003</ele><time>2026-03-22T11:47:16Z</time></trkpt><trkpt lat="43.3017414730806" lon="10.624725875442726"><ele>231.0</ele><time>2026-03-22T11:47:17Z</time></trkpt><trkpt lat="43.301730948245286" lon="10.624636532935982"><ele>230.0</ele><time>2026-03-22T11:47:18Z</time></trkpt><trkpt lat="43.30172458051622" lon="10.624524324428155"><ele>229.0</ele><time>2026-03-22T11:47:19Z</time></trkpt><trkpt lat="43.301709678712385" lon="10.624410125779232"><ele>228.00000000000003</ele><time>2026-03-22T11:47:20Z</time></trkpt><trkpt lat="43.30168853577332" lon="10.62429707541152"><ele>227.0</ele><time>2026-03-22T11:47:21Z</time></trkpt><trkpt lat="43.30167299373656" lon="10.62418471624505"><ele>225.6</ele><time>2026-03-22T11:47:22Z</time></trkpt><trkpt lat="43.301653913469586" lon="10.624054501828699"><ele>224.2</ele><time>2026-03-22T11:47:23Z</time></trkpt><trkpt lat="43.301620402440435" lon="10.623930031600606"><ele>222.8</ele><time>2026-03-22T11:47:24Z</time></trkpt><trkpt lat="43.30160610730799" lon="10.623822833749283"><ele>221.4</ele><time>2026-03-22T11:47:25Z</time></trkpt><trkpt lat="43.301580352334845" lon="10.623682372985266"><ele>220.0</ele><time>2026-03-22T11:47:26Z</time></trkpt><trkpt lat="43.301558141606115" lon="10.623531061718664"><ele>219.2</ele><time>2026-03-22T11:47:27Z</time></trkpt><trkpt lat="43.3015485771046" lon="10.623386582067576"><ele>218.4</ele><time>2026-03-22T11:47:28Z</time></trkpt><trkpt lat="43.301512323360484" lon="10.62325349584515"><ele>217.60000000000002</ele><time>2026-03-22T11:47:29Z</time></trkpt><trkpt lat="43.30150931232828" lon="10.623126587537149"><ele>216.8</ele><time>2026-03-22T11:47:30Z</time></trkpt><trkpt lat="43.30148881220963" lon="10.62299705130704"><ele>216.0</ele><time>2026-03-22T11:47:31Z</time></trkpt><trkpt lat="43.30146262387315" lon="10.622862234396075"><ele>214.8</ele><time>2026-03-22T11:47:32Z</time></trkpt><trkpt lat="43.30142927980208" lon="10.622731246007616"><ele>213.60000000000002</ele><time>2026-03-22T11:47:33Z</time></trkpt><trkpt lat="43.301375127303515" lon="10.622595948759061"><ele>212.4</ele><time>2026-03-22T11:47:34Z</time></trkpt><trkpt lat="43.301332277493934" lon="10.622460715627547"><ele>211.2</ele><time>2026-03-22T11:47:35Z</time></trkpt><trkpt lat="43.3012610736231" lon="10.622340091892333"><ele>210.0</ele><time>2026-03-22T11:47:36Z</time></trkpt><trkpt lat="43.30120417249891" lon="10.622222149601683"><ele>210.75</ele><time>2026-03-22T11:47:37Z</time></trkpt><trkpt lat="43.30113760549227" lon="10.622086836661863"><ele>211.5</ele><time>2026-03-22T11:47:38Z</time></trkpt><trkpt lat="43.301073964536556" lon="10.621939822762418"><ele>212.25</ele><time>2026-03-22T11:47:39Z</time></trkpt><trkpt lat="43.301006295300766" lon="10.621811463931406"><ele>213.0</ele><time>2026-03-22T11:47:40Z</time></trkpt><trkpt lat="43.3009443262751" lon="10.6216977336011"><ele>213.0</ele><time>2026-03-22T11:47:41Z</time></trkpt><trkpt lat="43.30088446592517" lon="10.621587873207606"><ele>213.0</ele><time>2026-03-22T11:47:42Z</time></trkpt><trkpt lat="43.30081399870664" lon="10.621487947526838"><ele>213.0</ele><time>2026-03-22T11:47:43Z</time></trkpt><trkpt lat="43.300759850640105" lon="10.621383681301445"><ele>213.0</ele><time>2026-03-22T11:47:44Z</time></trkpt><trkpt lat="43.300700155983755" lon="10.621285033584694"><ele>213.0</ele><time>2026-03-22T11:47:45Z</time></trkpt><trkpt lat="43.30063640974956" lon="10.621185208782773"><ele>213.2</ele><time>2026-03-22T11:47:46Z</time></trkpt><trkpt lat="43.30057324720831" lon="10.621078289042579"><ele>213.4</ele><time>2026-03-22T11:47:47Z</time></trkpt><trkpt lat="43.300523250045515" lon="10.62097044337212"><ele>213.59999999999997</ele><time>2026-03-22T11:47:48Z</time></trkpt><trkpt lat="43.300466314907744" lon="10.620870244807097"><ele>213.79999999999998</ele><time>2026-03-22T11:47:49Z</time></trkpt><trkpt lat="43.300412193299664" lon="10.620773852457546"><ele>214.0</ele><time>2026-03-22T11:47:50Z</time></trkpt><trkpt lat="43.30034303072575" lon="10.620644470095602"><ele>214.0</ele><time>2026-03-22T11:47:52Z</time></trkpt><trkpt lat="43.30030655443584" lon="10.620529860196953"><ele>213.99999999999997</ele><time>2026-03-22T11:47:54Z</time></trkpt><trkpt lat="43.30038904598534" lon="10.620459103195483"><ele>213.99999999999997</ele><time>2026-03-22T11:48:02Z</time></trkpt><trkpt lat="43.30047055435445" lon="10.620499617443986"><ele>214.0</ele><time>2026-03-22T11:48:03Z</time></trkpt><trkpt lat="43.30054790458523" lon="10.620578593397942"><ele>214.0</ele><time>2026-03-22T11:48:04Z</time></trkpt><trkpt lat="43.30063343770583" lon="10.620645332772014"><ele>213.75</ele><time>2026-03-22T11:48:05Z</time></trkpt><trkpt lat="43.30075142388681" lon="10.620752011370948"><ele>213.5</ele><time>2026-03-22T11:48:06Z</time></trkpt><trkpt lat="43.30087734089004" lon="10.620860468269337"><ele>213.25</ele><time>2026-03-22T11:48:07Z</time></trkpt><trkpt lat="43.300996647246855" lon="10.6209824498627"><ele>213.0</ele><time>2026-03-22T11:48:08Z</time></trkpt><trkpt lat="43.30111562482338" lon="10.62115200645381"><ele>213.0</ele><time>2026-03-22T11:48:09Z</time></trkpt><trkpt lat="43.30125466981023" lon="10.621326780093097"><ele>213.0</ele><time>2026-03-22T11:48:10Z</time></trkpt><trkpt lat="43.301375631168945" lon="10.621514219401073"><ele>213.0</ele><time>2026-03-22T11:48:11Z</time></trkpt><trkpt lat="43.30150097286798" lon="10.621711232708412"><ele>212.66666666666669</ele><time>2026-03-22T11:48:12Z</time></trkpt><trkpt lat="43.30162955262795" lon="10.62192793716785"><ele>212.33333333333334</ele><time>2026-03-22T11:48:13Z</time></trkpt><trkpt lat="43.30176128977383" lon="10.62217680552503"><ele>212.0</ele><time>2026-03-22T11:48:14Z</time></trkpt><trkpt lat="43.30187059855443" lon="10.622450178361278"><ele>211.0</ele><time>2026-03-22T11:48:15Z</time></trkpt><trkpt lat="43.302009094270616" lon="10.622714426986192"><ele>210.0</ele><time>2026-03-22T11:48:16Z</time></trkpt><trkpt lat="43.30213267759377" lon="10.622993227002995"><ele>213.0</ele><time>2026-03-22T11:48:17Z</time></trkpt><trkpt lat="43.30224348774578" lon="10.623276916438321"><ele>216.0</ele><time>2026-03-22T11:48:18Z</time></trkpt><trkpt lat="43.302365306998105" lon="10.623559798993364"><ele>218.5</ele><time>2026-03-22T11:48:19Z</time></trkpt><trkpt lat="43.30251456345202" lon="10.624116776856058"><ele>221.0</ele><time>2026-03-22T11:48:21Z</time></trkpt><trkpt lat="43.302548804906166" lon="10.62437181211375"><ele>222.0</ele><time>2026-03-22T11:48:22Z</time></trkpt><trkpt lat="43.302581220119556" lon="10.624627751790046"><ele>223.0</ele><time>2026-03-22T11:48:23Z</time></trkpt><trkpt lat="43.3026210907189" lon="10.624860541107171"><ele>224.0</ele><time>2026-03-22T11:48:24Z</time></trkpt><trkpt lat="43.302675958136724" lon="10.625077751585373"><ele>224.0</ele><time>2026-03-22T11:48:25Z</time></trkpt><trkpt lat="43.30275181023306" lon="10.625291473535704"><ele>224.0</ele><time>2026-03-22T11:48:26Z</time></trkpt><trkpt lat="43.30286375277018" lon="10.62549141868647"><ele>224.0</ele><time>2026-03-22T11:48:27Z</time></trkpt><trkpt lat="43.30298098148665" lon="10.625692415582424"><ele>228.66666666666669</ele><time>2026-03-22T11:48:28Z</time></trkpt><trkpt lat="43.303115369434934" lon="10.625876958143122"><ele>233.33333333333331</ele><time>2026-03-22T11:48:29Z</time></trkpt><trkpt lat="43.30324699209948" lon="10.62603471433576"><ele>238.0</ele><time>2026-03-22T11:48:30Z</time></trkpt><trkpt lat="43.30334205877073" lon="10.62618594961915"><ele>238.5</ele><time>2026-03-22T11:48:31Z</time></trkpt><trkpt lat="43.30343763298592" lon="10.626312837570797"><ele>239.0</ele><time>2026-03-22T11:48:32Z</time></trkpt><trkpt lat="43.30351798185057" lon="10.626447066681388"><ele>239.5</ele><time>2026-03-22T11:48:33Z</time></trkpt><trkpt lat="43.30358371487188" lon="10.626618396525604"><ele>240.0</ele><time>2026-03-22T11:48:34Z</time></trkpt><trkpt lat="43.30365243926326" lon="10.626817467397386"><ele>241.0</ele><time>2026-03-22T11:48:35Z</time></trkpt><trkpt lat="43.30371099795458" lon="10.627044222456679"><ele>242.0</ele><time>2026-03-22T11:48:36Z</time></trkpt><trkpt lat="43.303775876585796" lon="10.627298446486012"><ele>243.0</ele><time>2026-03-22T11:48:37Z</time></trkpt><trkpt lat="43.303844900746185" lon="10.627561557512898"><ele>242.33333333333331</ele><time>2026-03-22T11:48:38Z</time></trkpt><trkpt lat="43.303923425116686" lon="10.627825468004275"><ele>241.66666666666666</ele><time>2026-03-22T11:48:39Z</time></trkpt><trkpt lat="43.30401970884949" lon="10.628083511479126"><ele>241.0</ele><time>2026-03-22T11:48:40Z</time></trkpt><trkpt lat="43.304137452375414" lon="10.628349800703974"><ele>241.0</ele><time>2026-03-22T11:48:41Z</time></trkpt><trkpt lat="43.30428829113244" lon="10.6286227857853"><ele>241.0</ele><time>2026-03-22T11:48:42Z</time></trkpt><trkpt lat="43.30446028169869" lon="10.628847380586391"><ele>244.33333333333331</ele><time>2026-03-22T11:48:43Z</time></trkpt><trkpt lat="43.304602409127845" lon="10.629059674927179"><ele>247.66666666666669</ele><time>2026-03-22T11:48:44Z</time></trkpt><trkpt lat="43.30476377068281" lon="10.629245743787365"><ele>251.0</ele><time>2026-03-22T11:48:44.999Z</time></trkpt><trkpt lat="43.30494047445432" lon="10.629429056495292"><ele>246.33333333333334</ele><time>2026-03-22T11:48:45.999Z</time></trkpt><trkpt lat="43.30511892156558" lon="10.629566677639021"><ele>241.66666666666669</ele><time>2026-03-22T11:48:46.999Z</time></trkpt><trkpt lat="43.30531678450785" lon="10.629696751136683"><ele>237.0</ele><time>2026-03-22T11:48:47.999Z</time></trkpt><trkpt lat="43.30553301656904" lon="10.629817672123957"><ele>232.5</ele><time>2026-03-22T11:48:48.999Z</time></trkpt><trkpt lat="43.305759194983466" lon="10.629929702770244"><ele>228.0</ele><time>2026-03-22T11:48:49.999Z</time></trkpt><trkpt lat="43.30599686586129" lon="10.630053893786627"><ele>228.0</ele><time>2026-03-22T11:48:50.999Z</time></trkpt><trkpt lat="43.3062291894133" lon="10.630175925784801"><ele>228.0</ele><time>2026-03-22T11:48:51.999Z</time></trkpt><trkpt lat="43.306475684258444" lon="10.630303067835"><ele>225.5</ele><time>2026-03-22T11:48:52.999Z</time></trkpt><trkpt lat="43.30671974602158" lon="10.630430505929692"><ele>223.0</ele><time>2026-03-22T11:48:53.999Z</time></trkpt><trkpt lat="43.30719800352754" lon="10.630679560352656"><ele>231.5</ele><time>2026-03-22T11:48:55.999Z</time></trkpt><trkpt lat="43.3074296720221" lon="10.630801239749331"><ele>240.0</ele><time>2026-03-22T11:48:56.999Z</time></trkpt><trkpt lat="43.307653362009944" lon="10.630919824519319"><ele>240.0</ele><time>2026-03-22T11:48:57.999Z</time></trkpt><trkpt lat="43.30785172402402" lon="10.631027648414063"><ele>240.0</ele><time>2026-03-22T11:48:58.999Z</time></trkpt><trkpt lat="43.30802634717529" lon="10.631111245711852"><ele>240.0</ele><time>2026-03-22T11:48:59.999Z</time></trkpt><trkpt lat="43.308174984524996" lon="10.631187721478096"><ele>237.25</ele><time>2026-03-22T11:49:00.999Z</time></trkpt><trkpt lat="43.308311283560556" lon="10.631235088623539"><ele>234.5</ele><time>2026-03-22T11:49:01.999Z</time></trkpt><trkpt lat="43.30843812998132" lon="10.631217336206424"><ele>231.75</ele><time>2026-03-22T11:49:02.999Z</time></trkpt><trkpt lat="43.308571595775796" lon="10.63114669909273"><ele>229.0</ele><time>2026-03-22T11:49:03.999Z</time></trkpt><trkpt lat="43.30870232186415" lon="10.631030273274646"><ele>231.66666666666666</ele><time>2026-03-22T11:49:04.999Z</time></trkpt><trkpt lat="43.30882547427793" lon="10.630872645982423"><ele>234.33333333333331</ele><time>2026-03-22T11:49:05.999Z</time></trkpt><trkpt lat="43.30894313226486" lon="10.630677700421769"><ele>237.0</ele><time>2026-03-22T11:49:07Z</time></trkpt><trkpt lat="43.30905458062691" lon="10.63045858137621"><ele>239.66666666666669</ele><time>2026-03-22T11:49:08Z</time></trkpt><trkpt lat="43.30917504512384" lon="10.630243633431899"><ele>242.33333333333334</ele><time>2026-03-22T11:49:09Z</time></trkpt><trkpt lat="43.30930493768962" lon="10.63003158616516"><ele>245.0</ele><time>2026-03-22T11:49:10Z</time></trkpt><trkpt lat="43.30944100352426" lon="10.629828199838286"><ele>245.0</ele><time>2026-03-22T11:49:11Z</time></trkpt><trkpt lat="43.30958698274159" lon="10.6296560969887"><ele>245.0</ele><time>2026-03-22T11:49:12Z</time></trkpt><trkpt lat="43.30974927888454" lon="10.629514041410843"><ele>245.0</ele><time>2026-03-22T11:49:13Z</time></trkpt><trkpt lat="43.30991944560128" lon="10.629428165351614"><ele>245.0</ele><time>2026-03-22T11:49:14Z</time></trkpt><trkpt lat="43.31009299517552" lon="10.62939979525017"><ele>245.0</ele><time>2026-03-22T11:49:15Z</time></trkpt><trkpt lat="43.31028061238543" lon="10.629396620628103"><ele>245.0</ele><time>2026-03-22T11:49:16Z</time></trkpt><trkpt lat="43.310475102207086" lon="10.629387866704624"><ele>248.0</ele><time>2026-03-22T11:49:17Z</time></trkpt><trkpt lat="43.31065867439578" lon="10.629385366740387"><ele>251.0</ele><time>2026-03-22T11:49:18Z</time></trkpt><trkpt lat="43.310817131433296" lon="10.629384187384725"><ele>254.0</ele><time>2026-03-22T11:49:19Z</time></trkpt><trkpt lat="43.31095794057162" lon="10.629413288984493"><ele>254.0</ele><time>2026-03-22T11:49:20Z</time></trkpt><trkpt lat="43.31106798330463" lon="10.629476217777265"><ele>254.0</ele><time>2026-03-22T11:49:21Z</time></trkpt><trkpt lat="43.311157764185324" lon="10.62952095154806"><ele>254.0</ele><time>2026-03-22T11:49:22Z</time></trkpt><trkpt lat="43.311228148121565" lon="10.629522258032445"><ele>254.0</ele><time>2026-03-22T11:49:23Z</time></trkpt><trkpt lat="43.31135628822445" lon="10.629375696955035"><ele>257.0</ele><time>2026-03-22T11:49:25Z</time></trkpt><trkpt lat="43.311437403962096" lon="10.629241341467733"><ele>260.0</ele><time>2026-03-22T11:49:26Z</time></trkpt><trkpt lat="43.31154588503651" lon="10.629119831143848"><ele>263.0</ele><time>2026-03-22T11:49:27Z</time></trkpt><trkpt lat="43.31168788891821" lon="10.629030716351817"><ele>266.0</ele><time>2026-03-22T11:49:28Z</time></trkpt><trkpt lat="43.3118417378236" lon="10.628935967531879"><ele>266.0</ele><time>2026-03-22T11:49:29Z</time></trkpt><trkpt lat="43.31199267697183" lon="10.628831327077826"><ele>266.0</ele><time>2026-03-22T11:49:30Z</time></trkpt><trkpt lat="43.31213532746805" lon="10.628739764493009"><ele>266.0</ele><time>2026-03-22T11:49:31Z</time></trkpt><trkpt lat="43.31228837102267" lon="10.628732509790433"><ele>268.5</ele><time>2026-03-22T11:49:32Z</time></trkpt><trkpt lat="43.31244080315727" lon="10.628754894358252"><ele>271.0</ele><time>2026-03-22T11:49:33Z</time></trkpt><trkpt lat="43.31254157516776" lon="10.628841835698019"><ele>273.5</ele><time>2026-03-22T11:49:34Z</time></trkpt><trkpt lat="43.312608405914425" lon="10.628968684167564"><ele>276.0</ele><time>2026-03-22T11:49:35Z</time></trkpt><trkpt lat="43.31267173141646" lon="10.629162809026122"><ele>276.0</ele><time>2026-03-22T11:49:36Z</time></trkpt><trkpt lat="43.31270304079903" lon="10.629388172633453"><ele>276.0</ele><time>2026-03-22T11:49:37Z</time></trkpt><trkpt lat="43.3127315144598" lon="10.629646314772245"><ele>276.0</ele><time>2026-03-22T11:49:38Z</time></trkpt><trkpt lat="43.31275643177379" lon="10.629886923308026"><ele>276.3333333333333</ele><time>2026-03-22T11:49:39Z</time></trkpt><trkpt lat="43.312779768831774" lon="10.630106760958329"><ele>276.66666666666663</ele><time>2026-03-22T11:49:40Z</time></trkpt><trkpt lat="43.31282410006796" lon="10.63031071332346"><ele>277.0</ele><time>2026-03-22T11:49:41Z</time></trkpt><trkpt lat="43.312856525848815" lon="10.630497202327927"><ele>277.5</ele><time>2026-03-22T11:49:42Z</time></trkpt><trkpt lat="43.312925512324455" lon="10.630650483395918"><ele>278.0</ele><time>2026-03-22T11:49:43Z</time></trkpt><trkpt lat="43.31302923489379" lon="10.630775165575633"><ele>278.5</ele><time>2026-03-22T11:49:44Z</time></trkpt><trkpt lat="43.31316648815363" lon="10.630882920393434"><ele>279.0</ele><time>2026-03-22T11:49:45Z</time></trkpt><trkpt lat="43.31332832629181" lon="10.630963746355185"><ele>275.3333333333333</ele><time>2026-03-22T11:49:46Z</time></trkpt><trkpt lat="43.31350495837494" lon="10.6310165901907"><ele>271.66666666666663</ele><time>2026-03-22T11:49:47Z</time></trkpt><trkpt lat="43.31368487686685" lon="10.631039322137918"><ele>268.0</ele><time>2026-03-22T11:49:48Z</time></trkpt><trkpt lat="43.31385826204396" lon="10.630998497317291"><ele>268.3333333333333</ele><time>2026-03-22T11:49:49Z</time></trkpt><trkpt lat="43.31402801532635" lon="10.630906267753858"><ele>268.6666666666667</ele><time>2026-03-22T11:49:50Z</time></trkpt><trkpt lat="43.31416828520583" lon="10.630766453056546"><ele>269.0</ele><time>2026-03-22T11:49:51Z</time></trkpt><trkpt lat="43.31428551484709" lon="10.63056317669793"><ele>269.0</ele><time>2026-03-22T11:49:52Z</time></trkpt><trkpt lat="43.31440604629064" lon="10.63036213959286"><ele>269.0</ele><time>2026-03-22T11:49:53Z</time></trkpt><trkpt lat="43.31452539924722" lon="10.63015167727718"><ele>269.0</ele><time>2026-03-22T11:49:54Z</time></trkpt><trkpt lat="43.314645088308275" lon="10.629938817250883"><ele>269.0</ele><time>2026-03-22T11:49:55Z</time></trkpt><trkpt lat="43.314769922145224" lon="10.62972790954686"><ele>269.0</ele><time>2026-03-22T11:49:56Z</time></trkpt><trkpt lat="43.31488156420672" lon="10.629542538321992"><ele>269.0</ele><time>2026-03-22T11:49:57Z</time></trkpt><trkpt lat="43.31498930474045" lon="10.629364736598387"><ele>266.0</ele><time>2026-03-22T11:49:58Z</time></trkpt><trkpt lat="43.315098551796886" lon="10.629184389197333"><ele>263.0</ele><time>2026-03-22T11:49:59Z</time></trkpt><trkpt lat="43.315208461316786" lon="10.629001697198946"><ele>260.0</ele><time>2026-03-22T11:50:00Z</time></trkpt><trkpt lat="43.31531267949774" lon="10.628827247656169"><ele>260.0</ele><time>2026-03-22T11:50:01Z</time></trkpt><trkpt lat="43.315416863168636" lon="10.628649411649224"><ele>260.0</ele><time>2026-03-22T11:50:02Z</time></trkpt><trkpt lat="43.31552736091869" lon="10.628475084849258"><ele>260.0</ele><time>2026-03-22T11:50:03Z</time></trkpt><trkpt lat="43.31563663049947" lon="10.628314201743565"><ele>260.25</ele><time>2026-03-22T11:50:04Z</time></trkpt><trkpt lat="43.31573333570677" lon="10.628165001949014"><ele>260.5</ele><time>2026-03-22T11:50:05Z</time></trkpt><trkpt lat="43.31582901699107" lon="10.628022416399746"><ele>260.75</ele><time>2026-03-22T11:50:06Z</time></trkpt><trkpt lat="43.315923259614685" lon="10.627896486414345"><ele>261.0</ele><time>2026-03-22T11:50:07Z</time></trkpt><trkpt lat="43.31600591221909" lon="10.627798933518513"><ele>261.0</ele><time>2026-03-22T11:50:08Z</time></trkpt><trkpt lat="43.31607129796665" lon="10.627719083588582"><ele>261.0</ele><time>2026-03-22T11:50:09Z</time></trkpt><trkpt lat="43.31614750933734" lon="10.627632036282284"><ele>261.0</ele><time>2026-03-22T11:50:10Z</time></trkpt><trkpt lat="43.316253002588425" lon="10.62753908937842"><ele>261.0</ele><time>2026-03-22T11:50:11Z</time></trkpt><trkpt lat="43.316379380468184" lon="10.627438677171378"><ele>261.6666666666667</ele><time>2026-03-22T11:50:12Z</time></trkpt><trkpt lat="43.31650778907407" lon="10.627335901848147"><ele>262.33333333333337</ele><time>2026-03-22T11:50:13Z</time></trkpt><trkpt lat="43.31665592024523" lon="10.6272336242473"><ele>263.0</ele><time>2026-03-22T11:50:14Z</time></trkpt><trkpt lat="43.31682790082923" lon="10.627137021033178"><ele>263.0</ele><time>2026-03-22T11:50:15Z</time></trkpt><trkpt lat="43.317015929549584" lon="10.627053408612726"><ele>263.0</ele><time>2026-03-22T11:50:16Z</time></trkpt><trkpt lat="43.31720225579708" lon="10.626971427650103"><ele>263.0</ele><time>2026-03-22T11:50:17Z</time></trkpt><trkpt lat="43.3173871608547" lon="10.626896689980121"><ele>262.6666666666667</ele><time>2026-03-22T11:50:18Z</time></trkpt><trkpt lat="43.31756084822429" lon="10.626820989172241"><ele>262.3333333333333</ele><time>2026-03-22T11:50:19Z</time></trkpt><trkpt lat="43.317719347677965" lon="10.626743005937861"><ele>262.0</ele><time>2026-03-22T11:50:20Z</time></trkpt><trkpt lat="43.317877024542824" lon="10.626679913607562"><ele>262.0</ele><time>2026-03-22T11:50:21Z</time></trkpt><trkpt lat="43.31803116484097" lon="10.62661406727973"><ele>262.0</ele><time>2026-03-22T11:50:22Z</time></trkpt><trkpt lat="43.31818604191828" lon="10.626550763968117"><ele>262.0</ele><time>2026-03-22T11:50:23Z</time></trkpt><trkpt lat="43.31833470803009" lon="10.626493851797736"><ele>261.25</ele><time>2026-03-22T11:50:24Z</time></trkpt><trkpt lat="43.31848262821315" lon="10.626425681317174"><ele>260.5</ele><time>2026-03-22T11:50:25Z</time></trkpt><trkpt lat="43.318618582744925" lon="10.626352491188845"><ele>259.75</ele><time>2026-03-22T11:50:26Z</time></trkpt><trkpt lat="43.318741332437064" lon="10.626251550483774"><ele>259.0</ele><time>2026-03-22T11:50:27Z</time></trkpt><trkpt lat="43.31886362586376" lon="10.626099598249269"><ele>257.3333333333333</ele><time>2026-03-22T11:50:28Z</time></trkpt><trkpt lat="43.31896085923852" lon="10.625914416941864"><ele>255.66666666666669</ele><time>2026-03-22T11:50:29Z</time></trkpt><trkpt lat="43.31902934508143" lon="10.625695317018941"><ele>254.0</ele><time>2026-03-22T11:50:30Z</time></trkpt><trkpt lat="43.31906903124862" lon="10.625471510860239"><ele>253.2</ele><time>2026-03-22T11:50:31Z</time></trkpt><trkpt lat="43.31909467398048" lon="10.625266165297042"><ele>252.39999999999998</ele><time>2026-03-22T11:50:32Z</time></trkpt><trkpt lat="43.319144191092114" lon="10.625116774651964"><ele>251.6</ele><time>2026-03-22T11:50:33Z</time></trkpt><trkpt lat="43.31919754532963" lon="10.625011166105121"><ele>250.8</ele><time>2026-03-22T11:50:34Z</time></trkpt><trkpt lat="43.31924496791285" lon="10.624943264085283"><ele>250.0</ele><time>2026-03-22T11:50:35Z</time></trkpt><trkpt lat="43.31926396703405" lon="10.624758018067377"><ele>250.0</ele><time>2026-03-22T11:50:37Z</time></trkpt><trkpt lat="43.319265497709885" lon="10.624617149848678"><ele>250.0</ele><time>2026-03-22T11:50:38Z</time></trkpt><trkpt lat="43.31927498142559" lon="10.624473600935882"><ele>250.0</ele><time>2026-03-22T11:50:39Z</time></trkpt><trkpt lat="43.31929735315306" lon="10.624329597611702"><ele>250.0</ele><time>2026-03-22T11:50:39.999Z</time></trkpt><trkpt lat="43.31932544946797" lon="10.624189663228323"><ele>250.0</ele><time>2026-03-22T11:50:40.999Z</time></trkpt><trkpt lat="43.319361441773246" lon="10.624049211181255"><ele>249.8</ele><time>2026-03-22T11:50:41.999Z</time></trkpt><trkpt lat="43.319377817825675" lon="10.623909295756135"><ele>249.6</ele><time>2026-03-22T11:50:42.999Z</time></trkpt><trkpt lat="43.31939860831402" lon="10.623772669180422"><ele>249.39999999999998</ele><time>2026-03-22T11:50:43.999Z</time></trkpt><trkpt lat="43.319395398008446" lon="10.623639617767875"><ele>249.2</ele><time>2026-03-22T11:50:44.999Z</time></trkpt><trkpt lat="43.31938987880165" lon="10.623497226994422"><ele>249.0</ele><time>2026-03-22T11:50:45.999Z</time></trkpt><trkpt lat="43.319365602873035" lon="10.62334638497704"><ele>248.25</ele><time>2026-03-22T11:50:46.999Z</time></trkpt><trkpt lat="43.31933894257183" lon="10.623191812008171"><ele>247.5</ele><time>2026-03-22T11:50:47.999Z</time></trkpt><trkpt lat="43.31932407986649" lon="10.623045983291306"><ele>246.75</ele><time>2026-03-22T11:50:48.999Z</time></trkpt><trkpt lat="43.31932181085506" lon="10.62289441822808"><ele>246.0</ele><time>2026-03-22T11:50:49.999Z</time></trkpt><trkpt lat="43.31933380412497" lon="10.622731420273803"><ele>245.8</ele><time>2026-03-22T11:50:50.999Z</time></trkpt><trkpt lat="43.319364323182185" lon="10.62256879519822"><ele>245.60000000000002</ele><time>2026-03-22T11:50:51.999Z</time></trkpt><trkpt lat="43.31939422006724" lon="10.62242301167789"><ele>245.4</ele><time>2026-03-22T11:50:52.999Z</time></trkpt><trkpt lat="43.319428923742514" lon="10.622294308519358"><ele>245.2</ele><time>2026-03-22T11:50:53.999Z</time></trkpt><trkpt lat="43.31945745707084" lon="10.622204126931775"><ele>245.0</ele><time>2026-03-22T11:50:54.999Z</time></trkpt><trkpt lat="43.31948040129478" lon="10.622120234349504"><ele>245.0</ele><time>2026-03-22T11:50:55.999Z</time></trkpt><trkpt lat="43.31949415739304" lon="10.622022679012346"><ele>245.0</ele><time>2026-03-22T11:50:56.999Z</time></trkpt><trkpt lat="43.31951601659455" lon="10.621857938195246"><ele>245.0</ele><time>2026-03-22T11:50:58.999Z</time></trkpt><trkpt lat="43.319531787154226" lon="10.621761495458431"><ele>245.0</ele><time>2026-03-22T11:50:59.999Z</time></trkpt><trkpt lat="43.319544721688445" lon="10.621667620542016"><ele>245.0</ele><time>2026-03-22T11:51:00.999Z</time></trkpt><trkpt lat="43.319559963385906" lon="10.6215031190081"><ele>244.8</ele><time>2026-03-22T11:51:02.999Z</time></trkpt><trkpt lat="43.31958157150801" lon="10.62142036097924"><ele>244.6</ele><time>2026-03-22T11:51:03.999Z</time></trkpt><trkpt lat="43.31959056935729" lon="10.621243787750714"><ele>244.39999999999998</ele><time>2026-03-22T11:51:05.999Z</time></trkpt><trkpt lat="43.31959448540325" lon="10.621074983725315"><ele>244.2</ele><time>2026-03-22T11:51:07.999Z</time></trkpt><trkpt lat="43.31958939806737" lon="10.620958695553886"><ele>244.0</ele><time>2026-03-22T11:51:08.999Z</time></trkpt><trkpt lat="43.31956752460596" lon="10.620845602239896"><ele>243.49999999999997</ele><time>2026-03-22T11:51:09.999Z</time></trkpt><trkpt lat="43.31955658977647" lon="10.620749374285051"><ele>243.0</ele><time>2026-03-22T11:51:10.999Z</time></trkpt><trkpt lat="43.3195419275906" lon="10.620636567984636"><ele>242.5</ele><time>2026-03-22T11:51:11.999Z</time></trkpt><trkpt lat="43.319536186387175" lon="10.620509209115854"><ele>242.0</ele><time>2026-03-22T11:51:13Z</time></trkpt><trkpt lat="43.31948027197894" lon="10.620399847676051"><ele>241.49999999999997</ele><time>2026-03-22T11:51:14Z</time></trkpt><trkpt lat="43.319458807854396" lon="10.620281820752783"><ele>241.0</ele><time>2026-03-22T11:51:15Z</time></trkpt><trkpt lat="43.31944390058655" lon="10.620164741353914"><ele>240.33333333333331</ele><time>2026-03-22T11:51:16Z</time></trkpt><trkpt lat="43.31943285392573" lon="10.620045663478313"><ele>239.66666666666666</ele><time>2026-03-22T11:51:17Z</time></trkpt><trkpt lat="43.31941633777598" lon="10.619934127038718"><ele>239.0</ele><time>2026-03-22T11:51:18Z</time></trkpt><trkpt lat="43.319398868731895" lon="10.619846209016623"><ele>238.33333333333331</ele><time>2026-03-22T11:51:19Z</time></trkpt><trkpt lat="43.3193788288669" lon="10.619737393475377"><ele>237.66666666666666</ele><time>2026-03-22T11:51:20Z</time></trkpt><trkpt lat="43.31935156887318" lon="10.619641934565424"><ele>237.0</ele><time>2026-03-22T11:51:21Z</time></trkpt><trkpt lat="43.31932099384311" lon="10.619538001389273"><ele>236.66666666666666</ele><time>2026-03-22T11:51:22Z</time></trkpt><trkpt lat="43.31926709789476" lon="10.61943872435367"><ele>236.33333333333331</ele><time>2026-03-22T11:51:23Z</time></trkpt><trkpt lat="43.31921093119894" lon="10.619346777585141"><ele>236.0</ele><time>2026-03-22T11:51:24Z</time></trkpt><trkpt lat="43.3191679218808" lon="10.619260343382397"><ele>235.66666666666666</ele><time>2026-03-22T11:51:25Z</time></trkpt><trkpt lat="43.31912764894324" lon="10.619142453233469"><ele>235.33333333333331</ele><time>2026-03-22T11:51:26Z</time></trkpt><trkpt lat="43.31908993849972" lon="10.619022096877416"><ele>235.0</ele><time>2026-03-22T11:51:27Z</time></trkpt><trkpt lat="43.31904999517725" lon="10.618898131897213"><ele>235.0</ele><time>2026-03-22T11:51:28Z</time></trkpt><trkpt lat="43.31900694931509" lon="10.61877336716649"><ele>235.0</ele><time>2026-03-22T11:51:29Z</time></trkpt><trkpt lat="43.31894018302649" lon="10.618663753539948"><ele>235.0</ele><time>2026-03-22T11:51:30Z</time></trkpt><trkpt lat="43.31887587753486" lon="10.618567858573533"><ele>235.0</ele><time>2026-03-22T11:51:31Z</time></trkpt><trkpt lat="43.318790979809634" lon="10.618490356607202"><ele>235.0</ele><time>2026-03-22T11:51:32Z</time></trkpt><trkpt lat="43.318702557018256" lon="10.618418202797754"><ele>233.99999999999997</ele><time>2026-03-22T11:51:33Z</time></trkpt><trkpt lat="43.318633967679745" lon="10.618341340354593"><ele>233.0</ele><time>2026-03-22T11:51:34Z</time></trkpt><trkpt lat="43.31858955601659" lon="10.618241422678567"><ele>232.0</ele><time>2026-03-22T11:51:35Z</time></trkpt><trkpt lat="43.31854911066704" lon="10.618138529762245"><ele>231.0</ele><time>2026-03-22T11:51:36Z</time></trkpt><trkpt lat="43.31851707822357" lon="10.618026202718463"><ele>229.99999999999997</ele><time>2026-03-22T11:51:37Z</time></trkpt><trkpt lat="43.318493861595975" lon="10.617898591176504"><ele>229.0</ele><time>2026-03-22T11:51:38Z</time></trkpt><trkpt lat="43.31847734841714" lon="10.617775553248913"><ele>228.99999999999997</ele><time>2026-03-22T11:51:39Z</time></trkpt><trkpt lat="43.31845515061683" lon="10.617655652766"><ele>229.0</ele><time>2026-03-22T11:51:40Z</time></trkpt><trkpt lat="43.31843083106767" lon="10.617541049578175"><ele>229.0</ele><time>2026-03-22T11:51:41Z</time></trkpt><trkpt lat="43.318410615278864" lon="10.617428681478426"><ele>229.0</ele><time>2026-03-22T11:51:42Z</time></trkpt><trkpt lat="43.31839267647441" lon="10.617317620747466"><ele>228.99999999999997</ele><time>2026-03-22T11:51:43Z</time></trkpt><trkpt lat="43.318395216921644" lon="10.61720744503514"><ele>229.0</ele><time>2026-03-22T11:51:44Z</time></trkpt><trkpt lat="43.31841560610126" lon="10.617098610739818"><ele>228.0</ele><time>2026-03-22T11:51:45Z</time></trkpt><trkpt lat="43.31843644327541" lon="10.616962591121961"><ele>226.99999999999997</ele><time>2026-03-22T11:51:46Z</time></trkpt><trkpt lat="43.318436360560625" lon="10.616853161629331"><ele>225.99999999999997</ele><time>2026-03-22T11:51:47Z</time></trkpt><trkpt lat="43.31842990560552" lon="10.616701121269738"><ele>225.0</ele><time>2026-03-22T11:51:48Z</time></trkpt><trkpt lat="43.318400095337005" lon="10.61657909753903"><ele>224.0</ele><time>2026-03-22T11:51:49Z</time></trkpt><trkpt lat="43.31838216919872" lon="10.61643017751515"><ele>224.0</ele><time>2026-03-22T11:51:50Z</time></trkpt><trkpt lat="43.31834070851537" lon="10.616306436391154"><ele>224.0</ele><time>2026-03-22T11:51:51Z</time></trkpt><trkpt lat="43.31828378630982" lon="10.616178885636758"><ele>224.0</ele><time>2026-03-22T11:51:52Z</time></trkpt><trkpt lat="43.31821331792896" lon="10.616040551767494"><ele>224.0</ele><time>2026-03-22T11:51:53Z</time></trkpt><trkpt lat="43.31812968415373" lon="10.615893444776631"><ele>218.75</ele><time>2026-03-22T11:51:54Z</time></trkpt><trkpt lat="43.31804633177331" lon="10.615743650417002"><ele>213.5</ele><time>2026-03-22T11:51:55Z</time></trkpt><trkpt lat="43.31797312663019" lon="10.615593441085839"><ele>208.25</ele><time>2026-03-22T11:51:56Z</time></trkpt><trkpt lat="43.31791263508895" lon="10.615449675737304"><ele>203.0</ele><time>2026-03-22T11:51:57Z</time></trkpt><trkpt lat="43.31786966643949" lon="10.615336093708116"><ele>203.66666666666669</ele><time>2026-03-22T11:51:58Z</time></trkpt><trkpt lat="43.31782987092542" lon="10.615227440211022"><ele>204.33333333333334</ele><time>2026-03-22T11:51:59Z</time></trkpt><trkpt lat="43.31780210749509" lon="10.615133811353319"><ele>205.0</ele><time>2026-03-22T11:52:00Z</time></trkpt><trkpt lat="43.31783108125388" lon="10.61502094367016"><ele>205.66666666666669</ele><time>2026-03-22T11:52:01Z</time></trkpt><trkpt lat="43.317866468256746" lon="10.614904476972923"><ele>206.33333333333334</ele><time>2026-03-22T11:52:02Z</time></trkpt><trkpt lat="43.31790493646473" lon="10.61479611392636"><ele>207.0</ele><time>2026-03-22T11:52:03Z</time></trkpt><trkpt lat="43.31792851835367" lon="10.614684218934404"><ele>207.0</ele><time>2026-03-22T11:52:04Z</time></trkpt><trkpt lat="43.317958614845324" lon="10.614567555683061"><ele>207.0</ele><time>2026-03-22T11:52:05Z</time></trkpt><trkpt lat="43.31798505882399" lon="10.614448417722986"><ele>207.0</ele><time>2026-03-22T11:52:06Z</time></trkpt><trkpt lat="43.31802535200659" lon="10.614315760148582"><ele>207.0</ele><time>2026-03-22T11:52:07Z</time></trkpt><trkpt lat="43.318026260893" lon="10.6141687880881"><ele>207.0</ele><time>2026-03-22T11:52:08Z</time></trkpt><trkpt lat="43.31802012509751" lon="10.614034638849862"><ele>207.6</ele><time>2026-03-22T11:52:09Z</time></trkpt><trkpt lat="43.31799033608287" lon="10.613922962919018"><ele>208.2</ele><time>2026-03-22T11:52:10Z</time></trkpt><trkpt lat="43.31794025018302" lon="10.613807028080803"><ele>208.8</ele><time>2026-03-22T11:52:11Z</time></trkpt><trkpt lat="43.3178651863293" lon="10.613691309767962"><ele>209.4</ele><time>2026-03-22T11:52:12Z</time></trkpt><trkpt lat="43.317804373839564" lon="10.613611810838469"><ele>210.0</ele><time>2026-03-22T11:52:13Z</time></trkpt><trkpt lat="43.31773464152202" lon="10.613523230867138"><ele>210.0</ele><time>2026-03-22T11:52:14Z</time></trkpt><trkpt lat="43.31769119708698" lon="10.613448628672975"><ele>210.0</ele><time>2026-03-22T11:52:15Z</time></trkpt><trkpt lat="43.317655176448845" lon="10.613305898792676"><ele>210.0</ele><time>2026-03-22T11:52:17Z</time></trkpt><trkpt lat="43.317665193407336" lon="10.613179895117858"><ele>210.0</ele><time>2026-03-22T11:52:18Z</time></trkpt><trkpt lat="43.317707140372185" lon="10.613066412125098"><ele>210.0</ele><time>2026-03-22T11:52:19Z</time></trkpt><trkpt lat="43.31776590999781" lon="10.612957443639624"><ele>210.0</ele><time>2026-03-22T11:52:20Z</time></trkpt><trkpt lat="43.317861278503095" lon="10.612843556342225"><ele>210.0</ele><time>2026-03-22T11:52:21Z</time></trkpt><trkpt lat="43.317912115403814" lon="10.612692213472684"><ele>210.0</ele><time>2026-03-22T11:52:22Z</time></trkpt><trkpt lat="43.31796633332822" lon="10.6125632890245"><ele>210.0</ele><time>2026-03-22T11:52:23Z</time></trkpt><trkpt lat="43.31801553830959" lon="10.612450406052854"><ele>208.33333333333334</ele><time>2026-03-22T11:52:24Z</time></trkpt><trkpt lat="43.31804857153049" lon="10.612324428921335"><ele>206.66666666666669</ele><time>2026-03-22T11:52:25Z</time></trkpt><trkpt lat="43.31809035206346" lon="10.612209859125288"><ele>205.0</ele><time>2026-03-22T11:52:26Z</time></trkpt><trkpt lat="43.318127107885125" lon="10.612103281768007"><ele>203.33333333333334</ele><time>2026-03-22T11:52:27Z</time></trkpt><trkpt lat="43.31816228786011" lon="10.612004190508426"><ele>201.66666666666669</ele><time>2026-03-22T11:52:28Z</time></trkpt><trkpt lat="43.31819378501347" lon="10.611897792179882"><ele>200.0</ele><time>2026-03-22T11:52:29Z</time></trkpt><trkpt lat="43.318212252443274" lon="10.611781793354512"><ele>200.0</ele><time>2026-03-22T11:52:30Z</time></trkpt><trkpt lat="43.31822171837153" lon="10.6116673753281"><ele>200.0</ele><time>2026-03-22T11:52:31Z</time></trkpt><trkpt lat="43.31821766120528" lon="10.611534739664496"><ele>200.0</ele><time>2026-03-22T11:52:32Z</time></trkpt><trkpt lat="43.318214642090695" lon="10.611388226157716"><ele>200.0</ele><time>2026-03-22T11:52:33Z</time></trkpt><trkpt lat="43.318211804202924" lon="10.611236329832769"><ele>200.0</ele><time>2026-03-22T11:52:34Z</time></trkpt><trkpt lat="43.31820482425505" lon="10.611110631607758"><ele>200.0</ele><time>2026-03-22T11:52:35Z</time></trkpt><trkpt lat="43.31820418887072" lon="10.610996528568691"><ele>200.0</ele><time>2026-03-22T11:52:36Z</time></trkpt><trkpt lat="43.31819625952672" lon="10.610879223046854"><ele>200.0</ele><time>2026-03-22T11:52:37Z</time></trkpt><trkpt lat="43.318161759628865" lon="10.610739663046788"><ele>200.0</ele><time>2026-03-22T11:52:38Z</time></trkpt><trkpt lat="43.31813570401927" lon="10.6106120101065"><ele>200.0</ele><time>2026-03-22T11:52:39Z</time></trkpt><trkpt lat="43.318112897199306" lon="10.61047570599652"><ele>200.0</ele><time>2026-03-22T11:52:40Z</time></trkpt><trkpt lat="43.31808821387763" lon="10.61033541107801"><ele>200.0</ele><time>2026-03-22T11:52:41Z</time></trkpt><trkpt lat="43.318078266492954" lon="10.610169113699142"><ele>200.0</ele><time>2026-03-22T11:52:42Z</time></trkpt><trkpt lat="43.31807330955889" lon="10.610002481493266"><ele>200.0</ele><time>2026-03-22T11:52:43Z</time></trkpt><trkpt lat="43.31807516751737" lon="10.60985061560384"><ele>199.50000000000003</ele><time>2026-03-22T11:52:44Z</time></trkpt><trkpt lat="43.31809129967609" lon="10.6097370835468"><ele>199.0</ele><time>2026-03-22T11:52:45Z</time></trkpt><trkpt lat="43.31811147100773" lon="10.609624409031342"><ele>198.5</ele><time>2026-03-22T11:52:46Z</time></trkpt><trkpt lat="43.318145671575195" lon="10.609544683442916"><ele>198.0</ele><time>2026-03-22T11:52:47Z</time></trkpt><trkpt lat="43.31823350504952" lon="10.609433621631366"><ele>197.50000000000003</ele><time>2026-03-22T11:52:49Z</time></trkpt><trkpt lat="43.31830470190609" lon="10.609366087838417"><ele>197.0</ele><time>2026-03-22T11:52:50Z</time></trkpt><trkpt lat="43.318398507545076" lon="10.609283059949037"><ele>196.2</ele><time>2026-03-22T11:52:51Z</time></trkpt><trkpt lat="43.318489662232615" lon="10.609177553683082"><ele>195.39999999999998</ele><time>2026-03-22T11:52:52Z</time></trkpt><trkpt lat="43.31856682567771" lon="10.60908330654427"><ele>194.60000000000002</ele><time>2026-03-22T11:52:52.999Z</time></trkpt><trkpt lat="43.31864636823959" lon="10.608995089672243"><ele>193.8</ele><time>2026-03-22T11:52:53.999Z</time></trkpt><trkpt lat="43.31870439222096" lon="10.608884562904572"><ele>193.0</ele><time>2026-03-22T11:52:54.999Z</time></trkpt><trkpt lat="43.318780363822476" lon="10.608795244197806"><ele>193.0</ele><time>2026-03-22T11:52:55.999Z</time></trkpt><trkpt lat="43.31883840721767" lon="10.608691059898348"><ele>193.0</ele><time>2026-03-22T11:52:56.999Z</time></trkpt><trkpt lat="43.31891255884403" lon="10.608588583111384"><ele>193.0</ele><time>2026-03-22T11:52:57.999Z</time></trkpt><trkpt lat="43.3190085205319" lon="10.608519224759856"><ele>193.0</ele><time>2026-03-22T11:52:58.999Z</time></trkpt><trkpt lat="43.319092797687" lon="10.608447121418399"><ele>193.0</ele><time>2026-03-22T11:52:59.999Z</time></trkpt><trkpt lat="43.319154867398204" lon="10.608365290080323"><ele>191.4</ele><time>2026-03-22T11:53:00.999Z</time></trkpt><trkpt lat="43.31918094036907" lon="10.608249642138865"><ele>189.8</ele><time>2026-03-22T11:53:01.999Z</time></trkpt><trkpt lat="43.319221295511966" lon="10.608146455506835"><ele>188.2</ele><time>2026-03-22T11:53:02.999Z</time></trkpt><trkpt lat="43.319232968916694" lon="10.607995717588604"><ele>186.6</ele><time>2026-03-22T11:53:03.999Z</time></trkpt><trkpt lat="43.319239534330926" lon="10.607820686214835"><ele>185.0</ele><time>2026-03-22T11:53:04.999Z</time></trkpt><trkpt lat="43.31924053285521" lon="10.607632364482182"><ele>184.25</ele><time>2026-03-22T11:53:05.999Z</time></trkpt><trkpt lat="43.31923244140318" lon="10.607427600025103"><ele>183.5</ele><time>2026-03-22T11:53:06.999Z</time></trkpt><trkpt lat="43.319211738872745" lon="10.607250790058103"><ele>182.75</ele><time>2026-03-22T11:53:07.999Z</time></trkpt><trkpt lat="43.319186658183725" lon="10.60708449725606"><ele>182.0</ele><time>2026-03-22T11:53:08.999Z</time></trkpt><trkpt lat="43.31915559401882" lon="10.606931382475626"><ele>181.0</ele><time>2026-03-22T11:53:09.999Z</time></trkpt><trkpt lat="43.31910639257752" lon="10.606775734064412"><ele>180.0</ele><time>2026-03-22T11:53:10.999Z</time></trkpt><trkpt lat="43.319037354989064" lon="10.60660453619707"><ele>179.0</ele><time>2026-03-22T11:53:11.999Z</time></trkpt><trkpt lat="43.31897821241517" lon="10.606459430599454"><ele>178.0</ele><time>2026-03-22T11:53:12.999Z</time></trkpt><trkpt lat="43.318933235530956" lon="10.60631171454406"><ele>178.0</ele><time>2026-03-22T11:53:13.999Z</time></trkpt><trkpt lat="43.318899884620045" lon="10.60617998148747"><ele>178.0</ele><time>2026-03-22T11:53:14.999Z</time></trkpt><trkpt lat="43.31886222047391" lon="10.606066518734197"><ele>178.0</ele><time>2026-03-22T11:53:15.999Z</time></trkpt><trkpt lat="43.31879934086516" lon="10.605954454167634"><ele>178.0</ele><time>2026-03-22T11:53:16.999Z</time></trkpt><trkpt lat="43.31871688970607" lon="10.605822412060089"><ele>178.0</ele><time>2026-03-22T11:53:17.999Z</time></trkpt><trkpt lat="43.318642538559374" lon="10.60566828223162"><ele>177.0</ele><time>2026-03-22T11:53:19Z</time></trkpt><trkpt lat="43.31858488022126" lon="10.60551793351276"><ele>176.0</ele><time>2026-03-22T11:53:20Z</time></trkpt><trkpt lat="43.31854196806945" lon="10.605376253196804"><ele>175.0</ele><time>2026-03-22T11:53:21Z</time></trkpt><trkpt lat="43.31850012300345" lon="10.605205212477577"><ele>174.0</ele><time>2026-03-22T11:53:22Z</time></trkpt><trkpt lat="43.31846038383987" lon="10.60504459350187"><ele>173.6</ele><time>2026-03-22T11:53:23Z</time></trkpt><trkpt lat="43.31842133880822" lon="10.604903274460405"><ele>173.2</ele><time>2026-03-22T11:53:24Z</time></trkpt><trkpt lat="43.31837089614489" lon="10.604785045743228"><ele>172.79999999999998</ele><time>2026-03-22T11:53:25Z</time></trkpt><trkpt lat="43.318306538988224" lon="10.60467956111556"><ele>172.39999999999998</ele><time>2026-03-22T11:53:26Z</time></trkpt><trkpt lat="43.31823176913042" lon="10.604571000322716"><ele>172.0</ele><time>2026-03-22T11:53:27Z</time></trkpt><trkpt lat="43.31817980813343" lon="10.604441184442196"><ele>171.5</ele><time>2026-03-22T11:53:28Z</time></trkpt><trkpt lat="43.318127046187406" lon="10.604281353320877"><ele>171.0</ele><time>2026-03-22T11:53:29Z</time></trkpt><trkpt lat="43.31810587681978" lon="10.604127210386455"><ele>170.5</ele><time>2026-03-22T11:53:30Z</time></trkpt><trkpt lat="43.31809687057948" lon="10.603967531402468"><ele>170.0</ele><time>2026-03-22T11:53:31Z</time></trkpt><trkpt lat="43.318097481763864" lon="10.603806258546845"><ele>169.8</ele><time>2026-03-22T11:53:32Z</time></trkpt><trkpt lat="43.318108580925475" lon="10.603645302717744"><ele>169.6</ele><time>2026-03-22T11:53:33Z</time></trkpt><trkpt lat="43.3181279918811" lon="10.6035250569615"><ele>169.39999999999998</ele><time>2026-03-22T11:53:34Z</time></trkpt><trkpt lat="43.31818773370867" lon="10.603393867641863"><ele>169.2</ele><time>2026-03-22T11:53:36Z</time></trkpt><trkpt lat="43.31825118152739" lon="10.603324842919728"><ele>169.0</ele><time>2026-03-22T11:53:37Z</time></trkpt><trkpt lat="43.31832712916529" lon="10.603227666902859"><ele>169.0</ele><time>2026-03-22T11:53:38Z</time></trkpt><trkpt lat="43.318383631172985" lon="10.60311637980943"><ele>169.0</ele><time>2026-03-22T11:53:39Z</time></trkpt><trkpt lat="43.31844380848707" lon="10.602985771806798"><ele>169.0</ele><time>2026-03-22T11:53:40Z</time></trkpt><trkpt lat="43.31850183815766" lon="10.602849316222551"><ele>169.0</ele><time>2026-03-22T11:53:41Z</time></trkpt><trkpt lat="43.31855439779764" lon="10.602710854215589"><ele>169.0</ele><time>2026-03-22T11:53:42Z</time></trkpt><trkpt lat="43.318599769254284" lon="10.60257728988337"><ele>168.0</ele><time>2026-03-22T11:53:43Z</time></trkpt><trkpt lat="43.31865636784559" lon="10.602440078497569"><ele>167.0</ele><time>2026-03-22T11:53:44Z</time></trkpt><trkpt lat="43.31871248141659" lon="10.602302929485134"><ele>166.0</ele><time>2026-03-22T11:53:45Z</time></trkpt><trkpt lat="43.31876333882957" lon="10.6021487378978"><ele>165.0</ele><time>2026-03-22T11:53:46Z</time></trkpt><trkpt lat="43.318823394217866" lon="10.60201997401443"><ele>164.4</ele><time>2026-03-22T11:53:47Z</time></trkpt><trkpt lat="43.31886770418789" lon="10.601895256022226"><ele>163.8</ele><time>2026-03-22T11:53:48Z</time></trkpt><trkpt lat="43.31891644533508" lon="10.601778361551638"><ele>163.2</ele><time>2026-03-22T11:53:49Z</time></trkpt><trkpt lat="43.318960821628714" lon="10.601665677758684"><ele>162.6</ele><time>2026-03-22T11:53:50Z</time></trkpt><trkpt lat="43.319012508162494" lon="10.601557552406689"><ele>162.0</ele><time>2026-03-22T11:53:51Z</time></trkpt><trkpt lat="43.31904443120456" lon="10.601449345682841"><ele>162.0</ele><time>2026-03-22T11:53:52Z</time></trkpt><trkpt lat="43.31906712136984" lon="10.60132285606114"><ele>162.0</ele><time>2026-03-22T11:53:53Z</time></trkpt><trkpt lat="43.319074938600394" lon="10.601192710289828"><ele>162.0</ele><time>2026-03-22T11:53:54Z</time></trkpt><trkpt lat="43.3190977794601" lon="10.601054982429716"><ele>162.0</ele><time>2026-03-22T11:53:55Z</time></trkpt><trkpt lat="43.3191032028654" lon="10.600917687232464"><ele>162.0</ele><time>2026-03-22T11:53:56Z</time></trkpt><trkpt lat="43.319111361576965" lon="10.600772242244252"><ele>161.33333333333334</ele><time>2026-03-22T11:53:57Z</time></trkpt><trkpt lat="43.31911935571691" lon="10.600644706563509"><ele>160.66666666666666</ele><time>2026-03-22T11:53:58Z</time></trkpt><trkpt lat="43.31912705904995" lon="10.600543644733264"><ele>160.0</ele><time>2026-03-22T11:53:59Z</time></trkpt><trkpt lat="43.31912999029886" lon="10.600417713740752"><ele>159.33333333333331</ele><time>2026-03-22T11:54:00Z</time></trkpt><trkpt lat="43.319141070116565" lon="10.600318664848889"><ele>158.66666666666666</ele><time>2026-03-22T11:54:01Z</time></trkpt><trkpt lat="43.31913215971796" lon="10.600206277410571"><ele>158.0</ele><time>2026-03-22T11:54:02Z</time></trkpt><trkpt lat="43.31917640632002" lon="10.600130465814164"><ele>157.0</ele><time>2026-03-22T11:54:03Z</time></trkpt><trkpt lat="43.31920169164022" lon="10.600044090382866"><ele>156.0</ele><time>2026-03-22T11:54:04Z</time></trkpt><trkpt lat="43.31922020605254" lon="10.599935973553428"><ele>155.0</ele><time>2026-03-22T11:54:06Z</time></trkpt><trkpt lat="43.3192187795406" lon="10.599792835822692"><ele>154.0</ele><time>2026-03-22T11:54:09Z</time></trkpt><trkpt lat="43.31921852088782" lon="10.599678955494237"><ele>153.0</ele><time>2026-03-22T11:54:10Z</time></trkpt><trkpt lat="43.319209306980085" lon="10.599567785571933"><ele>152.0</ele><time>2026-03-22T11:54:11Z</time></trkpt><trkpt lat="43.31919547761207" lon="10.599416327224027"><ele>151.16666666666666</ele><time>2026-03-22T11:54:12Z</time></trkpt><trkpt lat="43.319190907710826" lon="10.599283279143135"><ele>150.33333333333331</ele><time>2026-03-22T11:54:13Z</time></trkpt><trkpt lat="43.31918001890942" lon="10.599173023370716"><ele>149.5</ele><time>2026-03-22T11:54:14Z</time></trkpt><trkpt lat="43.319164061762436" lon="10.599066644455304"><ele>148.66666666666666</ele><time>2026-03-22T11:54:15Z</time></trkpt><trkpt lat="43.31914913666492" lon="10.598970678131122"><ele>147.83333333333334</ele><time>2026-03-22T11:54:16Z</time></trkpt><trkpt lat="43.31914216048231" lon="10.598816384591842"><ele>147.0</ele><time>2026-03-22T11:54:18Z</time></trkpt><trkpt lat="43.31914618583654" lon="10.598652850806088"><ele>147.0</ele><time>2026-03-22T11:54:20Z</time></trkpt><trkpt lat="43.319161420724946" lon="10.598475845944986"><ele>147.0</ele><time>2026-03-22T11:54:22Z</time></trkpt><trkpt lat="43.31915286368716" lon="10.598378829955331"><ele>147.0</ele><time>2026-03-22T11:54:23Z</time></trkpt><trkpt lat="43.319131590461616" lon="10.598262272924034"><ele>147.0</ele><time>2026-03-22T11:54:24Z</time></trkpt><trkpt lat="43.3191156346282" lon="10.598138856114524"><ele>147.0</ele><time>2026-03-22T11:54:25Z</time></trkpt><trkpt lat="43.31909910781696" lon="10.598050602347834"><ele>147.0</ele><time>2026-03-22T11:54:26Z</time></trkpt><trkpt lat="43.319098079569955" lon="10.597908237389472"><ele>146.0</ele><time>2026-03-22T11:54:28Z</time></trkpt><trkpt lat="43.319118615783566" lon="10.597787589025282"><ele>145.0</ele><time>2026-03-22T11:54:30Z</time></trkpt><trkpt lat="43.31914004005505" lon="10.597680620821444"><ele>144.0</ele><time>2026-03-22T11:54:32Z</time></trkpt><trkpt lat="43.319241300854294" lon="10.597609221911632"><ele>143.0</ele><time>2026-03-22T11:54:34Z</time></trkpt><trkpt lat="43.31934339771298" lon="10.597555151617795"><ele>142.0</ele><time>2026-03-22T11:54:36Z</time></trkpt><trkpt lat="43.31942780502014" lon="10.597432388661902"><ele>142.0</ele><time>2026-03-22T11:54:38Z</time></trkpt><trkpt lat="43.31941889041317" lon="10.597302231936299"><ele>142.0</ele><time>2026-03-22T11:54:39Z</time></trkpt><trkpt lat="43.31942247969805" lon="10.597177324489481"><ele>142.0</ele><time>2026-03-22T11:54:40Z</time></trkpt><trkpt lat="43.31944274087135" lon="10.597058575579554"><ele>142.0</ele><time>2026-03-22T11:54:41Z</time></trkpt><trkpt lat="43.31946409889042" lon="10.596964294622186"><ele>142.0</ele><time>2026-03-22T11:54:42Z</time></trkpt><trkpt lat="43.31948152602158" lon="10.596870398311916"><ele>142.0</ele><time>2026-03-22T11:54:43Z</time></trkpt><trkpt lat="43.31948954379167" lon="10.59675707788992"><ele>140.83333333333334</ele><time>2026-03-22T11:54:45Z</time></trkpt><trkpt lat="43.31951304077519" lon="10.596662734222038"><ele>139.66666666666669</ele><time>2026-03-22T11:54:47Z</time></trkpt><trkpt lat="43.319540823784095" lon="10.596515155468385"><ele>138.5</ele><time>2026-03-22T11:54:49Z</time></trkpt><trkpt lat="43.31953717929475" lon="10.596411946546707"><ele>137.33333333333334</ele><time>2026-03-22T11:54:50Z</time></trkpt><trkpt lat="43.31951629853153" lon="10.596311105908113"><ele>136.16666666666666</ele><time>2026-03-22T11:54:51Z</time></trkpt><trkpt lat="43.31949290430647" lon="10.59619010549782"><ele>135.0</ele><time>2026-03-22T11:54:53Z</time></trkpt><trkpt lat="43.31950082527378" lon="10.5960169196331"><ele>134.16666666666666</ele><time>2026-03-22T11:54:55Z</time></trkpt><trkpt lat="43.31949042950953" lon="10.595903410380295"><ele>133.33333333333334</ele><time>2026-03-22T11:54:56Z</time></trkpt><trkpt lat="43.31948131080198" lon="10.595792195837522"><ele>132.5</ele><time>2026-03-22T11:54:57Z</time></trkpt><trkpt lat="43.319450878190466" lon="10.595697446614906"><ele>131.66666666666669</ele><time>2026-03-22T11:54:58Z</time></trkpt><trkpt lat="43.31940348821559" lon="10.595565168097792"><ele>130.83333333333334</ele><time>2026-03-22T11:55:00Z</time></trkpt><trkpt lat="43.31937621314153" lon="10.595454938329839"><ele>130.0</ele><time>2026-03-22T11:55:02Z</time></trkpt><trkpt lat="43.31945322467481" lon="10.595336463550426"><ele>129.0</ele><time>2026-03-22T11:55:04Z</time></trkpt><trkpt lat="43.31953011818549" lon="10.595254651133814"><ele>128.0</ele><time>2026-03-22T11:55:06Z</time></trkpt><trkpt lat="43.31960350621165" lon="10.595118325293425"><ele>127.0</ele><time>2026-03-22T11:55:08Z</time></trkpt><trkpt lat="43.31970988148937" lon="10.595107362159787"><ele>126.0</ele><time>2026-03-22T11:55:10Z</time></trkpt><trkpt lat="43.31977036829783" lon="10.59516623340215"><ele>125.0</ele><time>2026-03-22T11:55:12Z</time></trkpt><trkpt lat="43.31989737984947" lon="10.59525467685694"><ele>124.99999999999999</ele><time>2026-03-22T11:55:14Z</time></trkpt><trkpt lat="43.31998289502794" lon="10.595303631526791"><ele>125.0</ele><time>2026-03-22T11:55:16Z</time></trkpt><trkpt lat="43.320047376808816" lon="10.59524389003889"><ele>125.0</ele><time>2026-03-22T11:55:18Z</time></trkpt><trkpt lat="43.32002616291594" lon="10.595128629222648"><ele>125.0</ele><time>2026-03-22T11:55:20Z</time></trkpt><trkpt lat="43.319960704150134" lon="10.595037817745695"><ele>124.99999999999999</ele><time>2026-03-22T11:55:22Z</time></trkpt><trkpt lat="43.3199234229158" lon="10.594941076094424"><ele>125.0</ele><time>2026-03-22T11:55:23Z</time></trkpt><trkpt lat="43.319889181368545" lon="10.594867817084575"><ele>125.0</ele><time>2026-03-22T11:55:24Z</time></trkpt><trkpt lat="43.31982956599648" lon="10.594753978646722"><ele>125.0</ele><time>2026-03-22T11:55:26Z</time></trkpt><trkpt lat="43.31977628566812" lon="10.594616668938665"><ele>125.0</ele><time>2026-03-22T11:55:28Z</time></trkpt><trkpt lat="43.319743311864855" lon="10.594492236643845"><ele>125.0</ele><time>2026-03-22T11:55:30Z</time></trkpt><trkpt lat="43.319701314694626" lon="10.594351208628108"><ele>125.0</ele><time>2026-03-22T11:55:32Z</time></trkpt><trkpt lat="43.31964186074681" lon="10.594225174454301"><ele>121.8</ele><time>2026-03-22T11:55:34Z</time></trkpt><trkpt lat="43.31955510414237" lon="10.594128467522724"><ele>118.6</ele><time>2026-03-22T11:55:36Z</time></trkpt><trkpt lat="43.319489793461855" lon="10.594109136739151"><ele>115.4</ele><time>2026-03-22T11:55:38Z</time></trkpt><trkpt lat="43.319377414818426" lon="10.594112688471556"><ele>112.2</ele><time>2026-03-22T11:55:41Z</time></trkpt><trkpt lat="43.31927161761757" lon="10.594139637149691"><ele>109.0</ele><time>2026-03-22T11:55:43Z</time></trkpt><trkpt lat="43.31916877757178" lon="10.594167799618758"><ele>109.0</ele><time>2026-03-22T11:55:45Z</time></trkpt><trkpt lat="43.31907827822887" lon="10.594248780050549"><ele>109.0</ele><time>2026-03-22T11:55:47Z</time></trkpt><trkpt lat="43.3189914342585" lon="10.594336878408244"><ele>109.0</ele><time>2026-03-22T11:55:49Z</time></trkpt><trkpt lat="43.31893558066111" lon="10.594389221110589"><ele>109.0</ele><time>2026-03-22T11:55:51Z</time></trkpt><trkpt lat="43.31888152246539" lon="10.594467019363243"><ele>109.0</ele><time>2026-03-22T11:55:53Z</time></trkpt><trkpt lat="43.31880134807607" lon="10.594540250176404"><ele>107.4</ele><time>2026-03-22T11:55:55Z</time></trkpt><trkpt lat="43.31870218082214" lon="10.59460495182485"><ele>105.80000000000001</ele><time>2026-03-22T11:55:57Z</time></trkpt><trkpt lat="43.31860041939249" lon="10.594745901811379"><ele>104.19999999999999</ele><time>2026-03-22T11:55:59Z</time></trkpt><trkpt lat="43.31854955822319" lon="10.594803630298715"><ele>102.6</ele><time>2026-03-22T11:56:00Z</time></trkpt><trkpt lat="43.318496200151955" lon="10.594854008235234"><ele>101.0</ele><time>2026-03-22T11:56:01Z</time></trkpt><trkpt lat="43.31840300946605" lon="10.594965626891575"><ele>101.0</ele><time>2026-03-22T11:56:03Z</time></trkpt><trkpt lat="43.31838319236147" lon="10.595104806537718"><ele>101.0</ele><time>2026-03-22T11:56:05Z</time></trkpt><trkpt lat="43.31838055226982" lon="10.595205010965532"><ele>101.0</ele><time>2026-03-22T11:56:07Z</time></trkpt><trkpt lat="43.31830160592171" lon="10.595227421239004"><ele>101.0</ele><time>2026-03-22T11:56:10Z</time></trkpt><trkpt lat="43.31821382642843" lon="10.595250098172759"><ele>101.0</ele><time>2026-03-22T11:56:12Z</time></trkpt><trkpt lat="43.318109459040926" lon="10.595260586071225"><ele>101.0</ele><time>2026-03-22T11:56:14Z</time></trkpt><trkpt lat="43.318053694755356" lon="10.59530401541868"><ele>101.0</ele><time>2026-03-22T11:56:17Z</time></trkpt><trkpt lat="43.31802776313418" lon="10.595220995770193"><ele>101.0</ele><time>2026-03-22T11:56:23Z</time></trkpt><trkpt lat="43.318070341312584" lon="10.59512632352999"><ele>101.0</ele><time>2026-03-22T11:56:25Z</time></trkpt><trkpt lat="43.318177852370425" lon="10.595041832884068"><ele>101.0</ele><time>2026-03-22T11:56:27Z</time></trkpt><trkpt lat="43.3182116429967" lon="10.59486186306553"><ele>101.0</ele><time>2026-03-22T11:56:29Z</time></trkpt><trkpt lat="43.318233402250556" lon="10.594754192809026"><ele>101.0</ele><time>2026-03-22T11:56:30Z</time></trkpt><trkpt lat="43.31828129224132" lon="10.594615499724219"><ele>101.0</ele><time>2026-03-22T11:56:32Z</time></trkpt><trkpt lat="43.31828944838294" lon="10.594488166720256"><ele>101.0</ele><time>2026-03-22T11:56:33Z</time></trkpt><trkpt lat="43.3183275481308" lon="10.59438940551147"><ele>101.0</ele><time>2026-03-22T11:56:34Z</time></trkpt><trkpt lat="43.31835672125947" lon="10.594232269223719"><ele>99.8</ele><time>2026-03-22T11:56:36Z</time></trkpt><trkpt lat="43.31838493138555" lon="10.59408808484634"><ele>98.6</ele><time>2026-03-22T11:56:38Z</time></trkpt><trkpt lat="43.318468912881855" lon="10.593992022992595"><ele>97.4</ele><time>2026-03-22T11:56:40Z</time></trkpt><trkpt lat="43.318510245746694" lon="10.593884809161088"><ele>96.2</ele><time>2026-03-22T11:56:42Z</time></trkpt><trkpt lat="43.31854759743727" lon="10.593795766107862"><ele>95.0</ele><time>2026-03-22T11:56:43Z</time></trkpt><trkpt lat="43.31861210622358" lon="10.593687614431314"><ele>94.6</ele><time>2026-03-22T11:56:45Z</time></trkpt><trkpt lat="43.31865599329025" lon="10.593599529981098"><ele>94.2</ele><time>2026-03-22T11:56:46Z</time></trkpt><trkpt lat="43.318728584203505" lon="10.593471199620348"><ele>93.80000000000001</ele><time>2026-03-22T11:56:48Z</time></trkpt><trkpt lat="43.31878842111452" lon="10.593387646550873"><ele>93.4</ele><time>2026-03-22T11:56:49Z</time></trkpt><trkpt lat="43.31885552904778" lon="10.593347311176577"><ele>93.0</ele><time>2026-03-22T11:56:50Z</time></trkpt><trkpt lat="43.318933916296544" lon="10.593247510668652"><ele>93.0</ele><time>2026-03-22T11:56:52Z</time></trkpt><trkpt lat="43.31900843025214" lon="10.593138226254684"><ele>93.0</ele><time>2026-03-22T11:56:54Z</time></trkpt><trkpt lat="43.31908105807319" lon="10.593001522592768"><ele>93.0</ele><time>2026-03-22T11:56:56Z</time></trkpt><trkpt lat="43.31911350820092" lon="10.592921336664025"><ele>93.0</ele><time>2026-03-22T11:56:57Z</time></trkpt><trkpt lat="43.319203581522345" lon="10.5928139396543"><ele>93.0</ele><time>2026-03-22T11:56:59Z</time></trkpt><trkpt lat="43.319263866847834" lon="10.592758665952449"><ele>92.66666666666667</ele><time>2026-03-22T11:57:00Z</time></trkpt><trkpt lat="43.319338727136085" lon="10.5926634468699"><ele>92.33333333333333</ele><time>2026-03-22T11:57:02Z</time></trkpt><trkpt lat="43.31942053397828" lon="10.592612449192165"><ele>92.0</ele><time>2026-03-22T11:57:05Z</time></trkpt><trkpt lat="43.31944596095297" lon="10.59252227527496"><ele>91.66666666666666</ele><time>2026-03-22T11:57:07Z</time></trkpt><trkpt lat="43.31945216024231" lon="10.592429352382975"><ele>91.33333333333333</ele><time>2026-03-22T11:57:09Z</time></trkpt><trkpt lat="43.31949933989499" lon="10.59230573000747"><ele>91.0</ele><time>2026-03-22T11:57:13Z</time></trkpt><trkpt lat="43.31955882838958" lon="10.592276612598448"><ele>91.0</ele><time>2026-03-22T11:57:15Z</time></trkpt><trkpt lat="43.31962041728143" lon="10.5922546745411"><ele>91.0</ele><time>2026-03-22T11:57:16.999Z</time></trkpt><trkpt lat="43.31959560294034" lon="10.592153968528626"><ele>91.0</ele><time>2026-03-22T11:57:19.999Z</time></trkpt><trkpt lat="43.3195504366355" lon="10.592052621986005"><ele>91.0</ele><time>2026-03-22T11:57:21.999Z</time></trkpt><trkpt lat="43.3195657658917" lon="10.591968573069535"><ele>91.0</ele><time>2026-03-22T11:57:27.999Z</time></trkpt><trkpt lat="43.31962157780166" lon="10.591903388689419"><ele>91.0</ele><time>2026-03-22T11:57:35Z</time></trkpt><trkpt lat="43.319681942331364" lon="10.591853426294929"><ele>91.0</ele><time>2026-03-22T11:57:38Z</time></trkpt><trkpt lat="43.31978263521731" lon="10.591749250875685"><ele>88.33333333333333</ele><time>2026-03-22T11:57:40Z</time></trkpt><trkpt lat="43.31983941808734" lon="10.591705618040212"><ele>85.66666666666666</ele><time>2026-03-22T11:57:41Z</time></trkpt><trkpt lat="43.31991525712521" lon="10.591597357352926"><ele>83.0</ele><time>2026-03-22T11:57:43Z</time></trkpt><trkpt lat="43.31998836826999" lon="10.59153895851624"><ele>80.33333333333333</ele><time>2026-03-22T11:57:44Z</time></trkpt><trkpt lat="43.32005921130728" lon="10.591452847868442"><ele>77.66666666666667</ele><time>2026-03-22T11:57:47Z</time></trkpt><trkpt lat="43.32013821908003" lon="10.591398580236795"><ele>75.0</ele><time>2026-03-22T11:57:49Z</time></trkpt><trkpt lat="43.32020474632844" lon="10.591369951825017"><ele>75.0</ele><time>2026-03-22T11:57:51Z</time></trkpt><trkpt lat="43.32025905378594" lon="10.591312095758582"><ele>75.0</ele><time>2026-03-22T11:57:53Z</time></trkpt><trkpt lat="43.32036655776617" lon="10.591233345807657"><ele>75.0</ele><time>2026-03-22T11:57:55Z</time></trkpt><trkpt lat="43.32045698221401" lon="10.591209610703887"><ele>75.0</ele><time>2026-03-22T11:57:57Z</time></trkpt><trkpt lat="43.320537455737906" lon="10.591194288144905"><ele>75.0</ele><time>2026-03-22T11:57:59Z</time></trkpt><trkpt lat="43.32063105714869" lon="10.591194448885432"><ele>74.99999999999999</ele><time>2026-03-22T11:58:01Z</time></trkpt><trkpt lat="43.320692307673134" lon="10.591173288255446"><ele>75.0</ele><time>2026-03-22T11:58:03Z</time></trkpt><trkpt lat="43.32071839032316" lon="10.59109428399422"><ele>75.0</ele><time>2026-03-22T11:58:19Z</time></trkpt><trkpt lat="43.32068660028744" lon="10.59099701897884"><ele>75.0</ele><time>2026-03-22T12:00:17Z</time></trkpt><trkpt lat="43.320688742744636" lon="10.591095581860234"><ele>75.0</ele><time>2026-03-22T12:00:53Z</time></trkpt><trkpt lat="43.3206330939041" lon="10.591165968766843"><ele>74.99999999999999</ele><time>2026-03-22T12:01:06Z</time></trkpt><trkpt lat="43.32056286490796" lon="10.59116413266795"><ele>75.0</ele><time>2026-03-22T12:01:12Z</time></trkpt><trkpt lat="43.320471147840934" lon="10.591180174986544"><ele>75.0</ele><time>2026-03-22T12:01:14Z</time></trkpt><trkpt lat="43.32039037450665" lon="10.59121459520753"><ele>75.0</ele><time>2026-03-22T12:01:16Z</time></trkpt><trkpt lat="43.32029769958178" lon="10.591279474950124"><ele>75.0</ele><time>2026-03-22T12:01:18Z</time></trkpt><trkpt lat="43.32025659381817" lon="10.591374547286469"><ele>75.0</ele><time>2026-03-22T12:01:19.999Z</time></trkpt><trkpt lat="43.32018997207467" lon="10.591426395336889"><ele>75.0</ele><time>2026-03-22T12:01:22.999Z</time></trkpt><trkpt lat="43.320106244779744" lon="10.591488959374114"><ele>75.0</ele><time>2026-03-22T12:01:24.999Z</time></trkpt><trkpt lat="43.320031760666915" lon="10.59152266349588"><ele>75.0</ele><time>2026-03-22T12:01:25.999Z</time></trkpt><trkpt lat="43.319943396371116" lon="10.59160485593788"><ele>75.0</ele><time>2026-03-22T12:01:27.999Z</time></trkpt><trkpt lat="43.319887112043325" lon="10.591654435622987"><ele>75.0</ele><time>2026-03-22T12:01:28.999Z</time></trkpt><trkpt lat="43.31983901759875" lon="10.591761627810218"><ele>75.0</ele><time>2026-03-22T12:01:30.999Z</time></trkpt><trkpt lat="43.31977679911063" lon="10.591822469775872"><ele>75.0</ele><time>2026-03-22T12:01:32.999Z</time></trkpt><trkpt lat="43.31968731577602" lon="10.591862306592372"><ele>75.0</ele><time>2026-03-22T12:01:34.999Z</time></trkpt><trkpt lat="43.31959652512405" lon="10.59190722912947"><ele>77.28571428571428</ele><time>2026-03-22T12:01:36.999Z</time></trkpt><trkpt lat="43.319600100333275" lon="10.591996080956516"><ele>79.57142857142857</ele><time>2026-03-22T12:01:39.999Z</time></trkpt><trkpt lat="43.319607508321255" lon="10.592095778013997"><ele>81.85714285714286</ele><time>2026-03-22T12:02:00Z</time></trkpt><trkpt lat="43.3196476233693" lon="10.592182150227183"><ele>84.14285714285714</ele><time>2026-03-22T12:02:03Z</time></trkpt><trkpt lat="43.31959546095735" lon="10.59223944931552"><ele>86.42857142857143</ele><time>2026-03-22T12:02:07Z</time></trkpt><trkpt lat="43.319521575034784" lon="10.592265454343469"><ele>88.71428571428571</ele><time>2026-03-22T12:02:10Z</time></trkpt><trkpt lat="43.31945608436365" lon="10.59235480509997"><ele>91.0</ele><time>2026-03-22T12:02:12Z</time></trkpt><trkpt lat="43.319449072093" lon="10.592480572160536"><ele>91.0</ele><time>2026-03-22T12:02:15Z</time></trkpt><trkpt lat="43.31942699744636" lon="10.592562076534074"><ele>91.0</ele><time>2026-03-22T12:02:17Z</time></trkpt><trkpt lat="43.31936373000523" lon="10.59259636261144"><ele>91.0</ele><time>2026-03-22T12:02:21Z</time></trkpt><trkpt lat="43.31929214076504" lon="10.592646179301218"><ele>91.0</ele><time>2026-03-22T12:02:23Z</time></trkpt><trkpt lat="43.31925110576959" lon="10.592717958660655"><ele>91.0</ele><time>2026-03-22T12:02:25Z</time></trkpt><trkpt lat="43.31918040758" lon="10.59279464359626"><ele>91.0</ele><time>2026-03-22T12:02:27Z</time></trkpt><trkpt lat="43.319124538483635" lon="10.59288999634974"><ele>91.33333333333333</ele><time>2026-03-22T12:02:28Z</time></trkpt><trkpt lat="43.31909397272379" lon="10.593002204306314"><ele>91.66666666666666</ele><time>2026-03-22T12:02:30Z</time></trkpt><trkpt lat="43.319021407084854" lon="10.593127061122905"><ele>92.0</ele><time>2026-03-22T12:02:32Z</time></trkpt><trkpt lat="43.31898883140713" lon="10.593206060358495"><ele>92.33333333333333</ele><time>2026-03-22T12:02:33Z</time></trkpt><trkpt lat="43.31893140052155" lon="10.593261599674346"><ele>92.66666666666667</ele><time>2026-03-22T12:02:34Z</time></trkpt><trkpt lat="43.318857176737374" lon="10.59337115847067"><ele>93.0</ele><time>2026-03-22T12:02:36Z</time></trkpt><trkpt lat="43.31880827157679" lon="10.59343165915375"><ele>93.33333333333333</ele><time>2026-03-22T12:02:37Z</time></trkpt><trkpt lat="43.31874483933163" lon="10.593555197305117"><ele>93.66666666666667</ele><time>2026-03-22T12:02:39Z</time></trkpt><trkpt lat="43.318689018254936" lon="10.593646148538713"><ele>94.0</ele><time>2026-03-22T12:02:41Z</time></trkpt><trkpt lat="43.31862563543206" lon="10.593725838196127"><ele>94.33333333333334</ele><time>2026-03-22T12:02:43Z</time></trkpt><trkpt lat="43.3185738568417" lon="10.593820025171588"><ele>94.66666666666667</ele><time>2026-03-22T12:02:44Z</time></trkpt><trkpt lat="43.31853559732658" lon="10.593896575819418"><ele>95.0</ele><time>2026-03-22T12:02:45Z</time></trkpt><trkpt lat="43.31847228904941" lon="10.594044166628576"><ele>95.0</ele><time>2026-03-22T12:02:47Z</time></trkpt><trkpt lat="43.31840567067774" lon="10.594152292795542"><ele>95.0</ele><time>2026-03-22T12:02:49Z</time></trkpt><trkpt lat="43.318379385084214" lon="10.594253341363023"><ele>95.0</ele><time>2026-03-22T12:02:50Z</time></trkpt><trkpt lat="43.31833876528934" lon="10.594384931497235"><ele>95.0</ele><time>2026-03-22T12:02:52Z</time></trkpt><trkpt lat="43.31829617513997" lon="10.594545189147615"><ele>95.0</ele><time>2026-03-22T12:02:54Z</time></trkpt><trkpt lat="43.31825868911256" lon="10.59463225019661"><ele>95.83333333333334</ele><time>2026-03-22T12:02:55Z</time></trkpt><trkpt lat="43.318257516572444" lon="10.594743678607907"><ele>96.66666666666667</ele><time>2026-03-22T12:02:56Z</time></trkpt><trkpt lat="43.318225816156435" lon="10.59482795005619"><ele>97.5</ele><time>2026-03-22T12:02:57Z</time></trkpt><trkpt lat="43.318205045094174" lon="10.59491206521486"><ele>98.33333333333334</ele><time>2026-03-22T12:02:58Z</time></trkpt><trkpt lat="43.31816044715655" lon="10.595053125639387"><ele>99.16666666666667</ele><time>2026-03-22T12:03:00Z</time></trkpt><trkpt lat="43.31805789091887" lon="10.595093723932573"><ele>100.0</ele><time>2026-03-22T12:03:03Z</time></trkpt><trkpt lat="43.31798782908828" lon="10.595192957716536"><ele>100.00000000000001</ele><time>2026-03-22T12:03:05Z</time></trkpt><trkpt lat="43.31798001433494" lon="10.595278827734708"><ele>100.0</ele><time>2026-03-22T12:03:12Z</time></trkpt><trkpt lat="43.317937881817485" lon="10.595363206443283"><ele>100.0</ele><time>2026-03-22T12:03:19Z</time></trkpt><trkpt lat="43.31785579787989" lon="10.595455050489427"><ele>100.0</ele><time>2026-03-22T12:03:21Z</time></trkpt><trkpt lat="43.317813851137714" lon="10.595577879200697"><ele>100.00000000000001</ele><time>2026-03-22T12:03:23Z</time></trkpt><trkpt lat="43.31781334852147" lon="10.595721836620333"><ele>100.0</ele><time>2026-03-22T12:03:25Z</time></trkpt><trkpt lat="43.31781747599307" lon="10.595824609666627"><ele>99.83333333333334</ele><time>2026-03-22T12:03:27Z</time></trkpt><trkpt lat="43.31785351521806" lon="10.595903323204341"><ele>99.66666666666667</ele><time>2026-03-22T12:03:29Z</time></trkpt><trkpt lat="43.317855497847916" lon="10.596004686086692"><ele>99.5</ele><time>2026-03-22T12:03:30.999Z</time></trkpt><trkpt lat="43.317835115142096" lon="10.596107318491788"><ele>99.33333333333334</ele><time>2026-03-22T12:03:33.999Z</time></trkpt><trkpt lat="43.31781901561218" lon="10.596192807079817"><ele>99.16666666666667</ele><time>2026-03-22T12:03:35.999Z</time></trkpt><trkpt lat="43.317801579695846" lon="10.596316176900128"><ele>99.0</ele><time>2026-03-22T12:03:37.999Z</time></trkpt><trkpt lat="43.31780308494553" lon="10.59644137504538"><ele>101.66666666666667</ele><time>2026-03-22T12:03:39.999Z</time></trkpt><trkpt lat="43.317777937311696" lon="10.596521958203857"><ele>104.33333333333334</ele><time>2026-03-22T12:05:34.999Z</time></trkpt><trkpt lat="43.3177646062414" lon="10.596623310562862"><ele>107.0</ele><time>2026-03-22T12:05:40.999Z</time></trkpt><trkpt lat="43.317766725916385" lon="10.596725865985398"><ele>109.66666666666667</ele><time>2026-03-22T12:05:42.999Z</time></trkpt><trkpt lat="43.31777364374137" lon="10.596838594178013"><ele>112.33333333333334</ele><time>2026-03-22T12:05:44.999Z</time></trkpt><trkpt lat="43.31776709185822" lon="10.596978641861806"><ele>115.0</ele><time>2026-03-22T12:05:46.999Z</time></trkpt><trkpt lat="43.317766053246345" lon="10.597101584781084"><ele>117.33333333333334</ele><time>2026-03-22T12:05:48.999Z</time></trkpt><trkpt lat="43.3177701835604" lon="10.597213231681158"><ele>119.66666666666667</ele><time>2026-03-22T12:05:50.999Z</time></trkpt><trkpt lat="43.31777622389894" lon="10.597329402952768"><ele>122.0</ele><time>2026-03-22T12:05:52.999Z</time></trkpt><trkpt lat="43.317777455712005" lon="10.597419498264083"><ele>124.33333333333334</ele><time>2026-03-22T12:05:58Z</time></trkpt><trkpt lat="43.31775914927186" lon="10.597519111500699"><ele>126.66666666666667</ele><time>2026-03-22T12:06:01Z</time></trkpt><trkpt lat="43.31778483964974" lon="10.597625617986559"><ele>129.0</ele><time>2026-03-22T12:06:07Z</time></trkpt><trkpt lat="43.317799298750124" lon="10.597735531196466"><ele>129.0</ele><time>2026-03-22T12:06:09Z</time></trkpt><trkpt lat="43.31779548710801" lon="10.59786650079944"><ele>129.0</ele><time>2026-03-22T12:06:11Z</time></trkpt><trkpt lat="43.317767381943995" lon="10.59776818338527"><ele>129.0</ele><time>2026-03-22T12:06:30Z</time></trkpt><trkpt lat="43.31778285848229" lon="10.597670991231126"><ele>129.0</ele><time>2026-03-22T12:06:33Z</time></trkpt><trkpt lat="43.31777164338879" lon="10.597539425098104"><ele>129.0</ele><time>2026-03-22T12:06:36Z</time></trkpt><trkpt lat="43.3177709127923" lon="10.59744793411914"><ele>129.0</ele><time>2026-03-22T12:06:39Z</time></trkpt><trkpt lat="43.31779274226289" lon="10.597361554529913"><ele>129.0</ele><time>2026-03-22T12:06:47Z</time></trkpt><trkpt lat="43.3177746725738" lon="10.597258775469376"><ele>129.0</ele><time>2026-03-22T12:06:50Z</time></trkpt><trkpt lat="43.31777484605113" lon="10.597139219949213"><ele>129.0</ele><time>2026-03-22T12:06:53Z</time></trkpt><trkpt lat="43.31777311287123" lon="10.597022039752229"><ele>129.0</ele><time>2026-03-22T12:06:56Z</time></trkpt><trkpt lat="43.31777454672444" lon="10.596918093339811"><ele>129.0</ele><time>2026-03-22T12:06:58Z</time></trkpt><trkpt lat="43.31779333962119" lon="10.59677768053091"><ele>129.0</ele><time>2026-03-22T12:07:01Z</time></trkpt><trkpt lat="43.31778121967133" lon="10.596683511886722"><ele>126.66666666666667</ele><time>2026-03-22T12:07:03Z</time></trkpt><trkpt lat="43.317787788352774" lon="10.596573771876711"><ele>124.33333333333334</ele><time>2026-03-22T12:07:06Z</time></trkpt><trkpt lat="43.317789271517846" lon="10.596477168517033"><ele>122.0</ele><time>2026-03-22T12:07:11Z</time></trkpt><trkpt lat="43.317797988785664" lon="10.596373715162684"><ele>119.66666666666667</ele><time>2026-03-22T12:07:14Z</time></trkpt><trkpt lat="43.31781077918569" lon="10.596263537177125"><ele>117.33333333333334</ele><time>2026-03-22T12:07:18Z</time></trkpt><trkpt lat="43.317824958374956" lon="10.596154516210872"><ele>115.0</ele><time>2026-03-22T12:07:34.999Z</time></trkpt><trkpt lat="43.31784650934554" lon="10.596071550299454"><ele>112.33333333333334</ele><time>2026-03-22T12:07:37.999Z</time></trkpt><trkpt lat="43.31783209671502" lon="10.595969284749216"><ele>109.66666666666667</ele><time>2026-03-22T12:07:40.999Z</time></trkpt><trkpt lat="43.317811142484906" lon="10.595872132019181"><ele>107.0</ele><time>2026-03-22T12:07:42.999Z</time></trkpt><trkpt lat="43.31780103038207" lon="10.595769774311954"><ele>104.33333333333334</ele><time>2026-03-22T12:07:44.999Z</time></trkpt><trkpt lat="43.317810682402005" lon="10.59566002243303"><ele>101.66666666666667</ele><time>2026-03-22T12:07:46.999Z</time></trkpt><trkpt lat="43.31782556428818" lon="10.595561955880436"><ele>99.0</ele><time>2026-03-22T12:07:48.999Z</time></trkpt><trkpt lat="43.317904760547655" lon="10.595467313616135"><ele>99.0</ele><time>2026-03-22T12:07:51.999Z</time></trkpt><trkpt lat="43.317953769638926" lon="10.59538153658707"><ele>99.0</ele><time>2026-03-22T12:07:54.999Z</time></trkpt><trkpt lat="43.318039896583414" lon="10.595356116987956"><ele>99.0</ele><time>2026-03-22T12:08:07Z</time></trkpt><trkpt lat="43.318096831705404" lon="10.595306374804224"><ele>99.0</ele><time>2026-03-22T12:08:09Z</time></trkpt><trkpt lat="43.318159898745435" lon="10.595295538487926"><ele>99.0</ele><time>2026-03-22T12:08:11Z</time></trkpt><trkpt lat="43.31826505617137" lon="10.595261346143397"><ele>99.0</ele><time>2026-03-22T12:08:13Z</time></trkpt><trkpt lat="43.318360522563346" lon="10.595255061793475"><ele>99.33333333333333</ele><time>2026-03-22T12:08:15Z</time></trkpt><trkpt lat="43.31839304586908" lon="10.5951694392669"><ele>99.66666666666666</ele><time>2026-03-22T12:08:17Z</time></trkpt><trkpt lat="43.318385202224" lon="10.595044455456879"><ele>100.0</ele><time>2026-03-22T12:08:19Z</time></trkpt><trkpt lat="43.31843107635676" lon="10.594949802853947"><ele>100.33333333333333</ele><time>2026-03-22T12:08:22Z</time></trkpt><trkpt lat="43.31850375444355" lon="10.594869306412605"><ele>100.66666666666666</ele><time>2026-03-22T12:08:24Z</time></trkpt><trkpt lat="43.31856857261251" lon="10.594796876946129"><ele>101.0</ele><time>2026-03-22T12:08:26Z</time></trkpt><trkpt lat="43.31862961248679" lon="10.594752516233765"><ele>100.99999999999999</ele><time>2026-03-22T12:08:27Z</time></trkpt><trkpt lat="43.31867684927952" lon="10.594689188189726"><ele>101.0</ele><time>2026-03-22T12:08:28Z</time></trkpt><trkpt lat="43.31875898358211" lon="10.594575365412974"><ele>101.0</ele><time>2026-03-22T12:08:30Z</time></trkpt><trkpt lat="43.31886144723511" lon="10.594517573464449"><ele>101.0</ele><time>2026-03-22T12:08:32Z</time></trkpt><trkpt lat="43.31889873001753" lon="10.59442696020051"><ele>100.99999999999999</ele><time>2026-03-22T12:08:33Z</time></trkpt><trkpt lat="43.318959305003006" lon="10.594358898536187"><ele>101.0</ele><time>2026-03-22T12:08:35Z</time></trkpt><trkpt lat="43.31906378394858" lon="10.594292995655188"><ele>102.33333333333333</ele><time>2026-03-22T12:08:37Z</time></trkpt><trkpt lat="43.31911569272894" lon="10.594233232131133"><ele>103.66666666666666</ele><time>2026-03-22T12:08:38Z</time></trkpt><trkpt lat="43.319179684749486" lon="10.59414815934423"><ele>105.0</ele><time>2026-03-22T12:08:40Z</time></trkpt><trkpt lat="43.31926433193772" lon="10.594094602075057"><ele>106.33333333333334</ele><time>2026-03-22T12:08:42Z</time></trkpt><trkpt lat="43.31934893138816" lon="10.594091758318623"><ele>107.66666666666667</ele><time>2026-03-22T12:08:44Z</time></trkpt><trkpt lat="43.31941444761942" lon="10.594073793787135"><ele>109.0</ele><time>2026-03-22T12:08:46Z</time></trkpt><trkpt lat="43.3195159837458" lon="10.594107051789392"><ele>109.0</ele><time>2026-03-22T12:08:48Z</time></trkpt><trkpt lat="43.319599736981004" lon="10.594193925481731"><ele>109.0</ele><time>2026-03-22T12:08:51Z</time></trkpt><trkpt lat="43.31964718061791" lon="10.594261360329533"><ele>109.0</ele><time>2026-03-22T12:08:52Z</time></trkpt><trkpt lat="43.31970525710186" lon="10.594404778840344"><ele>109.0</ele><time>2026-03-22T12:08:54Z</time></trkpt><trkpt lat="43.3197787379457" lon="10.594539273930163"><ele>109.0</ele><time>2026-03-22T12:08:56Z</time></trkpt><trkpt lat="43.31981170929714" lon="10.594657255193704"><ele>111.66666666666667</ele><time>2026-03-22T12:08:58Z</time></trkpt><trkpt lat="43.31984835091539" lon="10.594752416376211"><ele>114.33333333333334</ele><time>2026-03-22T12:08:59Z</time></trkpt><trkpt lat="43.31988030884087" lon="10.594838954075101"><ele>117.0</ele><time>2026-03-22T12:09:00Z</time></trkpt><trkpt lat="43.319916726152414" lon="10.594909606955275"><ele>119.66666666666666</ele><time>2026-03-22T12:09:01Z</time></trkpt><trkpt lat="43.319950195606395" lon="10.59498344709711"><ele>122.33333333333333</ele><time>2026-03-22T12:09:02Z</time></trkpt><trkpt lat="43.32000084382688" lon="10.59509723424876"><ele>125.0</ele><time>2026-03-22T12:09:04Z</time></trkpt><trkpt lat="43.32004227265425" lon="10.595221572700753"><ele>125.0</ele><time>2026-03-22T12:09:07Z</time></trkpt><trkpt lat="43.3199858797756" lon="10.595268704529733"><ele>125.0</ele><time>2026-03-22T12:09:10Z</time></trkpt><trkpt lat="43.31990048355361" lon="10.595247264781637"><ele>125.0</ele><time>2026-03-22T12:09:14.999Z</time></trkpt><trkpt lat="43.31980126263421" lon="10.595167528682849"><ele>125.0</ele><time>2026-03-22T12:09:16.999Z</time></trkpt><trkpt lat="43.319731744150126" lon="10.595070352039476"><ele>125.0</ele><time>2026-03-22T12:09:17.999Z</time></trkpt><trkpt lat="43.319637412477725" lon="10.595082812078823"><ele>124.66666666666666</ele><time>2026-03-22T12:09:19.999Z</time></trkpt><trkpt lat="43.31957620342401" lon="10.595104091541296"><ele>124.33333333333333</ele><time>2026-03-22T12:09:20.999Z</time></trkpt><trkpt lat="43.31954456124171" lon="10.595220656921144"><ele>124.0</ele><time>2026-03-22T12:09:22.999Z</time></trkpt><trkpt lat="43.31945332485309" lon="10.595310481908715"><ele>123.66666666666666</ele><time>2026-03-22T12:09:26.999Z</time></trkpt><trkpt lat="43.31939828962293" lon="10.595369533237449"><ele>123.33333333333333</ele><time>2026-03-22T12:09:27.999Z</time></trkpt><trkpt lat="43.31941197450618" lon="10.595523188474077"><ele>123.0</ele><time>2026-03-22T12:09:30.999Z</time></trkpt><trkpt lat="43.3194462809122" lon="10.595621605184999"><ele>124.4</ele><time>2026-03-22T12:09:31.999Z</time></trkpt><trkpt lat="43.31949175086443" lon="10.595728650049647"><ele>125.80000000000001</ele><time>2026-03-22T12:09:32.999Z</time></trkpt><trkpt lat="43.31952088870333" lon="10.59587151414977"><ele>127.2</ele><time>2026-03-22T12:09:33.999Z</time></trkpt><trkpt lat="43.31951357329497" lon="10.595966214645442"><ele>128.6</ele><time>2026-03-22T12:09:34.999Z</time></trkpt><trkpt lat="43.31950612275801" lon="10.596105554505895"><ele>130.0</ele><time>2026-03-22T12:09:36.999Z</time></trkpt><trkpt lat="43.31950860100073" lon="10.596243424879454"><ele>130.83333333333334</ele><time>2026-03-22T12:09:37.999Z</time></trkpt><trkpt lat="43.3195444208095" lon="10.596341692402419"><ele>131.66666666666669</ele><time>2026-03-22T12:09:38.999Z</time></trkpt><trkpt lat="43.31955758338918" lon="10.59645382952475"><ele>132.5</ele><time>2026-03-22T12:09:39.999Z</time></trkpt><trkpt lat="43.31956125868703" lon="10.596548269140019"><ele>133.33333333333334</ele><time>2026-03-22T12:09:40.999Z</time></trkpt><trkpt lat="43.31953622422689" lon="10.596666908574198"><ele>134.16666666666666</ele><time>2026-03-22T12:09:42.999Z</time></trkpt><trkpt lat="43.31951882517744" lon="10.596812699617324"><ele>135.0</ele><time>2026-03-22T12:09:44.999Z</time></trkpt><trkpt lat="43.3195173086861" lon="10.59689989403595"><ele>136.4</ele><time>2026-03-22T12:09:53.999Z</time></trkpt><trkpt lat="43.319498871553" lon="10.59704504740559"><ele>137.8</ele><time>2026-03-22T12:10:14Z</time></trkpt><trkpt lat="43.31947418379172" lon="10.597191783034916"><ele>139.2</ele><time>2026-03-22T12:10:16Z</time></trkpt><trkpt lat="43.319465011849985" lon="10.597280671181192"><ele>140.6</ele><time>2026-03-22T12:10:17Z</time></trkpt><trkpt lat="43.31943827925318" lon="10.597461241287993"><ele>142.0</ele><time>2026-03-22T12:10:20Z</time></trkpt><trkpt lat="43.31938838077131" lon="10.597552502683284"><ele>142.0</ele><time>2026-03-22T12:10:29Z</time></trkpt><trkpt lat="43.319285664541866" lon="10.597626072365436"><ele>142.0</ele><time>2026-03-22T12:10:31Z</time></trkpt><trkpt lat="43.319210684287896" lon="10.597667380991378"><ele>142.0</ele><time>2026-03-22T12:10:32Z</time></trkpt><trkpt lat="43.319127394136956" lon="10.597730957384062"><ele>142.0</ele><time>2026-03-22T12:10:34Z</time></trkpt><trkpt lat="43.31909616091013" lon="10.597821589887301"><ele>142.0</ele><time>2026-03-22T12:10:36Z</time></trkpt><trkpt lat="43.31915863894789" lon="10.597755038668799"><ele>142.0</ele><time>2026-03-22T12:10:48Z</time></trkpt><trkpt lat="43.31924565900458" lon="10.597693503540839"><ele>142.0</ele><time>2026-03-22T12:11:06Z</time></trkpt><trkpt lat="43.31930599752736" lon="10.597651137318717"><ele>142.0</ele><time>2026-03-22T12:11:07Z</time></trkpt><trkpt lat="43.3193770200882" lon="10.59758721322163"><ele>142.0</ele><time>2026-03-22T12:11:09Z</time></trkpt><trkpt lat="43.31944085567863" lon="10.597563751366145"><ele>142.0</ele><time>2026-03-22T12:11:13Z</time></trkpt><trkpt lat="43.319519970970155" lon="10.597628159761873"><ele>142.0</ele><time>2026-03-22T12:11:16Z</time></trkpt><trkpt lat="43.319568850969056" lon="10.597684167914828"><ele>142.0</ele><time>2026-03-22T12:11:19Z</time></trkpt><trkpt lat="43.319523175006736" lon="10.597603536966558"><ele>142.0</ele><time>2026-03-22T12:12:58Z</time></trkpt><trkpt lat="43.319466429379716" lon="10.597564972218576"><ele>142.0</ele><time>2026-03-22T12:13:01Z</time></trkpt><trkpt lat="43.31939644554986" lon="10.59758276956121"><ele>142.0</ele><time>2026-03-22T12:13:03Z</time></trkpt><trkpt lat="43.31932489997604" lon="10.597614561123429"><ele>142.0</ele><time>2026-03-22T12:13:04Z</time></trkpt><trkpt lat="43.319250901703164" lon="10.597685139918651"><ele>142.0</ele><time>2026-03-22T12:13:05Z</time></trkpt><trkpt lat="43.31919362468274" lon="10.597731211614462"><ele>142.0</ele><time>2026-03-22T12:13:06Z</time></trkpt><trkpt lat="43.31911814928478" lon="10.597834480709015"><ele>142.0</ele><time>2026-03-22T12:13:08Z</time></trkpt><trkpt lat="43.31914904978475" lon="10.597975755847548"><ele>142.83333333333334</ele><time>2026-03-22T12:13:10Z</time></trkpt><trkpt lat="43.31916341814761" lon="10.598125334967447"><ele>143.66666666666669</ele><time>2026-03-22T12:13:12Z</time></trkpt><trkpt lat="43.31916913546203" lon="10.598211872779213"><ele>144.5</ele><time>2026-03-22T12:13:13Z</time></trkpt><trkpt lat="43.31917476387883" lon="10.59831219022659"><ele>145.33333333333334</ele><time>2026-03-22T12:13:14Z</time></trkpt><trkpt lat="43.3191898008546" lon="10.598418220379967"><ele>146.16666666666666</ele><time>2026-03-22T12:13:15Z</time></trkpt><trkpt lat="43.31921045768237" lon="10.5985466786188"><ele>147.0</ele><time>2026-03-22T12:13:16Z</time></trkpt><trkpt lat="43.31921096357578" lon="10.598653718021746"><ele>147.0</ele><time>2026-03-22T12:13:17Z</time></trkpt><trkpt lat="43.3191975982927" lon="10.598756820277698"><ele>147.0</ele><time>2026-03-22T12:13:18Z</time></trkpt><trkpt lat="43.31918644494085" lon="10.59885262700285"><ele>147.0</ele><time>2026-03-22T12:13:19Z</time></trkpt><trkpt lat="43.31919651019085" lon="10.598989277073095"><ele>147.0</ele><time>2026-03-22T12:13:21Z</time></trkpt><trkpt lat="43.319207866718266" lon="10.599147241740484"><ele>147.0</ele><time>2026-03-22T12:13:23Z</time></trkpt><trkpt lat="43.31921583354985" lon="10.599233372466347"><ele>147.0</ele><time>2026-03-22T12:13:24Z</time></trkpt><trkpt lat="43.31922710293088" lon="10.599340639191752"><ele>147.0</ele><time>2026-03-22T12:13:25Z</time></trkpt><trkpt lat="43.319243329241985" lon="10.599449262626912"><ele>147.0</ele><time>2026-03-22T12:13:26Z</time></trkpt><trkpt lat="43.31925082098751" lon="10.59956074970114"><ele>147.0</ele><time>2026-03-22T12:13:27Z</time></trkpt><trkpt lat="43.31925634371979" lon="10.599652221784977"><ele>147.0</ele><time>2026-03-22T12:13:28Z</time></trkpt><trkpt lat="43.319260329049456" lon="10.599768034749589"><ele>147.0</ele><time>2026-03-22T12:13:29Z</time></trkpt><trkpt lat="43.31926309503816" lon="10.59986487382527"><ele>147.0</ele><time>2026-03-22T12:13:30Z</time></trkpt><trkpt lat="43.3192498362149" lon="10.599987411317501"><ele>148.0</ele><time>2026-03-22T12:13:32Z</time></trkpt><trkpt lat="43.31921615680431" lon="10.60016411124442"><ele>149.0</ele><time>2026-03-22T12:13:34Z</time></trkpt><trkpt lat="43.31917599458482" lon="10.600278740408436"><ele>150.0</ele><time>2026-03-22T12:13:35Z</time></trkpt><trkpt lat="43.319145899381574" lon="10.600403997980674"><ele>151.0</ele><time>2026-03-22T12:13:36Z</time></trkpt><trkpt lat="43.31913046051945" lon="10.600517028300855"><ele>152.0</ele><time>2026-03-22T12:13:37Z</time></trkpt><trkpt lat="43.31906654380016" lon="10.60062691182067"><ele>153.0</ele><time>2026-03-22T12:13:38Z</time></trkpt><trkpt lat="43.3190601658664" lon="10.600739342792876"><ele>154.0</ele><time>2026-03-22T12:13:39Z</time></trkpt><trkpt lat="43.31905464832428" lon="10.600836607387246"><ele>155.0</ele><time>2026-03-22T12:13:40Z</time></trkpt><trkpt lat="43.31904446339658" lon="10.601007523328201"><ele>156.0</ele><time>2026-03-22T12:13:42Z</time></trkpt><trkpt lat="43.31903867835495" lon="10.601101505581916"><ele>157.0</ele><time>2026-03-22T12:13:43Z</time></trkpt><trkpt lat="43.31903007212814" lon="10.601224137995528"><ele>158.0</ele><time>2026-03-22T12:13:44Z</time></trkpt><trkpt lat="43.31901855773704" lon="10.601330924452785"><ele>157.4</ele><time>2026-03-22T12:13:45Z</time></trkpt><trkpt lat="43.31899579349177" lon="10.601442910693613"><ele>156.8</ele><time>2026-03-22T12:13:46Z</time></trkpt><trkpt lat="43.318956134745044" lon="10.601550595308316"><ele>156.2</ele><time>2026-03-22T12:13:47Z</time></trkpt><trkpt lat="43.31890906133173" lon="10.601674257390453"><ele>155.6</ele><time>2026-03-22T12:13:48Z</time></trkpt><trkpt lat="43.31885342305036" lon="10.601814504414838"><ele>155.0</ele><time>2026-03-22T12:13:49Z</time></trkpt><trkpt lat="43.31879091675639" lon="10.601960679085535"><ele>157.5</ele><time>2026-03-22T12:13:50Z</time></trkpt><trkpt lat="43.318734841768766" lon="10.602094423104367"><ele>160.0</ele><time>2026-03-22T12:13:50.999Z</time></trkpt><trkpt lat="43.31867850878463" lon="10.60223824302016"><ele>162.5</ele><time>2026-03-22T12:13:51.999Z</time></trkpt><trkpt lat="43.31862376041573" lon="10.60239084523953"><ele>165.0</ele><time>2026-03-22T12:13:52.999Z</time></trkpt><trkpt lat="43.318577319149156" lon="10.602517969085978"><ele>165.0</ele><time>2026-03-22T12:13:53.999Z</time></trkpt><trkpt lat="43.31853415031221" lon="10.602649364883789"><ele>165.0</ele><time>2026-03-22T12:13:54.999Z</time></trkpt><trkpt lat="43.318493921904704" lon="10.602768332537963"><ele>165.0</ele><time>2026-03-22T12:13:55.999Z</time></trkpt><trkpt lat="43.31844542417807" lon="10.602887499599195"><ele>165.0</ele><time>2026-03-22T12:13:56.999Z</time></trkpt><trkpt lat="43.31839274376606" lon="10.60301110753785"><ele>165.0</ele><time>2026-03-22T12:13:57.999Z</time></trkpt><trkpt lat="43.31831634863325" lon="10.60311940674706"><ele>164.5</ele><time>2026-03-22T12:13:58.999Z</time></trkpt><trkpt lat="43.318251663128024" lon="10.603228089284206"><ele>164.0</ele><time>2026-03-22T12:13:59.999Z</time></trkpt><trkpt lat="43.318194041536735" lon="10.603313972340851"><ele>163.5</ele><time>2026-03-22T12:14:00.999Z</time></trkpt><trkpt lat="43.3181384813883" lon="10.603391684936165"><ele>163.0</ele><time>2026-03-22T12:14:01.999Z</time></trkpt><trkpt lat="43.3180902481946" lon="10.603464489435156"><ele>162.5</ele><time>2026-03-22T12:14:02.999Z</time></trkpt><trkpt lat="43.318055371587036" lon="10.603559962472136"><ele>162.0</ele><time>2026-03-22T12:14:03.999Z</time></trkpt><trkpt lat="43.31804340312229" lon="10.603695113269334"><ele>162.0</ele><time>2026-03-22T12:14:04.999Z</time></trkpt><trkpt lat="43.318039345139105" lon="10.603826188715303"><ele>162.0</ele><time>2026-03-22T12:14:05.999Z</time></trkpt><trkpt lat="43.318040324877614" lon="10.603990431324048"><ele>162.0</ele><time>2026-03-22T12:14:06.999Z</time></trkpt><trkpt lat="43.31805590857242" lon="10.604150037553167"><ele>162.0</ele><time>2026-03-22T12:14:07.999Z</time></trkpt><trkpt lat="43.31808305737413" lon="10.604310141297098"><ele>164.0</ele><time>2026-03-22T12:14:08.999Z</time></trkpt><trkpt lat="43.318124090724716" lon="10.604455086980705"><ele>166.0</ele><time>2026-03-22T12:14:09.999Z</time></trkpt><trkpt lat="43.318194170922105" lon="10.604606955264003"><ele>168.0</ele><time>2026-03-22T12:14:10.999Z</time></trkpt><trkpt lat="43.318270129553945" lon="10.604742117754853"><ele>170.0</ele><time>2026-03-22T12:14:11.999Z</time></trkpt><trkpt lat="43.31833037639462" lon="10.604852266603789"><ele>170.4</ele><time>2026-03-22T12:14:12.999Z</time></trkpt><trkpt lat="43.318386539819926" lon="10.604976536214993"><ele>170.8</ele><time>2026-03-22T12:14:13.999Z</time></trkpt><trkpt lat="43.31842864250062" lon="10.605106171282427"><ele>171.2</ele><time>2026-03-22T12:14:14.999Z</time></trkpt><trkpt lat="43.318461299841076" lon="10.605250669960036"><ele>171.6</ele><time>2026-03-22T12:14:15.999Z</time></trkpt><trkpt lat="43.318503323317564" lon="10.605412391150832"><ele>172.0</ele><time>2026-03-22T12:14:16.999Z</time></trkpt><trkpt lat="43.318551114640414" lon="10.605564826182443"><ele>172.5</ele><time>2026-03-22T12:14:17.999Z</time></trkpt><trkpt lat="43.31860947621372" lon="10.605711039534434"><ele>173.0</ele><time>2026-03-22T12:14:19Z</time></trkpt><trkpt lat="43.318679355069946" lon="10.605844329213326"><ele>173.5</ele><time>2026-03-22T12:14:20Z</time></trkpt><trkpt lat="43.318758918294094" lon="10.605969693549664"><ele>174.0</ele><time>2026-03-22T12:14:21Z</time></trkpt><trkpt lat="43.31882027725519" lon="10.606083654277658"><ele>174.79999999999998</ele><time>2026-03-22T12:14:22Z</time></trkpt><trkpt lat="43.318858247193205" lon="10.606197471808287"><ele>175.6</ele><time>2026-03-22T12:14:23Z</time></trkpt><trkpt lat="43.31888681496752" lon="10.606337309928684"><ele>176.4</ele><time>2026-03-22T12:14:24Z</time></trkpt><trkpt lat="43.31893121438087" lon="10.6064869833741"><ele>177.2</ele><time>2026-03-22T12:14:25Z</time></trkpt><trkpt lat="43.31899742528879" lon="10.60664035040142"><ele>178.0</ele><time>2026-03-22T12:14:26Z</time></trkpt><trkpt lat="43.31905486979172" lon="10.606799719689516"><ele>178.0</ele><time>2026-03-22T12:14:27Z</time></trkpt><trkpt lat="43.319099288732154" lon="10.606955185250875"><ele>178.0</ele><time>2026-03-22T12:14:28Z</time></trkpt><trkpt lat="43.31913192157343" lon="10.607104250267364"><ele>178.0</ele><time>2026-03-22T12:14:29Z</time></trkpt><trkpt lat="43.31915618155654" lon="10.607266765529689"><ele>178.0</ele><time>2026-03-22T12:14:30Z</time></trkpt><trkpt lat="43.3191693107426" lon="10.607422929529433"><ele>179.0</ele><time>2026-03-22T12:14:31Z</time></trkpt><trkpt lat="43.31917742461436" lon="10.60759691672995"><ele>180.0</ele><time>2026-03-22T12:14:32Z</time></trkpt><trkpt lat="43.31917754866018" lon="10.607766240916952"><ele>181.0</ele><time>2026-03-22T12:14:33Z</time></trkpt><trkpt lat="43.31917337350299" lon="10.607940408463104"><ele>182.0</ele><time>2026-03-22T12:14:34Z</time></trkpt><trkpt lat="43.31916017167362" lon="10.60810147597731"><ele>182.5</ele><time>2026-03-22T12:14:35Z</time></trkpt><trkpt lat="43.319133553430255" lon="10.608247469236074"><ele>183.0</ele><time>2026-03-22T12:14:36Z</time></trkpt><trkpt lat="43.3190909549408" lon="10.608335173672867"><ele>183.5</ele><time>2026-03-22T12:14:37Z</time></trkpt><trkpt lat="43.31904864263732" lon="10.60840844900734"><ele>184.0</ele><time>2026-03-22T12:14:38Z</time></trkpt><trkpt lat="43.31898846092347" lon="10.608449575755827"><ele>184.5</ele><time>2026-03-22T12:14:39Z</time></trkpt><trkpt lat="43.31889140417904" lon="10.60854264297747"><ele>185.0</ele><time>2026-03-22T12:14:40Z</time></trkpt><trkpt lat="43.31879385020104" lon="10.608643261180386"><ele>187.0</ele><time>2026-03-22T12:14:41Z</time></trkpt><trkpt lat="43.31870549554884" lon="10.608781556922189"><ele>189.0</ele><time>2026-03-22T12:14:42Z</time></trkpt><trkpt lat="43.318619794274895" lon="10.608909321336391"><ele>191.0</ele><time>2026-03-22T12:14:43Z</time></trkpt><trkpt lat="43.31854978172545" lon="10.60901030132805"><ele>193.0</ele><time>2026-03-22T12:14:44Z</time></trkpt><trkpt lat="43.318473415943714" lon="10.609108330095523"><ele>193.0</ele><time>2026-03-22T12:14:45Z</time></trkpt><trkpt lat="43.31838039697129" lon="10.60921665086991"><ele>193.0</ele><time>2026-03-22T12:14:46Z</time></trkpt><trkpt lat="43.31828694521106" lon="10.609321679047822"><ele>193.0</ele><time>2026-03-22T12:14:47Z</time></trkpt><trkpt lat="43.31821260281359" lon="10.609403155485868"><ele>193.0</ele><time>2026-03-22T12:14:48Z</time></trkpt><trkpt lat="43.31814595518365" lon="10.609473181888067"><ele>193.0</ele><time>2026-03-22T12:14:49Z</time></trkpt><trkpt lat="43.31809476892618" lon="10.609533029095752"><ele>191.5</ele><time>2026-03-22T12:14:50Z</time></trkpt><trkpt lat="43.31805961993718" lon="10.609661524612545"><ele>190.0</ele><time>2026-03-22T12:14:51Z</time></trkpt><trkpt lat="43.3180433949957" lon="10.609803517032265"><ele>188.5</ele><time>2026-03-22T12:14:52Z</time></trkpt><trkpt lat="43.31803211302172" lon="10.609967659906888"><ele>187.0</ele><time>2026-03-22T12:14:53Z</time></trkpt><trkpt lat="43.3180382441917" lon="10.610153470813064"><ele>187.5</ele><time>2026-03-22T12:14:54Z</time></trkpt><trkpt lat="43.31805259181147" lon="10.610344326418188"><ele>188.0</ele><time>2026-03-22T12:14:55Z</time></trkpt><trkpt lat="43.31808099903545" lon="10.610538988773559"><ele>188.5</ele><time>2026-03-22T12:14:56Z</time></trkpt><trkpt lat="43.31811172717505" lon="10.6107075782931"><ele>189.0</ele><time>2026-03-22T12:14:57Z</time></trkpt><trkpt lat="43.31813926600228" lon="10.610849060945538"><ele>191.2</ele><time>2026-03-22T12:14:58Z</time></trkpt><trkpt lat="43.31815752771808" lon="10.610960015648311"><ele>193.39999999999998</ele><time>2026-03-22T12:14:59Z</time></trkpt><trkpt lat="43.31816559314775" lon="10.611077286808971"><ele>195.6</ele><time>2026-03-22T12:15:00Z</time></trkpt><trkpt lat="43.31816823958255" lon="10.611212174643809"><ele>197.8</ele><time>2026-03-22T12:15:01Z</time></trkpt><trkpt lat="43.31817256279804" lon="10.611360161367724"><ele>200.0</ele><time>2026-03-22T12:15:02Z</time></trkpt><trkpt lat="43.31817601892244" lon="10.611518740778196"><ele>200.0</ele><time>2026-03-22T12:15:03Z</time></trkpt><trkpt lat="43.31817062974605" lon="10.611656943855351"><ele>200.0</ele><time>2026-03-22T12:15:04Z</time></trkpt><trkpt lat="43.318160502906984" lon="10.611775856559953"><ele>200.0</ele><time>2026-03-22T12:15:05Z</time></trkpt><trkpt lat="43.31813276903345" lon="10.611880495851574"><ele>200.0</ele><time>2026-03-22T12:15:06Z</time></trkpt><trkpt lat="43.318100115761034" lon="10.611996112548367"><ele>200.0</ele><time>2026-03-22T12:15:07Z</time></trkpt><trkpt lat="43.318062152474205" lon="10.612122724060814"><ele>200.0</ele><time>2026-03-22T12:15:08Z</time></trkpt><trkpt lat="43.31802183584105" lon="10.61224523136641"><ele>200.0</ele><time>2026-03-22T12:15:09Z</time></trkpt><trkpt lat="43.31797433236347" lon="10.612379496605246"><ele>200.0</ele><time>2026-03-22T12:15:10Z</time></trkpt><trkpt lat="43.31791916333402" lon="10.612528387592562"><ele>200.0</ele><time>2026-03-22T12:15:11Z</time></trkpt><trkpt lat="43.317866943066015" lon="10.612663624231761"><ele>200.0</ele><time>2026-03-22T12:15:12Z</time></trkpt><trkpt lat="43.31781995480216" lon="10.612767900711859"><ele>201.66666666666669</ele><time>2026-03-22T12:15:13Z</time></trkpt><trkpt lat="43.31776687717076" lon="10.612869447871102"><ele>203.33333333333334</ele><time>2026-03-22T12:15:14Z</time></trkpt><trkpt lat="43.31771340190407" lon="10.612960526719494"><ele>205.0</ele><time>2026-03-22T12:15:15Z</time></trkpt><trkpt lat="43.3176705784197" lon="10.613069800969638"><ele>206.66666666666669</ele><time>2026-03-22T12:15:16Z</time></trkpt><trkpt lat="43.31762516635794" lon="10.613152809448854"><ele>208.33333333333334</ele><time>2026-03-22T12:15:17Z</time></trkpt><trkpt lat="43.31759804072994" lon="10.613268264467198"><ele>210.0</ele><time>2026-03-22T12:15:18Z</time></trkpt><trkpt lat="43.3176058518729" lon="10.613387994183043"><ele>210.0</ele><time>2026-03-22T12:15:19Z</time></trkpt><trkpt lat="43.31766897930461" lon="10.613474776605868"><ele>210.0</ele><time>2026-03-22T12:15:20Z</time></trkpt><trkpt lat="43.317708387434756" lon="10.6135822776487"><ele>210.0</ele><time>2026-03-22T12:15:21Z</time></trkpt><trkpt lat="43.31775921440322" lon="10.613667824550973"><ele>210.0</ele><time>2026-03-22T12:15:22Z</time></trkpt><trkpt lat="43.31780715221591" lon="10.613724719632524"><ele>210.0</ele><time>2026-03-22T12:15:23Z</time></trkpt><trkpt lat="43.31786464873544" lon="10.613813740684263"><ele>210.0</ele><time>2026-03-22T12:15:24Z</time></trkpt><trkpt lat="43.317916824881266" lon="10.613906313802996"><ele>210.2</ele><time>2026-03-22T12:15:25Z</time></trkpt><trkpt lat="43.31795513007502" lon="10.613982912937027"><ele>210.4</ele><time>2026-03-22T12:15:26Z</time></trkpt><trkpt lat="43.318002491806666" lon="10.6140761201623"><ele>210.60000000000002</ele><time>2026-03-22T12:15:27Z</time></trkpt><trkpt lat="43.317989271940974" lon="10.61421410425757"><ele>210.8</ele><time>2026-03-22T12:15:28Z</time></trkpt><trkpt lat="43.31795568603133" lon="10.614335548525135"><ele>211.0</ele><time>2026-03-22T12:15:29Z</time></trkpt><trkpt lat="43.31792560205682" lon="10.614483142633738"><ele>210.20000000000002</ele><time>2026-03-22T12:15:30Z</time></trkpt><trkpt lat="43.31789086083609" lon="10.6146259868478"><ele>209.4</ele><time>2026-03-22T12:15:31Z</time></trkpt><trkpt lat="43.317841004687686" lon="10.614789423134422"><ele>208.6</ele><time>2026-03-22T12:15:32Z</time></trkpt><trkpt lat="43.31779648822692" lon="10.61493083552632"><ele>207.8</ele><time>2026-03-22T12:15:33Z</time></trkpt><trkpt lat="43.317768976545665" lon="10.615053537544757"><ele>207.0</ele><time>2026-03-22T12:15:34Z</time></trkpt><trkpt lat="43.31777883278672" lon="10.615168731884383"><ele>207.0</ele><time>2026-03-22T12:15:35Z</time></trkpt><trkpt lat="43.31778118442948" lon="10.615284563817491"><ele>207.0</ele><time>2026-03-22T12:15:36Z</time></trkpt><trkpt lat="43.3178426409303" lon="10.615399794465361"><ele>207.0</ele><time>2026-03-22T12:15:37Z</time></trkpt><trkpt lat="43.31789729988447" lon="10.615516059260761"><ele>207.0</ele><time>2026-03-22T12:15:38Z</time></trkpt><trkpt lat="43.317944582403676" lon="10.615616819745188"><ele>207.0</ele><time>2026-03-22T12:15:39Z</time></trkpt><trkpt lat="43.317990296981094" lon="10.61571554869821"><ele>207.6</ele><time>2026-03-22T12:15:40Z</time></trkpt><trkpt lat="43.318038957310655" lon="10.615820639426428"><ele>208.2</ele><time>2026-03-22T12:15:41Z</time></trkpt><trkpt lat="43.31809036668065" lon="10.615931475511038"><ele>208.8</ele><time>2026-03-22T12:15:42Z</time></trkpt><trkpt lat="43.318147278863215" lon="10.616043961667195"><ele>209.4</ele><time>2026-03-22T12:15:43Z</time></trkpt><trkpt lat="43.31820814356671" lon="10.61614535079542"><ele>210.0</ele><time>2026-03-22T12:15:44Z</time></trkpt><trkpt lat="43.318274013177145" lon="10.616247361448181"><ele>212.33333333333334</ele><time>2026-03-22T12:15:45Z</time></trkpt><trkpt lat="43.31830427729652" lon="10.616377899168462"><ele>214.66666666666669</ele><time>2026-03-22T12:15:46Z</time></trkpt><trkpt lat="43.318331875891914" lon="10.616498022830807"><ele>217.0</ele><time>2026-03-22T12:15:47Z</time></trkpt><trkpt lat="43.31835616337661" lon="10.616617635073592"><ele>219.33333333333334</ele><time>2026-03-22T12:15:48Z</time></trkpt><trkpt lat="43.31837629566863" lon="10.616735991877267"><ele>221.66666666666669</ele><time>2026-03-22T12:15:49Z</time></trkpt><trkpt lat="43.31838413057882" lon="10.616824218535083"><ele>224.0</ele><time>2026-03-22T12:15:50Z</time></trkpt><trkpt lat="43.31837539921791" lon="10.616941450185315"><ele>224.83333333333334</ele><time>2026-03-22T12:15:52Z</time></trkpt><trkpt lat="43.31836566816147" lon="10.617030523126866"><ele>225.66666666666669</ele><time>2026-03-22T12:15:55Z</time></trkpt><trkpt lat="43.31835517087323" lon="10.617134015854138"><ele>226.5</ele><time>2026-03-22T12:15:58Z</time></trkpt><trkpt lat="43.318346020040266" lon="10.617248108525729"><ele>227.33333333333331</ele><time>2026-03-22T12:16:00Z</time></trkpt><trkpt lat="43.31834057783544" lon="10.617390441423577"><ele>228.16666666666666</ele><time>2026-03-22T12:16:02Z</time></trkpt><trkpt lat="43.31835996164263" lon="10.617488935966207"><ele>229.0</ele><time>2026-03-22T12:16:03Z</time></trkpt><trkpt lat="43.318377022053056" lon="10.617582338690221"><ele>229.0</ele><time>2026-03-22T12:16:04Z</time></trkpt><trkpt lat="43.31840359624135" lon="10.617709718986822"><ele>228.99999999999997</ele><time>2026-03-22T12:16:05Z</time></trkpt><trkpt lat="43.318428902238125" lon="10.617834034840826"><ele>228.99999999999997</ele><time>2026-03-22T12:16:06Z</time></trkpt><trkpt lat="43.31845289845247" lon="10.617952527289752"><ele>229.0</ele><time>2026-03-22T12:16:07Z</time></trkpt><trkpt lat="43.318482679462235" lon="10.618080358738542"><ele>229.0</ele><time>2026-03-22T12:16:08Z</time></trkpt><trkpt lat="43.31851442091106" lon="10.618197136442314"><ele>228.79999999999998</ele><time>2026-03-22T12:16:09Z</time></trkpt><trkpt lat="43.31856985699231" lon="10.618321069451868"><ele>228.59999999999997</ele><time>2026-03-22T12:16:10Z</time></trkpt><trkpt lat="43.318633175210834" lon="10.618419502286594"><ele>228.4</ele><time>2026-03-22T12:16:11Z</time></trkpt><trkpt lat="43.31872418330397" lon="10.618496130257904"><ele>228.2</ele><time>2026-03-22T12:16:11.999Z</time></trkpt><trkpt lat="43.31881067850287" lon="10.61855381652371"><ele>228.0</ele><time>2026-03-22T12:16:12.999Z</time></trkpt><trkpt lat="43.318859690290246" lon="10.618645335026235"><ele>229.4</ele><time>2026-03-22T12:16:13.999Z</time></trkpt><trkpt lat="43.318901501702676" lon="10.61871641627541"><ele>230.8</ele><time>2026-03-22T12:16:14.999Z</time></trkpt><trkpt lat="43.318948661028934" lon="10.618806286979162"><ele>232.2</ele><time>2026-03-22T12:16:15.999Z</time></trkpt><trkpt lat="43.319000833388145" lon="10.618924035240688"><ele>233.6</ele><time>2026-03-22T12:16:16.999Z</time></trkpt><trkpt lat="43.31904346658082" lon="10.619046628547725"><ele>235.0</ele><time>2026-03-22T12:16:17.999Z</time></trkpt><trkpt lat="43.31909166259423" lon="10.619183343095717"><ele>234.99999999999997</ele><time>2026-03-22T12:16:18.999Z</time></trkpt><trkpt lat="43.319147087767476" lon="10.61931264357101"><ele>235.0</ele><time>2026-03-22T12:16:19.999Z</time></trkpt><trkpt lat="43.3192029130579" lon="10.619415006132703"><ele>235.0</ele><time>2026-03-22T12:16:20.999Z</time></trkpt><trkpt lat="43.319245649205044" lon="10.619511390936243"><ele>235.0</ele><time>2026-03-22T12:16:21.999Z</time></trkpt><trkpt lat="43.31928207097453" lon="10.619601603968254"><ele>234.99999999999997</ele><time>2026-03-22T12:16:22.999Z</time></trkpt><trkpt lat="43.31931298467286" lon="10.619707509582188"><ele>235.0</ele><time>2026-03-22T12:16:23.999Z</time></trkpt><trkpt lat="43.31933558848905" lon="10.619818484149269"><ele>235.4</ele><time>2026-03-22T12:16:25Z</time></trkpt><trkpt lat="43.319360268414805" lon="10.619950532255137"><ele>235.8</ele><time>2026-03-22T12:16:26Z</time></trkpt><trkpt lat="43.319380570524835" lon="10.62006607549879"><ele>236.2</ele><time>2026-03-22T12:16:27Z</time></trkpt><trkpt lat="43.319401565029096" lon="10.620185996399943"><ele>236.6</ele><time>2026-03-22T12:16:28Z</time></trkpt><trkpt lat="43.31942436420347" lon="10.620311063969508"><ele>237.0</ele><time>2026-03-22T12:16:29Z</time></trkpt><trkpt lat="43.31946789848425" lon="10.620433287806113"><ele>237.8</ele><time>2026-03-22T12:16:30Z</time></trkpt><trkpt lat="43.31949076443757" lon="10.620571003603061"><ele>238.6</ele><time>2026-03-22T12:16:31Z</time></trkpt><trkpt lat="43.3195019429927" lon="10.620718197351492"><ele>239.40000000000003</ele><time>2026-03-22T12:16:32Z</time></trkpt><trkpt lat="43.319518152967966" lon="10.62085432058148"><ele>240.20000000000002</ele><time>2026-03-22T12:16:33Z</time></trkpt><trkpt lat="43.31952848198741" lon="10.620971662188428"><ele>241.0</ele><time>2026-03-22T12:16:34Z</time></trkpt><trkpt lat="43.31953420287171" lon="10.621071769332316"><ele>241.49999999999997</ele><time>2026-03-22T12:16:35Z</time></trkpt><trkpt lat="43.31953712336384" lon="10.621170885857849"><ele>242.0</ele><time>2026-03-22T12:16:36Z</time></trkpt><trkpt lat="43.31953539883057" lon="10.621271657060866"><ele>242.5</ele><time>2026-03-22T12:16:37Z</time></trkpt><trkpt lat="43.31953079259117" lon="10.621376278411555"><ele>243.0</ele><time>2026-03-22T12:16:38Z</time></trkpt><trkpt lat="43.319521490347626" lon="10.621483411621652"><ele>243.49999999999997</ele><time>2026-03-22T12:16:39Z</time></trkpt><trkpt lat="43.319504507896546" lon="10.621601173033264"><ele>244.0</ele><time>2026-03-22T12:16:40Z</time></trkpt><trkpt lat="43.31948649023093" lon="10.621716968515068"><ele>244.0</ele><time>2026-03-22T12:16:41Z</time></trkpt><trkpt lat="43.31946632916353" lon="10.62184653919449"><ele>243.99999999999997</ele><time>2026-03-22T12:16:42Z</time></trkpt><trkpt lat="43.31944504672491" lon="10.621971040919505"><ele>243.99999999999997</ele><time>2026-03-22T12:16:43Z</time></trkpt><trkpt lat="43.31942410343939" lon="10.622085594021904"><ele>244.0</ele><time>2026-03-22T12:16:44Z</time></trkpt><trkpt lat="43.319396784766575" lon="10.622214434208267"><ele>244.0</ele><time>2026-03-22T12:16:45Z</time></trkpt><trkpt lat="43.31935962252585" lon="10.622332544158224"><ele>244.2</ele><time>2026-03-22T12:16:46Z</time></trkpt><trkpt lat="43.319320680264745" lon="10.622471448591174"><ele>244.39999999999998</ele><time>2026-03-22T12:16:47Z</time></trkpt><trkpt lat="43.31929275296213" lon="10.622624601023004"><ele>244.6</ele><time>2026-03-22T12:16:48Z</time></trkpt><trkpt lat="43.319280993999456" lon="10.622764463531837"><ele>244.8</ele><time>2026-03-22T12:16:49Z</time></trkpt><trkpt lat="43.31927468232114" lon="10.622906213107067"><ele>245.0</ele><time>2026-03-22T12:16:50Z</time></trkpt><trkpt lat="43.31927434476249" lon="10.62305733218223"><ele>245.2</ele><time>2026-03-22T12:16:51Z</time></trkpt><trkpt lat="43.319283035026096" lon="10.623213242708351"><ele>245.4</ele><time>2026-03-22T12:16:52Z</time></trkpt><trkpt lat="43.31930575332552" lon="10.623362985075424"><ele>245.60000000000002</ele><time>2026-03-22T12:16:53Z</time></trkpt><trkpt lat="43.31932772862055" lon="10.623482667533027"><ele>245.8</ele><time>2026-03-22T12:16:54Z</time></trkpt><trkpt lat="43.31934731376749" lon="10.623600613370206"><ele>246.0</ele><time>2026-03-22T12:16:55Z</time></trkpt><trkpt lat="43.319353714953955" lon="10.623748974926759"><ele>246.60000000000002</ele><time>2026-03-22T12:16:57Z</time></trkpt><trkpt lat="43.319325768086536" lon="10.623930885695708"><ele>247.20000000000002</ele><time>2026-03-22T12:16:59Z</time></trkpt><trkpt lat="43.319300842717865" lon="10.624050460154637"><ele>247.79999999999998</ele><time>2026-03-22T12:17:00Z</time></trkpt><trkpt lat="43.31926963843595" lon="10.624174520404715"><ele>248.39999999999998</ele><time>2026-03-22T12:17:01Z</time></trkpt><trkpt lat="43.31925044052103" lon="10.624305513478339"><ele>249.0</ele><time>2026-03-22T12:17:02Z</time></trkpt><trkpt lat="43.31923758697797" lon="10.624412863774866"><ele>249.25</ele><time>2026-03-22T12:17:03Z</time></trkpt><trkpt lat="43.31922579395021" lon="10.62451135709437"><ele>249.5</ele><time>2026-03-22T12:17:04Z</time></trkpt><trkpt lat="43.31920644434981" lon="10.62468316254543"><ele>249.75</ele><time>2026-03-22T12:17:06Z</time></trkpt><trkpt lat="43.31919530717209" lon="10.624816149307788"><ele>250.0</ele><time>2026-03-22T12:17:08Z</time></trkpt><trkpt lat="43.31939699863042" lon="10.624869012383758"><ele>250.0</ele><time>2026-03-22T12:17:10Z</time></trkpt><trkpt lat="43.31948650764086" lon="10.62485741157641"><ele>250.0</ele><time>2026-03-22T12:17:11Z</time></trkpt><trkpt lat="43.319594517285324" lon="10.624843585514398"><ele>250.0</ele><time>2026-03-22T12:17:12Z</time></trkpt><trkpt lat="43.319720839907916" lon="10.624843903922722"><ele>250.0</ele><time>2026-03-22T12:17:13Z</time></trkpt><trkpt lat="43.31985652748992" lon="10.624924782098342"><ele>248.0</ele><time>2026-03-22T12:17:14Z</time></trkpt><trkpt lat="43.31994420099155" lon="10.62506529014806"><ele>246.0</ele><time>2026-03-22T12:17:15Z</time></trkpt><trkpt lat="43.32004335827526" lon="10.62519241195827"><ele>244.0</ele><time>2026-03-22T12:17:16Z</time></trkpt><trkpt lat="43.32006309696612" lon="10.625366273873476"><ele>242.0</ele><time>2026-03-22T12:17:17Z</time></trkpt><trkpt lat="43.32007367576858" lon="10.625524163626093"><ele>242.0</ele><time>2026-03-22T12:17:18Z</time></trkpt><trkpt lat="43.32006527145071" lon="10.62568257558895"><ele>242.0</ele><time>2026-03-22T12:17:19Z</time></trkpt><trkpt lat="43.32003435467731" lon="10.625862688507338"><ele>242.0</ele><time>2026-03-22T12:17:20Z</time></trkpt><trkpt lat="43.31999983043129" lon="10.626044427730921"><ele>242.0</ele><time>2026-03-22T12:17:21Z</time></trkpt><trkpt lat="43.31997831506298" lon="10.626236183969793"><ele>242.0</ele><time>2026-03-22T12:17:22Z</time></trkpt><trkpt lat="43.31997600652006" lon="10.626438540220345"><ele>242.0</ele><time>2026-03-22T12:17:23Z</time></trkpt><trkpt lat="43.32000431884638" lon="10.626667260040197"><ele>242.0</ele><time>2026-03-22T12:17:24Z</time></trkpt><trkpt lat="43.32005261059634" lon="10.626871797278632"><ele>243.33333333333334</ele><time>2026-03-22T12:17:25Z</time></trkpt><trkpt lat="43.32014538840492" lon="10.627063347631797"><ele>244.66666666666669</ele><time>2026-03-22T12:17:26Z</time></trkpt><trkpt lat="43.32025578053605" lon="10.627225697828319"><ele>246.0</ele><time>2026-03-22T12:17:27Z</time></trkpt><trkpt lat="43.32037349767377" lon="10.62740447186752"><ele>246.0</ele><time>2026-03-22T12:17:28Z</time></trkpt><trkpt lat="43.32048903369106" lon="10.62760460271211"><ele>246.0</ele><time>2026-03-22T12:17:29Z</time></trkpt><trkpt lat="43.32061720718515" lon="10.627794553497838"><ele>246.0</ele><time>2026-03-22T12:17:30Z</time></trkpt><trkpt lat="43.32074124487068" lon="10.627978534728847"><ele>239.0</ele><time>2026-03-22T12:17:31Z</time></trkpt><trkpt lat="43.3208565430225" lon="10.628149535833078"><ele>232.0</ele><time>2026-03-22T12:17:32Z</time></trkpt><trkpt lat="43.32096663559893" lon="10.628312816518806"><ele>225.0</ele><time>2026-03-22T12:17:33Z</time></trkpt><trkpt lat="43.32107705114799" lon="10.628476576097029"><ele>225.0</ele><time>2026-03-22T12:17:34Z</time></trkpt><trkpt lat="43.32118523426717" lon="10.628637024356074"><ele>225.0</ele><time>2026-03-22T12:17:35Z</time></trkpt><trkpt lat="43.32129294410887" lon="10.628793214766102"><ele>225.0</ele><time>2026-03-22T12:17:36Z</time></trkpt><trkpt lat="43.3213937811709" lon="10.628944687620205"><ele>222.25</ele><time>2026-03-22T12:17:37Z</time></trkpt><trkpt lat="43.32148763357183" lon="10.629099661957461"><ele>219.5</ele><time>2026-03-22T12:17:38Z</time></trkpt><trkpt lat="43.32156675566039" lon="10.62925123537122"><ele>216.75</ele><time>2026-03-22T12:17:39Z</time></trkpt><trkpt lat="43.321627037120045" lon="10.629412548131308"><ele>214.0</ele><time>2026-03-22T12:17:40Z</time></trkpt><trkpt lat="43.32166764793034" lon="10.62957313013903"><ele>213.5</ele><time>2026-03-22T12:17:41Z</time></trkpt><trkpt lat="43.32168757456836" lon="10.629738105920197"><ele>213.0</ele><time>2026-03-22T12:17:42Z</time></trkpt><trkpt lat="43.321690123221835" lon="10.629916901185233"><ele>212.5</ele><time>2026-03-22T12:17:43Z</time></trkpt><trkpt lat="43.321678414019054" lon="10.6301214988771"><ele>212.0</ele><time>2026-03-22T12:17:44Z</time></trkpt><trkpt lat="43.32165778849697" lon="10.630369152772278"><ele>210.66666666666669</ele><time>2026-03-22T12:17:45Z</time></trkpt><trkpt lat="43.32163543563609" lon="10.630631201692845"><ele>209.33333333333331</ele><time>2026-03-22T12:17:46Z</time></trkpt><trkpt lat="43.321614413621226" lon="10.630877648465454"><ele>208.0</ele><time>2026-03-22T12:17:47Z</time></trkpt><trkpt lat="43.32159488987511" lon="10.631124035979289"><ele>206.66666666666666</ele><time>2026-03-22T12:17:48Z</time></trkpt><trkpt lat="43.321576850538214" lon="10.631360659318956"><ele>205.33333333333331</ele><time>2026-03-22T12:17:49Z</time></trkpt><trkpt lat="43.3215621003827" lon="10.63158284176053"><ele>204.0</ele><time>2026-03-22T12:17:50Z</time></trkpt><trkpt lat="43.32155584275377" lon="10.631787007864583"><ele>201.5</ele><time>2026-03-22T12:17:51Z</time></trkpt><trkpt lat="43.321586444538184" lon="10.631997808582671"><ele>199.0</ele><time>2026-03-22T12:17:52Z</time></trkpt><trkpt lat="43.32165862903866" lon="10.63215708674989"><ele>196.5</ele><time>2026-03-22T12:17:53Z</time></trkpt><trkpt lat="43.32178708722467" lon="10.632264843859039"><ele>194.0</ele><time>2026-03-22T12:17:54Z</time></trkpt><trkpt lat="43.321917167859844" lon="10.632359491037777"><ele>194.0</ele><time>2026-03-22T12:17:55Z</time></trkpt><trkpt lat="43.322065812327125" lon="10.632409155764206"><ele>194.0</ele><time>2026-03-22T12:17:56Z</time></trkpt><trkpt lat="43.32220668216855" lon="10.632455857284246"><ele>194.0</ele><time>2026-03-22T12:17:57Z</time></trkpt><trkpt lat="43.322355557380604" lon="10.632321262586029"><ele>196.5</ele><time>2026-03-22T12:17:58Z</time></trkpt><trkpt lat="43.32246032857124" lon="10.632217511911916"><ele>199.0</ele><time>2026-03-22T12:17:59Z</time></trkpt><trkpt lat="43.322519431370665" lon="10.632087280973408"><ele>201.5</ele><time>2026-03-22T12:18:00Z</time></trkpt><trkpt lat="43.322569655763616" lon="10.631948847934554"><ele>204.0</ele><time>2026-03-22T12:18:01Z</time></trkpt><trkpt lat="43.322627556105324" lon="10.631785448067184"><ele>204.0</ele><time>2026-03-22T12:18:02Z</time></trkpt><trkpt lat="43.32268768270474" lon="10.631604127855878"><ele>204.0</ele><time>2026-03-22T12:18:03Z</time></trkpt><trkpt lat="43.322707152355704" lon="10.631380870114857"><ele>204.0</ele><time>2026-03-22T12:18:04Z</time></trkpt><trkpt lat="43.322777100027515" lon="10.631157348568687"><ele>202.66666666666669</ele><time>2026-03-22T12:18:05Z</time></trkpt><trkpt lat="43.32286161804448" lon="10.63092492255649"><ele>201.33333333333334</ele><time>2026-03-22T12:18:06Z</time></trkpt><trkpt lat="43.32294039480872" lon="10.630673728049045"><ele>200.0</ele><time>2026-03-22T12:18:07Z</time></trkpt><trkpt lat="43.3230140374185" lon="10.630441052330477"><ele>202.33333333333334</ele><time>2026-03-22T12:18:08Z</time></trkpt><trkpt lat="43.32307803747076" lon="10.630226154318608"><ele>204.66666666666669</ele><time>2026-03-22T12:18:08.999Z</time></trkpt><trkpt lat="43.32312776271029" lon="10.63002003898853"><ele>207.0</ele><time>2026-03-22T12:18:09.999Z</time></trkpt><trkpt lat="43.3231885064472" lon="10.629824429029691"><ele>207.0</ele><time>2026-03-22T12:18:10.999Z</time></trkpt><trkpt lat="43.323255545449804" lon="10.629651507971948"><ele>207.0</ele><time>2026-03-22T12:18:11.999Z</time></trkpt><trkpt lat="43.323302843803226" lon="10.629481267382262"><ele>207.0</ele><time>2026-03-22T12:18:12.999Z</time></trkpt><trkpt lat="43.323351850366485" lon="10.629318431706164"><ele>207.0</ele><time>2026-03-22T12:18:13.999Z</time></trkpt><trkpt lat="43.32340033714146" lon="10.629169022330066"><ele>205.5</ele><time>2026-03-22T12:18:14.999Z</time></trkpt><trkpt lat="43.32345087586272" lon="10.629012998477338"><ele>204.0</ele><time>2026-03-22T12:18:15.999Z</time></trkpt><trkpt lat="43.32350942073381" lon="10.628844244995943"><ele>202.5</ele><time>2026-03-22T12:18:16.999Z</time></trkpt><trkpt lat="43.323561932700684" lon="10.628648764974207"><ele>201.0</ele><time>2026-03-22T12:18:17.999Z</time></trkpt><trkpt lat="43.32362923703325" lon="10.62845018152399"><ele>198.33333333333331</ele><time>2026-03-22T12:18:18.999Z</time></trkpt><trkpt lat="43.323698640005475" lon="10.628240936891865"><ele>195.66666666666666</ele><time>2026-03-22T12:18:19.999Z</time></trkpt><trkpt lat="43.32377477127113" lon="10.628030693693795"><ele>193.0</ele><time>2026-03-22T12:18:20.999Z</time></trkpt><trkpt lat="43.323871534483715" lon="10.627826720484085"><ele>196.66666666666666</ele><time>2026-03-22T12:18:21.999Z</time></trkpt><trkpt lat="43.3239975794439" lon="10.627608905368206"><ele>200.33333333333331</ele><time>2026-03-22T12:18:22.999Z</time></trkpt><trkpt lat="43.32414613421718" lon="10.627400225060537"><ele>204.0</ele><time>2026-03-22T12:18:23.999Z</time></trkpt><trkpt lat="43.32429757441562" lon="10.627187903139125"><ele>199.5</ele><time>2026-03-22T12:18:24.999Z</time></trkpt><trkpt lat="43.32445105754017" lon="10.626952344932246"><ele>195.0</ele><time>2026-03-22T12:18:25.999Z</time></trkpt><trkpt lat="43.32458458429202" lon="10.626669879796415"><ele>195.0</ele><time>2026-03-22T12:18:26.999Z</time></trkpt><trkpt lat="43.32470278633915" lon="10.62636987950534"><ele>195.0</ele><time>2026-03-22T12:18:27.999Z</time></trkpt><trkpt lat="43.32480295038085" lon="10.626078078629773"><ele>197.66666666666669</ele><time>2026-03-22T12:18:28.999Z</time></trkpt><trkpt lat="43.324884016546726" lon="10.625795996129378"><ele>200.33333333333334</ele><time>2026-03-22T12:18:29.999Z</time></trkpt><trkpt lat="43.32496563808247" lon="10.62552487747989"><ele>203.0</ele><time>2026-03-22T12:18:31Z</time></trkpt><trkpt lat="43.32504030910713" lon="10.625269380941475"><ele>203.0</ele><time>2026-03-22T12:18:32Z</time></trkpt><trkpt lat="43.32511522258533" lon="10.625015230178759"><ele>203.0</ele><time>2026-03-22T12:18:33Z</time></trkpt><trkpt lat="43.32519257551811" lon="10.624765846678963"><ele>203.0</ele><time>2026-03-22T12:18:34Z</time></trkpt><trkpt lat="43.32526949912231" lon="10.624522538207072"><ele>200.66666666666669</ele><time>2026-03-22T12:18:35Z</time></trkpt><trkpt lat="43.32535995426589" lon="10.624287380251193"><ele>198.33333333333331</ele><time>2026-03-22T12:18:36Z</time></trkpt><trkpt lat="43.32544179961302" lon="10.624056658815093"><ele>196.0</ele><time>2026-03-22T12:18:37Z</time></trkpt><trkpt lat="43.32551904224243" lon="10.623826773856226"><ele>199.0</ele><time>2026-03-22T12:18:38Z</time></trkpt><trkpt lat="43.32558444810614" lon="10.623600165872055"><ele>202.0</ele><time>2026-03-22T12:18:39Z</time></trkpt><trkpt lat="43.32566279472421" lon="10.623347485389996"><ele>205.0</ele><time>2026-03-22T12:18:40Z</time></trkpt><trkpt lat="43.325730312425186" lon="10.623135725005495"><ele>205.0</ele><time>2026-03-22T12:18:41Z</time></trkpt><trkpt lat="43.32580213545307" lon="10.622921031494649"><ele>205.0</ele><time>2026-03-22T12:18:42Z</time></trkpt><trkpt lat="43.325870844881976" lon="10.622698536151177"><ele>205.0</ele><time>2026-03-22T12:18:43Z</time></trkpt><trkpt lat="43.325942808994164" lon="10.622471443382082"><ele>203.0</ele><time>2026-03-22T12:18:44Z</time></trkpt><trkpt lat="43.326013817978655" lon="10.622247591563811"><ele>201.0</ele><time>2026-03-22T12:18:45Z</time></trkpt><trkpt lat="43.32608856118306" lon="10.622026117155869"><ele>199.0</ele><time>2026-03-22T12:18:46Z</time></trkpt><trkpt lat="43.32615521160702" lon="10.621809301831437"><ele>197.0</ele><time>2026-03-22T12:18:47Z</time></trkpt><trkpt lat="43.32622317068663" lon="10.621602059089414"><ele>195.0</ele><time>2026-03-22T12:18:48Z</time></trkpt><trkpt lat="43.32629023261315" lon="10.621397341819115"><ele>193.0</ele><time>2026-03-22T12:18:49Z</time></trkpt><trkpt lat="43.326355280779616" lon="10.621207280895074"><ele>195.66666666666666</ele><time>2026-03-22T12:18:50Z</time></trkpt><trkpt lat="43.32641902362011" lon="10.621029182502621"><ele>198.33333333333331</ele><time>2026-03-22T12:18:51Z</time></trkpt><trkpt lat="43.326499295236" lon="10.620852722110932"><ele>201.0</ele><time>2026-03-22T12:18:52Z</time></trkpt><trkpt lat="43.32659619562756" lon="10.62068829503065"><ele>201.0</ele><time>2026-03-22T12:18:53Z</time></trkpt><trkpt lat="43.326719789712286" lon="10.62054031943411"><ele>201.0</ele><time>2026-03-22T12:18:54Z</time></trkpt><trkpt lat="43.32686840413326" lon="10.620437027207748"><ele>201.0</ele><time>2026-03-22T12:18:55Z</time></trkpt><trkpt lat="43.32704036932671" lon="10.620340907965174"><ele>199.66666666666669</ele><time>2026-03-22T12:18:56Z</time></trkpt><trkpt lat="43.32721007048919" lon="10.62024811944398"><ele>198.33333333333334</ele><time>2026-03-22T12:18:57Z</time></trkpt><trkpt lat="43.32736129159563" lon="10.620100336223905"><ele>197.0</ele><time>2026-03-22T12:18:58Z</time></trkpt><trkpt lat="43.327504638841326" lon="10.619959911072431"><ele>196.66666666666669</ele><time>2026-03-22T12:18:59Z</time></trkpt><trkpt lat="43.32758205356768" lon="10.619744753283014"><ele>196.33333333333331</ele><time>2026-03-22T12:19:00Z</time></trkpt><trkpt lat="43.32766138686009" lon="10.619521858482791"><ele>196.0</ele><time>2026-03-22T12:19:01Z</time></trkpt><trkpt lat="43.32775417368347" lon="10.619283027261751"><ele>198.33333333333331</ele><time>2026-03-22T12:19:02Z</time></trkpt><trkpt lat="43.32783245525698" lon="10.619050265972449"><ele>200.66666666666669</ele><time>2026-03-22T12:19:03Z</time></trkpt><trkpt lat="43.327897009763674" lon="10.618835942547957"><ele>203.0</ele><time>2026-03-22T12:19:04Z</time></trkpt><trkpt lat="43.32796259957841" lon="10.618640612967758"><ele>204.75</ele><time>2026-03-22T12:19:05Z</time></trkpt><trkpt lat="43.32802275246072" lon="10.618456618656147"><ele>206.5</ele><time>2026-03-22T12:19:06Z</time></trkpt><trkpt lat="43.32808084777158" lon="10.618279432104478"><ele>208.25</ele><time>2026-03-22T12:19:07Z</time></trkpt><trkpt lat="43.32813687942055" lon="10.618114790323927"><ele>210.0</ele><time>2026-03-22T12:19:08Z</time></trkpt><trkpt lat="43.32817233133278" lon="10.61794319164118"><ele>207.75</ele><time>2026-03-22T12:19:09Z</time></trkpt><trkpt lat="43.328219906041596" lon="10.617762799149888"><ele>205.5</ele><time>2026-03-22T12:19:10Z</time></trkpt><trkpt lat="43.3282726967557" lon="10.617599688408637"><ele>203.25</ele><time>2026-03-22T12:19:11Z</time></trkpt><trkpt lat="43.32830042701941" lon="10.617420603164355"><ele>201.0</ele><time>2026-03-22T12:19:12Z</time></trkpt><trkpt lat="43.328306213658735" lon="10.61723701216143"><ele>201.0</ele><time>2026-03-22T12:19:13Z</time></trkpt><trkpt lat="43.32831230085567" lon="10.617054502870356"><ele>201.0</ele><time>2026-03-22T12:19:14Z</time></trkpt><trkpt lat="43.32831921774272" lon="10.616863505937314"><ele>201.0</ele><time>2026-03-22T12:19:15Z</time></trkpt><trkpt lat="43.32827936942576" lon="10.61666345994807"><ele>201.0</ele><time>2026-03-22T12:19:16Z</time></trkpt><trkpt lat="43.32821772298714" lon="10.616428333102332"><ele>201.0</ele><time>2026-03-22T12:19:17Z</time></trkpt><trkpt lat="43.328156083308606" lon="10.616173464249972"><ele>201.0</ele><time>2026-03-22T12:19:18Z</time></trkpt><trkpt lat="43.328099728680385" lon="10.615896194360923"><ele>201.0</ele><time>2026-03-22T12:19:19Z</time></trkpt><trkpt lat="43.328050617579784" lon="10.615604408389471"><ele>196.66666666666666</ele><time>2026-03-22T12:19:20Z</time></trkpt><trkpt lat="43.32799450983925" lon="10.61531229764568"><ele>192.33333333333331</ele><time>2026-03-22T12:19:21Z</time></trkpt><trkpt lat="43.327919310194325" lon="10.615015882609109"><ele>188.0</ele><time>2026-03-22T12:19:22Z</time></trkpt><trkpt lat="43.327849426904855" lon="10.614729710293847"><ele>187.0</ele><time>2026-03-22T12:19:23Z</time></trkpt><trkpt lat="43.32778370041024" lon="10.614453076199181"><ele>186.0</ele><time>2026-03-22T12:19:24Z</time></trkpt><trkpt lat="43.3277330945171" lon="10.614191659118738"><ele>185.0</ele><time>2026-03-22T12:19:25Z</time></trkpt><trkpt lat="43.32769474028174" lon="10.613933844988438"><ele>185.0</ele><time>2026-03-22T12:19:26Z</time></trkpt><trkpt lat="43.32766762608596" lon="10.613665795441984"><ele>185.0</ele><time>2026-03-22T12:19:27Z</time></trkpt><trkpt lat="43.327648126706" lon="10.613400054127869"><ele>185.0</ele><time>2026-03-22T12:19:28Z</time></trkpt><trkpt lat="43.327649743755785" lon="10.613122132770107"><ele>184.66666666666666</ele><time>2026-03-22T12:19:29Z</time></trkpt><trkpt lat="43.327648631978036" lon="10.612846663627831"><ele>184.33333333333334</ele><time>2026-03-22T12:19:30Z</time></trkpt><trkpt lat="43.32766152285135" lon="10.612589495866752"><ele>184.0</ele><time>2026-03-22T12:19:31Z</time></trkpt><trkpt lat="43.327675425399775" lon="10.61231999284544"><ele>184.33333333333334</ele><time>2026-03-22T12:19:32Z</time></trkpt><trkpt lat="43.32768926616579" lon="10.612055140600782"><ele>184.66666666666666</ele><time>2026-03-22T12:19:33Z</time></trkpt><trkpt lat="43.32770383971276" lon="10.611777547496173"><ele>185.0</ele><time>2026-03-22T12:19:34Z</time></trkpt><trkpt lat="43.32771777349016" lon="10.611512140503857"><ele>185.0</ele><time>2026-03-22T12:19:35Z</time></trkpt><trkpt lat="43.327760906283295" lon="10.611265004706459"><ele>185.0</ele><time>2026-03-22T12:19:36Z</time></trkpt><trkpt lat="43.327775470794506" lon="10.611022047741093"><ele>185.0</ele><time>2026-03-22T12:19:37Z</time></trkpt><trkpt lat="43.32779076378506" lon="10.61080462777379"><ele>184.33333333333331</ele><time>2026-03-22T12:19:38Z</time></trkpt><trkpt lat="43.327796251026996" lon="10.610582712885583"><ele>183.66666666666666</ele><time>2026-03-22T12:19:39Z</time></trkpt><trkpt lat="43.32778175500263" lon="10.610357041025642"><ele>183.0</ele><time>2026-03-22T12:19:40Z</time></trkpt><trkpt lat="43.3277129439899" lon="10.610144759896441"><ele>183.0</ele><time>2026-03-22T12:19:41Z</time></trkpt><trkpt lat="43.327646316438724" lon="10.609910245317973"><ele>183.0</ele><time>2026-03-22T12:19:42Z</time></trkpt><trkpt lat="43.32751183797531" lon="10.609717432253529"><ele>183.0</ele><time>2026-03-22T12:19:43Z</time></trkpt><trkpt lat="43.32734419809782" lon="10.609561106594041"><ele>181.0</ele><time>2026-03-22T12:19:44Z</time></trkpt><trkpt lat="43.327168778511556" lon="10.60942065360881"><ele>179.0</ele><time>2026-03-22T12:19:45Z</time></trkpt><trkpt lat="43.32700136957013" lon="10.609274628517678"><ele>177.0</ele><time>2026-03-22T12:19:46Z</time></trkpt><trkpt lat="43.32685893874752" lon="10.609109736492702"><ele>177.0</ele><time>2026-03-22T12:19:47Z</time></trkpt><trkpt lat="43.326724103236295" lon="10.608914155652514"><ele>177.0</ele><time>2026-03-22T12:19:48Z</time></trkpt><trkpt lat="43.32661005341403" lon="10.608669489450152"><ele>177.0</ele><time>2026-03-22T12:19:49Z</time></trkpt><trkpt lat="43.3265069661724" lon="10.60838115386855"><ele>180.0</ele><time>2026-03-22T12:19:50Z</time></trkpt><trkpt lat="43.326422956027535" lon="10.608075343651645"><ele>183.0</ele><time>2026-03-22T12:19:51Z</time></trkpt><trkpt lat="43.326333349274094" lon="10.607761785542996"><ele>176.0</ele><time>2026-03-22T12:19:52Z</time></trkpt><trkpt lat="43.32623712959209" lon="10.607451266508908"><ele>169.0</ele><time>2026-03-22T12:19:53Z</time></trkpt><trkpt lat="43.32614698691722" lon="10.607158620071102"><ele>169.66666666666669</ele><time>2026-03-22T12:19:54Z</time></trkpt><trkpt lat="43.326060289013704" lon="10.606877417347969"><ele>170.33333333333334</ele><time>2026-03-22T12:19:55Z</time></trkpt><trkpt lat="43.32598166370448" lon="10.606613648781133"><ele>171.0</ele><time>2026-03-22T12:19:56Z</time></trkpt><trkpt lat="43.32590662825428" lon="10.606362404446822"><ele>171.66666666666666</ele><time>2026-03-22T12:19:57Z</time></trkpt><trkpt lat="43.32583461613824" lon="10.606113658334884"><ele>172.33333333333331</ele><time>2026-03-22T12:19:58Z</time></trkpt><trkpt lat="43.325777832348074" lon="10.605869471868926"><ele>173.0</ele><time>2026-03-22T12:19:59Z</time></trkpt><trkpt lat="43.32574816130614" lon="10.60562997394527"><ele>173.0</ele><time>2026-03-22T12:20:00Z</time></trkpt><trkpt lat="43.3257392699017" lon="10.605384215406572"><ele>173.0</ele><time>2026-03-22T12:20:01Z</time></trkpt><trkpt lat="43.32577520662514" lon="10.605133526182904"><ele>173.0</ele><time>2026-03-22T12:20:02Z</time></trkpt><trkpt lat="43.32584173348513" lon="10.604858556150417"><ele>173.0</ele><time>2026-03-22T12:20:03Z</time></trkpt><trkpt lat="43.325985039620946" lon="10.604610799897953"><ele>173.0</ele><time>2026-03-22T12:20:04Z</time></trkpt><trkpt lat="43.32611070156997" lon="10.604336806698669"><ele>172.66666666666666</ele><time>2026-03-22T12:20:05Z</time></trkpt><trkpt lat="43.326230969518924" lon="10.604092903206539"><ele>172.33333333333334</ele><time>2026-03-22T12:20:06Z</time></trkpt><trkpt lat="43.32633751889747" lon="10.603846368029533"><ele>172.0</ele><time>2026-03-22T12:20:07Z</time></trkpt><trkpt lat="43.326437562598905" lon="10.60356679021691"><ele>165.5</ele><time>2026-03-22T12:20:08Z</time></trkpt><trkpt lat="43.326532188714786" lon="10.603257431876974"><ele>159.0</ele><time>2026-03-22T12:20:09Z</time></trkpt><trkpt lat="43.32661121544246" lon="10.602957221694247"><ele>158.33333333333334</ele><time>2026-03-22T12:20:10Z</time></trkpt><trkpt lat="43.32667405425176" lon="10.602667909664763"><ele>157.66666666666669</ele><time>2026-03-22T12:20:10.999Z</time></trkpt><trkpt lat="43.326732877381495" lon="10.602388921390435"><ele>157.0</ele><time>2026-03-22T12:20:11.999Z</time></trkpt><trkpt lat="43.32678576730598" lon="10.602145369563546"><ele>155.66666666666669</ele><time>2026-03-22T12:20:12.999Z</time></trkpt><trkpt lat="43.32684363088873" lon="10.60191656441285"><ele>154.33333333333334</ele><time>2026-03-22T12:20:13.999Z</time></trkpt><trkpt lat="43.32694334272447" lon="10.601717559761482"><ele>153.0</ele><time>2026-03-22T12:20:14.999Z</time></trkpt><trkpt lat="43.32706054453276" lon="10.601524255885566"><ele>153.0</ele><time>2026-03-22T12:20:15.999Z</time></trkpt><trkpt lat="43.3271934631609" lon="10.601359157740944"><ele>153.0</ele><time>2026-03-22T12:20:16.999Z</time></trkpt><trkpt lat="43.32729571547743" lon="10.601169075408075"><ele>153.0</ele><time>2026-03-22T12:20:17.999Z</time></trkpt><trkpt lat="43.327382468205926" lon="10.600970705636996"><ele>149.33333333333334</ele><time>2026-03-22T12:20:18.999Z</time></trkpt><trkpt lat="43.32743890513489" lon="10.600750119410163"><ele>145.66666666666669</ele><time>2026-03-22T12:20:19.999Z</time></trkpt><trkpt lat="43.32747323067986" lon="10.600504543563206"><ele>142.0</ele><time>2026-03-22T12:20:20.999Z</time></trkpt><trkpt lat="43.32747415125378" lon="10.600242586524782"><ele>140.33333333333334</ele><time>2026-03-22T12:20:21.999Z</time></trkpt><trkpt lat="43.327432640606496" lon="10.599969328670168"><ele>138.66666666666666</ele><time>2026-03-22T12:20:22.999Z</time></trkpt><trkpt lat="43.32738226605257" lon="10.599670636775093"><ele>137.0</ele><time>2026-03-22T12:20:23.999Z</time></trkpt><trkpt lat="43.32729910770262" lon="10.599368951086042"><ele>137.0</ele><time>2026-03-22T12:20:24.999Z</time></trkpt><trkpt lat="43.327218677671716" lon="10.599061081316503"><ele>137.0</ele><time>2026-03-22T12:20:25.999Z</time></trkpt><trkpt lat="43.3271485857908" lon="10.598772518446523"><ele>135.66666666666666</ele><time>2026-03-22T12:20:26.999Z</time></trkpt><trkpt lat="43.327083335168155" lon="10.598494180341278"><ele>134.33333333333334</ele><time>2026-03-22T12:20:27.999Z</time></trkpt><trkpt lat="43.32702348119704" lon="10.598228121567727"><ele>133.0</ele><time>2026-03-22T12:20:28.999Z</time></trkpt><trkpt lat="43.326983656085446" lon="10.597964387183838"><ele>132.0</ele><time>2026-03-22T12:20:29.999Z</time></trkpt><trkpt lat="43.326969068274714" lon="10.597685294162858"><ele>131.0</ele><time>2026-03-22T12:20:30.999Z</time></trkpt><trkpt lat="43.32698988563242" lon="10.597394778575877"><ele>130.0</ele><time>2026-03-22T12:20:31.999Z</time></trkpt><trkpt lat="43.32704265341071" lon="10.597098870292152"><ele>127.5</ele><time>2026-03-22T12:20:32.999Z</time></trkpt><trkpt lat="43.32710459955847" lon="10.5967947597965"><ele>125.0</ele><time>2026-03-22T12:20:33.999Z</time></trkpt><trkpt lat="43.327155003766315" lon="10.596479387800834"><ele>123.5</ele><time>2026-03-22T12:20:34.999Z</time></trkpt><trkpt lat="43.3272193007312" lon="10.59616576101371"><ele>122.0</ele><time>2026-03-22T12:20:35.999Z</time></trkpt><trkpt lat="43.32728320383926" lon="10.595856521165622"><ele>124.33333333333333</ele><time>2026-03-22T12:20:37Z</time></trkpt><trkpt lat="43.32733588384145" lon="10.595578353379173"><ele>126.66666666666666</ele><time>2026-03-22T12:20:38Z</time></trkpt><trkpt lat="43.32737350593701" lon="10.595313329561167"><ele>129.0</ele><time>2026-03-22T12:20:39Z</time></trkpt><trkpt lat="43.327400562039735" lon="10.595026414596706"><ele>129.0</ele><time>2026-03-22T12:20:40Z</time></trkpt><trkpt lat="43.32740631039053" lon="10.594732089862067"><ele>129.0</ele><time>2026-03-22T12:20:41Z</time></trkpt><trkpt lat="43.327400368235736" lon="10.594418939232234"><ele>129.0</ele><time>2026-03-22T12:20:42Z</time></trkpt><trkpt lat="43.32737313443766" lon="10.594092788571247"><ele>129.0</ele><time>2026-03-22T12:20:43Z</time></trkpt><trkpt lat="43.32733661948855" lon="10.593741676499857"><ele>129.0</ele><time>2026-03-22T12:20:44Z</time></trkpt><trkpt lat="43.32730952448413" lon="10.593377911372725"><ele>129.0</ele><time>2026-03-22T12:20:45Z</time></trkpt><trkpt lat="43.32727040070696" lon="10.593043018817495"><ele>129.0</ele><time>2026-03-22T12:20:46Z</time></trkpt><trkpt lat="43.327234785800165" lon="10.592738568780819"><ele>127.33333333333334</ele><time>2026-03-22T12:20:47Z</time></trkpt><trkpt lat="43.32719681896447" lon="10.592448377900931"><ele>125.66666666666667</ele><time>2026-03-22T12:20:48Z</time></trkpt><trkpt lat="43.3271725486705" lon="10.59214954253932"><ele>124.0</ele><time>2026-03-22T12:20:49Z</time></trkpt><trkpt lat="43.32717252964844" lon="10.591867059136195"><ele>124.0</ele><time>2026-03-22T12:20:50Z</time></trkpt><trkpt lat="43.32720858849778" lon="10.591583877296678"><ele>124.0</ele><time>2026-03-22T12:20:51Z</time></trkpt><trkpt lat="43.327286345935654" lon="10.591307108748898"><ele>124.0</ele><time>2026-03-22T12:20:52Z</time></trkpt><trkpt lat="43.327390003370745" lon="10.591030830448972"><ele>127.0</ele><time>2026-03-22T12:20:53Z</time></trkpt><trkpt lat="43.32749865173096" lon="10.590753589933785"><ele>130.0</ele><time>2026-03-22T12:20:54Z</time></trkpt><trkpt lat="43.32761102817247" lon="10.590465529827295"><ele>128.5</ele><time>2026-03-22T12:20:55Z</time></trkpt><trkpt lat="43.32772646075693" lon="10.590168403785317"><ele>127.0</ele><time>2026-03-22T12:20:56Z</time></trkpt><trkpt lat="43.327848727243186" lon="10.58985547553232"><ele>127.0</ele><time>2026-03-22T12:20:57Z</time></trkpt><trkpt lat="43.32797606664973" lon="10.58952614796805"><ele>127.0</ele><time>2026-03-22T12:20:58Z</time></trkpt><trkpt lat="43.32810804319636" lon="10.589182230757274"><ele>124.0</ele><time>2026-03-22T12:20:59Z</time></trkpt><trkpt lat="43.32823898172324" lon="10.588847326204545"><ele>121.0</ele><time>2026-03-22T12:21:00Z</time></trkpt><trkpt lat="43.328367382800415" lon="10.588516259697888"><ele>121.0</ele><time>2026-03-22T12:21:01Z</time></trkpt><trkpt lat="43.328491924175914" lon="10.588197073437026"><ele>121.0</ele><time>2026-03-22T12:21:02Z</time></trkpt><trkpt lat="43.32860996351462" lon="10.587895556211146"><ele>119.0</ele><time>2026-03-22T12:21:03Z</time></trkpt><trkpt lat="43.328722329048865" lon="10.587606376491195"><ele>117.0</ele><time>2026-03-22T12:21:04Z</time></trkpt><trkpt lat="43.32882776200928" lon="10.587333693649152"><ele>117.0</ele><time>2026-03-22T12:21:05Z</time></trkpt><trkpt lat="43.328930686167475" lon="10.587067498991605"><ele>117.0</ele><time>2026-03-22T12:21:06Z</time></trkpt><trkpt lat="43.329028937695476" lon="10.586813090103663"><ele>117.0</ele><time>2026-03-22T12:21:07Z</time></trkpt><trkpt lat="43.32913093840397" lon="10.58654816712706"><ele>117.0</ele><time>2026-03-22T12:21:08Z</time></trkpt><trkpt lat="43.329231773561844" lon="10.586285952631039"><ele>117.0</ele><time>2026-03-22T12:21:09Z</time></trkpt><trkpt lat="43.32932576052575" lon="10.586039083885714"><ele>117.0</ele><time>2026-03-22T12:21:10Z</time></trkpt><trkpt lat="43.3294110671761" lon="10.58580864060478"><ele>116.66666666666666</ele><time>2026-03-22T12:21:11Z</time></trkpt><trkpt lat="43.3294811338362" lon="10.585580479539512"><ele>116.33333333333333</ele><time>2026-03-22T12:21:12Z</time></trkpt><trkpt lat="43.3295227326679" lon="10.585335316331562"><ele>116.0</ele><time>2026-03-22T12:21:13Z</time></trkpt><trkpt lat="43.329532190796215" lon="10.585076088355006"><ele>114.0</ele><time>2026-03-22T12:21:14Z</time></trkpt><trkpt lat="43.329516587788724" lon="10.58479792382578"><ele>112.0</ele><time>2026-03-22T12:21:15Z</time></trkpt><trkpt lat="43.329492327329845" lon="10.584508907701238"><ele>110.0</ele><time>2026-03-22T12:21:16Z</time></trkpt><trkpt lat="43.32947590166067" lon="10.584212964924026"><ele>109.0</ele><time>2026-03-22T12:21:17Z</time></trkpt><trkpt lat="43.32945140766767" lon="10.583911043880383"><ele>108.0</ele><time>2026-03-22T12:21:18Z</time></trkpt><trkpt lat="43.32942667693241" lon="10.583594035536178"><ele>106.5</ele><time>2026-03-22T12:21:19Z</time></trkpt><trkpt lat="43.329384175280516" lon="10.583274762589262"><ele>105.0</ele><time>2026-03-22T12:21:20Z</time></trkpt><trkpt lat="43.32937081620454" lon="10.582936316106421"><ele>103.5</ele><time>2026-03-22T12:21:21Z</time></trkpt><trkpt lat="43.32933766717542" lon="10.582589396795715"><ele>102.0</ele><time>2026-03-22T12:21:22Z</time></trkpt><trkpt lat="43.329308995397156" lon="10.582228925138125"><ele>102.0</ele><time>2026-03-22T12:21:23Z</time></trkpt><trkpt lat="43.329259445973804" lon="10.58187073161202"><ele>102.0</ele><time>2026-03-22T12:21:24Z</time></trkpt><trkpt lat="43.32924241854237" lon="10.58148917115184"><ele>100.5</ele><time>2026-03-22T12:21:25Z</time></trkpt><trkpt lat="43.329211053264025" lon="10.581091387153117"><ele>99.0</ele><time>2026-03-22T12:21:26Z</time></trkpt><trkpt lat="43.32917848321794" lon="10.580682270985307"><ele>99.0</ele><time>2026-03-22T12:21:27Z</time></trkpt><trkpt lat="43.32915957635356" lon="10.580259113278252"><ele>99.0</ele><time>2026-03-22T12:21:28Z</time></trkpt><trkpt lat="43.3291490162452" lon="10.579868464535446"><ele>97.0</ele><time>2026-03-22T12:21:29Z</time></trkpt><trkpt lat="43.32912136225837" lon="10.57949835574847"><ele>95.0</ele><time>2026-03-22T12:21:30Z</time></trkpt><trkpt lat="43.32910826262534" lon="10.579118543978906"><ele>95.0</ele><time>2026-03-22T12:21:31Z</time></trkpt><trkpt lat="43.329123433278326" lon="10.578731475773695"><ele>95.0</ele><time>2026-03-22T12:21:32Z</time></trkpt><trkpt lat="43.32911067083007" lon="10.578369997338312"><ele>94.0</ele><time>2026-03-22T12:21:33Z</time></trkpt><trkpt lat="43.32909794903974" lon="10.578028422176986"><ele>93.0</ele><time>2026-03-22T12:21:34Z</time></trkpt><trkpt lat="43.32908605276927" lon="10.577696229817493"><ele>91.5</ele><time>2026-03-22T12:21:35Z</time></trkpt><trkpt lat="43.32907650778622" lon="10.57736899297531"><ele>90.0</ele><time>2026-03-22T12:21:36Z</time></trkpt><trkpt lat="43.32906338585403" lon="10.577020243030587"><ele>88.5</ele><time>2026-03-22T12:21:37Z</time></trkpt><trkpt lat="43.329051146226455" lon="10.576674991813716"><ele>87.0</ele><time>2026-03-22T12:21:38Z</time></trkpt><trkpt lat="43.32903199539919" lon="10.576334659736748"><ele>86.0</ele><time>2026-03-22T12:21:39Z</time></trkpt><trkpt lat="43.329044972902494" lon="10.57601264673819"><ele>85.0</ele><time>2026-03-22T12:21:40Z</time></trkpt><trkpt lat="43.32908103509214" lon="10.575700762614364"><ele>85.0</ele><time>2026-03-22T12:21:41Z</time></trkpt><trkpt lat="43.329139814698806" lon="10.575403085407572"><ele>85.0</ele><time>2026-03-22T12:21:42Z</time></trkpt><trkpt lat="43.3292206198871" lon="10.57510621321845"><ele>82.0</ele><time>2026-03-22T12:21:43Z</time></trkpt><trkpt lat="43.32932780436823" lon="10.57482105529469"><ele>79.0</ele><time>2026-03-22T12:21:44Z</time></trkpt><trkpt lat="43.329461702235065" lon="10.57456496093113"><ele>76.33333333333333</ele><time>2026-03-22T12:21:45Z</time></trkpt><trkpt lat="43.3295959674445" lon="10.574343962051733"><ele>73.66666666666667</ele><time>2026-03-22T12:21:46Z</time></trkpt><trkpt lat="43.32970364635057" lon="10.574121968645718"><ele>71.0</ele><time>2026-03-22T12:21:47Z</time></trkpt><trkpt lat="43.32977327438507" lon="10.573892502432505"><ele>71.33333333333334</ele><time>2026-03-22T12:21:48Z</time></trkpt><trkpt lat="43.32980893218449" lon="10.57364699505216"><ele>71.66666666666667</ele><time>2026-03-22T12:21:49Z</time></trkpt><trkpt lat="43.32980485922318" lon="10.573388704359115"><ele>72.0</ele><time>2026-03-22T12:21:50Z</time></trkpt><trkpt lat="43.32976259994173" lon="10.573130864770167"><ele>69.66666666666667</ele><time>2026-03-22T12:21:51Z</time></trkpt><trkpt lat="43.329722461969595" lon="10.572896055636512"><ele>67.33333333333334</ele><time>2026-03-22T12:21:52Z</time></trkpt><trkpt lat="43.32971542506104" lon="10.572659966889027"><ele>65.0</ele><time>2026-03-22T12:21:53Z</time></trkpt><trkpt lat="43.329735395926335" lon="10.572414396753805"><ele>65.0</ele><time>2026-03-22T12:21:54Z</time></trkpt><trkpt lat="43.32982613769931" lon="10.572174188102354"><ele>65.0</ele><time>2026-03-22T12:21:55Z</time></trkpt><trkpt lat="43.329937343129174" lon="10.571969535493022"><ele>65.0</ele><time>2026-03-22T12:21:56Z</time></trkpt><trkpt lat="43.3300837372822" lon="10.571789644414109"><ele>62.0</ele><time>2026-03-22T12:21:57Z</time></trkpt><trkpt lat="43.330253509671046" lon="10.571663955133209"><ele>59.0</ele><time>2026-03-22T12:21:58Z</time></trkpt><trkpt lat="43.330448318196794" lon="10.571593174171566"><ele>56.0</ele><time>2026-03-22T12:21:59Z</time></trkpt><trkpt lat="43.33066870728487" lon="10.57153284965041"><ele>56.0</ele><time>2026-03-22T12:22:00Z</time></trkpt><trkpt lat="43.33087055195555" lon="10.571468777047286"><ele>56.0</ele><time>2026-03-22T12:22:01Z</time></trkpt><trkpt lat="43.33106452934294" lon="10.571408707616724"><ele>56.0</ele><time>2026-03-22T12:22:02Z</time></trkpt><trkpt lat="43.3312442235292" lon="10.571341539778473"><ele>53.66666666666667</ele><time>2026-03-22T12:22:03Z</time></trkpt><trkpt lat="43.33141250995349" lon="10.571279108782807"><ele>51.33333333333333</ele><time>2026-03-22T12:22:04Z</time></trkpt><trkpt lat="43.331534162342045" lon="10.571155912972495"><ele>49.0</ele><time>2026-03-22T12:22:05Z</time></trkpt><trkpt lat="43.33164589938401" lon="10.571020294616511"><ele>49.0</ele><time>2026-03-22T12:22:06Z</time></trkpt><trkpt lat="43.331729191706124" lon="10.570855715693643"><ele>49.0</ele><time>2026-03-22T12:22:07Z</time></trkpt><trkpt lat="43.331788086435836" lon="10.570667847793393"><ele>49.0</ele><time>2026-03-22T12:22:08Z</time></trkpt><trkpt lat="43.33181603940155" lon="10.57045685103542"><ele>48.0</ele><time>2026-03-22T12:22:09Z</time></trkpt><trkpt lat="43.33180819880882" lon="10.57021442688559"><ele>47.0</ele><time>2026-03-22T12:22:10Z</time></trkpt><trkpt lat="43.331755789317356" lon="10.569933165340677"><ele>46.0</ele><time>2026-03-22T12:22:11Z</time></trkpt><trkpt lat="43.331705069620426" lon="10.569641213425937"><ele>42.66666666666667</ele><time>2026-03-22T12:22:12Z</time></trkpt><trkpt lat="43.331678433720924" lon="10.569364068431222"><ele>39.333333333333336</ele><time>2026-03-22T12:22:13Z</time></trkpt><trkpt lat="43.3316602245254" lon="10.569105201167888"><ele>36.0</ele><time>2026-03-22T12:22:14Z</time></trkpt><trkpt lat="43.331631375880974" lon="10.568854905453156"><ele>33.666666666666664</ele><time>2026-03-22T12:22:15Z</time></trkpt><trkpt lat="43.33158385637839" lon="10.56861195266752"><ele>31.333333333333332</ele><time>2026-03-22T12:22:16Z</time></trkpt><trkpt lat="43.33151701890065" lon="10.568387801203587"><ele>29.0</ele><time>2026-03-22T12:22:17Z</time></trkpt><trkpt lat="43.331456134675726" lon="10.568177042840306"><ele>29.0</ele><time>2026-03-22T12:22:18Z</time></trkpt><trkpt lat="43.3314131039369" lon="10.567994301551694"><ele>29.0</ele><time>2026-03-22T12:22:19Z</time></trkpt><trkpt lat="43.33138598865572" lon="10.567818849558808"><ele>29.0</ele><time>2026-03-22T12:22:20Z</time></trkpt><trkpt lat="43.33136915835976" lon="10.567649009243393"><ele>29.0</ele><time>2026-03-22T12:22:21Z</time></trkpt><trkpt lat="43.33137153443488" lon="10.567474515266502"><ele>26.666666666666664</ele><time>2026-03-22T12:22:21.999Z</time></trkpt><trkpt lat="43.331395330476575" lon="10.567271002334428"><ele>24.333333333333332</ele><time>2026-03-22T12:22:22.999Z</time></trkpt><trkpt lat="43.33144836813471" lon="10.567035078831573"><ele>22.0</ele><time>2026-03-22T12:22:23.999Z</time></trkpt><trkpt lat="43.331522221145825" lon="10.566787685310267"><ele>20.5</ele><time>2026-03-22T12:22:24.999Z</time></trkpt><trkpt lat="43.331642784535866" lon="10.566529278204941"><ele>19.0</ele><time>2026-03-22T12:22:25.999Z</time></trkpt><trkpt lat="43.33177838278036" lon="10.566253939178768"><ele>18.0</ele><time>2026-03-22T12:22:26.999Z</time></trkpt><trkpt lat="43.33192949852972" lon="10.565947094323452"><ele>17.0</ele><time>2026-03-22T12:22:27.999Z</time></trkpt><trkpt lat="43.33210246449589" lon="10.565666674119987"><ele>16.0</ele><time>2026-03-22T12:22:28.999Z</time></trkpt><trkpt lat="43.33225763494602" lon="10.565341386420657"><ele>15.0</ele><time>2026-03-22T12:22:29.999Z</time></trkpt><trkpt lat="43.33242417640422" lon="10.565006495657341"><ele>15.0</ele><time>2026-03-22T12:22:30.999Z</time></trkpt><trkpt lat="43.3325959166533" lon="10.564667350926886"><ele>15.0</ele><time>2026-03-22T12:22:31.999Z</time></trkpt><trkpt lat="43.332723764659704" lon="10.564324253690966"><ele>15.0</ele><time>2026-03-22T12:22:32.999Z</time></trkpt><trkpt lat="43.33285386100995" lon="10.564058023573873"><ele>15.0</ele><time>2026-03-22T12:22:33.999Z</time></trkpt><trkpt lat="43.33296794405176" lon="10.563824725678726"><ele>15.0</ele><time>2026-03-22T12:22:34.999Z</time></trkpt><trkpt lat="43.33307528490863" lon="10.563605215589176"><ele>15.0</ele><time>2026-03-22T12:22:35.999Z</time></trkpt><trkpt lat="43.33317648581756" lon="10.563398261556838"><ele>15.0</ele><time>2026-03-22T12:22:36.999Z</time></trkpt><trkpt lat="43.33326814722971" lon="10.563212375553734"><ele>15.0</ele><time>2026-03-22T12:22:37.999Z</time></trkpt><trkpt lat="43.33334711550967" lon="10.563053328889948"><ele>15.0</ele><time>2026-03-22T12:22:38.999Z</time></trkpt><trkpt lat="43.33341800403795" lon="10.562910555656828"><ele>15.0</ele><time>2026-03-22T12:22:39.999Z</time></trkpt><trkpt lat="43.3334843471134" lon="10.562776936984486"><ele>15.0</ele><time>2026-03-22T12:22:40.999Z</time></trkpt><trkpt lat="43.33363626172099" lon="10.562752346968965"><ele>15.0</ele><time>2026-03-22T12:22:41.999Z</time></trkpt><trkpt lat="43.333714955475564" lon="10.562682335540595"><ele>15.166666666666666</ele><time>2026-03-22T12:22:43Z</time></trkpt><trkpt lat="43.33376547670134" lon="10.562607049766171"><ele>15.333333333333332</ele><time>2026-03-22T12:22:44Z</time></trkpt><trkpt lat="43.33378567123272" lon="10.56251551874074"><ele>15.5</ele><time>2026-03-22T12:22:45Z</time></trkpt><trkpt lat="43.33377099370515" lon="10.562424890342157"><ele>15.666666666666666</ele><time>2026-03-22T12:22:46Z</time></trkpt><trkpt lat="43.3337461187554" lon="10.562313421381788"><ele>15.833333333333332</ele><time>2026-03-22T12:22:47Z</time></trkpt><trkpt lat="43.33363607228878" lon="10.562217234520938"><ele>16.0</ele><time>2026-03-22T12:22:48Z</time></trkpt><trkpt lat="43.333530689260876" lon="10.562172138055987"><ele>16.25</ele><time>2026-03-22T12:22:49Z</time></trkpt><trkpt lat="43.33346229985214" lon="10.562028386522668"><ele>16.5</ele><time>2026-03-22T12:22:50Z</time></trkpt><trkpt lat="43.33339577051126" lon="10.56186459515345"><ele>16.75</ele><time>2026-03-22T12:22:51Z</time></trkpt><trkpt lat="43.333322528955826" lon="10.561685216446547"><ele>17.0</ele><time>2026-03-22T12:22:52Z</time></trkpt><trkpt lat="43.333236926572525" lon="10.561526056807441"><ele>17.0</ele><time>2026-03-22T12:22:53Z</time></trkpt><trkpt lat="43.333153684651656" lon="10.56137596656961"><ele>17.0</ele><time>2026-03-22T12:22:54Z</time></trkpt><trkpt lat="43.333065946348114" lon="10.561238452275411"><ele>17.0</ele><time>2026-03-22T12:22:55Z</time></trkpt><trkpt lat="43.332984440307285" lon="10.561115880402328"><ele>17.0</ele><time>2026-03-22T12:22:56Z</time></trkpt><trkpt lat="43.33291167879625" lon="10.56099751618826"><ele>16.666666666666668</ele><time>2026-03-22T12:22:57Z</time></trkpt><trkpt lat="43.33284802388823" lon="10.56089270507076"><ele>16.333333333333336</ele><time>2026-03-22T12:22:58Z</time></trkpt><trkpt lat="43.33278610382119" lon="10.56079181953955"><ele>16.0</ele><time>2026-03-22T12:22:59Z</time></trkpt><trkpt lat="43.33273250690603" lon="10.56071166684862"><ele>15.666666666666668</ele><time>2026-03-22T12:23:00Z</time></trkpt><trkpt lat="43.33265107533069" lon="10.560638999627106"><ele>15.333333333333334</ele><time>2026-03-22T12:23:02Z</time></trkpt><trkpt lat="43.33260524497516" lon="10.56056994499076"><ele>15.0</ele><time>2026-03-22T12:23:06Z</time></trkpt><trkpt lat="43.3325562537351" lon="10.560489013014447"><ele>15.0</ele><time>2026-03-22T12:23:09Z</time></trkpt><trkpt lat="43.33242745989801" lon="10.560654163123798"><ele>15.0</ele><time>2026-03-22T12:24:51Z</time></trkpt></trkseg></trk></gpx>